<?xml version="1.0"?>
<gpx
 version="1.1"
 creator="Satmap Active 20"
 xmlns:xsi="http://www.w3.org/2001/XMLSchema-instance"
 xmlns="http://www.topografix.com/GPX/1/1"
 xmlns:satmap="http://www.satmap.com/updates/xmlschemas/GpxExtensions/v2/GpxExtensions_v2.xsd"
 xsi:schemaLocation="http://www.topografix.com/GPX/1/1 http://www.topografix.com/GPX/1/1/gpx.xsd">
<metadata>
<time>2020-08-11T10:04:15Z</time>
<extensions>
<satmap:platform>43</satmap:platform>
<satmap:software version="3.12.831">SM15.exe</satmap:software>
<satmap:username>Jim Grant</satmap:username>
<satmap:network_ids>
<satmap:network_id type="wifi">00-23-A7-EC-D5-78</satmap:network_id>
<satmap:network_id type="bluetooth">80-BB-EB-D7-5B-7C</satmap:network_id>
</satmap:network_ids>
<satmap:snap_type>simple</satmap:snap_type>
</extensions>
</metadata>
<trk>
<name>2020-08-11_1004</name>
<desc>Track 1</desc>
<number>1</number>
<trkseg>
<trkpt lat="54.656568" lon="-2.981943"><ele>229</ele><time>2020-08-11T10:04:15Z</time><name>PT1</name></trkpt>
<trkpt lat="54.656557" lon="-2.981931"><ele>230</ele><time>2020-08-11T10:04:28Z</time><name>PT2</name></trkpt>
<trkpt lat="54.656547" lon="-2.981925"><ele>230</ele><time>2020-08-11T10:04:29Z</time><name>PT3</name></trkpt>
<trkpt lat="54.656534" lon="-2.981925"><ele>230</ele><time>2020-08-11T10:04:30Z</time><name>PT4</name></trkpt>
<trkpt lat="54.656522" lon="-2.981923"><ele>230</ele><time>2020-08-11T10:04:31Z</time><name>PT5</name></trkpt>
<trkpt lat="54.656511" lon="-2.981918"><ele>231</ele><time>2020-08-11T10:04:32Z</time><name>PT6</name></trkpt>
<trkpt lat="54.656501" lon="-2.981920"><ele>231</ele><time>2020-08-11T10:04:33Z</time><name>PT7</name></trkpt>
<trkpt lat="54.656490" lon="-2.981921"><ele>231</ele><time>2020-08-11T10:04:34Z</time><name>PT8</name></trkpt>
<trkpt lat="54.656485" lon="-2.981920"><ele>231</ele><time>2020-08-11T10:04:35Z</time><name>PT9</name></trkpt>
<trkpt lat="54.656486" lon="-2.981919"><ele>231</ele><time>2020-08-11T10:04:36Z</time><name>PT10</name></trkpt>
<trkpt lat="54.656481" lon="-2.981915"><ele>231</ele><time>2020-08-11T10:04:37Z</time><name>PT11</name></trkpt>
<trkpt lat="54.656470" lon="-2.981913"><ele>231</ele><time>2020-08-11T10:04:38Z</time><name>PT12</name></trkpt>
<trkpt lat="54.656455" lon="-2.981912"><ele>231</ele><time>2020-08-11T10:04:39Z</time><name>PT13</name></trkpt>
<trkpt lat="54.656446" lon="-2.981914"><ele>231</ele><time>2020-08-11T10:04:40Z</time><name>PT14</name></trkpt>
<trkpt lat="54.656437" lon="-2.981913"><ele>231</ele><time>2020-08-11T10:04:41Z</time><name>PT15</name></trkpt>
<trkpt lat="54.656423" lon="-2.981913"><ele>231</ele><time>2020-08-11T10:04:42Z</time><name>PT16</name></trkpt>
<trkpt lat="54.656407" lon="-2.981913"><ele>231</ele><time>2020-08-11T10:04:43Z</time><name>PT17</name></trkpt>
<trkpt lat="54.656392" lon="-2.981909"><ele>231</ele><time>2020-08-11T10:04:44Z</time><name>PT18</name></trkpt>
<trkpt lat="54.656373" lon="-2.981908"><ele>231</ele><time>2020-08-11T10:04:45Z</time><name>PT19</name></trkpt>
<trkpt lat="54.656357" lon="-2.981905"><ele>230</ele><time>2020-08-11T10:04:46Z</time><name>PT20</name></trkpt>
<trkpt lat="54.656342" lon="-2.981907"><ele>230</ele><time>2020-08-11T10:04:47Z</time><name>PT21</name></trkpt>
<trkpt lat="54.656332" lon="-2.981907"><ele>231</ele><time>2020-08-11T10:04:48Z</time><name>PT22</name></trkpt>
<trkpt lat="54.656322" lon="-2.981907"><ele>231</ele><time>2020-08-11T10:04:49Z</time><name>PT23</name></trkpt>
<trkpt lat="54.656308" lon="-2.981901"><ele>231</ele><time>2020-08-11T10:04:50Z</time><name>PT24</name></trkpt>
<trkpt lat="54.656300" lon="-2.981887"><ele>231</ele><time>2020-08-11T10:04:51Z</time><name>PT25</name></trkpt>
<trkpt lat="54.656296" lon="-2.981871"><ele>230</ele><time>2020-08-11T10:04:52Z</time><name>PT26</name></trkpt>
<trkpt lat="54.656294" lon="-2.981860"><ele>231</ele><time>2020-08-11T10:04:53Z</time><name>PT27</name></trkpt>
<trkpt lat="54.656294" lon="-2.981854"><ele>231</ele><time>2020-08-11T10:04:54Z</time><name>PT28</name></trkpt>
<trkpt lat="54.656294" lon="-2.981850"><ele>231</ele><time>2020-08-11T10:04:55Z</time><name>PT29</name></trkpt>
<trkpt lat="54.656292" lon="-2.981841"><ele>231</ele><time>2020-08-11T10:05:00Z</time><name>PT30</name></trkpt>
<trkpt lat="54.656289" lon="-2.981821"><ele>231</ele><time>2020-08-11T10:05:01Z</time><name>PT31</name></trkpt>
<trkpt lat="54.656287" lon="-2.981799"><ele>232</ele><time>2020-08-11T10:05:02Z</time><name>PT32</name></trkpt>
<trkpt lat="54.656286" lon="-2.981781"><ele>231</ele><time>2020-08-11T10:05:03Z</time><name>PT33</name></trkpt>
<trkpt lat="54.656284" lon="-2.981762"><ele>231</ele><time>2020-08-11T10:05:04Z</time><name>PT34</name></trkpt>
<trkpt lat="54.656286" lon="-2.981740"><ele>232</ele><time>2020-08-11T10:05:05Z</time><name>PT35</name></trkpt>
<trkpt lat="54.656290" lon="-2.981720"><ele>232</ele><time>2020-08-11T10:05:06Z</time><name>PT36</name></trkpt>
<trkpt lat="54.656292" lon="-2.981702"><ele>232</ele><time>2020-08-11T10:05:07Z</time><name>PT37</name></trkpt>
<trkpt lat="54.656295" lon="-2.981680"><ele>233</ele><time>2020-08-11T10:05:08Z</time><name>PT38</name></trkpt>
<trkpt lat="54.656296" lon="-2.981665"><ele>233</ele><time>2020-08-11T10:05:09Z</time><name>PT39</name></trkpt>
<trkpt lat="54.656295" lon="-2.981647"><ele>233</ele><time>2020-08-11T10:05:10Z</time><name>PT40</name></trkpt>
<trkpt lat="54.656295" lon="-2.981629"><ele>233</ele><time>2020-08-11T10:05:11Z</time><name>PT41</name></trkpt>
<trkpt lat="54.656294" lon="-2.981604"><ele>233</ele><time>2020-08-11T10:05:12Z</time><name>PT42</name></trkpt>
<trkpt lat="54.656294" lon="-2.981585"><ele>233</ele><time>2020-08-11T10:05:13Z</time><name>PT43</name></trkpt>
<trkpt lat="54.656294" lon="-2.981569"><ele>233</ele><time>2020-08-11T10:05:14Z</time><name>PT44</name></trkpt>
<trkpt lat="54.656296" lon="-2.981551"><ele>233</ele><time>2020-08-11T10:05:15Z</time><name>PT45</name></trkpt>
<trkpt lat="54.656300" lon="-2.981526"><ele>234</ele><time>2020-08-11T10:05:16Z</time><name>PT46</name></trkpt>
<trkpt lat="54.656301" lon="-2.981503"><ele>234</ele><time>2020-08-11T10:05:17Z</time><name>PT47</name></trkpt>
<trkpt lat="54.656301" lon="-2.981487"><ele>234</ele><time>2020-08-11T10:05:18Z</time><name>PT48</name></trkpt>
<trkpt lat="54.656302" lon="-2.981466"><ele>234</ele><time>2020-08-11T10:05:19Z</time><name>PT49</name></trkpt>
<trkpt lat="54.656304" lon="-2.981448"><ele>234</ele><time>2020-08-11T10:05:20Z</time><name>PT50</name></trkpt>
<trkpt lat="54.656308" lon="-2.981423"><ele>235</ele><time>2020-08-11T10:05:21Z</time><name>PT51</name></trkpt>
<trkpt lat="54.656311" lon="-2.981401"><ele>235</ele><time>2020-08-11T10:05:22Z</time><name>PT52</name></trkpt>
<trkpt lat="54.656313" lon="-2.981384"><ele>235</ele><time>2020-08-11T10:05:23Z</time><name>PT53</name></trkpt>
<trkpt lat="54.656316" lon="-2.981366"><ele>235</ele><time>2020-08-11T10:05:24Z</time><name>PT54</name></trkpt>
<trkpt lat="54.656317" lon="-2.981346"><ele>235</ele><time>2020-08-11T10:05:25Z</time><name>PT55</name></trkpt>
<trkpt lat="54.656320" lon="-2.981324"><ele>235</ele><time>2020-08-11T10:05:26Z</time><name>PT56</name></trkpt>
<trkpt lat="54.656324" lon="-2.981306"><ele>235</ele><time>2020-08-11T10:05:27Z</time><name>PT57</name></trkpt>
<trkpt lat="54.656326" lon="-2.981292"><ele>235</ele><time>2020-08-11T10:05:28Z</time><name>PT58</name></trkpt>
<trkpt lat="54.656328" lon="-2.981273"><ele>235</ele><time>2020-08-11T10:05:29Z</time><name>PT59</name></trkpt>
<trkpt lat="54.656332" lon="-2.981254"><ele>235</ele><time>2020-08-11T10:05:30Z</time><name>PT60</name></trkpt>
<trkpt lat="54.656333" lon="-2.981229"><ele>235</ele><time>2020-08-11T10:05:31Z</time><name>PT61</name></trkpt>
<trkpt lat="54.656332" lon="-2.981213"><ele>235</ele><time>2020-08-11T10:05:32Z</time><name>PT62</name></trkpt>
<trkpt lat="54.656331" lon="-2.981193"><ele>235</ele><time>2020-08-11T10:05:33Z</time><name>PT63</name></trkpt>
<trkpt lat="54.656333" lon="-2.981172"><ele>235</ele><time>2020-08-11T10:05:34Z</time><name>PT64</name></trkpt>
<trkpt lat="54.656337" lon="-2.981147"><ele>235</ele><time>2020-08-11T10:05:35Z</time><name>PT65</name></trkpt>
<trkpt lat="54.656339" lon="-2.981125"><ele>235</ele><time>2020-08-11T10:05:36Z</time><name>PT66</name></trkpt>
<trkpt lat="54.656339" lon="-2.981109"><ele>235</ele><time>2020-08-11T10:05:37Z</time><name>PT67</name></trkpt>
<trkpt lat="54.656338" lon="-2.981093"><ele>235</ele><time>2020-08-11T10:05:38Z</time><name>PT68</name></trkpt>
<trkpt lat="54.656338" lon="-2.981075"><ele>234</ele><time>2020-08-11T10:05:39Z</time><name>PT69</name></trkpt>
<trkpt lat="54.656344" lon="-2.981052"><ele>234</ele><time>2020-08-11T10:05:40Z</time><name>PT70</name></trkpt>
<trkpt lat="54.656345" lon="-2.981034"><ele>234</ele><time>2020-08-11T10:05:41Z</time><name>PT71</name></trkpt>
<trkpt lat="54.656344" lon="-2.981019"><ele>234</ele><time>2020-08-11T10:05:42Z</time><name>PT72</name></trkpt>
<trkpt lat="54.656345" lon="-2.980999"><ele>234</ele><time>2020-08-11T10:05:43Z</time><name>PT73</name></trkpt>
<trkpt lat="54.656343" lon="-2.980979"><ele>234</ele><time>2020-08-11T10:05:44Z</time><name>PT74</name></trkpt>
<trkpt lat="54.656345" lon="-2.980957"><ele>234</ele><time>2020-08-11T10:05:45Z</time><name>PT75</name></trkpt>
<trkpt lat="54.656347" lon="-2.980946"><ele>234</ele><time>2020-08-11T10:05:46Z</time><name>PT76</name></trkpt>
<trkpt lat="54.656348" lon="-2.980938"><ele>233</ele><time>2020-08-11T10:05:47Z</time><name>PT77</name></trkpt>
<trkpt lat="54.656342" lon="-2.980909"><ele>234</ele><time>2020-08-11T10:05:48Z</time><name>PT78</name></trkpt>
<trkpt lat="54.656343" lon="-2.980902"><ele>234</ele><time>2020-08-11T10:05:49Z</time><name>PT79</name></trkpt>
<trkpt lat="54.656340" lon="-2.980899"><ele>234</ele><time>2020-08-11T10:05:50Z</time><name>PT80</name></trkpt>
<trkpt lat="54.656339" lon="-2.980899"><ele>234</ele><time>2020-08-11T10:05:51Z</time><name>PT81</name></trkpt>
<trkpt lat="54.656340" lon="-2.980897"><ele>234</ele><time>2020-08-11T10:06:07Z</time><name>PT82</name></trkpt>
<trkpt lat="54.656341" lon="-2.980874"><ele>234</ele><time>2020-08-11T10:06:08Z</time><name>PT83</name></trkpt>
<trkpt lat="54.656333" lon="-2.980849"><ele>234</ele><time>2020-08-11T10:06:09Z</time><name>PT84</name></trkpt>
<trkpt lat="54.656338" lon="-2.980828"><ele>233</ele><time>2020-08-11T10:06:10Z</time><name>PT85</name></trkpt>
<trkpt lat="54.656344" lon="-2.980798"><ele>233</ele><time>2020-08-11T10:06:11Z</time><name>PT86</name></trkpt>
<trkpt lat="54.656350" lon="-2.980773"><ele>233</ele><time>2020-08-11T10:06:12Z</time><name>PT87</name></trkpt>
<trkpt lat="54.656351" lon="-2.980757"><ele>233</ele><time>2020-08-11T10:06:13Z</time><name>PT88</name></trkpt>
<trkpt lat="54.656353" lon="-2.980738"><ele>232</ele><time>2020-08-11T10:06:14Z</time><name>PT89</name></trkpt>
<trkpt lat="54.656355" lon="-2.980717"><ele>233</ele><time>2020-08-11T10:06:15Z</time><name>PT90</name></trkpt>
<trkpt lat="54.656356" lon="-2.980698"><ele>232</ele><time>2020-08-11T10:06:16Z</time><name>PT91</name></trkpt>
<trkpt lat="54.656354" lon="-2.980681"><ele>232</ele><time>2020-08-11T10:06:17Z</time><name>PT92</name></trkpt>
<trkpt lat="54.656353" lon="-2.980663"><ele>232</ele><time>2020-08-11T10:06:18Z</time><name>PT93</name></trkpt>
<trkpt lat="54.656356" lon="-2.980642"><ele>233</ele><time>2020-08-11T10:06:19Z</time><name>PT94</name></trkpt>
<trkpt lat="54.656361" lon="-2.980618"><ele>233</ele><time>2020-08-11T10:06:20Z</time><name>PT95</name></trkpt>
<trkpt lat="54.656367" lon="-2.980599"><ele>233</ele><time>2020-08-11T10:06:21Z</time><name>PT96</name></trkpt>
<trkpt lat="54.656369" lon="-2.980586"><ele>233</ele><time>2020-08-11T10:06:22Z</time><name>PT97</name></trkpt>
<trkpt lat="54.656373" lon="-2.980573"><ele>233</ele><time>2020-08-11T10:06:23Z</time><name>PT98</name></trkpt>
<trkpt lat="54.656377" lon="-2.980552"><ele>233</ele><time>2020-08-11T10:06:24Z</time><name>PT99</name></trkpt>
<trkpt lat="54.656381" lon="-2.980535"><ele>234</ele><time>2020-08-11T10:06:25Z</time><name>PT100</name></trkpt>
<trkpt lat="54.656383" lon="-2.980521"><ele>233</ele><time>2020-08-11T10:06:26Z</time><name>PT101</name></trkpt>
<trkpt lat="54.656386" lon="-2.980500"><ele>234</ele><time>2020-08-11T10:06:27Z</time><name>PT102</name></trkpt>
<trkpt lat="54.656390" lon="-2.980480"><ele>234</ele><time>2020-08-11T10:06:28Z</time><name>PT103</name></trkpt>
<trkpt lat="54.656395" lon="-2.980463"><ele>234</ele><time>2020-08-11T10:06:29Z</time><name>PT104</name></trkpt>
<trkpt lat="54.656400" lon="-2.980445"><ele>234</ele><time>2020-08-11T10:06:30Z</time><name>PT105</name></trkpt>
<trkpt lat="54.656406" lon="-2.980429"><ele>234</ele><time>2020-08-11T10:06:31Z</time><name>PT106</name></trkpt>
<trkpt lat="54.656412" lon="-2.980409"><ele>234</ele><time>2020-08-11T10:06:32Z</time><name>PT107</name></trkpt>
<trkpt lat="54.656416" lon="-2.980392"><ele>234</ele><time>2020-08-11T10:06:33Z</time><name>PT108</name></trkpt>
<trkpt lat="54.656418" lon="-2.980376"><ele>234</ele><time>2020-08-11T10:06:34Z</time><name>PT109</name></trkpt>
<trkpt lat="54.656420" lon="-2.980360"><ele>234</ele><time>2020-08-11T10:06:35Z</time><name>PT110</name></trkpt>
<trkpt lat="54.656423" lon="-2.980336"><ele>234</ele><time>2020-08-11T10:06:36Z</time><name>PT111</name></trkpt>
<trkpt lat="54.656424" lon="-2.980317"><ele>234</ele><time>2020-08-11T10:06:37Z</time><name>PT112</name></trkpt>
<trkpt lat="54.656424" lon="-2.980302"><ele>234</ele><time>2020-08-11T10:06:38Z</time><name>PT113</name></trkpt>
<trkpt lat="54.656425" lon="-2.980283"><ele>234</ele><time>2020-08-11T10:06:39Z</time><name>PT114</name></trkpt>
<trkpt lat="54.656423" lon="-2.980258"><ele>234</ele><time>2020-08-11T10:06:40Z</time><name>PT115</name></trkpt>
<trkpt lat="54.656420" lon="-2.980236"><ele>235</ele><time>2020-08-11T10:06:41Z</time><name>PT116</name></trkpt>
<trkpt lat="54.656417" lon="-2.980218"><ele>235</ele><time>2020-08-11T10:06:42Z</time><name>PT117</name></trkpt>
<trkpt lat="54.656416" lon="-2.980198"><ele>234</ele><time>2020-08-11T10:06:43Z</time><name>PT118</name></trkpt>
<trkpt lat="54.656417" lon="-2.980173"><ele>235</ele><time>2020-08-11T10:06:44Z</time><name>PT119</name></trkpt>
<trkpt lat="54.656417" lon="-2.980147"><ele>235</ele><time>2020-08-11T10:06:45Z</time><name>PT120</name></trkpt>
<trkpt lat="54.656416" lon="-2.980130"><ele>235</ele><time>2020-08-11T10:06:46Z</time><name>PT121</name></trkpt>
<trkpt lat="54.656416" lon="-2.980114"><ele>234</ele><time>2020-08-11T10:06:47Z</time><name>PT122</name></trkpt>
<trkpt lat="54.656417" lon="-2.980101"><ele>234</ele><time>2020-08-11T10:06:48Z</time><name>PT123</name></trkpt>
<trkpt lat="54.656417" lon="-2.980078"><ele>234</ele><time>2020-08-11T10:06:49Z</time><name>PT124</name></trkpt>
<trkpt lat="54.656416" lon="-2.980060"><ele>234</ele><time>2020-08-11T10:06:50Z</time><name>PT125</name></trkpt>
<trkpt lat="54.656413" lon="-2.980042"><ele>235</ele><time>2020-08-11T10:06:51Z</time><name>PT126</name></trkpt>
<trkpt lat="54.656415" lon="-2.980023"><ele>235</ele><time>2020-08-11T10:06:52Z</time><name>PT127</name></trkpt>
<trkpt lat="54.656417" lon="-2.979997"><ele>235</ele><time>2020-08-11T10:06:53Z</time><name>PT128</name></trkpt>
<trkpt lat="54.656420" lon="-2.979975"><ele>235</ele><time>2020-08-11T10:06:54Z</time><name>PT129</name></trkpt>
<trkpt lat="54.656421" lon="-2.979959"><ele>235</ele><time>2020-08-11T10:06:55Z</time><name>PT130</name></trkpt>
<trkpt lat="54.656421" lon="-2.979941"><ele>235</ele><time>2020-08-11T10:06:56Z</time><name>PT131</name></trkpt>
<trkpt lat="54.656422" lon="-2.979916"><ele>235</ele><time>2020-08-11T10:06:57Z</time><name>PT132</name></trkpt>
<trkpt lat="54.656426" lon="-2.979893"><ele>234</ele><time>2020-08-11T10:06:58Z</time><name>PT133</name></trkpt>
<trkpt lat="54.656427" lon="-2.979873"><ele>235</ele><time>2020-08-11T10:06:59Z</time><name>PT134</name></trkpt>
<trkpt lat="54.656425" lon="-2.979852"><ele>235</ele><time>2020-08-11T10:07:00Z</time><name>PT135</name></trkpt>
<trkpt lat="54.656426" lon="-2.979829"><ele>234</ele><time>2020-08-11T10:07:01Z</time><name>PT136</name></trkpt>
<trkpt lat="54.656428" lon="-2.979805"><ele>235</ele><time>2020-08-11T10:07:02Z</time><name>PT137</name></trkpt>
<trkpt lat="54.656429" lon="-2.979779"><ele>234</ele><time>2020-08-11T10:07:03Z</time><name>PT138</name></trkpt>
<trkpt lat="54.656430" lon="-2.979762"><ele>234</ele><time>2020-08-11T10:07:04Z</time><name>PT139</name></trkpt>
<trkpt lat="54.656429" lon="-2.979748"><ele>234</ele><time>2020-08-11T10:07:05Z</time><name>PT140</name></trkpt>
<trkpt lat="54.656430" lon="-2.979728"><ele>234</ele><time>2020-08-11T10:07:06Z</time><name>PT141</name></trkpt>
<trkpt lat="54.656431" lon="-2.979701"><ele>234</ele><time>2020-08-11T10:07:07Z</time><name>PT142</name></trkpt>
<trkpt lat="54.656430" lon="-2.979680"><ele>234</ele><time>2020-08-11T10:07:08Z</time><name>PT143</name></trkpt>
<trkpt lat="54.656429" lon="-2.979662"><ele>234</ele><time>2020-08-11T10:07:09Z</time><name>PT144</name></trkpt>
<trkpt lat="54.656431" lon="-2.979645"><ele>234</ele><time>2020-08-11T10:07:10Z</time><name>PT145</name></trkpt>
<trkpt lat="54.656431" lon="-2.979626"><ele>234</ele><time>2020-08-11T10:07:11Z</time><name>PT146</name></trkpt>
<trkpt lat="54.656435" lon="-2.979602"><ele>234</ele><time>2020-08-11T10:07:12Z</time><name>PT147</name></trkpt>
<trkpt lat="54.656436" lon="-2.979586"><ele>234</ele><time>2020-08-11T10:07:13Z</time><name>PT148</name></trkpt>
<trkpt lat="54.656435" lon="-2.979570"><ele>233</ele><time>2020-08-11T10:07:14Z</time><name>PT149</name></trkpt>
<trkpt lat="54.656436" lon="-2.979550"><ele>233</ele><time>2020-08-11T10:07:15Z</time><name>PT150</name></trkpt>
<trkpt lat="54.656437" lon="-2.979524"><ele>234</ele><time>2020-08-11T10:07:16Z</time><name>PT151</name></trkpt>
<trkpt lat="54.656438" lon="-2.979507"><ele>234</ele><time>2020-08-11T10:07:17Z</time><name>PT152</name></trkpt>
<trkpt lat="54.656439" lon="-2.979492"><ele>233</ele><time>2020-08-11T10:07:18Z</time><name>PT153</name></trkpt>
<trkpt lat="54.656440" lon="-2.979473"><ele>233</ele><time>2020-08-11T10:07:19Z</time><name>PT154</name></trkpt>
<trkpt lat="54.656440" lon="-2.979447"><ele>234</ele><time>2020-08-11T10:07:20Z</time><name>PT155</name></trkpt>
<trkpt lat="54.656441" lon="-2.979430"><ele>234</ele><time>2020-08-11T10:07:21Z</time><name>PT156</name></trkpt>
<trkpt lat="54.656442" lon="-2.979411"><ele>234</ele><time>2020-08-11T10:07:22Z</time><name>PT157</name></trkpt>
<trkpt lat="54.656444" lon="-2.979392"><ele>234</ele><time>2020-08-11T10:07:23Z</time><name>PT158</name></trkpt>
<trkpt lat="54.656446" lon="-2.979369"><ele>234</ele><time>2020-08-11T10:07:24Z</time><name>PT159</name></trkpt>
<trkpt lat="54.656450" lon="-2.979347"><ele>234</ele><time>2020-08-11T10:07:25Z</time><name>PT160</name></trkpt>
<trkpt lat="54.656456" lon="-2.979292"><ele>234</ele><time>2020-08-11T10:07:28Z</time><name>PT161</name></trkpt>
<trkpt lat="54.656455" lon="-2.979209"><ele>234</ele><time>2020-08-11T10:07:32Z</time><name>PT162</name></trkpt>
<trkpt lat="54.656451" lon="-2.979146"><ele>233</ele><time>2020-08-11T10:07:35Z</time><name>PT163</name></trkpt>
<trkpt lat="54.656456" lon="-2.979059"><ele>233</ele><time>2020-08-11T10:07:39Z</time><name>PT164</name></trkpt>
<trkpt lat="54.656466" lon="-2.978986"><ele>233</ele><time>2020-08-11T10:07:43Z</time><name>PT165</name></trkpt>
<trkpt lat="54.656464" lon="-2.978916"><ele>234</ele><time>2020-08-11T10:07:46Z</time><name>PT166</name></trkpt>
<trkpt lat="54.656466" lon="-2.978858"><ele>234</ele><time>2020-08-11T10:07:49Z</time><name>PT167</name></trkpt>
<trkpt lat="54.656475" lon="-2.978796"><ele>234</ele><time>2020-08-11T10:07:52Z</time><name>PT168</name></trkpt>
<trkpt lat="54.656480" lon="-2.978710"><ele>234</ele><time>2020-08-11T10:07:56Z</time><name>PT169</name></trkpt>
<trkpt lat="54.656486" lon="-2.978626"><ele>234</ele><time>2020-08-11T10:08:00Z</time><name>PT170</name></trkpt>
<trkpt lat="54.656489" lon="-2.978545"><ele>234</ele><time>2020-08-11T10:08:04Z</time><name>PT171</name></trkpt>
<trkpt lat="54.656497" lon="-2.978473"><ele>234</ele><time>2020-08-11T10:08:08Z</time><name>PT172</name></trkpt>
<trkpt lat="54.656501" lon="-2.978424"><ele>234</ele><time>2020-08-11T10:08:11Z</time><name>PT173</name></trkpt>
<trkpt lat="54.656516" lon="-2.978361"><ele>234</ele><time>2020-08-11T10:08:15Z</time><name>PT174</name></trkpt>
<trkpt lat="54.656522" lon="-2.978350"><ele>234</ele><time>2020-08-11T10:08:19Z</time><name>PT175</name></trkpt>
<trkpt lat="54.656522" lon="-2.978347"><ele>234</ele><time>2020-08-11T10:08:23Z</time><name>PT176</name></trkpt>
<trkpt lat="54.656510" lon="-2.978305"><ele>234</ele><time>2020-08-11T10:08:26Z</time><name>PT177</name></trkpt>
<trkpt lat="54.656516" lon="-2.978210"><ele>233</ele><time>2020-08-11T10:08:30Z</time><name>PT178</name></trkpt>
<trkpt lat="54.656515" lon="-2.978173"><ele>234</ele><time>2020-08-11T10:08:32Z</time><name>PT179</name></trkpt>
<trkpt lat="54.656513" lon="-2.978157"><ele>234</ele><time>2020-08-11T10:08:33Z</time><name>PT180</name></trkpt>
<trkpt lat="54.656511" lon="-2.978137"><ele>234</ele><time>2020-08-11T10:08:34Z</time><name>PT181</name></trkpt>
<trkpt lat="54.656510" lon="-2.978121"><ele>234</ele><time>2020-08-11T10:08:35Z</time><name>PT182</name></trkpt>
<trkpt lat="54.656511" lon="-2.978100"><ele>234</ele><time>2020-08-11T10:08:36Z</time><name>PT183</name></trkpt>
<trkpt lat="54.656510" lon="-2.978081"><ele>234</ele><time>2020-08-11T10:08:37Z</time><name>PT184</name></trkpt>
<trkpt lat="54.656510" lon="-2.978061"><ele>234</ele><time>2020-08-11T10:08:38Z</time><name>PT185</name></trkpt>
<trkpt lat="54.656509" lon="-2.978043"><ele>234</ele><time>2020-08-11T10:08:39Z</time><name>PT186</name></trkpt>
<trkpt lat="54.656508" lon="-2.978022"><ele>234</ele><time>2020-08-11T10:08:40Z</time><name>PT187</name></trkpt>
<trkpt lat="54.656507" lon="-2.978002"><ele>234</ele><time>2020-08-11T10:08:41Z</time><name>PT188</name></trkpt>
<trkpt lat="54.656507" lon="-2.977982"><ele>234</ele><time>2020-08-11T10:08:42Z</time><name>PT189</name></trkpt>
<trkpt lat="54.656507" lon="-2.977963"><ele>234</ele><time>2020-08-11T10:08:43Z</time><name>PT190</name></trkpt>
<trkpt lat="54.656506" lon="-2.977941"><ele>234</ele><time>2020-08-11T10:08:44Z</time><name>PT191</name></trkpt>
<trkpt lat="54.656508" lon="-2.977919"><ele>234</ele><time>2020-08-11T10:08:45Z</time><name>PT192</name></trkpt>
<trkpt lat="54.656509" lon="-2.977898"><ele>234</ele><time>2020-08-11T10:08:46Z</time><name>PT193</name></trkpt>
<trkpt lat="54.656508" lon="-2.977878"><ele>234</ele><time>2020-08-11T10:08:47Z</time><name>PT194</name></trkpt>
<trkpt lat="54.656509" lon="-2.977858"><ele>234</ele><time>2020-08-11T10:08:48Z</time><name>PT195</name></trkpt>
<trkpt lat="54.656508" lon="-2.977835"><ele>234</ele><time>2020-08-11T10:08:49Z</time><name>PT196</name></trkpt>
<trkpt lat="54.656508" lon="-2.977813"><ele>234</ele><time>2020-08-11T10:08:50Z</time><name>PT197</name></trkpt>
<trkpt lat="54.656507" lon="-2.977793"><ele>234</ele><time>2020-08-11T10:08:51Z</time><name>PT198</name></trkpt>
<trkpt lat="54.656507" lon="-2.977774"><ele>234</ele><time>2020-08-11T10:08:52Z</time><name>PT199</name></trkpt>
<trkpt lat="54.656508" lon="-2.977754"><ele>234</ele><time>2020-08-11T10:08:53Z</time><name>PT200</name></trkpt>
<trkpt lat="54.656511" lon="-2.977733"><ele>234</ele><time>2020-08-11T10:08:54Z</time><name>PT201</name></trkpt>
<trkpt lat="54.656514" lon="-2.977712"><ele>235</ele><time>2020-08-11T10:08:55Z</time><name>PT202</name></trkpt>
<trkpt lat="54.656514" lon="-2.977690"><ele>235</ele><time>2020-08-11T10:08:56Z</time><name>PT203</name></trkpt>
<trkpt lat="54.656514" lon="-2.977671"><ele>235</ele><time>2020-08-11T10:08:57Z</time><name>PT204</name></trkpt>
<trkpt lat="54.656516" lon="-2.977653"><ele>235</ele><time>2020-08-11T10:08:58Z</time><name>PT205</name></trkpt>
<trkpt lat="54.656519" lon="-2.977635"><ele>235</ele><time>2020-08-11T10:08:59Z</time><name>PT206</name></trkpt>
<trkpt lat="54.656521" lon="-2.977615"><ele>235</ele><time>2020-08-11T10:09:00Z</time><name>PT207</name></trkpt>
<trkpt lat="54.656524" lon="-2.977597"><ele>235</ele><time>2020-08-11T10:09:01Z</time><name>PT208</name></trkpt>
<trkpt lat="54.656527" lon="-2.977576"><ele>235</ele><time>2020-08-11T10:09:02Z</time><name>PT209</name></trkpt>
<trkpt lat="54.656530" lon="-2.977557"><ele>235</ele><time>2020-08-11T10:09:03Z</time><name>PT210</name></trkpt>
<trkpt lat="54.656531" lon="-2.977540"><ele>234</ele><time>2020-08-11T10:09:04Z</time><name>PT211</name></trkpt>
<trkpt lat="54.656531" lon="-2.977522"><ele>234</ele><time>2020-08-11T10:09:05Z</time><name>PT212</name></trkpt>
<trkpt lat="54.656532" lon="-2.977502"><ele>234</ele><time>2020-08-11T10:09:06Z</time><name>PT213</name></trkpt>
<trkpt lat="54.656531" lon="-2.977479"><ele>234</ele><time>2020-08-11T10:09:07Z</time><name>PT214</name></trkpt>
<trkpt lat="54.656530" lon="-2.977458"><ele>234</ele><time>2020-08-11T10:09:08Z</time><name>PT215</name></trkpt>
<trkpt lat="54.656527" lon="-2.977438"><ele>234</ele><time>2020-08-11T10:09:09Z</time><name>PT216</name></trkpt>
<trkpt lat="54.656525" lon="-2.977418"><ele>234</ele><time>2020-08-11T10:09:10Z</time><name>PT217</name></trkpt>
<trkpt lat="54.656522" lon="-2.977397"><ele>234</ele><time>2020-08-11T10:09:11Z</time><name>PT218</name></trkpt>
<trkpt lat="54.656519" lon="-2.977376"><ele>234</ele><time>2020-08-11T10:09:12Z</time><name>PT219</name></trkpt>
<trkpt lat="54.656517" lon="-2.977355"><ele>234</ele><time>2020-08-11T10:09:13Z</time><name>PT220</name></trkpt>
<trkpt lat="54.656515" lon="-2.977335"><ele>234</ele><time>2020-08-11T10:09:14Z</time><name>PT221</name></trkpt>
<trkpt lat="54.656513" lon="-2.977316"><ele>234</ele><time>2020-08-11T10:09:15Z</time><name>PT222</name></trkpt>
<trkpt lat="54.656511" lon="-2.977295"><ele>234</ele><time>2020-08-11T10:09:16Z</time><name>PT223</name></trkpt>
<trkpt lat="54.656510" lon="-2.977277"><ele>234</ele><time>2020-08-11T10:09:17Z</time><name>PT224</name></trkpt>
<trkpt lat="54.656508" lon="-2.977258"><ele>234</ele><time>2020-08-11T10:09:18Z</time><name>PT225</name></trkpt>
<trkpt lat="54.656504" lon="-2.977239"><ele>234</ele><time>2020-08-11T10:09:19Z</time><name>PT226</name></trkpt>
<trkpt lat="54.656501" lon="-2.977221"><ele>234</ele><time>2020-08-11T10:09:20Z</time><name>PT227</name></trkpt>
<trkpt lat="54.656497" lon="-2.977200"><ele>234</ele><time>2020-08-11T10:09:21Z</time><name>PT228</name></trkpt>
<trkpt lat="54.656494" lon="-2.977182"><ele>234</ele><time>2020-08-11T10:09:22Z</time><name>PT229</name></trkpt>
<trkpt lat="54.656488" lon="-2.977166"><ele>234</ele><time>2020-08-11T10:09:23Z</time><name>PT230</name></trkpt>
<trkpt lat="54.656484" lon="-2.977144"><ele>234</ele><time>2020-08-11T10:09:24Z</time><name>PT231</name></trkpt>
<trkpt lat="54.656480" lon="-2.977125"><ele>234</ele><time>2020-08-11T10:09:25Z</time><name>PT232</name></trkpt>
<trkpt lat="54.656478" lon="-2.977107"><ele>234</ele><time>2020-08-11T10:09:26Z</time><name>PT233</name></trkpt>
<trkpt lat="54.656479" lon="-2.977088"><ele>234</ele><time>2020-08-11T10:09:27Z</time><name>PT234</name></trkpt>
<trkpt lat="54.656479" lon="-2.977067"><ele>234</ele><time>2020-08-11T10:09:28Z</time><name>PT235</name></trkpt>
<trkpt lat="54.656479" lon="-2.977046"><ele>234</ele><time>2020-08-11T10:09:29Z</time><name>PT236</name></trkpt>
<trkpt lat="54.656480" lon="-2.977024"><ele>234</ele><time>2020-08-11T10:09:30Z</time><name>PT237</name></trkpt>
<trkpt lat="54.656479" lon="-2.977005"><ele>234</ele><time>2020-08-11T10:09:31Z</time><name>PT238</name></trkpt>
<trkpt lat="54.656479" lon="-2.976985"><ele>234</ele><time>2020-08-11T10:09:32Z</time><name>PT239</name></trkpt>
<trkpt lat="54.656479" lon="-2.976962"><ele>234</ele><time>2020-08-11T10:09:33Z</time><name>PT240</name></trkpt>
<trkpt lat="54.656480" lon="-2.976939"><ele>234</ele><time>2020-08-11T10:09:34Z</time><name>PT241</name></trkpt>
<trkpt lat="54.656481" lon="-2.976917"><ele>234</ele><time>2020-08-11T10:09:35Z</time><name>PT242</name></trkpt>
<trkpt lat="54.656482" lon="-2.976897"><ele>234</ele><time>2020-08-11T10:09:36Z</time><name>PT243</name></trkpt>
<trkpt lat="54.656483" lon="-2.976877"><ele>234</ele><time>2020-08-11T10:09:37Z</time><name>PT244</name></trkpt>
<trkpt lat="54.656484" lon="-2.976856"><ele>234</ele><time>2020-08-11T10:09:38Z</time><name>PT245</name></trkpt>
<trkpt lat="54.656488" lon="-2.976833"><ele>234</ele><time>2020-08-11T10:09:39Z</time><name>PT246</name></trkpt>
<trkpt lat="54.656490" lon="-2.976811"><ele>234</ele><time>2020-08-11T10:09:40Z</time><name>PT247</name></trkpt>
<trkpt lat="54.656490" lon="-2.976790"><ele>234</ele><time>2020-08-11T10:09:41Z</time><name>PT248</name></trkpt>
<trkpt lat="54.656489" lon="-2.976769"><ele>235</ele><time>2020-08-11T10:09:42Z</time><name>PT249</name></trkpt>
<trkpt lat="54.656489" lon="-2.976747"><ele>235</ele><time>2020-08-11T10:09:43Z</time><name>PT250</name></trkpt>
<trkpt lat="54.656490" lon="-2.976728"><ele>235</ele><time>2020-08-11T10:09:44Z</time><name>PT251</name></trkpt>
<trkpt lat="54.656491" lon="-2.976709"><ele>235</ele><time>2020-08-11T10:09:45Z</time><name>PT252</name></trkpt>
<trkpt lat="54.656490" lon="-2.976688"><ele>235</ele><time>2020-08-11T10:09:46Z</time><name>PT253</name></trkpt>
<trkpt lat="54.656489" lon="-2.976669"><ele>235</ele><time>2020-08-11T10:09:47Z</time><name>PT254</name></trkpt>
<trkpt lat="54.656489" lon="-2.976648"><ele>235</ele><time>2020-08-11T10:09:48Z</time><name>PT255</name></trkpt>
<trkpt lat="54.656488" lon="-2.976628"><ele>235</ele><time>2020-08-11T10:09:49Z</time><name>PT256</name></trkpt>
<trkpt lat="54.656486" lon="-2.976607"><ele>235</ele><time>2020-08-11T10:09:50Z</time><name>PT257</name></trkpt>
<trkpt lat="54.656486" lon="-2.976587"><ele>235</ele><time>2020-08-11T10:09:51Z</time><name>PT258</name></trkpt>
<trkpt lat="54.656487" lon="-2.976565"><ele>235</ele><time>2020-08-11T10:09:52Z</time><name>PT259</name></trkpt>
<trkpt lat="54.656488" lon="-2.976545"><ele>235</ele><time>2020-08-11T10:09:53Z</time><name>PT260</name></trkpt>
<trkpt lat="54.656489" lon="-2.976524"><ele>235</ele><time>2020-08-11T10:09:54Z</time><name>PT261</name></trkpt>
<trkpt lat="54.656491" lon="-2.976504"><ele>236</ele><time>2020-08-11T10:09:55Z</time><name>PT262</name></trkpt>
<trkpt lat="54.656494" lon="-2.976483"><ele>236</ele><time>2020-08-11T10:09:56Z</time><name>PT263</name></trkpt>
<trkpt lat="54.656498" lon="-2.976461"><ele>236</ele><time>2020-08-11T10:09:57Z</time><name>PT264</name></trkpt>
<trkpt lat="54.656501" lon="-2.976441"><ele>236</ele><time>2020-08-11T10:09:58Z</time><name>PT265</name></trkpt>
<trkpt lat="54.656501" lon="-2.976421"><ele>236</ele><time>2020-08-11T10:09:59Z</time><name>PT266</name></trkpt>
<trkpt lat="54.656501" lon="-2.976401"><ele>236</ele><time>2020-08-11T10:10:00Z</time><name>PT267</name></trkpt>
<trkpt lat="54.656502" lon="-2.976380"><ele>236</ele><time>2020-08-11T10:10:01Z</time><name>PT268</name></trkpt>
<trkpt lat="54.656504" lon="-2.976359"><ele>236</ele><time>2020-08-11T10:10:02Z</time><name>PT269</name></trkpt>
<trkpt lat="54.656505" lon="-2.976339"><ele>236</ele><time>2020-08-11T10:10:03Z</time><name>PT270</name></trkpt>
<trkpt lat="54.656508" lon="-2.976319"><ele>236</ele><time>2020-08-11T10:10:04Z</time><name>PT271</name></trkpt>
<trkpt lat="54.656509" lon="-2.976298"><ele>236</ele><time>2020-08-11T10:10:05Z</time><name>PT272</name></trkpt>
<trkpt lat="54.656507" lon="-2.976277"><ele>236</ele><time>2020-08-11T10:10:06Z</time><name>PT273</name></trkpt>
<trkpt lat="54.656508" lon="-2.976257"><ele>236</ele><time>2020-08-11T10:10:07Z</time><name>PT274</name></trkpt>
<trkpt lat="54.656510" lon="-2.976237"><ele>236</ele><time>2020-08-11T10:10:08Z</time><name>PT275</name></trkpt>
<trkpt lat="54.656511" lon="-2.976215"><ele>236</ele><time>2020-08-11T10:10:09Z</time><name>PT276</name></trkpt>
<trkpt lat="54.656515" lon="-2.976194"><ele>236</ele><time>2020-08-11T10:10:10Z</time><name>PT277</name></trkpt>
<trkpt lat="54.656518" lon="-2.976171"><ele>236</ele><time>2020-08-11T10:10:11Z</time><name>PT278</name></trkpt>
<trkpt lat="54.656522" lon="-2.976150"><ele>236</ele><time>2020-08-11T10:10:12Z</time><name>PT279</name></trkpt>
<trkpt lat="54.656524" lon="-2.976130"><ele>236</ele><time>2020-08-11T10:10:13Z</time><name>PT280</name></trkpt>
<trkpt lat="54.656528" lon="-2.976108"><ele>236</ele><time>2020-08-11T10:10:14Z</time><name>PT281</name></trkpt>
<trkpt lat="54.656533" lon="-2.976088"><ele>236</ele><time>2020-08-11T10:10:15Z</time><name>PT282</name></trkpt>
<trkpt lat="54.656539" lon="-2.976067"><ele>236</ele><time>2020-08-11T10:10:16Z</time><name>PT283</name></trkpt>
<trkpt lat="54.656544" lon="-2.976047"><ele>236</ele><time>2020-08-11T10:10:17Z</time><name>PT284</name></trkpt>
<trkpt lat="54.656548" lon="-2.976026"><ele>237</ele><time>2020-08-11T10:10:18Z</time><name>PT285</name></trkpt>
<trkpt lat="54.656551" lon="-2.976004"><ele>236</ele><time>2020-08-11T10:10:19Z</time><name>PT286</name></trkpt>
<trkpt lat="54.656553" lon="-2.975981"><ele>237</ele><time>2020-08-11T10:10:20Z</time><name>PT287</name></trkpt>
<trkpt lat="54.656556" lon="-2.975960"><ele>236</ele><time>2020-08-11T10:10:21Z</time><name>PT288</name></trkpt>
<trkpt lat="54.656560" lon="-2.975942"><ele>237</ele><time>2020-08-11T10:10:22Z</time><name>PT289</name></trkpt>
<trkpt lat="54.656567" lon="-2.975926"><ele>236</ele><time>2020-08-11T10:10:23Z</time><name>PT290</name></trkpt>
<trkpt lat="54.656573" lon="-2.975907"><ele>236</ele><time>2020-08-11T10:10:24Z</time><name>PT291</name></trkpt>
<trkpt lat="54.656578" lon="-2.975887"><ele>236</ele><time>2020-08-11T10:10:25Z</time><name>PT292</name></trkpt>
<trkpt lat="54.656582" lon="-2.975868"><ele>236</ele><time>2020-08-11T10:10:26Z</time><name>PT293</name></trkpt>
<trkpt lat="54.656586" lon="-2.975851"><ele>236</ele><time>2020-08-11T10:10:27Z</time><name>PT294</name></trkpt>
<trkpt lat="54.656590" lon="-2.975830"><ele>236</ele><time>2020-08-11T10:10:28Z</time><name>PT295</name></trkpt>
<trkpt lat="54.656595" lon="-2.975809"><ele>236</ele><time>2020-08-11T10:10:29Z</time><name>PT296</name></trkpt>
<trkpt lat="54.656601" lon="-2.975789"><ele>236</ele><time>2020-08-11T10:10:30Z</time><name>PT297</name></trkpt>
<trkpt lat="54.656605" lon="-2.975769"><ele>236</ele><time>2020-08-11T10:10:31Z</time><name>PT298</name></trkpt>
<trkpt lat="54.656612" lon="-2.975753"><ele>236</ele><time>2020-08-11T10:10:32Z</time><name>PT299</name></trkpt>
<trkpt lat="54.656619" lon="-2.975740"><ele>236</ele><time>2020-08-11T10:10:33Z</time><name>PT300</name></trkpt>
<trkpt lat="54.656624" lon="-2.975728"><ele>237</ele><time>2020-08-11T10:10:34Z</time><name>PT301</name></trkpt>
<trkpt lat="54.656629" lon="-2.975712"><ele>236</ele><time>2020-08-11T10:10:35Z</time><name>PT302</name></trkpt>
<trkpt lat="54.656633" lon="-2.975693"><ele>236</ele><time>2020-08-11T10:10:36Z</time><name>PT303</name></trkpt>
<trkpt lat="54.656635" lon="-2.975672"><ele>236</ele><time>2020-08-11T10:10:37Z</time><name>PT304</name></trkpt>
<trkpt lat="54.656639" lon="-2.975655"><ele>237</ele><time>2020-08-11T10:10:38Z</time><name>PT305</name></trkpt>
<trkpt lat="54.656644" lon="-2.975636"><ele>236</ele><time>2020-08-11T10:10:39Z</time><name>PT306</name></trkpt>
<trkpt lat="54.656649" lon="-2.975617"><ele>237</ele><time>2020-08-11T10:10:40Z</time><name>PT307</name></trkpt>
<trkpt lat="54.656654" lon="-2.975595"><ele>237</ele><time>2020-08-11T10:10:41Z</time><name>PT308</name></trkpt>
<trkpt lat="54.656658" lon="-2.975576"><ele>237</ele><time>2020-08-11T10:10:42Z</time><name>PT309</name></trkpt>
<trkpt lat="54.656662" lon="-2.975558"><ele>236</ele><time>2020-08-11T10:10:43Z</time><name>PT310</name></trkpt>
<trkpt lat="54.656666" lon="-2.975540"><ele>236</ele><time>2020-08-11T10:10:44Z</time><name>PT311</name></trkpt>
<trkpt lat="54.656671" lon="-2.975521"><ele>236</ele><time>2020-08-11T10:10:45Z</time><name>PT312</name></trkpt>
<trkpt lat="54.656674" lon="-2.975505"><ele>236</ele><time>2020-08-11T10:10:46Z</time><name>PT313</name></trkpt>
<trkpt lat="54.656677" lon="-2.975490"><ele>236</ele><time>2020-08-11T10:10:47Z</time><name>PT314</name></trkpt>
<trkpt lat="54.656682" lon="-2.975480"><ele>236</ele><time>2020-08-11T10:10:48Z</time><name>PT315</name></trkpt>
<trkpt lat="54.656685" lon="-2.975468"><ele>236</ele><time>2020-08-11T10:10:49Z</time><name>PT316</name></trkpt>
<trkpt lat="54.656687" lon="-2.975458"><ele>236</ele><time>2020-08-11T10:10:50Z</time><name>PT317</name></trkpt>
<trkpt lat="54.656692" lon="-2.975449"><ele>237</ele><time>2020-08-11T10:10:51Z</time><name>PT318</name></trkpt>
<trkpt lat="54.656695" lon="-2.975440"><ele>237</ele><time>2020-08-11T10:10:52Z</time><name>PT319</name></trkpt>
<trkpt lat="54.656696" lon="-2.975435"><ele>237</ele><time>2020-08-11T10:10:53Z</time><name>PT320</name></trkpt>
<trkpt lat="54.656698" lon="-2.975439"><ele>237</ele><time>2020-08-11T10:10:54Z</time><name>PT321</name></trkpt>
<trkpt lat="54.656689" lon="-2.975439"><ele>236</ele><time>2020-08-11T10:10:55Z</time><name>PT322</name></trkpt>
<trkpt lat="54.656686" lon="-2.975439"><ele>236</ele><time>2020-08-11T10:10:56Z</time><name>PT323</name></trkpt>
<trkpt lat="54.656689" lon="-2.975439"><ele>236</ele><time>2020-08-11T10:10:57Z</time><name>PT324</name></trkpt>
<trkpt lat="54.656692" lon="-2.975437"><ele>236</ele><time>2020-08-11T10:10:58Z</time><name>PT325</name></trkpt>
<trkpt lat="54.656693" lon="-2.975417"><ele>236</ele><time>2020-08-11T10:10:59Z</time><name>PT326</name></trkpt>
<trkpt lat="54.656698" lon="-2.975399"><ele>235</ele><time>2020-08-11T10:11:00Z</time><name>PT327</name></trkpt>
<trkpt lat="54.656704" lon="-2.975387"><ele>236</ele><time>2020-08-11T10:11:01Z</time><name>PT328</name></trkpt>
<trkpt lat="54.656711" lon="-2.975371"><ele>236</ele><time>2020-08-11T10:11:02Z</time><name>PT329</name></trkpt>
<trkpt lat="54.656718" lon="-2.975355"><ele>235</ele><time>2020-08-11T10:11:03Z</time><name>PT330</name></trkpt>
<trkpt lat="54.656725" lon="-2.975333"><ele>236</ele><time>2020-08-11T10:11:04Z</time><name>PT331</name></trkpt>
<trkpt lat="54.656732" lon="-2.975312"><ele>236</ele><time>2020-08-11T10:11:05Z</time><name>PT332</name></trkpt>
<trkpt lat="54.656739" lon="-2.975293"><ele>236</ele><time>2020-08-11T10:11:06Z</time><name>PT333</name></trkpt>
<trkpt lat="54.656745" lon="-2.975268"><ele>236</ele><time>2020-08-11T10:11:07Z</time><name>PT334</name></trkpt>
<trkpt lat="54.656755" lon="-2.975255"><ele>236</ele><time>2020-08-11T10:11:08Z</time><name>PT335</name></trkpt>
<trkpt lat="54.656766" lon="-2.975241"><ele>236</ele><time>2020-08-11T10:11:09Z</time><name>PT336</name></trkpt>
<trkpt lat="54.656773" lon="-2.975219"><ele>236</ele><time>2020-08-11T10:11:10Z</time><name>PT337</name></trkpt>
<trkpt lat="54.656780" lon="-2.975200"><ele>236</ele><time>2020-08-11T10:11:11Z</time><name>PT338</name></trkpt>
<trkpt lat="54.656788" lon="-2.975182"><ele>236</ele><time>2020-08-11T10:11:12Z</time><name>PT339</name></trkpt>
<trkpt lat="54.656794" lon="-2.975164"><ele>236</ele><time>2020-08-11T10:11:13Z</time><name>PT340</name></trkpt>
<trkpt lat="54.656800" lon="-2.975145"><ele>236</ele><time>2020-08-11T10:11:14Z</time><name>PT341</name></trkpt>
<trkpt lat="54.656807" lon="-2.975127"><ele>236</ele><time>2020-08-11T10:11:15Z</time><name>PT342</name></trkpt>
<trkpt lat="54.656814" lon="-2.975110"><ele>236</ele><time>2020-08-11T10:11:16Z</time><name>PT343</name></trkpt>
<trkpt lat="54.656820" lon="-2.975094"><ele>236</ele><time>2020-08-11T10:11:17Z</time><name>PT344</name></trkpt>
<trkpt lat="54.656826" lon="-2.975078"><ele>236</ele><time>2020-08-11T10:11:18Z</time><name>PT345</name></trkpt>
<trkpt lat="54.656833" lon="-2.975060"><ele>236</ele><time>2020-08-11T10:11:19Z</time><name>PT346</name></trkpt>
<trkpt lat="54.656838" lon="-2.975042"><ele>236</ele><time>2020-08-11T10:11:20Z</time><name>PT347</name></trkpt>
<trkpt lat="54.656844" lon="-2.975023"><ele>236</ele><time>2020-08-11T10:11:21Z</time><name>PT348</name></trkpt>
<trkpt lat="54.656849" lon="-2.975004"><ele>236</ele><time>2020-08-11T10:11:22Z</time><name>PT349</name></trkpt>
<trkpt lat="54.656854" lon="-2.974985"><ele>236</ele><time>2020-08-11T10:11:23Z</time><name>PT350</name></trkpt>
<trkpt lat="54.656857" lon="-2.974967"><ele>236</ele><time>2020-08-11T10:11:24Z</time><name>PT351</name></trkpt>
<trkpt lat="54.656859" lon="-2.974947"><ele>236</ele><time>2020-08-11T10:11:25Z</time><name>PT352</name></trkpt>
<trkpt lat="54.656862" lon="-2.974926"><ele>236</ele><time>2020-08-11T10:11:26Z</time><name>PT353</name></trkpt>
<trkpt lat="54.656866" lon="-2.974901"><ele>236</ele><time>2020-08-11T10:11:27Z</time><name>PT354</name></trkpt>
<trkpt lat="54.656870" lon="-2.974879"><ele>236</ele><time>2020-08-11T10:11:28Z</time><name>PT355</name></trkpt>
<trkpt lat="54.656872" lon="-2.974860"><ele>236</ele><time>2020-08-11T10:11:29Z</time><name>PT356</name></trkpt>
<trkpt lat="54.656874" lon="-2.974841"><ele>236</ele><time>2020-08-11T10:11:30Z</time><name>PT357</name></trkpt>
<trkpt lat="54.656874" lon="-2.974820"><ele>236</ele><time>2020-08-11T10:11:31Z</time><name>PT358</name></trkpt>
<trkpt lat="54.656873" lon="-2.974800"><ele>236</ele><time>2020-08-11T10:11:32Z</time><name>PT359</name></trkpt>
<trkpt lat="54.656873" lon="-2.974718"><ele>235</ele><time>2020-08-11T10:11:36Z</time><name>PT360</name></trkpt>
<trkpt lat="54.656875" lon="-2.974676"><ele>235</ele><time>2020-08-11T10:11:38Z</time><name>PT361</name></trkpt>
<trkpt lat="54.656876" lon="-2.974658"><ele>235</ele><time>2020-08-11T10:11:39Z</time><name>PT362</name></trkpt>
<trkpt lat="54.656877" lon="-2.974639"><ele>235</ele><time>2020-08-11T10:11:40Z</time><name>PT363</name></trkpt>
<trkpt lat="54.656876" lon="-2.974620"><ele>235</ele><time>2020-08-11T10:11:41Z</time><name>PT364</name></trkpt>
<trkpt lat="54.656875" lon="-2.974599"><ele>235</ele><time>2020-08-11T10:11:42Z</time><name>PT365</name></trkpt>
<trkpt lat="54.656874" lon="-2.974578"><ele>235</ele><time>2020-08-11T10:11:43Z</time><name>PT366</name></trkpt>
<trkpt lat="54.656873" lon="-2.974558"><ele>235</ele><time>2020-08-11T10:11:44Z</time><name>PT367</name></trkpt>
<trkpt lat="54.656871" lon="-2.974537"><ele>234</ele><time>2020-08-11T10:11:45Z</time><name>PT368</name></trkpt>
<trkpt lat="54.656870" lon="-2.974517"><ele>234</ele><time>2020-08-11T10:11:46Z</time><name>PT369</name></trkpt>
<trkpt lat="54.656868" lon="-2.974497"><ele>234</ele><time>2020-08-11T10:11:47Z</time><name>PT370</name></trkpt>
<trkpt lat="54.656863" lon="-2.974478"><ele>234</ele><time>2020-08-11T10:11:48Z</time><name>PT371</name></trkpt>
<trkpt lat="54.656858" lon="-2.974461"><ele>234</ele><time>2020-08-11T10:11:49Z</time><name>PT372</name></trkpt>
<trkpt lat="54.656852" lon="-2.974440"><ele>234</ele><time>2020-08-11T10:11:50Z</time><name>PT373</name></trkpt>
<trkpt lat="54.656842" lon="-2.974427"><ele>233</ele><time>2020-08-11T10:11:51Z</time><name>PT374</name></trkpt>
<trkpt lat="54.656836" lon="-2.974411"><ele>233</ele><time>2020-08-11T10:11:52Z</time><name>PT375</name></trkpt>
<trkpt lat="54.656829" lon="-2.974391"><ele>233</ele><time>2020-08-11T10:11:53Z</time><name>PT376</name></trkpt>
<trkpt lat="54.656824" lon="-2.974374"><ele>233</ele><time>2020-08-11T10:11:54Z</time><name>PT377</name></trkpt>
<trkpt lat="54.656820" lon="-2.974354"><ele>233</ele><time>2020-08-11T10:11:55Z</time><name>PT378</name></trkpt>
<trkpt lat="54.656815" lon="-2.974334"><ele>233</ele><time>2020-08-11T10:11:56Z</time><name>PT379</name></trkpt>
<trkpt lat="54.656812" lon="-2.974315"><ele>233</ele><time>2020-08-11T10:11:57Z</time><name>PT380</name></trkpt>
<trkpt lat="54.656809" lon="-2.974291"><ele>233</ele><time>2020-08-11T10:11:58Z</time><name>PT381</name></trkpt>
<trkpt lat="54.656806" lon="-2.974268"><ele>233</ele><time>2020-08-11T10:11:59Z</time><name>PT382</name></trkpt>
<trkpt lat="54.656804" lon="-2.974249"><ele>233</ele><time>2020-08-11T10:12:00Z</time><name>PT383</name></trkpt>
<trkpt lat="54.656804" lon="-2.974227"><ele>233</ele><time>2020-08-11T10:12:01Z</time><name>PT384</name></trkpt>
<trkpt lat="54.656804" lon="-2.974205"><ele>233</ele><time>2020-08-11T10:12:02Z</time><name>PT385</name></trkpt>
<trkpt lat="54.656803" lon="-2.974184"><ele>233</ele><time>2020-08-11T10:12:03Z</time><name>PT386</name></trkpt>
<trkpt lat="54.656802" lon="-2.974161"><ele>233</ele><time>2020-08-11T10:12:04Z</time><name>PT387</name></trkpt>
<trkpt lat="54.656799" lon="-2.974140"><ele>232</ele><time>2020-08-11T10:12:05Z</time><name>PT388</name></trkpt>
<trkpt lat="54.656798" lon="-2.974120"><ele>232</ele><time>2020-08-11T10:12:06Z</time><name>PT389</name></trkpt>
<trkpt lat="54.656798" lon="-2.974099"><ele>232</ele><time>2020-08-11T10:12:07Z</time><name>PT390</name></trkpt>
<trkpt lat="54.656797" lon="-2.974078"><ele>232</ele><time>2020-08-11T10:12:08Z</time><name>PT391</name></trkpt>
<trkpt lat="54.656798" lon="-2.974056"><ele>232</ele><time>2020-08-11T10:12:09Z</time><name>PT392</name></trkpt>
<trkpt lat="54.656800" lon="-2.974035"><ele>232</ele><time>2020-08-11T10:12:10Z</time><name>PT393</name></trkpt>
<trkpt lat="54.656803" lon="-2.974017"><ele>232</ele><time>2020-08-11T10:12:11Z</time><name>PT394</name></trkpt>
<trkpt lat="54.656807" lon="-2.973996"><ele>232</ele><time>2020-08-11T10:12:12Z</time><name>PT395</name></trkpt>
<trkpt lat="54.656812" lon="-2.973977"><ele>232</ele><time>2020-08-11T10:12:13Z</time><name>PT396</name></trkpt>
<trkpt lat="54.656817" lon="-2.973955"><ele>232</ele><time>2020-08-11T10:12:14Z</time><name>PT397</name></trkpt>
<trkpt lat="54.656823" lon="-2.973934"><ele>232</ele><time>2020-08-11T10:12:15Z</time><name>PT398</name></trkpt>
<trkpt lat="54.656829" lon="-2.973912"><ele>232</ele><time>2020-08-11T10:12:16Z</time><name>PT399</name></trkpt>
<trkpt lat="54.656834" lon="-2.973891"><ele>232</ele><time>2020-08-11T10:12:17Z</time><name>PT400</name></trkpt>
<trkpt lat="54.656837" lon="-2.973870"><ele>232</ele><time>2020-08-11T10:12:18Z</time><name>PT401</name></trkpt>
<trkpt lat="54.656838" lon="-2.973850"><ele>232</ele><time>2020-08-11T10:12:19Z</time><name>PT402</name></trkpt>
<trkpt lat="54.656840" lon="-2.973830"><ele>232</ele><time>2020-08-11T10:12:20Z</time><name>PT403</name></trkpt>
<trkpt lat="54.656843" lon="-2.973809"><ele>232</ele><time>2020-08-11T10:12:21Z</time><name>PT404</name></trkpt>
<trkpt lat="54.656847" lon="-2.973788"><ele>232</ele><time>2020-08-11T10:12:22Z</time><name>PT405</name></trkpt>
<trkpt lat="54.656851" lon="-2.973769"><ele>232</ele><time>2020-08-11T10:12:23Z</time><name>PT406</name></trkpt>
<trkpt lat="54.656857" lon="-2.973751"><ele>232</ele><time>2020-08-11T10:12:24Z</time><name>PT407</name></trkpt>
<trkpt lat="54.656862" lon="-2.973731"><ele>232</ele><time>2020-08-11T10:12:25Z</time><name>PT408</name></trkpt>
<trkpt lat="54.656869" lon="-2.973711"><ele>232</ele><time>2020-08-11T10:12:26Z</time><name>PT409</name></trkpt>
<trkpt lat="54.656877" lon="-2.973692"><ele>232</ele><time>2020-08-11T10:12:27Z</time><name>PT410</name></trkpt>
<trkpt lat="54.656885" lon="-2.973675"><ele>232</ele><time>2020-08-11T10:12:28Z</time><name>PT411</name></trkpt>
<trkpt lat="54.656893" lon="-2.973658"><ele>232</ele><time>2020-08-11T10:12:29Z</time><name>PT412</name></trkpt>
<trkpt lat="54.656900" lon="-2.973640"><ele>232</ele><time>2020-08-11T10:12:30Z</time><name>PT413</name></trkpt>
<trkpt lat="54.656906" lon="-2.973622"><ele>232</ele><time>2020-08-11T10:12:31Z</time><name>PT414</name></trkpt>
<trkpt lat="54.656915" lon="-2.973602"><ele>232</ele><time>2020-08-11T10:12:32Z</time><name>PT415</name></trkpt>
<trkpt lat="54.656923" lon="-2.973586"><ele>232</ele><time>2020-08-11T10:12:33Z</time><name>PT416</name></trkpt>
<trkpt lat="54.656932" lon="-2.973573"><ele>232</ele><time>2020-08-11T10:12:34Z</time><name>PT417</name></trkpt>
<trkpt lat="54.656942" lon="-2.973560"><ele>232</ele><time>2020-08-11T10:12:35Z</time><name>PT418</name></trkpt>
<trkpt lat="54.656952" lon="-2.973546"><ele>232</ele><time>2020-08-11T10:12:36Z</time><name>PT419</name></trkpt>
<trkpt lat="54.656957" lon="-2.973531"><ele>232</ele><time>2020-08-11T10:12:37Z</time><name>PT420</name></trkpt>
<trkpt lat="54.656963" lon="-2.973516"><ele>232</ele><time>2020-08-11T10:12:38Z</time><name>PT421</name></trkpt>
<trkpt lat="54.656968" lon="-2.973499"><ele>233</ele><time>2020-08-11T10:12:39Z</time><name>PT422</name></trkpt>
<trkpt lat="54.656971" lon="-2.973480"><ele>233</ele><time>2020-08-11T10:12:40Z</time><name>PT423</name></trkpt>
<trkpt lat="54.656975" lon="-2.973460"><ele>233</ele><time>2020-08-11T10:12:41Z</time><name>PT424</name></trkpt>
<trkpt lat="54.656979" lon="-2.973442"><ele>233</ele><time>2020-08-11T10:12:42Z</time><name>PT425</name></trkpt>
<trkpt lat="54.656982" lon="-2.973424"><ele>233</ele><time>2020-08-11T10:12:43Z</time><name>PT426</name></trkpt>
<trkpt lat="54.656985" lon="-2.973405"><ele>233</ele><time>2020-08-11T10:12:44Z</time><name>PT427</name></trkpt>
<trkpt lat="54.656989" lon="-2.973387"><ele>233</ele><time>2020-08-11T10:12:45Z</time><name>PT428</name></trkpt>
<trkpt lat="54.656993" lon="-2.973365"><ele>233</ele><time>2020-08-11T10:12:46Z</time><name>PT429</name></trkpt>
<trkpt lat="54.656997" lon="-2.973345"><ele>233</ele><time>2020-08-11T10:12:47Z</time><name>PT430</name></trkpt>
<trkpt lat="54.657000" lon="-2.973326"><ele>233</ele><time>2020-08-11T10:12:48Z</time><name>PT431</name></trkpt>
<trkpt lat="54.657003" lon="-2.973308"><ele>233</ele><time>2020-08-11T10:12:49Z</time><name>PT432</name></trkpt>
<trkpt lat="54.657007" lon="-2.973289"><ele>233</ele><time>2020-08-11T10:12:50Z</time><name>PT433</name></trkpt>
<trkpt lat="54.657011" lon="-2.973270"><ele>233</ele><time>2020-08-11T10:12:51Z</time><name>PT434</name></trkpt>
<trkpt lat="54.657017" lon="-2.973251"><ele>233</ele><time>2020-08-11T10:12:52Z</time><name>PT435</name></trkpt>
<trkpt lat="54.657024" lon="-2.973233"><ele>233</ele><time>2020-08-11T10:12:53Z</time><name>PT436</name></trkpt>
<trkpt lat="54.657030" lon="-2.973218"><ele>233</ele><time>2020-08-11T10:12:54Z</time><name>PT437</name></trkpt>
<trkpt lat="54.657035" lon="-2.973205"><ele>233</ele><time>2020-08-11T10:12:55Z</time><name>PT438</name></trkpt>
<trkpt lat="54.657040" lon="-2.973188"><ele>233</ele><time>2020-08-11T10:12:56Z</time><name>PT439</name></trkpt>
<trkpt lat="54.657047" lon="-2.973168"><ele>233</ele><time>2020-08-11T10:12:57Z</time><name>PT440</name></trkpt>
<trkpt lat="54.657053" lon="-2.973151"><ele>233</ele><time>2020-08-11T10:12:58Z</time><name>PT441</name></trkpt>
<trkpt lat="54.657060" lon="-2.973135"><ele>233</ele><time>2020-08-11T10:12:59Z</time><name>PT442</name></trkpt>
<trkpt lat="54.657065" lon="-2.973117"><ele>233</ele><time>2020-08-11T10:13:00Z</time><name>PT443</name></trkpt>
<trkpt lat="54.657070" lon="-2.973100"><ele>233</ele><time>2020-08-11T10:13:01Z</time><name>PT444</name></trkpt>
<trkpt lat="54.657074" lon="-2.973083"><ele>233</ele><time>2020-08-11T10:13:02Z</time><name>PT445</name></trkpt>
<trkpt lat="54.657078" lon="-2.973065"><ele>233</ele><time>2020-08-11T10:13:03Z</time><name>PT446</name></trkpt>
<trkpt lat="54.657081" lon="-2.973045"><ele>233</ele><time>2020-08-11T10:13:04Z</time><name>PT447</name></trkpt>
<trkpt lat="54.657083" lon="-2.973024"><ele>233</ele><time>2020-08-11T10:13:05Z</time><name>PT448</name></trkpt>
<trkpt lat="54.657086" lon="-2.973003"><ele>233</ele><time>2020-08-11T10:13:06Z</time><name>PT449</name></trkpt>
<trkpt lat="54.657089" lon="-2.972983"><ele>233</ele><time>2020-08-11T10:13:07Z</time><name>PT450</name></trkpt>
<trkpt lat="54.657092" lon="-2.972964"><ele>233</ele><time>2020-08-11T10:13:08Z</time><name>PT451</name></trkpt>
<trkpt lat="54.657094" lon="-2.972947"><ele>233</ele><time>2020-08-11T10:13:09Z</time><name>PT452</name></trkpt>
<trkpt lat="54.657096" lon="-2.972928"><ele>233</ele><time>2020-08-11T10:13:10Z</time><name>PT453</name></trkpt>
<trkpt lat="54.657099" lon="-2.972910"><ele>233</ele><time>2020-08-11T10:13:11Z</time><name>PT454</name></trkpt>
<trkpt lat="54.657102" lon="-2.972888"><ele>233</ele><time>2020-08-11T10:13:12Z</time><name>PT455</name></trkpt>
<trkpt lat="54.657106" lon="-2.972868"><ele>233</ele><time>2020-08-11T10:13:13Z</time><name>PT456</name></trkpt>
<trkpt lat="54.657109" lon="-2.972850"><ele>233</ele><time>2020-08-11T10:13:14Z</time><name>PT457</name></trkpt>
<trkpt lat="54.657111" lon="-2.972829"><ele>233</ele><time>2020-08-11T10:13:15Z</time><name>PT458</name></trkpt>
<trkpt lat="54.657111" lon="-2.972808"><ele>233</ele><time>2020-08-11T10:13:16Z</time><name>PT459</name></trkpt>
<trkpt lat="54.657113" lon="-2.972787"><ele>232</ele><time>2020-08-11T10:13:17Z</time><name>PT460</name></trkpt>
<trkpt lat="54.657115" lon="-2.972766"><ele>232</ele><time>2020-08-11T10:13:18Z</time><name>PT461</name></trkpt>
<trkpt lat="54.657116" lon="-2.972745"><ele>232</ele><time>2020-08-11T10:13:19Z</time><name>PT462</name></trkpt>
<trkpt lat="54.657118" lon="-2.972724"><ele>232</ele><time>2020-08-11T10:13:20Z</time><name>PT463</name></trkpt>
<trkpt lat="54.657118" lon="-2.972702"><ele>232</ele><time>2020-08-11T10:13:21Z</time><name>PT464</name></trkpt>
<trkpt lat="54.657119" lon="-2.972681"><ele>232</ele><time>2020-08-11T10:13:22Z</time><name>PT465</name></trkpt>
<trkpt lat="54.657120" lon="-2.972657"><ele>231</ele><time>2020-08-11T10:13:23Z</time><name>PT466</name></trkpt>
<trkpt lat="54.657124" lon="-2.972635"><ele>231</ele><time>2020-08-11T10:13:24Z</time><name>PT467</name></trkpt>
<trkpt lat="54.657129" lon="-2.972616"><ele>231</ele><time>2020-08-11T10:13:25Z</time><name>PT468</name></trkpt>
<trkpt lat="54.657133" lon="-2.972597"><ele>231</ele><time>2020-08-11T10:13:26Z</time><name>PT469</name></trkpt>
<trkpt lat="54.657138" lon="-2.972577"><ele>231</ele><time>2020-08-11T10:13:27Z</time><name>PT470</name></trkpt>
<trkpt lat="54.657144" lon="-2.972558"><ele>231</ele><time>2020-08-11T10:13:28Z</time><name>PT471</name></trkpt>
<trkpt lat="54.657150" lon="-2.972537"><ele>231</ele><time>2020-08-11T10:13:29Z</time><name>PT472</name></trkpt>
<trkpt lat="54.657154" lon="-2.972517"><ele>231</ele><time>2020-08-11T10:13:30Z</time><name>PT473</name></trkpt>
<trkpt lat="54.657157" lon="-2.972496"><ele>231</ele><time>2020-08-11T10:13:31Z</time><name>PT474</name></trkpt>
<trkpt lat="54.657159" lon="-2.972475"><ele>231</ele><time>2020-08-11T10:13:32Z</time><name>PT475</name></trkpt>
<trkpt lat="54.657162" lon="-2.972455"><ele>231</ele><time>2020-08-11T10:13:33Z</time><name>PT476</name></trkpt>
<trkpt lat="54.657165" lon="-2.972435"><ele>231</ele><time>2020-08-11T10:13:34Z</time><name>PT477</name></trkpt>
<trkpt lat="54.657169" lon="-2.972414"><ele>231</ele><time>2020-08-11T10:13:35Z</time><name>PT478</name></trkpt>
<trkpt lat="54.657171" lon="-2.972395"><ele>231</ele><time>2020-08-11T10:13:36Z</time><name>PT479</name></trkpt>
<trkpt lat="54.657175" lon="-2.972379"><ele>231</ele><time>2020-08-11T10:13:37Z</time><name>PT480</name></trkpt>
<trkpt lat="54.657180" lon="-2.972365"><ele>231</ele><time>2020-08-11T10:13:38Z</time><name>PT481</name></trkpt>
<trkpt lat="54.657185" lon="-2.972351"><ele>230</ele><time>2020-08-11T10:13:39Z</time><name>PT482</name></trkpt>
<trkpt lat="54.657189" lon="-2.972333"><ele>230</ele><time>2020-08-11T10:13:40Z</time><name>PT483</name></trkpt>
<trkpt lat="54.657191" lon="-2.972317"><ele>230</ele><time>2020-08-11T10:13:41Z</time><name>PT484</name></trkpt>
<trkpt lat="54.657194" lon="-2.972298"><ele>231</ele><time>2020-08-11T10:13:42Z</time><name>PT485</name></trkpt>
<trkpt lat="54.657199" lon="-2.972278"><ele>230</ele><time>2020-08-11T10:13:43Z</time><name>PT486</name></trkpt>
<trkpt lat="54.657203" lon="-2.972259"><ele>231</ele><time>2020-08-11T10:13:44Z</time><name>PT487</name></trkpt>
<trkpt lat="54.657209" lon="-2.972241"><ele>231</ele><time>2020-08-11T10:13:45Z</time><name>PT488</name></trkpt>
<trkpt lat="54.657215" lon="-2.972225"><ele>231</ele><time>2020-08-11T10:13:46Z</time><name>PT489</name></trkpt>
<trkpt lat="54.657220" lon="-2.972210"><ele>231</ele><time>2020-08-11T10:13:47Z</time><name>PT490</name></trkpt>
<trkpt lat="54.657225" lon="-2.972193"><ele>231</ele><time>2020-08-11T10:13:48Z</time><name>PT491</name></trkpt>
<trkpt lat="54.657229" lon="-2.972178"><ele>231</ele><time>2020-08-11T10:13:49Z</time><name>PT492</name></trkpt>
<trkpt lat="54.657234" lon="-2.972155"><ele>231</ele><time>2020-08-11T10:13:50Z</time><name>PT493</name></trkpt>
<trkpt lat="54.657240" lon="-2.972132"><ele>231</ele><time>2020-08-11T10:13:51Z</time><name>PT494</name></trkpt>
<trkpt lat="54.657244" lon="-2.972117"><ele>231</ele><time>2020-08-11T10:13:52Z</time><name>PT495</name></trkpt>
<trkpt lat="54.657249" lon="-2.972100"><ele>230</ele><time>2020-08-11T10:13:53Z</time><name>PT496</name></trkpt>
<trkpt lat="54.657253" lon="-2.972079"><ele>230</ele><time>2020-08-11T10:13:54Z</time><name>PT497</name></trkpt>
<trkpt lat="54.657260" lon="-2.972061"><ele>230</ele><time>2020-08-11T10:13:55Z</time><name>PT498</name></trkpt>
<trkpt lat="54.657265" lon="-2.972045"><ele>230</ele><time>2020-08-11T10:13:56Z</time><name>PT499</name></trkpt>
<trkpt lat="54.657269" lon="-2.972029"><ele>230</ele><time>2020-08-11T10:13:57Z</time><name>PT500</name></trkpt>
<trkpt lat="54.657271" lon="-2.972009"><ele>230</ele><time>2020-08-11T10:13:58Z</time><name>PT501</name></trkpt>
<trkpt lat="54.657274" lon="-2.971990"><ele>230</ele><time>2020-08-11T10:13:59Z</time><name>PT502</name></trkpt>
<trkpt lat="54.657277" lon="-2.971972"><ele>230</ele><time>2020-08-11T10:14:00Z</time><name>PT503</name></trkpt>
<trkpt lat="54.657280" lon="-2.971953"><ele>230</ele><time>2020-08-11T10:14:01Z</time><name>PT504</name></trkpt>
<trkpt lat="54.657283" lon="-2.971934"><ele>230</ele><time>2020-08-11T10:14:02Z</time><name>PT505</name></trkpt>
<trkpt lat="54.657287" lon="-2.971916"><ele>230</ele><time>2020-08-11T10:14:03Z</time><name>PT506</name></trkpt>
<trkpt lat="54.657290" lon="-2.971898"><ele>230</ele><time>2020-08-11T10:14:04Z</time><name>PT507</name></trkpt>
<trkpt lat="54.657295" lon="-2.971879"><ele>230</ele><time>2020-08-11T10:14:05Z</time><name>PT508</name></trkpt>
<trkpt lat="54.657299" lon="-2.971862"><ele>230</ele><time>2020-08-11T10:14:06Z</time><name>PT509</name></trkpt>
<trkpt lat="54.657304" lon="-2.971844"><ele>230</ele><time>2020-08-11T10:14:07Z</time><name>PT510</name></trkpt>
<trkpt lat="54.657310" lon="-2.971832"><ele>230</ele><time>2020-08-11T10:14:08Z</time><name>PT511</name></trkpt>
<trkpt lat="54.657315" lon="-2.971819"><ele>230</ele><time>2020-08-11T10:14:09Z</time><name>PT512</name></trkpt>
<trkpt lat="54.657316" lon="-2.971804"><ele>230</ele><time>2020-08-11T10:14:10Z</time><name>PT513</name></trkpt>
<trkpt lat="54.657316" lon="-2.971787"><ele>229</ele><time>2020-08-11T10:14:11Z</time><name>PT514</name></trkpt>
<trkpt lat="54.657316" lon="-2.971770"><ele>229</ele><time>2020-08-11T10:14:12Z</time><name>PT515</name></trkpt>
<trkpt lat="54.657315" lon="-2.971750"><ele>229</ele><time>2020-08-11T10:14:13Z</time><name>PT516</name></trkpt>
<trkpt lat="54.657315" lon="-2.971731"><ele>229</ele><time>2020-08-11T10:14:14Z</time><name>PT517</name></trkpt>
<trkpt lat="54.657316" lon="-2.971714"><ele>229</ele><time>2020-08-11T10:14:15Z</time><name>PT518</name></trkpt>
<trkpt lat="54.657317" lon="-2.971696"><ele>229</ele><time>2020-08-11T10:14:16Z</time><name>PT519</name></trkpt>
<trkpt lat="54.657317" lon="-2.971678"><ele>228</ele><time>2020-08-11T10:14:17Z</time><name>PT520</name></trkpt>
<trkpt lat="54.657317" lon="-2.971657"><ele>228</ele><time>2020-08-11T10:14:18Z</time><name>PT521</name></trkpt>
<trkpt lat="54.657316" lon="-2.971639"><ele>228</ele><time>2020-08-11T10:14:19Z</time><name>PT522</name></trkpt>
<trkpt lat="54.657315" lon="-2.971621"><ele>228</ele><time>2020-08-11T10:14:20Z</time><name>PT523</name></trkpt>
<trkpt lat="54.657314" lon="-2.971603"><ele>228</ele><time>2020-08-11T10:14:21Z</time><name>PT524</name></trkpt>
<trkpt lat="54.657310" lon="-2.971585"><ele>228</ele><time>2020-08-11T10:14:22Z</time><name>PT525</name></trkpt>
<trkpt lat="54.657308" lon="-2.971566"><ele>228</ele><time>2020-08-11T10:14:23Z</time><name>PT526</name></trkpt>
<trkpt lat="54.657306" lon="-2.971547"><ele>229</ele><time>2020-08-11T10:14:24Z</time><name>PT527</name></trkpt>
<trkpt lat="54.657305" lon="-2.971528"><ele>229</ele><time>2020-08-11T10:14:25Z</time><name>PT528</name></trkpt>
<trkpt lat="54.657303" lon="-2.971510"><ele>229</ele><time>2020-08-11T10:14:26Z</time><name>PT529</name></trkpt>
<trkpt lat="54.657301" lon="-2.971490"><ele>229</ele><time>2020-08-11T10:14:27Z</time><name>PT530</name></trkpt>
<trkpt lat="54.657301" lon="-2.971478"><ele>229</ele><time>2020-08-11T10:14:28Z</time><name>PT531</name></trkpt>
<trkpt lat="54.657300" lon="-2.971467"><ele>229</ele><time>2020-08-11T10:14:29Z</time><name>PT532</name></trkpt>
<trkpt lat="54.657299" lon="-2.971450"><ele>229</ele><time>2020-08-11T10:14:30Z</time><name>PT533</name></trkpt>
<trkpt lat="54.657298" lon="-2.971433"><ele>229</ele><time>2020-08-11T10:14:31Z</time><name>PT534</name></trkpt>
<trkpt lat="54.657296" lon="-2.971415"><ele>229</ele><time>2020-08-11T10:14:32Z</time><name>PT535</name></trkpt>
<trkpt lat="54.657298" lon="-2.971396"><ele>229</ele><time>2020-08-11T10:14:33Z</time><name>PT536</name></trkpt>
<trkpt lat="54.657302" lon="-2.971379"><ele>229</ele><time>2020-08-11T10:14:34Z</time><name>PT537</name></trkpt>
<trkpt lat="54.657307" lon="-2.971366"><ele>228</ele><time>2020-08-11T10:14:35Z</time><name>PT538</name></trkpt>
<trkpt lat="54.657311" lon="-2.971348"><ele>228</ele><time>2020-08-11T10:14:36Z</time><name>PT539</name></trkpt>
<trkpt lat="54.657312" lon="-2.971329"><ele>228</ele><time>2020-08-11T10:14:37Z</time><name>PT540</name></trkpt>
<trkpt lat="54.657310" lon="-2.971310"><ele>228</ele><time>2020-08-11T10:14:38Z</time><name>PT541</name></trkpt>
<trkpt lat="54.657333" lon="-2.971292"><ele>228</ele><time>2020-08-11T10:14:41Z</time><name>PT542</name></trkpt>
<trkpt lat="54.657358" lon="-2.971315"><ele>227</ele><time>2020-08-11T10:14:45Z</time><name>PT543</name></trkpt>
<trkpt lat="54.657358" lon="-2.971352"><ele>227</ele><time>2020-08-11T10:14:49Z</time><name>PT544</name></trkpt>
<trkpt lat="54.657379" lon="-2.971352"><ele>227</ele><time>2020-08-11T10:14:52Z</time><name>PT545</name></trkpt>
<trkpt lat="54.657411" lon="-2.971376"><ele>228</ele><time>2020-08-11T10:14:56Z</time><name>PT546</name></trkpt>
<trkpt lat="54.657464" lon="-2.971375"><ele>228</ele><time>2020-08-11T10:15:00Z</time><name>PT547</name></trkpt>
<trkpt lat="54.657502" lon="-2.971379"><ele>228</ele><time>2020-08-11T10:15:03Z</time><name>PT548</name></trkpt>
<trkpt lat="54.657554" lon="-2.971380"><ele>228</ele><time>2020-08-11T10:15:07Z</time><name>PT549</name></trkpt>
<trkpt lat="54.657589" lon="-2.971379"><ele>228</ele><time>2020-08-11T10:15:10Z</time><name>PT550</name></trkpt>
<trkpt lat="54.657601" lon="-2.971377"><ele>228</ele><time>2020-08-11T10:15:11Z</time><name>PT551</name></trkpt>
<trkpt lat="54.657612" lon="-2.971375"><ele>228</ele><time>2020-08-11T10:15:12Z</time><name>PT552</name></trkpt>
<trkpt lat="54.657623" lon="-2.971371"><ele>228</ele><time>2020-08-11T10:15:13Z</time><name>PT553</name></trkpt>
<trkpt lat="54.657634" lon="-2.971367"><ele>228</ele><time>2020-08-11T10:15:14Z</time><name>PT554</name></trkpt>
<trkpt lat="54.657646" lon="-2.971361"><ele>228</ele><time>2020-08-11T10:15:15Z</time><name>PT555</name></trkpt>
<trkpt lat="54.657658" lon="-2.971357"><ele>228</ele><time>2020-08-11T10:15:16Z</time><name>PT556</name></trkpt>
<trkpt lat="54.657669" lon="-2.971354"><ele>228</ele><time>2020-08-11T10:15:17Z</time><name>PT557</name></trkpt>
<trkpt lat="54.657681" lon="-2.971349"><ele>228</ele><time>2020-08-11T10:15:18Z</time><name>PT558</name></trkpt>
<trkpt lat="54.657692" lon="-2.971343"><ele>228</ele><time>2020-08-11T10:15:19Z</time><name>PT559</name></trkpt>
<trkpt lat="54.657705" lon="-2.971339"><ele>228</ele><time>2020-08-11T10:15:20Z</time><name>PT560</name></trkpt>
<trkpt lat="54.657718" lon="-2.971336"><ele>228</ele><time>2020-08-11T10:15:21Z</time><name>PT561</name></trkpt>
<trkpt lat="54.657730" lon="-2.971329"><ele>228</ele><time>2020-08-11T10:15:22Z</time><name>PT562</name></trkpt>
<trkpt lat="54.657740" lon="-2.971325"><ele>228</ele><time>2020-08-11T10:15:23Z</time><name>PT563</name></trkpt>
<trkpt lat="54.657752" lon="-2.971322"><ele>228</ele><time>2020-08-11T10:15:24Z</time><name>PT564</name></trkpt>
<trkpt lat="54.657763" lon="-2.971318"><ele>228</ele><time>2020-08-11T10:15:25Z</time><name>PT565</name></trkpt>
<trkpt lat="54.657773" lon="-2.971313"><ele>228</ele><time>2020-08-11T10:15:26Z</time><name>PT566</name></trkpt>
<trkpt lat="54.657783" lon="-2.971304"><ele>228</ele><time>2020-08-11T10:15:27Z</time><name>PT567</name></trkpt>
<trkpt lat="54.657793" lon="-2.971296"><ele>228</ele><time>2020-08-11T10:15:28Z</time><name>PT568</name></trkpt>
<trkpt lat="54.657800" lon="-2.971286"><ele>228</ele><time>2020-08-11T10:15:29Z</time><name>PT569</name></trkpt>
<trkpt lat="54.657805" lon="-2.971279"><ele>228</ele><time>2020-08-11T10:15:30Z</time><name>PT570</name></trkpt>
<trkpt lat="54.657806" lon="-2.971277"><ele>228</ele><time>2020-08-11T10:15:31Z</time><name>PT571</name></trkpt>
<trkpt lat="54.657807" lon="-2.971277"><ele>228</ele><time>2020-08-11T10:15:32Z</time><name>PT572</name></trkpt>
<trkpt lat="54.657807" lon="-2.971277"><ele>228</ele><time>2020-08-11T10:15:33Z</time><name>PT573</name></trkpt>
<trkpt lat="54.657807" lon="-2.971273"><ele>228</ele><time>2020-08-11T10:15:36Z</time><name>PT574</name></trkpt>
<trkpt lat="54.657807" lon="-2.971273"><ele>228</ele><time>2020-08-11T10:15:37Z</time><name>PT575</name></trkpt>
<trkpt lat="54.657807" lon="-2.971270"><ele>228</ele><time>2020-08-11T10:15:38Z</time><name>PT576</name></trkpt>
<trkpt lat="54.657807" lon="-2.971268"><ele>228</ele><time>2020-08-11T10:15:39Z</time><name>PT577</name></trkpt>
<trkpt lat="54.657805" lon="-2.971273"><ele>228</ele><time>2020-08-11T10:15:40Z</time><name>PT578</name></trkpt>
<trkpt lat="54.657804" lon="-2.971274"><ele>228</ele><time>2020-08-11T10:15:41Z</time><name>PT579</name></trkpt>
<trkpt lat="54.657804" lon="-2.971270"><ele>228</ele><time>2020-08-11T10:15:42Z</time><name>PT580</name></trkpt>
<trkpt lat="54.657804" lon="-2.971269"><ele>227</ele><time>2020-08-11T10:15:43Z</time><name>PT581</name></trkpt>
<trkpt lat="54.657804" lon="-2.971272"><ele>227</ele><time>2020-08-11T10:15:44Z</time><name>PT582</name></trkpt>
<trkpt lat="54.657805" lon="-2.971271"><ele>227</ele><time>2020-08-11T10:15:45Z</time><name>PT583</name></trkpt>
<trkpt lat="54.657801" lon="-2.971268"><ele>227</ele><time>2020-08-11T10:15:46Z</time><name>PT584</name></trkpt>
<trkpt lat="54.657802" lon="-2.971269"><ele>227</ele><time>2020-08-11T10:15:47Z</time><name>PT585</name></trkpt>
<trkpt lat="54.657802" lon="-2.971269"><ele>227</ele><time>2020-08-11T10:15:48Z</time><name>PT586</name></trkpt>
<trkpt lat="54.657799" lon="-2.971277"><ele>227</ele><time>2020-08-11T10:15:49Z</time><name>PT587</name></trkpt>
<trkpt lat="54.657800" lon="-2.971281"><ele>227</ele><time>2020-08-11T10:15:50Z</time><name>PT588</name></trkpt>
<trkpt lat="54.657803" lon="-2.971279"><ele>228</ele><time>2020-08-11T10:15:51Z</time><name>PT589</name></trkpt>
<trkpt lat="54.657804" lon="-2.971279"><ele>227</ele><time>2020-08-11T10:15:52Z</time><name>PT590</name></trkpt>
<trkpt lat="54.657813" lon="-2.971275"><ele>227</ele><time>2020-08-11T10:15:53Z</time><name>PT591</name></trkpt>
<trkpt lat="54.657819" lon="-2.971272"><ele>227</ele><time>2020-08-11T10:15:54Z</time><name>PT592</name></trkpt>
<trkpt lat="54.657820" lon="-2.971272"><ele>227</ele><time>2020-08-11T10:15:55Z</time><name>PT593</name></trkpt>
<trkpt lat="54.657819" lon="-2.971272"><ele>227</ele><time>2020-08-11T10:15:56Z</time><name>PT594</name></trkpt>
<trkpt lat="54.657822" lon="-2.971270"><ele>227</ele><time>2020-08-11T10:15:57Z</time><name>PT595</name></trkpt>
<trkpt lat="54.657823" lon="-2.971266"><ele>227</ele><time>2020-08-11T10:16:00Z</time><name>PT596</name></trkpt>
<trkpt lat="54.657825" lon="-2.971250"><ele>227</ele><time>2020-08-11T10:16:01Z</time><name>PT597</name></trkpt>
<trkpt lat="54.657833" lon="-2.971231"><ele>227</ele><time>2020-08-11T10:16:02Z</time><name>PT598</name></trkpt>
<trkpt lat="54.657838" lon="-2.971218"><ele>227</ele><time>2020-08-11T10:16:03Z</time><name>PT599</name></trkpt>
<trkpt lat="54.657846" lon="-2.971203"><ele>227</ele><time>2020-08-11T10:16:04Z</time><name>PT600</name></trkpt>
<trkpt lat="54.657857" lon="-2.971194"><ele>227</ele><time>2020-08-11T10:16:05Z</time><name>PT601</name></trkpt>
<trkpt lat="54.657863" lon="-2.971182"><ele>227</ele><time>2020-08-11T10:16:06Z</time><name>PT602</name></trkpt>
<trkpt lat="54.657871" lon="-2.971172"><ele>228</ele><time>2020-08-11T10:16:07Z</time><name>PT603</name></trkpt>
<trkpt lat="54.657878" lon="-2.971159"><ele>228</ele><time>2020-08-11T10:16:08Z</time><name>PT604</name></trkpt>
<trkpt lat="54.657884" lon="-2.971146"><ele>228</ele><time>2020-08-11T10:16:09Z</time><name>PT605</name></trkpt>
<trkpt lat="54.657892" lon="-2.971135"><ele>228</ele><time>2020-08-11T10:16:10Z</time><name>PT606</name></trkpt>
<trkpt lat="54.657899" lon="-2.971122"><ele>228</ele><time>2020-08-11T10:16:11Z</time><name>PT607</name></trkpt>
<trkpt lat="54.657904" lon="-2.971108"><ele>228</ele><time>2020-08-11T10:16:12Z</time><name>PT608</name></trkpt>
<trkpt lat="54.657911" lon="-2.971094"><ele>228</ele><time>2020-08-11T10:16:13Z</time><name>PT609</name></trkpt>
<trkpt lat="54.657918" lon="-2.971081"><ele>228</ele><time>2020-08-11T10:16:14Z</time><name>PT610</name></trkpt>
<trkpt lat="54.657922" lon="-2.971072"><ele>228</ele><time>2020-08-11T10:16:15Z</time><name>PT611</name></trkpt>
<trkpt lat="54.657926" lon="-2.971064"><ele>228</ele><time>2020-08-11T10:16:16Z</time><name>PT612</name></trkpt>
<trkpt lat="54.657925" lon="-2.971047"><ele>227</ele><time>2020-08-11T10:16:17Z</time><name>PT613</name></trkpt>
<trkpt lat="54.657926" lon="-2.971033"><ele>227</ele><time>2020-08-11T10:16:18Z</time><name>PT614</name></trkpt>
<trkpt lat="54.657922" lon="-2.971027"><ele>227</ele><time>2020-08-11T10:16:19Z</time><name>PT615</name></trkpt>
<trkpt lat="54.657919" lon="-2.971013"><ele>227</ele><time>2020-08-11T10:16:20Z</time><name>PT616</name></trkpt>
<trkpt lat="54.657917" lon="-2.970996"><ele>227</ele><time>2020-08-11T10:16:21Z</time><name>PT617</name></trkpt>
<trkpt lat="54.657917" lon="-2.970980"><ele>227</ele><time>2020-08-11T10:16:22Z</time><name>PT618</name></trkpt>
<trkpt lat="54.657920" lon="-2.970974"><ele>227</ele><time>2020-08-11T10:16:23Z</time><name>PT619</name></trkpt>
<trkpt lat="54.657920" lon="-2.970970"><ele>227</ele><time>2020-08-11T10:16:24Z</time><name>PT620</name></trkpt>
<trkpt lat="54.657928" lon="-2.970957"><ele>227</ele><time>2020-08-11T10:16:25Z</time><name>PT621</name></trkpt>
<trkpt lat="54.657939" lon="-2.970935"><ele>227</ele><time>2020-08-11T10:16:26Z</time><name>PT622</name></trkpt>
<trkpt lat="54.657944" lon="-2.970921"><ele>227</ele><time>2020-08-11T10:16:27Z</time><name>PT623</name></trkpt>
<trkpt lat="54.657951" lon="-2.970912"><ele>227</ele><time>2020-08-11T10:16:28Z</time><name>PT624</name></trkpt>
<trkpt lat="54.657953" lon="-2.970910"><ele>227</ele><time>2020-08-11T10:16:29Z</time><name>PT625</name></trkpt>
<trkpt lat="54.657954" lon="-2.970913"><ele>227</ele><time>2020-08-11T10:16:30Z</time><name>PT626</name></trkpt>
<trkpt lat="54.657956" lon="-2.970917"><ele>226</ele><time>2020-08-11T10:16:31Z</time><name>PT627</name></trkpt>
<trkpt lat="54.657962" lon="-2.970919"><ele>227</ele><time>2020-08-11T10:16:32Z</time><name>PT628</name></trkpt>
<trkpt lat="54.657963" lon="-2.970919"><ele>227</ele><time>2020-08-11T10:16:33Z</time><name>PT629</name></trkpt>
<trkpt lat="54.657963" lon="-2.970919"><ele>227</ele><time>2020-08-11T10:16:34Z</time><name>PT630</name></trkpt>
<trkpt lat="54.657962" lon="-2.970919"><ele>226</ele><time>2020-08-11T10:16:35Z</time><name>PT631</name></trkpt>
<trkpt lat="54.657965" lon="-2.970913"><ele>226</ele><time>2020-08-11T10:16:40Z</time><name>PT632</name></trkpt>
<trkpt lat="54.657962" lon="-2.970899"><ele>226</ele><time>2020-08-11T10:16:41Z</time><name>PT633</name></trkpt>
<trkpt lat="54.657958" lon="-2.970885"><ele>226</ele><time>2020-08-11T10:16:42Z</time><name>PT634</name></trkpt>
<trkpt lat="54.657961" lon="-2.970874"><ele>226</ele><time>2020-08-11T10:16:43Z</time><name>PT635</name></trkpt>
<trkpt lat="54.657963" lon="-2.970855"><ele>226</ele><time>2020-08-11T10:16:44Z</time><name>PT636</name></trkpt>
<trkpt lat="54.657965" lon="-2.970840"><ele>226</ele><time>2020-08-11T10:16:45Z</time><name>PT637</name></trkpt>
<trkpt lat="54.657968" lon="-2.970829"><ele>226</ele><time>2020-08-11T10:16:46Z</time><name>PT638</name></trkpt>
<trkpt lat="54.657972" lon="-2.970815"><ele>226</ele><time>2020-08-11T10:16:47Z</time><name>PT639</name></trkpt>
<trkpt lat="54.657976" lon="-2.970793"><ele>225</ele><time>2020-08-11T10:16:48Z</time><name>PT640</name></trkpt>
<trkpt lat="54.657980" lon="-2.970785"><ele>225</ele><time>2020-08-11T10:16:49Z</time><name>PT641</name></trkpt>
<trkpt lat="54.657984" lon="-2.970771"><ele>225</ele><time>2020-08-11T10:16:50Z</time><name>PT642</name></trkpt>
<trkpt lat="54.657989" lon="-2.970750"><ele>225</ele><time>2020-08-11T10:16:51Z</time><name>PT643</name></trkpt>
<trkpt lat="54.657990" lon="-2.970738"><ele>225</ele><time>2020-08-11T10:16:52Z</time><name>PT644</name></trkpt>
<trkpt lat="54.657993" lon="-2.970723"><ele>225</ele><time>2020-08-11T10:16:53Z</time><name>PT645</name></trkpt>
<trkpt lat="54.657996" lon="-2.970701"><ele>225</ele><time>2020-08-11T10:16:54Z</time><name>PT646</name></trkpt>
<trkpt lat="54.657997" lon="-2.970692"><ele>225</ele><time>2020-08-11T10:16:55Z</time><name>PT647</name></trkpt>
<trkpt lat="54.658001" lon="-2.970678"><ele>225</ele><time>2020-08-11T10:16:56Z</time><name>PT648</name></trkpt>
<trkpt lat="54.658014" lon="-2.970655"><ele>225</ele><time>2020-08-11T10:16:58Z</time><name>PT649</name></trkpt>
<trkpt lat="54.658019" lon="-2.970640"><ele>224</ele><time>2020-08-11T10:16:59Z</time><name>PT650</name></trkpt>
<trkpt lat="54.658026" lon="-2.970623"><ele>223</ele><time>2020-08-11T10:17:00Z</time><name>PT651</name></trkpt>
<trkpt lat="54.658032" lon="-2.970614"><ele>223</ele><time>2020-08-11T10:17:01Z</time><name>PT652</name></trkpt>
<trkpt lat="54.658037" lon="-2.970605"><ele>223</ele><time>2020-08-11T10:17:02Z</time><name>PT653</name></trkpt>
<trkpt lat="54.658041" lon="-2.970589"><ele>223</ele><time>2020-08-11T10:17:03Z</time><name>PT654</name></trkpt>
<trkpt lat="54.658054" lon="-2.970574"><ele>223</ele><time>2020-08-11T10:17:06Z</time><name>PT655</name></trkpt>
<trkpt lat="54.658058" lon="-2.970569"><ele>223</ele><time>2020-08-11T10:17:07Z</time><name>PT656</name></trkpt>
<trkpt lat="54.658059" lon="-2.970568"><ele>223</ele><time>2020-08-11T10:17:08Z</time><name>PT657</name></trkpt>
<trkpt lat="54.658063" lon="-2.970565"><ele>222</ele><time>2020-08-11T10:17:09Z</time><name>PT658</name></trkpt>
<trkpt lat="54.658070" lon="-2.970566"><ele>222</ele><time>2020-08-11T10:17:10Z</time><name>PT659</name></trkpt>
<trkpt lat="54.658080" lon="-2.970567"><ele>222</ele><time>2020-08-11T10:17:11Z</time><name>PT660</name></trkpt>
<trkpt lat="54.658086" lon="-2.970567"><ele>222</ele><time>2020-08-11T10:17:12Z</time><name>PT661</name></trkpt>
<trkpt lat="54.658091" lon="-2.970566"><ele>222</ele><time>2020-08-11T10:17:13Z</time><name>PT662</name></trkpt>
<trkpt lat="54.658093" lon="-2.970562"><ele>221</ele><time>2020-08-11T10:17:14Z</time><name>PT663</name></trkpt>
<trkpt lat="54.658103" lon="-2.970556"><ele>222</ele><time>2020-08-11T10:17:15Z</time><name>PT664</name></trkpt>
<trkpt lat="54.658107" lon="-2.970537"><ele>223</ele><time>2020-08-11T10:17:16Z</time><name>PT665</name></trkpt>
<trkpt lat="54.658105" lon="-2.970514"><ele>225</ele><time>2020-08-11T10:17:17Z</time><name>PT666</name></trkpt>
<trkpt lat="54.658108" lon="-2.970494"><ele>226</ele><time>2020-08-11T10:17:18Z</time><name>PT667</name></trkpt>
<trkpt lat="54.658109" lon="-2.970471"><ele>226</ele><time>2020-08-11T10:17:19Z</time><name>PT668</name></trkpt>
<trkpt lat="54.658109" lon="-2.970447"><ele>226</ele><time>2020-08-11T10:17:20Z</time><name>PT669</name></trkpt>
<trkpt lat="54.658111" lon="-2.970423"><ele>227</ele><time>2020-08-11T10:17:21Z</time><name>PT670</name></trkpt>
<trkpt lat="54.658115" lon="-2.970400"><ele>227</ele><time>2020-08-11T10:17:22Z</time><name>PT671</name></trkpt>
<trkpt lat="54.658118" lon="-2.970378"><ele>227</ele><time>2020-08-11T10:17:23Z</time><name>PT672</name></trkpt>
<trkpt lat="54.658120" lon="-2.970356"><ele>227</ele><time>2020-08-11T10:17:24Z</time><name>PT673</name></trkpt>
<trkpt lat="54.658121" lon="-2.970335"><ele>228</ele><time>2020-08-11T10:17:25Z</time><name>PT674</name></trkpt>
<trkpt lat="54.658122" lon="-2.970313"><ele>228</ele><time>2020-08-11T10:17:26Z</time><name>PT675</name></trkpt>
<trkpt lat="54.658124" lon="-2.970293"><ele>228</ele><time>2020-08-11T10:17:27Z</time><name>PT676</name></trkpt>
<trkpt lat="54.658126" lon="-2.970271"><ele>228</ele><time>2020-08-11T10:17:28Z</time><name>PT677</name></trkpt>
<trkpt lat="54.658129" lon="-2.970251"><ele>228</ele><time>2020-08-11T10:17:29Z</time><name>PT678</name></trkpt>
<trkpt lat="54.658133" lon="-2.970233"><ele>228</ele><time>2020-08-11T10:17:30Z</time><name>PT679</name></trkpt>
<trkpt lat="54.658135" lon="-2.970213"><ele>228</ele><time>2020-08-11T10:17:31Z</time><name>PT680</name></trkpt>
<trkpt lat="54.658137" lon="-2.970193"><ele>228</ele><time>2020-08-11T10:17:32Z</time><name>PT681</name></trkpt>
<trkpt lat="54.658140" lon="-2.970172"><ele>228</ele><time>2020-08-11T10:17:33Z</time><name>PT682</name></trkpt>
<trkpt lat="54.658144" lon="-2.970151"><ele>228</ele><time>2020-08-11T10:17:34Z</time><name>PT683</name></trkpt>
<trkpt lat="54.658148" lon="-2.970133"><ele>228</ele><time>2020-08-11T10:17:35Z</time><name>PT684</name></trkpt>
<trkpt lat="54.658153" lon="-2.970112"><ele>229</ele><time>2020-08-11T10:17:36Z</time><name>PT685</name></trkpt>
<trkpt lat="54.658157" lon="-2.970090"><ele>229</ele><time>2020-08-11T10:17:37Z</time><name>PT686</name></trkpt>
<trkpt lat="54.658161" lon="-2.970068"><ele>229</ele><time>2020-08-11T10:17:38Z</time><name>PT687</name></trkpt>
<trkpt lat="54.658166" lon="-2.970047"><ele>229</ele><time>2020-08-11T10:17:39Z</time><name>PT688</name></trkpt>
<trkpt lat="54.658171" lon="-2.970028"><ele>229</ele><time>2020-08-11T10:17:40Z</time><name>PT689</name></trkpt>
<trkpt lat="54.658175" lon="-2.970008"><ele>229</ele><time>2020-08-11T10:17:41Z</time><name>PT690</name></trkpt>
<trkpt lat="54.658180" lon="-2.969988"><ele>229</ele><time>2020-08-11T10:17:42Z</time><name>PT691</name></trkpt>
<trkpt lat="54.658186" lon="-2.969967"><ele>229</ele><time>2020-08-11T10:17:43Z</time><name>PT692</name></trkpt>
<trkpt lat="54.658192" lon="-2.969948"><ele>229</ele><time>2020-08-11T10:17:44Z</time><name>PT693</name></trkpt>
<trkpt lat="54.658197" lon="-2.969930"><ele>229</ele><time>2020-08-11T10:17:45Z</time><name>PT694</name></trkpt>
<trkpt lat="54.658200" lon="-2.969911"><ele>229</ele><time>2020-08-11T10:17:46Z</time><name>PT695</name></trkpt>
<trkpt lat="54.658205" lon="-2.969890"><ele>229</ele><time>2020-08-11T10:17:47Z</time><name>PT696</name></trkpt>
<trkpt lat="54.658210" lon="-2.969870"><ele>229</ele><time>2020-08-11T10:17:48Z</time><name>PT697</name></trkpt>
<trkpt lat="54.658215" lon="-2.969853"><ele>229</ele><time>2020-08-11T10:17:49Z</time><name>PT698</name></trkpt>
<trkpt lat="54.658220" lon="-2.969840"><ele>229</ele><time>2020-08-11T10:17:50Z</time><name>PT699</name></trkpt>
<trkpt lat="54.658224" lon="-2.969823"><ele>229</ele><time>2020-08-11T10:17:51Z</time><name>PT700</name></trkpt>
<trkpt lat="54.658229" lon="-2.969805"><ele>229</ele><time>2020-08-11T10:17:52Z</time><name>PT701</name></trkpt>
<trkpt lat="54.658233" lon="-2.969790"><ele>229</ele><time>2020-08-11T10:17:53Z</time><name>PT702</name></trkpt>
<trkpt lat="54.658236" lon="-2.969772"><ele>229</ele><time>2020-08-11T10:17:54Z</time><name>PT703</name></trkpt>
<trkpt lat="54.658239" lon="-2.969751"><ele>229</ele><time>2020-08-11T10:17:55Z</time><name>PT704</name></trkpt>
<trkpt lat="54.658242" lon="-2.969730"><ele>229</ele><time>2020-08-11T10:17:56Z</time><name>PT705</name></trkpt>
<trkpt lat="54.658246" lon="-2.969710"><ele>229</ele><time>2020-08-11T10:17:57Z</time><name>PT706</name></trkpt>
<trkpt lat="54.658250" lon="-2.969690"><ele>229</ele><time>2020-08-11T10:17:58Z</time><name>PT707</name></trkpt>
<trkpt lat="54.658251" lon="-2.969672"><ele>228</ele><time>2020-08-11T10:17:59Z</time><name>PT708</name></trkpt>
<trkpt lat="54.658254" lon="-2.969650"><ele>228</ele><time>2020-08-11T10:18:00Z</time><name>PT709</name></trkpt>
<trkpt lat="54.658257" lon="-2.969630"><ele>228</ele><time>2020-08-11T10:18:01Z</time><name>PT710</name></trkpt>
<trkpt lat="54.658260" lon="-2.969610"><ele>228</ele><time>2020-08-11T10:18:02Z</time><name>PT711</name></trkpt>
<trkpt lat="54.658263" lon="-2.969588"><ele>228</ele><time>2020-08-11T10:18:03Z</time><name>PT712</name></trkpt>
<trkpt lat="54.658266" lon="-2.969569"><ele>229</ele><time>2020-08-11T10:18:04Z</time><name>PT713</name></trkpt>
<trkpt lat="54.658269" lon="-2.969548"><ele>228</ele><time>2020-08-11T10:18:05Z</time><name>PT714</name></trkpt>
<trkpt lat="54.658272" lon="-2.969529"><ele>229</ele><time>2020-08-11T10:18:06Z</time><name>PT715</name></trkpt>
<trkpt lat="54.658276" lon="-2.969507"><ele>229</ele><time>2020-08-11T10:18:07Z</time><name>PT716</name></trkpt>
<trkpt lat="54.658280" lon="-2.969490"><ele>229</ele><time>2020-08-11T10:18:08Z</time><name>PT717</name></trkpt>
<trkpt lat="54.658285" lon="-2.969470"><ele>229</ele><time>2020-08-11T10:18:09Z</time><name>PT718</name></trkpt>
<trkpt lat="54.658289" lon="-2.969456"><ele>229</ele><time>2020-08-11T10:18:10Z</time><name>PT719</name></trkpt>
<trkpt lat="54.658305" lon="-2.969460"><ele>229</ele><time>2020-08-11T10:18:14Z</time><name>PT720</name></trkpt>
<trkpt lat="54.658319" lon="-2.969439"><ele>229</ele><time>2020-08-11T10:18:17Z</time><name>PT721</name></trkpt>
<trkpt lat="54.658352" lon="-2.969402"><ele>229</ele><time>2020-08-11T10:18:21Z</time><name>PT722</name></trkpt>
<trkpt lat="54.658354" lon="-2.969335"><ele>229</ele><time>2020-08-11T10:18:25Z</time><name>PT723</name></trkpt>
<trkpt lat="54.658353" lon="-2.969300"><ele>229</ele><time>2020-08-11T10:18:29Z</time><name>PT724</name></trkpt>
<trkpt lat="54.658354" lon="-2.969265"><ele>229</ele><time>2020-08-11T10:18:32Z</time><name>PT725</name></trkpt>
<trkpt lat="54.658348" lon="-2.969210"><ele>229</ele><time>2020-08-11T10:18:35Z</time><name>PT726</name></trkpt>
<trkpt lat="54.658359" lon="-2.969132"><ele>229</ele><time>2020-08-11T10:18:39Z</time><name>PT727</name></trkpt>
<trkpt lat="54.658363" lon="-2.969112"><ele>229</ele><time>2020-08-11T10:18:40Z</time><name>PT728</name></trkpt>
<trkpt lat="54.658366" lon="-2.969093"><ele>229</ele><time>2020-08-11T10:18:41Z</time><name>PT729</name></trkpt>
<trkpt lat="54.658369" lon="-2.969073"><ele>229</ele><time>2020-08-11T10:18:42Z</time><name>PT730</name></trkpt>
<trkpt lat="54.658372" lon="-2.969051"><ele>229</ele><time>2020-08-11T10:18:43Z</time><name>PT731</name></trkpt>
<trkpt lat="54.658376" lon="-2.969034"><ele>229</ele><time>2020-08-11T10:18:44Z</time><name>PT732</name></trkpt>
<trkpt lat="54.658378" lon="-2.969016"><ele>229</ele><time>2020-08-11T10:18:45Z</time><name>PT733</name></trkpt>
<trkpt lat="54.658381" lon="-2.968997"><ele>229</ele><time>2020-08-11T10:18:46Z</time><name>PT734</name></trkpt>
<trkpt lat="54.658384" lon="-2.968976"><ele>229</ele><time>2020-08-11T10:18:47Z</time><name>PT735</name></trkpt>
<trkpt lat="54.658387" lon="-2.968958"><ele>229</ele><time>2020-08-11T10:18:48Z</time><name>PT736</name></trkpt>
<trkpt lat="54.658389" lon="-2.968939"><ele>229</ele><time>2020-08-11T10:18:49Z</time><name>PT737</name></trkpt>
<trkpt lat="54.658392" lon="-2.968919"><ele>229</ele><time>2020-08-11T10:18:50Z</time><name>PT738</name></trkpt>
<trkpt lat="54.658395" lon="-2.968898"><ele>229</ele><time>2020-08-11T10:18:51Z</time><name>PT739</name></trkpt>
<trkpt lat="54.658398" lon="-2.968876"><ele>229</ele><time>2020-08-11T10:18:52Z</time><name>PT740</name></trkpt>
<trkpt lat="54.658402" lon="-2.968858"><ele>229</ele><time>2020-08-11T10:18:53Z</time><name>PT741</name></trkpt>
<trkpt lat="54.658405" lon="-2.968839"><ele>229</ele><time>2020-08-11T10:18:54Z</time><name>PT742</name></trkpt>
<trkpt lat="54.658407" lon="-2.968818"><ele>229</ele><time>2020-08-11T10:18:55Z</time><name>PT743</name></trkpt>
<trkpt lat="54.658410" lon="-2.968797"><ele>229</ele><time>2020-08-11T10:18:56Z</time><name>PT744</name></trkpt>
<trkpt lat="54.658414" lon="-2.968777"><ele>229</ele><time>2020-08-11T10:18:57Z</time><name>PT745</name></trkpt>
<trkpt lat="54.658417" lon="-2.968761"><ele>229</ele><time>2020-08-11T10:18:58Z</time><name>PT746</name></trkpt>
<trkpt lat="54.658423" lon="-2.968748"><ele>228</ele><time>2020-08-11T10:18:59Z</time><name>PT747</name></trkpt>
<trkpt lat="54.658430" lon="-2.968741"><ele>228</ele><time>2020-08-11T10:19:00Z</time><name>PT748</name></trkpt>
<trkpt lat="54.658436" lon="-2.968739"><ele>228</ele><time>2020-08-11T10:19:01Z</time><name>PT749</name></trkpt>
<trkpt lat="54.658442" lon="-2.968735"><ele>228</ele><time>2020-08-11T10:19:02Z</time><name>PT750</name></trkpt>
<trkpt lat="54.658443" lon="-2.968731"><ele>228</ele><time>2020-08-11T10:19:03Z</time><name>PT751</name></trkpt>
<trkpt lat="54.658446" lon="-2.968720"><ele>228</ele><time>2020-08-11T10:19:04Z</time><name>PT752</name></trkpt>
<trkpt lat="54.658447" lon="-2.968707"><ele>228</ele><time>2020-08-11T10:19:05Z</time><name>PT753</name></trkpt>
<trkpt lat="54.658443" lon="-2.968691"><ele>227</ele><time>2020-08-11T10:19:06Z</time><name>PT754</name></trkpt>
<trkpt lat="54.658440" lon="-2.968680"><ele>227</ele><time>2020-08-11T10:19:07Z</time><name>PT755</name></trkpt>
<trkpt lat="54.658436" lon="-2.968665"><ele>227</ele><time>2020-08-11T10:19:08Z</time><name>PT756</name></trkpt>
<trkpt lat="54.658436" lon="-2.968645"><ele>228</ele><time>2020-08-11T10:19:09Z</time><name>PT757</name></trkpt>
<trkpt lat="54.658439" lon="-2.968624"><ele>227</ele><time>2020-08-11T10:19:10Z</time><name>PT758</name></trkpt>
<trkpt lat="54.658441" lon="-2.968605"><ele>227</ele><time>2020-08-11T10:19:11Z</time><name>PT759</name></trkpt>
<trkpt lat="54.658443" lon="-2.968583"><ele>227</ele><time>2020-08-11T10:19:12Z</time><name>PT760</name></trkpt>
<trkpt lat="54.658444" lon="-2.968561"><ele>227</ele><time>2020-08-11T10:19:13Z</time><name>PT761</name></trkpt>
<trkpt lat="54.658449" lon="-2.968541"><ele>228</ele><time>2020-08-11T10:19:14Z</time><name>PT762</name></trkpt>
<trkpt lat="54.658452" lon="-2.968527"><ele>228</ele><time>2020-08-11T10:19:15Z</time><name>PT763</name></trkpt>
<trkpt lat="54.658453" lon="-2.968510"><ele>228</ele><time>2020-08-11T10:19:16Z</time><name>PT764</name></trkpt>
<trkpt lat="54.658452" lon="-2.968488"><ele>228</ele><time>2020-08-11T10:19:17Z</time><name>PT765</name></trkpt>
<trkpt lat="54.658453" lon="-2.968464"><ele>228</ele><time>2020-08-11T10:19:18Z</time><name>PT766</name></trkpt>
<trkpt lat="54.658454" lon="-2.968441"><ele>228</ele><time>2020-08-11T10:19:19Z</time><name>PT767</name></trkpt>
<trkpt lat="54.658457" lon="-2.968419"><ele>228</ele><time>2020-08-11T10:19:20Z</time><name>PT768</name></trkpt>
<trkpt lat="54.658460" lon="-2.968396"><ele>228</ele><time>2020-08-11T10:19:21Z</time><name>PT769</name></trkpt>
<trkpt lat="54.658463" lon="-2.968373"><ele>228</ele><time>2020-08-11T10:19:22Z</time><name>PT770</name></trkpt>
<trkpt lat="54.658467" lon="-2.968349"><ele>228</ele><time>2020-08-11T10:19:23Z</time><name>PT771</name></trkpt>
<trkpt lat="54.658470" lon="-2.968327"><ele>228</ele><time>2020-08-11T10:19:24Z</time><name>PT772</name></trkpt>
<trkpt lat="54.658472" lon="-2.968305"><ele>228</ele><time>2020-08-11T10:19:25Z</time><name>PT773</name></trkpt>
<trkpt lat="54.658474" lon="-2.968279"><ele>228</ele><time>2020-08-11T10:19:26Z</time><name>PT774</name></trkpt>
<trkpt lat="54.658476" lon="-2.968252"><ele>229</ele><time>2020-08-11T10:19:27Z</time><name>PT775</name></trkpt>
<trkpt lat="54.658477" lon="-2.968226"><ele>229</ele><time>2020-08-11T10:19:28Z</time><name>PT776</name></trkpt>
<trkpt lat="54.658478" lon="-2.968203"><ele>229</ele><time>2020-08-11T10:19:29Z</time><name>PT777</name></trkpt>
<trkpt lat="54.658480" lon="-2.968180"><ele>229</ele><time>2020-08-11T10:19:30Z</time><name>PT778</name></trkpt>
<trkpt lat="54.658483" lon="-2.968156"><ele>229</ele><time>2020-08-11T10:19:31Z</time><name>PT779</name></trkpt>
<trkpt lat="54.658485" lon="-2.968133"><ele>229</ele><time>2020-08-11T10:19:32Z</time><name>PT780</name></trkpt>
<trkpt lat="54.658487" lon="-2.968113"><ele>229</ele><time>2020-08-11T10:19:33Z</time><name>PT781</name></trkpt>
<trkpt lat="54.658489" lon="-2.968092"><ele>229</ele><time>2020-08-11T10:19:34Z</time><name>PT782</name></trkpt>
<trkpt lat="54.658491" lon="-2.968072"><ele>229</ele><time>2020-08-11T10:19:35Z</time><name>PT783</name></trkpt>
<trkpt lat="54.658495" lon="-2.968050"><ele>229</ele><time>2020-08-11T10:19:36Z</time><name>PT784</name></trkpt>
<trkpt lat="54.658498" lon="-2.968029"><ele>229</ele><time>2020-08-11T10:19:37Z</time><name>PT785</name></trkpt>
<trkpt lat="54.658500" lon="-2.968009"><ele>229</ele><time>2020-08-11T10:19:38Z</time><name>PT786</name></trkpt>
<trkpt lat="54.658501" lon="-2.967986"><ele>230</ele><time>2020-08-11T10:19:39Z</time><name>PT787</name></trkpt>
<trkpt lat="54.658502" lon="-2.967963"><ele>230</ele><time>2020-08-11T10:19:40Z</time><name>PT788</name></trkpt>
<trkpt lat="54.658503" lon="-2.967941"><ele>230</ele><time>2020-08-11T10:19:41Z</time><name>PT789</name></trkpt>
<trkpt lat="54.658504" lon="-2.967917"><ele>230</ele><time>2020-08-11T10:19:42Z</time><name>PT790</name></trkpt>
<trkpt lat="54.658506" lon="-2.967896"><ele>230</ele><time>2020-08-11T10:19:43Z</time><name>PT791</name></trkpt>
<trkpt lat="54.658507" lon="-2.967878"><ele>230</ele><time>2020-08-11T10:19:44Z</time><name>PT792</name></trkpt>
<trkpt lat="54.658507" lon="-2.967857"><ele>230</ele><time>2020-08-11T10:19:45Z</time><name>PT793</name></trkpt>
<trkpt lat="54.658507" lon="-2.967836"><ele>230</ele><time>2020-08-11T10:19:46Z</time><name>PT794</name></trkpt>
<trkpt lat="54.658507" lon="-2.967814"><ele>230</ele><time>2020-08-11T10:19:47Z</time><name>PT795</name></trkpt>
<trkpt lat="54.658507" lon="-2.967793"><ele>230</ele><time>2020-08-11T10:19:48Z</time><name>PT796</name></trkpt>
<trkpt lat="54.658507" lon="-2.967771"><ele>230</ele><time>2020-08-11T10:19:49Z</time><name>PT797</name></trkpt>
<trkpt lat="54.658506" lon="-2.967751"><ele>230</ele><time>2020-08-11T10:19:50Z</time><name>PT798</name></trkpt>
<trkpt lat="54.658506" lon="-2.967731"><ele>230</ele><time>2020-08-11T10:19:51Z</time><name>PT799</name></trkpt>
<trkpt lat="54.658506" lon="-2.967708"><ele>230</ele><time>2020-08-11T10:19:52Z</time><name>PT800</name></trkpt>
<trkpt lat="54.658506" lon="-2.967688"><ele>230</ele><time>2020-08-11T10:19:53Z</time><name>PT801</name></trkpt>
<trkpt lat="54.658500" lon="-2.967662"><ele>230</ele><time>2020-08-11T10:19:54Z</time><name>PT802</name></trkpt>
<trkpt lat="54.658499" lon="-2.967643"><ele>230</ele><time>2020-08-11T10:19:55Z</time><name>PT803</name></trkpt>
<trkpt lat="54.658498" lon="-2.967623"><ele>230</ele><time>2020-08-11T10:19:56Z</time><name>PT804</name></trkpt>
<trkpt lat="54.658498" lon="-2.967600"><ele>230</ele><time>2020-08-11T10:19:57Z</time><name>PT805</name></trkpt>
<trkpt lat="54.658498" lon="-2.967578"><ele>230</ele><time>2020-08-11T10:19:58Z</time><name>PT806</name></trkpt>
<trkpt lat="54.658496" lon="-2.967554"><ele>230</ele><time>2020-08-11T10:19:59Z</time><name>PT807</name></trkpt>
<trkpt lat="54.658497" lon="-2.967532"><ele>230</ele><time>2020-08-11T10:20:00Z</time><name>PT808</name></trkpt>
<trkpt lat="54.658497" lon="-2.967510"><ele>231</ele><time>2020-08-11T10:20:01Z</time><name>PT809</name></trkpt>
<trkpt lat="54.658499" lon="-2.967486"><ele>231</ele><time>2020-08-11T10:20:02Z</time><name>PT810</name></trkpt>
<trkpt lat="54.658502" lon="-2.967465"><ele>231</ele><time>2020-08-11T10:20:03Z</time><name>PT811</name></trkpt>
<trkpt lat="54.658502" lon="-2.967443"><ele>231</ele><time>2020-08-11T10:20:04Z</time><name>PT812</name></trkpt>
<trkpt lat="54.658503" lon="-2.967420"><ele>231</ele><time>2020-08-11T10:20:05Z</time><name>PT813</name></trkpt>
<trkpt lat="54.658505" lon="-2.967398"><ele>231</ele><time>2020-08-11T10:20:06Z</time><name>PT814</name></trkpt>
<trkpt lat="54.658507" lon="-2.967370"><ele>231</ele><time>2020-08-11T10:20:07Z</time><name>PT815</name></trkpt>
<trkpt lat="54.658508" lon="-2.967346"><ele>231</ele><time>2020-08-11T10:20:08Z</time><name>PT816</name></trkpt>
<trkpt lat="54.658509" lon="-2.967325"><ele>231</ele><time>2020-08-11T10:20:09Z</time><name>PT817</name></trkpt>
<trkpt lat="54.658511" lon="-2.967300"><ele>231</ele><time>2020-08-11T10:20:10Z</time><name>PT818</name></trkpt>
<trkpt lat="54.658514" lon="-2.967276"><ele>231</ele><time>2020-08-11T10:20:11Z</time><name>PT819</name></trkpt>
<trkpt lat="54.658518" lon="-2.967255"><ele>231</ele><time>2020-08-11T10:20:12Z</time><name>PT820</name></trkpt>
<trkpt lat="54.658522" lon="-2.967234"><ele>231</ele><time>2020-08-11T10:20:13Z</time><name>PT821</name></trkpt>
<trkpt lat="54.658524" lon="-2.967214"><ele>231</ele><time>2020-08-11T10:20:14Z</time><name>PT822</name></trkpt>
<trkpt lat="54.658526" lon="-2.967192"><ele>231</ele><time>2020-08-11T10:20:15Z</time><name>PT823</name></trkpt>
<trkpt lat="54.658529" lon="-2.967170"><ele>231</ele><time>2020-08-11T10:20:16Z</time><name>PT824</name></trkpt>
<trkpt lat="54.658531" lon="-2.967147"><ele>231</ele><time>2020-08-11T10:20:17Z</time><name>PT825</name></trkpt>
<trkpt lat="54.658534" lon="-2.967125"><ele>231</ele><time>2020-08-11T10:20:18Z</time><name>PT826</name></trkpt>
<trkpt lat="54.658538" lon="-2.967107"><ele>231</ele><time>2020-08-11T10:20:19Z</time><name>PT827</name></trkpt>
<trkpt lat="54.658539" lon="-2.967085"><ele>231</ele><time>2020-08-11T10:20:20Z</time><name>PT828</name></trkpt>
<trkpt lat="54.658539" lon="-2.967060"><ele>231</ele><time>2020-08-11T10:20:21Z</time><name>PT829</name></trkpt>
<trkpt lat="54.658541" lon="-2.967037"><ele>231</ele><time>2020-08-11T10:20:22Z</time><name>PT830</name></trkpt>
<trkpt lat="54.658542" lon="-2.967014"><ele>231</ele><time>2020-08-11T10:20:23Z</time><name>PT831</name></trkpt>
<trkpt lat="54.658544" lon="-2.966992"><ele>231</ele><time>2020-08-11T10:20:24Z</time><name>PT832</name></trkpt>
<trkpt lat="54.658545" lon="-2.966969"><ele>231</ele><time>2020-08-11T10:20:25Z</time><name>PT833</name></trkpt>
<trkpt lat="54.658545" lon="-2.966946"><ele>231</ele><time>2020-08-11T10:20:26Z</time><name>PT834</name></trkpt>
<trkpt lat="54.658546" lon="-2.966923"><ele>232</ele><time>2020-08-11T10:20:27Z</time><name>PT835</name></trkpt>
<trkpt lat="54.658549" lon="-2.966900"><ele>232</ele><time>2020-08-11T10:20:28Z</time><name>PT836</name></trkpt>
<trkpt lat="54.658552" lon="-2.966880"><ele>232</ele><time>2020-08-11T10:20:29Z</time><name>PT837</name></trkpt>
<trkpt lat="54.658554" lon="-2.966858"><ele>232</ele><time>2020-08-11T10:20:30Z</time><name>PT838</name></trkpt>
<trkpt lat="54.658556" lon="-2.966838"><ele>232</ele><time>2020-08-11T10:20:31Z</time><name>PT839</name></trkpt>
<trkpt lat="54.658556" lon="-2.966817"><ele>231</ele><time>2020-08-11T10:20:32Z</time><name>PT840</name></trkpt>
<trkpt lat="54.658558" lon="-2.966793"><ele>231</ele><time>2020-08-11T10:20:33Z</time><name>PT841</name></trkpt>
<trkpt lat="54.658559" lon="-2.966774"><ele>231</ele><time>2020-08-11T10:20:34Z</time><name>PT842</name></trkpt>
<trkpt lat="54.658562" lon="-2.966753"><ele>231</ele><time>2020-08-11T10:20:35Z</time><name>PT843</name></trkpt>
<trkpt lat="54.658563" lon="-2.966733"><ele>231</ele><time>2020-08-11T10:20:36Z</time><name>PT844</name></trkpt>
<trkpt lat="54.658565" lon="-2.966712"><ele>231</ele><time>2020-08-11T10:20:37Z</time><name>PT845</name></trkpt>
<trkpt lat="54.658567" lon="-2.966691"><ele>231</ele><time>2020-08-11T10:20:38Z</time><name>PT846</name></trkpt>
<trkpt lat="54.658567" lon="-2.966670"><ele>231</ele><time>2020-08-11T10:20:39Z</time><name>PT847</name></trkpt>
<trkpt lat="54.658567" lon="-2.966647"><ele>231</ele><time>2020-08-11T10:20:40Z</time><name>PT848</name></trkpt>
<trkpt lat="54.658567" lon="-2.966626"><ele>231</ele><time>2020-08-11T10:20:41Z</time><name>PT849</name></trkpt>
<trkpt lat="54.658568" lon="-2.966604"><ele>231</ele><time>2020-08-11T10:20:42Z</time><name>PT850</name></trkpt>
<trkpt lat="54.658568" lon="-2.966581"><ele>231</ele><time>2020-08-11T10:20:43Z</time><name>PT851</name></trkpt>
<trkpt lat="54.658569" lon="-2.966561"><ele>231</ele><time>2020-08-11T10:20:44Z</time><name>PT852</name></trkpt>
<trkpt lat="54.658569" lon="-2.966540"><ele>231</ele><time>2020-08-11T10:20:45Z</time><name>PT853</name></trkpt>
<trkpt lat="54.658568" lon="-2.966518"><ele>231</ele><time>2020-08-11T10:20:46Z</time><name>PT854</name></trkpt>
<trkpt lat="54.658567" lon="-2.966496"><ele>231</ele><time>2020-08-11T10:20:47Z</time><name>PT855</name></trkpt>
<trkpt lat="54.658568" lon="-2.966472"><ele>231</ele><time>2020-08-11T10:20:48Z</time><name>PT856</name></trkpt>
<trkpt lat="54.658568" lon="-2.966451"><ele>231</ele><time>2020-08-11T10:20:49Z</time><name>PT857</name></trkpt>
<trkpt lat="54.658568" lon="-2.966429"><ele>231</ele><time>2020-08-11T10:20:50Z</time><name>PT858</name></trkpt>
<trkpt lat="54.658568" lon="-2.966408"><ele>231</ele><time>2020-08-11T10:20:51Z</time><name>PT859</name></trkpt>
<trkpt lat="54.658568" lon="-2.966386"><ele>231</ele><time>2020-08-11T10:20:52Z</time><name>PT860</name></trkpt>
<trkpt lat="54.658568" lon="-2.966363"><ele>231</ele><time>2020-08-11T10:20:53Z</time><name>PT861</name></trkpt>
<trkpt lat="54.658567" lon="-2.966338"><ele>232</ele><time>2020-08-11T10:20:54Z</time><name>PT862</name></trkpt>
<trkpt lat="54.658568" lon="-2.966317"><ele>232</ele><time>2020-08-11T10:20:55Z</time><name>PT863</name></trkpt>
<trkpt lat="54.658569" lon="-2.966296"><ele>232</ele><time>2020-08-11T10:20:56Z</time><name>PT864</name></trkpt>
<trkpt lat="54.658571" lon="-2.966275"><ele>232</ele><time>2020-08-11T10:20:57Z</time><name>PT865</name></trkpt>
<trkpt lat="54.658574" lon="-2.966254"><ele>231</ele><time>2020-08-11T10:20:58Z</time><name>PT866</name></trkpt>
<trkpt lat="54.658578" lon="-2.966236"><ele>231</ele><time>2020-08-11T10:20:59Z</time><name>PT867</name></trkpt>
<trkpt lat="54.658581" lon="-2.966214"><ele>231</ele><time>2020-08-11T10:21:00Z</time><name>PT868</name></trkpt>
<trkpt lat="54.658586" lon="-2.966192"><ele>231</ele><time>2020-08-11T10:21:01Z</time><name>PT869</name></trkpt>
<trkpt lat="54.658590" lon="-2.966171"><ele>232</ele><time>2020-08-11T10:21:02Z</time><name>PT870</name></trkpt>
<trkpt lat="54.658595" lon="-2.966153"><ele>231</ele><time>2020-08-11T10:21:03Z</time><name>PT871</name></trkpt>
<trkpt lat="54.658599" lon="-2.966134"><ele>232</ele><time>2020-08-11T10:21:04Z</time><name>PT872</name></trkpt>
<trkpt lat="54.658604" lon="-2.966116"><ele>232</ele><time>2020-08-11T10:21:05Z</time><name>PT873</name></trkpt>
<trkpt lat="54.658609" lon="-2.966097"><ele>232</ele><time>2020-08-11T10:21:06Z</time><name>PT874</name></trkpt>
<trkpt lat="54.658615" lon="-2.966078"><ele>231</ele><time>2020-08-11T10:21:07Z</time><name>PT875</name></trkpt>
<trkpt lat="54.658621" lon="-2.966061"><ele>231</ele><time>2020-08-11T10:21:08Z</time><name>PT876</name></trkpt>
<trkpt lat="54.658627" lon="-2.966043"><ele>232</ele><time>2020-08-11T10:21:09Z</time><name>PT877</name></trkpt>
<trkpt lat="54.658633" lon="-2.966026"><ele>232</ele><time>2020-08-11T10:21:10Z</time><name>PT878</name></trkpt>
<trkpt lat="54.658638" lon="-2.966008"><ele>232</ele><time>2020-08-11T10:21:11Z</time><name>PT879</name></trkpt>
<trkpt lat="54.658645" lon="-2.965988"><ele>232</ele><time>2020-08-11T10:21:12Z</time><name>PT880</name></trkpt>
<trkpt lat="54.658651" lon="-2.965970"><ele>232</ele><time>2020-08-11T10:21:13Z</time><name>PT881</name></trkpt>
<trkpt lat="54.658656" lon="-2.965951"><ele>232</ele><time>2020-08-11T10:21:14Z</time><name>PT882</name></trkpt>
<trkpt lat="54.658662" lon="-2.965934"><ele>232</ele><time>2020-08-11T10:21:15Z</time><name>PT883</name></trkpt>
<trkpt lat="54.658667" lon="-2.965918"><ele>232</ele><time>2020-08-11T10:21:16Z</time><name>PT884</name></trkpt>
<trkpt lat="54.658672" lon="-2.965903"><ele>232</ele><time>2020-08-11T10:21:17Z</time><name>PT885</name></trkpt>
<trkpt lat="54.658677" lon="-2.965886"><ele>232</ele><time>2020-08-11T10:21:18Z</time><name>PT886</name></trkpt>
<trkpt lat="54.658684" lon="-2.965874"><ele>232</ele><time>2020-08-11T10:21:19Z</time><name>PT887</name></trkpt>
<trkpt lat="54.658693" lon="-2.965865"><ele>232</ele><time>2020-08-11T10:21:20Z</time><name>PT888</name></trkpt>
<trkpt lat="54.658701" lon="-2.965862"><ele>232</ele><time>2020-08-11T10:21:21Z</time><name>PT889</name></trkpt>
<trkpt lat="54.658703" lon="-2.965859"><ele>232</ele><time>2020-08-11T10:21:22Z</time><name>PT890</name></trkpt>
<trkpt lat="54.658703" lon="-2.965859"><ele>231</ele><time>2020-08-11T10:21:23Z</time><name>PT891</name></trkpt>
<trkpt lat="54.658697" lon="-2.965859"><ele>231</ele><time>2020-08-11T10:21:24Z</time><name>PT892</name></trkpt>
<trkpt lat="54.658694" lon="-2.965855"><ele>230</ele><time>2020-08-11T10:21:25Z</time><name>PT893</name></trkpt>
<trkpt lat="54.658695" lon="-2.965849"><ele>230</ele><time>2020-08-11T10:21:26Z</time><name>PT894</name></trkpt>
<trkpt lat="54.658698" lon="-2.965846"><ele>230</ele><time>2020-08-11T10:21:27Z</time><name>PT895</name></trkpt>
<trkpt lat="54.658706" lon="-2.965842"><ele>230</ele><time>2020-08-11T10:21:28Z</time><name>PT896</name></trkpt>
<trkpt lat="54.658714" lon="-2.965833"><ele>230</ele><time>2020-08-11T10:21:29Z</time><name>PT897</name></trkpt>
<trkpt lat="54.658722" lon="-2.965821"><ele>230</ele><time>2020-08-11T10:21:30Z</time><name>PT898</name></trkpt>
<trkpt lat="54.658729" lon="-2.965809"><ele>230</ele><time>2020-08-11T10:21:31Z</time><name>PT899</name></trkpt>
<trkpt lat="54.658733" lon="-2.965799"><ele>230</ele><time>2020-08-11T10:21:32Z</time><name>PT900</name></trkpt>
<trkpt lat="54.658736" lon="-2.965791"><ele>230</ele><time>2020-08-11T10:21:33Z</time><name>PT901</name></trkpt>
<trkpt lat="54.658738" lon="-2.965785"><ele>230</ele><time>2020-08-11T10:21:34Z</time><name>PT902</name></trkpt>
<trkpt lat="54.658742" lon="-2.965780"><ele>230</ele><time>2020-08-11T10:21:35Z</time><name>PT903</name></trkpt>
<trkpt lat="54.658747" lon="-2.965771"><ele>231</ele><time>2020-08-11T10:21:36Z</time><name>PT904</name></trkpt>
<trkpt lat="54.658751" lon="-2.965757"><ele>231</ele><time>2020-08-11T10:21:37Z</time><name>PT905</name></trkpt>
<trkpt lat="54.658755" lon="-2.965747"><ele>231</ele><time>2020-08-11T10:21:38Z</time><name>PT906</name></trkpt>
<trkpt lat="54.658766" lon="-2.965688"><ele>232</ele><time>2020-08-11T10:21:42Z</time><name>PT907</name></trkpt>
<trkpt lat="54.658765" lon="-2.965646"><ele>232</ele><time>2020-08-11T10:21:45Z</time><name>PT908</name></trkpt>
<trkpt lat="54.658766" lon="-2.965649"><ele>232</ele><time>2020-08-11T10:21:47Z</time><name>PT909</name></trkpt>
<trkpt lat="54.658765" lon="-2.965649"><ele>232</ele><time>2020-08-11T10:21:48Z</time><name>PT910</name></trkpt>
<trkpt lat="54.658767" lon="-2.965638"><ele>232</ele><time>2020-08-11T10:21:51Z</time><name>PT911</name></trkpt>
<trkpt lat="54.658769" lon="-2.965623"><ele>233</ele><time>2020-08-11T10:21:52Z</time><name>PT912</name></trkpt>
<trkpt lat="54.658771" lon="-2.965610"><ele>233</ele><time>2020-08-11T10:21:53Z</time><name>PT913</name></trkpt>
<trkpt lat="54.658773" lon="-2.965596"><ele>233</ele><time>2020-08-11T10:21:54Z</time><name>PT914</name></trkpt>
<trkpt lat="54.658776" lon="-2.965580"><ele>233</ele><time>2020-08-11T10:21:55Z</time><name>PT915</name></trkpt>
<trkpt lat="54.658781" lon="-2.965566"><ele>233</ele><time>2020-08-11T10:21:56Z</time><name>PT916</name></trkpt>
<trkpt lat="54.658784" lon="-2.965553"><ele>233</ele><time>2020-08-11T10:21:57Z</time><name>PT917</name></trkpt>
<trkpt lat="54.658791" lon="-2.965538"><ele>233</ele><time>2020-08-11T10:21:58Z</time><name>PT918</name></trkpt>
<trkpt lat="54.658799" lon="-2.965525"><ele>233</ele><time>2020-08-11T10:21:59Z</time><name>PT919</name></trkpt>
<trkpt lat="54.658808" lon="-2.965517"><ele>233</ele><time>2020-08-11T10:22:00Z</time><name>PT920</name></trkpt>
<trkpt lat="54.658817" lon="-2.965502"><ele>233</ele><time>2020-08-11T10:22:01Z</time><name>PT921</name></trkpt>
<trkpt lat="54.658825" lon="-2.965493"><ele>233</ele><time>2020-08-11T10:22:02Z</time><name>PT922</name></trkpt>
<trkpt lat="54.658835" lon="-2.965485"><ele>233</ele><time>2020-08-11T10:22:03Z</time><name>PT923</name></trkpt>
<trkpt lat="54.658845" lon="-2.965479"><ele>234</ele><time>2020-08-11T10:22:04Z</time><name>PT924</name></trkpt>
<trkpt lat="54.658849" lon="-2.965470"><ele>234</ele><time>2020-08-11T10:22:05Z</time><name>PT925</name></trkpt>
<trkpt lat="54.658852" lon="-2.965458"><ele>234</ele><time>2020-08-11T10:22:06Z</time><name>PT926</name></trkpt>
<trkpt lat="54.658855" lon="-2.965446"><ele>234</ele><time>2020-08-11T10:22:07Z</time><name>PT927</name></trkpt>
<trkpt lat="54.658858" lon="-2.965435"><ele>234</ele><time>2020-08-11T10:22:08Z</time><name>PT928</name></trkpt>
<trkpt lat="54.658857" lon="-2.965422"><ele>234</ele><time>2020-08-11T10:22:09Z</time><name>PT929</name></trkpt>
<trkpt lat="54.658857" lon="-2.965407"><ele>234</ele><time>2020-08-11T10:22:10Z</time><name>PT930</name></trkpt>
<trkpt lat="54.658858" lon="-2.965393"><ele>234</ele><time>2020-08-11T10:22:11Z</time><name>PT931</name></trkpt>
<trkpt lat="54.658861" lon="-2.965378"><ele>234</ele><time>2020-08-11T10:22:12Z</time><name>PT932</name></trkpt>
<trkpt lat="54.658863" lon="-2.965362"><ele>234</ele><time>2020-08-11T10:22:13Z</time><name>PT933</name></trkpt>
<trkpt lat="54.658867" lon="-2.965350"><ele>234</ele><time>2020-08-11T10:22:14Z</time><name>PT934</name></trkpt>
<trkpt lat="54.658863" lon="-2.965340"><ele>234</ele><time>2020-08-11T10:22:15Z</time><name>PT935</name></trkpt>
<trkpt lat="54.658865" lon="-2.965328"><ele>234</ele><time>2020-08-11T10:22:16Z</time><name>PT936</name></trkpt>
<trkpt lat="54.658865" lon="-2.965318"><ele>234</ele><time>2020-08-11T10:22:17Z</time><name>PT937</name></trkpt>
<trkpt lat="54.658862" lon="-2.965308"><ele>234</ele><time>2020-08-11T10:22:18Z</time><name>PT938</name></trkpt>
<trkpt lat="54.658858" lon="-2.965299"><ele>234</ele><time>2020-08-11T10:22:19Z</time><name>PT939</name></trkpt>
<trkpt lat="54.658851" lon="-2.965287"><ele>234</ele><time>2020-08-11T10:22:20Z</time><name>PT940</name></trkpt>
<trkpt lat="54.658844" lon="-2.965280"><ele>234</ele><time>2020-08-11T10:22:21Z</time><name>PT941</name></trkpt>
<trkpt lat="54.658839" lon="-2.965286"><ele>234</ele><time>2020-08-11T10:22:22Z</time><name>PT942</name></trkpt>
<trkpt lat="54.658835" lon="-2.965278"><ele>234</ele><time>2020-08-11T10:22:23Z</time><name>PT943</name></trkpt>
<trkpt lat="54.658829" lon="-2.965268"><ele>235</ele><time>2020-08-11T10:22:24Z</time><name>PT944</name></trkpt>
<trkpt lat="54.658822" lon="-2.965266"><ele>235</ele><time>2020-08-11T10:22:25Z</time><name>PT945</name></trkpt>
<trkpt lat="54.658817" lon="-2.965256"><ele>235</ele><time>2020-08-11T10:22:26Z</time><name>PT946</name></trkpt>
<trkpt lat="54.658817" lon="-2.965244"><ele>235</ele><time>2020-08-11T10:22:27Z</time><name>PT947</name></trkpt>
<trkpt lat="54.658813" lon="-2.965230"><ele>235</ele><time>2020-08-11T10:22:28Z</time><name>PT948</name></trkpt>
<trkpt lat="54.658811" lon="-2.965216"><ele>235</ele><time>2020-08-11T10:22:29Z</time><name>PT949</name></trkpt>
<trkpt lat="54.658807" lon="-2.965207"><ele>235</ele><time>2020-08-11T10:22:30Z</time><name>PT950</name></trkpt>
<trkpt lat="54.658800" lon="-2.965200"><ele>235</ele><time>2020-08-11T10:22:31Z</time><name>PT951</name></trkpt>
<trkpt lat="54.658792" lon="-2.965191"><ele>235</ele><time>2020-08-11T10:22:32Z</time><name>PT952</name></trkpt>
<trkpt lat="54.658785" lon="-2.965183"><ele>235</ele><time>2020-08-11T10:22:33Z</time><name>PT953</name></trkpt>
<trkpt lat="54.658779" lon="-2.965176"><ele>235</ele><time>2020-08-11T10:22:34Z</time><name>PT954</name></trkpt>
<trkpt lat="54.658771" lon="-2.965168"><ele>234</ele><time>2020-08-11T10:22:35Z</time><name>PT955</name></trkpt>
<trkpt lat="54.658765" lon="-2.965160"><ele>234</ele><time>2020-08-11T10:22:36Z</time><name>PT956</name></trkpt>
<trkpt lat="54.658765" lon="-2.965154"><ele>234</ele><time>2020-08-11T10:22:37Z</time><name>PT957</name></trkpt>
<trkpt lat="54.658763" lon="-2.965141"><ele>235</ele><time>2020-08-11T10:22:38Z</time><name>PT958</name></trkpt>
<trkpt lat="54.658762" lon="-2.965126"><ele>235</ele><time>2020-08-11T10:22:39Z</time><name>PT959</name></trkpt>
<trkpt lat="54.658757" lon="-2.965109"><ele>235</ele><time>2020-08-11T10:22:40Z</time><name>PT960</name></trkpt>
<trkpt lat="54.658754" lon="-2.965100"><ele>235</ele><time>2020-08-11T10:22:41Z</time><name>PT961</name></trkpt>
<trkpt lat="54.658753" lon="-2.965090"><ele>236</ele><time>2020-08-11T10:22:42Z</time><name>PT962</name></trkpt>
<trkpt lat="54.658754" lon="-2.965078"><ele>236</ele><time>2020-08-11T10:22:43Z</time><name>PT963</name></trkpt>
<trkpt lat="54.658755" lon="-2.965062"><ele>236</ele><time>2020-08-11T10:22:44Z</time><name>PT964</name></trkpt>
<trkpt lat="54.658757" lon="-2.965047"><ele>236</ele><time>2020-08-11T10:22:45Z</time><name>PT965</name></trkpt>
<trkpt lat="54.658757" lon="-2.965029"><ele>236</ele><time>2020-08-11T10:22:46Z</time><name>PT966</name></trkpt>
<trkpt lat="54.658757" lon="-2.965011"><ele>236</ele><time>2020-08-11T10:22:47Z</time><name>PT967</name></trkpt>
<trkpt lat="54.658759" lon="-2.964996"><ele>236</ele><time>2020-08-11T10:22:48Z</time><name>PT968</name></trkpt>
<trkpt lat="54.658759" lon="-2.964980"><ele>236</ele><time>2020-08-11T10:22:49Z</time><name>PT969</name></trkpt>
<trkpt lat="54.658759" lon="-2.964966"><ele>237</ele><time>2020-08-11T10:22:50Z</time><name>PT970</name></trkpt>
<trkpt lat="54.658759" lon="-2.964951"><ele>237</ele><time>2020-08-11T10:22:51Z</time><name>PT971</name></trkpt>
<trkpt lat="54.658759" lon="-2.964932"><ele>237</ele><time>2020-08-11T10:22:52Z</time><name>PT972</name></trkpt>
<trkpt lat="54.658758" lon="-2.964913"><ele>237</ele><time>2020-08-11T10:22:53Z</time><name>PT973</name></trkpt>
<trkpt lat="54.658757" lon="-2.964894"><ele>237</ele><time>2020-08-11T10:22:54Z</time><name>PT974</name></trkpt>
<trkpt lat="54.658755" lon="-2.964876"><ele>238</ele><time>2020-08-11T10:22:55Z</time><name>PT975</name></trkpt>
<trkpt lat="54.658753" lon="-2.964857"><ele>238</ele><time>2020-08-11T10:22:56Z</time><name>PT976</name></trkpt>
<trkpt lat="54.658751" lon="-2.964840"><ele>238</ele><time>2020-08-11T10:22:57Z</time><name>PT977</name></trkpt>
<trkpt lat="54.658749" lon="-2.964823"><ele>238</ele><time>2020-08-11T10:22:58Z</time><name>PT978</name></trkpt>
<trkpt lat="54.658746" lon="-2.964808"><ele>238</ele><time>2020-08-11T10:22:59Z</time><name>PT979</name></trkpt>
<trkpt lat="54.658741" lon="-2.964790"><ele>238</ele><time>2020-08-11T10:23:00Z</time><name>PT980</name></trkpt>
<trkpt lat="54.658739" lon="-2.964773"><ele>238</ele><time>2020-08-11T10:23:01Z</time><name>PT981</name></trkpt>
<trkpt lat="54.658738" lon="-2.964754"><ele>238</ele><time>2020-08-11T10:23:02Z</time><name>PT982</name></trkpt>
<trkpt lat="54.658739" lon="-2.964738"><ele>238</ele><time>2020-08-11T10:23:03Z</time><name>PT983</name></trkpt>
<trkpt lat="54.658740" lon="-2.964726"><ele>238</ele><time>2020-08-11T10:23:04Z</time><name>PT984</name></trkpt>
<trkpt lat="54.658741" lon="-2.964716"><ele>239</ele><time>2020-08-11T10:23:05Z</time><name>PT985</name></trkpt>
<trkpt lat="54.658743" lon="-2.964706"><ele>239</ele><time>2020-08-11T10:23:06Z</time><name>PT986</name></trkpt>
<trkpt lat="54.658744" lon="-2.964699"><ele>239</ele><time>2020-08-11T10:23:07Z</time><name>PT987</name></trkpt>
<trkpt lat="54.658746" lon="-2.964694"><ele>239</ele><time>2020-08-11T10:23:08Z</time><name>PT988</name></trkpt>
<trkpt lat="54.658742" lon="-2.964686"><ele>239</ele><time>2020-08-11T10:23:09Z</time><name>PT989</name></trkpt>
<trkpt lat="54.658741" lon="-2.964677"><ele>239</ele><time>2020-08-11T10:23:10Z</time><name>PT990</name></trkpt>
<trkpt lat="54.658741" lon="-2.964672"><ele>238</ele><time>2020-08-11T10:23:11Z</time><name>PT991</name></trkpt>
<trkpt lat="54.658741" lon="-2.964668"><ele>238</ele><time>2020-08-11T10:23:12Z</time><name>PT992</name></trkpt>
<trkpt lat="54.658737" lon="-2.964660"><ele>238</ele><time>2020-08-11T10:23:13Z</time><name>PT993</name></trkpt>
<trkpt lat="54.658737" lon="-2.964650"><ele>238</ele><time>2020-08-11T10:23:14Z</time><name>PT994</name></trkpt>
<trkpt lat="54.658738" lon="-2.964644"><ele>238</ele><time>2020-08-11T10:23:15Z</time><name>PT995</name></trkpt>
<trkpt lat="54.658738" lon="-2.964636"><ele>238</ele><time>2020-08-11T10:23:16Z</time><name>PT996</name></trkpt>
<trkpt lat="54.658741" lon="-2.964626"><ele>238</ele><time>2020-08-11T10:23:17Z</time><name>PT997</name></trkpt>
<trkpt lat="54.658737" lon="-2.964616"><ele>238</ele><time>2020-08-11T10:23:18Z</time><name>PT998</name></trkpt>
<trkpt lat="54.658731" lon="-2.964602"><ele>238</ele><time>2020-08-11T10:23:19Z</time><name>PT999</name></trkpt>
<trkpt lat="54.658725" lon="-2.964589"><ele>238</ele><time>2020-08-11T10:23:20Z</time><name>PT1000</name></trkpt>
<trkpt lat="54.658722" lon="-2.964579"><ele>238</ele><time>2020-08-11T10:23:21Z</time><name>PT1001</name></trkpt>
<trkpt lat="54.658721" lon="-2.964567"><ele>238</ele><time>2020-08-11T10:23:22Z</time><name>PT1002</name></trkpt>
<trkpt lat="54.658719" lon="-2.964556"><ele>238</ele><time>2020-08-11T10:23:23Z</time><name>PT1003</name></trkpt>
<trkpt lat="54.658716" lon="-2.964546"><ele>238</ele><time>2020-08-11T10:23:24Z</time><name>PT1004</name></trkpt>
<trkpt lat="54.658713" lon="-2.964534"><ele>238</ele><time>2020-08-11T10:23:25Z</time><name>PT1005</name></trkpt>
<trkpt lat="54.658712" lon="-2.964528"><ele>238</ele><time>2020-08-11T10:23:26Z</time><name>PT1006</name></trkpt>
<trkpt lat="54.658711" lon="-2.964514"><ele>238</ele><time>2020-08-11T10:23:27Z</time><name>PT1007</name></trkpt>
<trkpt lat="54.658712" lon="-2.964499"><ele>238</ele><time>2020-08-11T10:23:28Z</time><name>PT1008</name></trkpt>
<trkpt lat="54.658713" lon="-2.964486"><ele>238</ele><time>2020-08-11T10:23:29Z</time><name>PT1009</name></trkpt>
<trkpt lat="54.658711" lon="-2.964470"><ele>238</ele><time>2020-08-11T10:23:30Z</time><name>PT1010</name></trkpt>
<trkpt lat="54.658709" lon="-2.964449"><ele>238</ele><time>2020-08-11T10:23:31Z</time><name>PT1011</name></trkpt>
<trkpt lat="54.658707" lon="-2.964433"><ele>238</ele><time>2020-08-11T10:23:32Z</time><name>PT1012</name></trkpt>
<trkpt lat="54.658709" lon="-2.964426"><ele>239</ele><time>2020-08-11T10:23:33Z</time><name>PT1013</name></trkpt>
<trkpt lat="54.658712" lon="-2.964416"><ele>239</ele><time>2020-08-11T10:23:34Z</time><name>PT1014</name></trkpt>
<trkpt lat="54.658712" lon="-2.964394"><ele>239</ele><time>2020-08-11T10:23:35Z</time><name>PT1015</name></trkpt>
<trkpt lat="54.658713" lon="-2.964374"><ele>239</ele><time>2020-08-11T10:23:36Z</time><name>PT1016</name></trkpt>
<trkpt lat="54.658717" lon="-2.964366"><ele>239</ele><time>2020-08-11T10:23:37Z</time><name>PT1017</name></trkpt>
<trkpt lat="54.658717" lon="-2.964359"><ele>239</ele><time>2020-08-11T10:23:38Z</time><name>PT1018</name></trkpt>
<trkpt lat="54.658717" lon="-2.964337"><ele>239</ele><time>2020-08-11T10:23:39Z</time><name>PT1019</name></trkpt>
<trkpt lat="54.658719" lon="-2.964307"><ele>240</ele><time>2020-08-11T10:23:40Z</time><name>PT1020</name></trkpt>
<trkpt lat="54.658721" lon="-2.964286"><ele>240</ele><time>2020-08-11T10:23:41Z</time><name>PT1021</name></trkpt>
<trkpt lat="54.658723" lon="-2.964280"><ele>240</ele><time>2020-08-11T10:23:42Z</time><name>PT1022</name></trkpt>
<trkpt lat="54.658721" lon="-2.964266"><ele>240</ele><time>2020-08-11T10:23:43Z</time><name>PT1023</name></trkpt>
<trkpt lat="54.658731" lon="-2.964244"><ele>240</ele><time>2020-08-11T10:23:44Z</time><name>PT1024</name></trkpt>
<trkpt lat="54.658740" lon="-2.964223"><ele>240</ele><time>2020-08-11T10:23:45Z</time><name>PT1025</name></trkpt>
<trkpt lat="54.658744" lon="-2.964218"><ele>240</ele><time>2020-08-11T10:23:46Z</time><name>PT1026</name></trkpt>
<trkpt lat="54.658742" lon="-2.964212"><ele>240</ele><time>2020-08-11T10:23:47Z</time><name>PT1027</name></trkpt>
<trkpt lat="54.658742" lon="-2.964196"><ele>240</ele><time>2020-08-11T10:23:48Z</time><name>PT1028</name></trkpt>
<trkpt lat="54.658743" lon="-2.964184"><ele>240</ele><time>2020-08-11T10:23:49Z</time><name>PT1029</name></trkpt>
<trkpt lat="54.658745" lon="-2.964162"><ele>240</ele><time>2020-08-11T10:23:50Z</time><name>PT1030</name></trkpt>
<trkpt lat="54.658745" lon="-2.964152"><ele>240</ele><time>2020-08-11T10:23:51Z</time><name>PT1031</name></trkpt>
<trkpt lat="54.658744" lon="-2.964139"><ele>239</ele><time>2020-08-11T10:23:52Z</time><name>PT1032</name></trkpt>
<trkpt lat="54.658739" lon="-2.964122"><ele>239</ele><time>2020-08-11T10:23:53Z</time><name>PT1033</name></trkpt>
<trkpt lat="54.658734" lon="-2.964111"><ele>239</ele><time>2020-08-11T10:23:54Z</time><name>PT1034</name></trkpt>
<trkpt lat="54.658734" lon="-2.964102"><ele>240</ele><time>2020-08-11T10:23:55Z</time><name>PT1035</name></trkpt>
<trkpt lat="54.658735" lon="-2.964084"><ele>240</ele><time>2020-08-11T10:23:56Z</time><name>PT1036</name></trkpt>
<trkpt lat="54.658735" lon="-2.964072"><ele>240</ele><time>2020-08-11T10:23:57Z</time><name>PT1037</name></trkpt>
<trkpt lat="54.658732" lon="-2.964060"><ele>240</ele><time>2020-08-11T10:23:58Z</time><name>PT1038</name></trkpt>
<trkpt lat="54.658731" lon="-2.964045"><ele>240</ele><time>2020-08-11T10:23:59Z</time><name>PT1039</name></trkpt>
<trkpt lat="54.658729" lon="-2.964035"><ele>240</ele><time>2020-08-11T10:24:00Z</time><name>PT1040</name></trkpt>
<trkpt lat="54.658726" lon="-2.964020"><ele>240</ele><time>2020-08-11T10:24:01Z</time><name>PT1041</name></trkpt>
<trkpt lat="54.658726" lon="-2.964013"><ele>240</ele><time>2020-08-11T10:24:02Z</time><name>PT1042</name></trkpt>
<trkpt lat="54.658728" lon="-2.964004"><ele>240</ele><time>2020-08-11T10:24:03Z</time><name>PT1043</name></trkpt>
<trkpt lat="54.658727" lon="-2.964003"><ele>240</ele><time>2020-08-11T10:24:04Z</time><name>PT1044</name></trkpt>
<trkpt lat="54.658726" lon="-2.963986"><ele>240</ele><time>2020-08-11T10:24:05Z</time><name>PT1045</name></trkpt>
<trkpt lat="54.658727" lon="-2.963971"><ele>240</ele><time>2020-08-11T10:24:06Z</time><name>PT1046</name></trkpt>
<trkpt lat="54.658729" lon="-2.963967"><ele>240</ele><time>2020-08-11T10:24:07Z</time><name>PT1047</name></trkpt>
<trkpt lat="54.658727" lon="-2.963958"><ele>240</ele><time>2020-08-11T10:24:08Z</time><name>PT1048</name></trkpt>
<trkpt lat="54.658725" lon="-2.963939"><ele>240</ele><time>2020-08-11T10:24:09Z</time><name>PT1049</name></trkpt>
<trkpt lat="54.658725" lon="-2.963929"><ele>240</ele><time>2020-08-11T10:24:10Z</time><name>PT1050</name></trkpt>
<trkpt lat="54.658724" lon="-2.963921"><ele>240</ele><time>2020-08-11T10:24:11Z</time><name>PT1051</name></trkpt>
<trkpt lat="54.658724" lon="-2.963907"><ele>239</ele><time>2020-08-11T10:24:12Z</time><name>PT1052</name></trkpt>
<trkpt lat="54.658725" lon="-2.963903"><ele>239</ele><time>2020-08-11T10:24:13Z</time><name>PT1053</name></trkpt>
<trkpt lat="54.658725" lon="-2.963890"><ele>239</ele><time>2020-08-11T10:24:14Z</time><name>PT1054</name></trkpt>
<trkpt lat="54.658724" lon="-2.963880"><ele>239</ele><time>2020-08-11T10:24:15Z</time><name>PT1055</name></trkpt>
<trkpt lat="54.658722" lon="-2.963871"><ele>239</ele><time>2020-08-11T10:24:16Z</time><name>PT1056</name></trkpt>
<trkpt lat="54.658721" lon="-2.963862"><ele>239</ele><time>2020-08-11T10:24:17Z</time><name>PT1057</name></trkpt>
<trkpt lat="54.658721" lon="-2.963848"><ele>239</ele><time>2020-08-11T10:24:18Z</time><name>PT1058</name></trkpt>
<trkpt lat="54.658721" lon="-2.963836"><ele>239</ele><time>2020-08-11T10:24:19Z</time><name>PT1059</name></trkpt>
<trkpt lat="54.658721" lon="-2.963830"><ele>239</ele><time>2020-08-11T10:24:20Z</time><name>PT1060</name></trkpt>
<trkpt lat="54.658712" lon="-2.963804"><ele>239</ele><time>2020-08-11T10:24:21Z</time><name>PT1061</name></trkpt>
<trkpt lat="54.658712" lon="-2.963789"><ele>239</ele><time>2020-08-11T10:24:22Z</time><name>PT1062</name></trkpt>
<trkpt lat="54.658712" lon="-2.963784"><ele>239</ele><time>2020-08-11T10:24:23Z</time><name>PT1063</name></trkpt>
<trkpt lat="54.658713" lon="-2.963769"><ele>240</ele><time>2020-08-11T10:24:24Z</time><name>PT1064</name></trkpt>
<trkpt lat="54.658717" lon="-2.963762"><ele>240</ele><time>2020-08-11T10:24:25Z</time><name>PT1065</name></trkpt>
<trkpt lat="54.658719" lon="-2.963764"><ele>240</ele><time>2020-08-11T10:24:26Z</time><name>PT1066</name></trkpt>
<trkpt lat="54.658716" lon="-2.963750"><ele>240</ele><time>2020-08-11T10:24:27Z</time><name>PT1067</name></trkpt>
<trkpt lat="54.658716" lon="-2.963742"><ele>240</ele><time>2020-08-11T10:24:28Z</time><name>PT1068</name></trkpt>
<trkpt lat="54.658715" lon="-2.963735"><ele>240</ele><time>2020-08-11T10:24:29Z</time><name>PT1069</name></trkpt>
<trkpt lat="54.658717" lon="-2.963715"><ele>240</ele><time>2020-08-11T10:24:30Z</time><name>PT1070</name></trkpt>
<trkpt lat="54.658721" lon="-2.963711"><ele>241</ele><time>2020-08-11T10:24:31Z</time><name>PT1071</name></trkpt>
<trkpt lat="54.658720" lon="-2.963697"><ele>241</ele><time>2020-08-11T10:24:32Z</time><name>PT1072</name></trkpt>
<trkpt lat="54.658722" lon="-2.963675"><ele>241</ele><time>2020-08-11T10:24:33Z</time><name>PT1073</name></trkpt>
<trkpt lat="54.658720" lon="-2.963655"><ele>242</ele><time>2020-08-11T10:24:34Z</time><name>PT1074</name></trkpt>
<trkpt lat="54.658724" lon="-2.963643"><ele>242</ele><time>2020-08-11T10:24:35Z</time><name>PT1075</name></trkpt>
<trkpt lat="54.658724" lon="-2.963625"><ele>243</ele><time>2020-08-11T10:24:36Z</time><name>PT1076</name></trkpt>
<trkpt lat="54.658729" lon="-2.963621"><ele>244</ele><time>2020-08-11T10:24:37Z</time><name>PT1077</name></trkpt>
<trkpt lat="54.658728" lon="-2.963613"><ele>244</ele><time>2020-08-11T10:24:38Z</time><name>PT1078</name></trkpt>
<trkpt lat="54.658726" lon="-2.963598"><ele>244</ele><time>2020-08-11T10:24:39Z</time><name>PT1079</name></trkpt>
<trkpt lat="54.658724" lon="-2.963586"><ele>244</ele><time>2020-08-11T10:24:40Z</time><name>PT1080</name></trkpt>
<trkpt lat="54.658722" lon="-2.963575"><ele>245</ele><time>2020-08-11T10:24:41Z</time><name>PT1081</name></trkpt>
<trkpt lat="54.658716" lon="-2.963578"><ele>245</ele><time>2020-08-11T10:24:42Z</time><name>PT1082</name></trkpt>
<trkpt lat="54.658708" lon="-2.963565"><ele>245</ele><time>2020-08-11T10:24:43Z</time><name>PT1083</name></trkpt>
<trkpt lat="54.658701" lon="-2.963553"><ele>245</ele><time>2020-08-11T10:24:44Z</time><name>PT1084</name></trkpt>
<trkpt lat="54.658699" lon="-2.963540"><ele>245</ele><time>2020-08-11T10:24:45Z</time><name>PT1085</name></trkpt>
<trkpt lat="54.658695" lon="-2.963522"><ele>245</ele><time>2020-08-11T10:24:46Z</time><name>PT1086</name></trkpt>
<trkpt lat="54.658693" lon="-2.963508"><ele>246</ele><time>2020-08-11T10:24:47Z</time><name>PT1087</name></trkpt>
<trkpt lat="54.658691" lon="-2.963475"><ele>246</ele><time>2020-08-11T10:24:50Z</time><name>PT1088</name></trkpt>
<trkpt lat="54.658684" lon="-2.963427"><ele>246</ele><time>2020-08-11T10:24:53Z</time><name>PT1089</name></trkpt>
<trkpt lat="54.658682" lon="-2.963381"><ele>247</ele><time>2020-08-11T10:24:56Z</time><name>PT1090</name></trkpt>
<trkpt lat="54.658680" lon="-2.963367"><ele>247</ele><time>2020-08-11T10:24:57Z</time><name>PT1091</name></trkpt>
<trkpt lat="54.658677" lon="-2.963356"><ele>247</ele><time>2020-08-11T10:24:58Z</time><name>PT1092</name></trkpt>
<trkpt lat="54.658672" lon="-2.963341"><ele>247</ele><time>2020-08-11T10:24:59Z</time><name>PT1093</name></trkpt>
<trkpt lat="54.658667" lon="-2.963327"><ele>248</ele><time>2020-08-11T10:25:00Z</time><name>PT1094</name></trkpt>
<trkpt lat="54.658660" lon="-2.963313"><ele>247</ele><time>2020-08-11T10:25:01Z</time><name>PT1095</name></trkpt>
<trkpt lat="54.658652" lon="-2.963298"><ele>248</ele><time>2020-08-11T10:25:02Z</time><name>PT1096</name></trkpt>
<trkpt lat="54.658645" lon="-2.963286"><ele>248</ele><time>2020-08-11T10:25:03Z</time><name>PT1097</name></trkpt>
<trkpt lat="54.658638" lon="-2.963272"><ele>248</ele><time>2020-08-11T10:25:04Z</time><name>PT1098</name></trkpt>
<trkpt lat="54.658630" lon="-2.963263"><ele>248</ele><time>2020-08-11T10:25:05Z</time><name>PT1099</name></trkpt>
<trkpt lat="54.658622" lon="-2.963254"><ele>248</ele><time>2020-08-11T10:25:06Z</time><name>PT1100</name></trkpt>
<trkpt lat="54.658615" lon="-2.963230"><ele>248</ele><time>2020-08-11T10:25:07Z</time><name>PT1101</name></trkpt>
<trkpt lat="54.658609" lon="-2.963210"><ele>248</ele><time>2020-08-11T10:25:08Z</time><name>PT1102</name></trkpt>
<trkpt lat="54.658608" lon="-2.963207"><ele>248</ele><time>2020-08-11T10:25:09Z</time><name>PT1103</name></trkpt>
<trkpt lat="54.658603" lon="-2.963195"><ele>249</ele><time>2020-08-11T10:25:10Z</time><name>PT1104</name></trkpt>
<trkpt lat="54.658594" lon="-2.963176"><ele>249</ele><time>2020-08-11T10:25:11Z</time><name>PT1105</name></trkpt>
<trkpt lat="54.658589" lon="-2.963167"><ele>249</ele><time>2020-08-11T10:25:12Z</time><name>PT1106</name></trkpt>
<trkpt lat="54.658589" lon="-2.963157"><ele>249</ele><time>2020-08-11T10:25:13Z</time><name>PT1107</name></trkpt>
<trkpt lat="54.658585" lon="-2.963134"><ele>250</ele><time>2020-08-11T10:25:14Z</time><name>PT1108</name></trkpt>
<trkpt lat="54.658583" lon="-2.963119"><ele>250</ele><time>2020-08-11T10:25:15Z</time><name>PT1109</name></trkpt>
<trkpt lat="54.658582" lon="-2.963117"><ele>250</ele><time>2020-08-11T10:25:16Z</time><name>PT1110</name></trkpt>
<trkpt lat="54.658577" lon="-2.963100"><ele>250</ele><time>2020-08-11T10:25:17Z</time><name>PT1111</name></trkpt>
<trkpt lat="54.658572" lon="-2.963079"><ele>249</ele><time>2020-08-11T10:25:18Z</time><name>PT1112</name></trkpt>
<trkpt lat="54.658568" lon="-2.963073"><ele>249</ele><time>2020-08-11T10:25:19Z</time><name>PT1113</name></trkpt>
<trkpt lat="54.658566" lon="-2.963063"><ele>250</ele><time>2020-08-11T10:25:20Z</time><name>PT1114</name></trkpt>
<trkpt lat="54.658559" lon="-2.963047"><ele>250</ele><time>2020-08-11T10:25:21Z</time><name>PT1115</name></trkpt>
<trkpt lat="54.658556" lon="-2.963040"><ele>250</ele><time>2020-08-11T10:25:22Z</time><name>PT1116</name></trkpt>
<trkpt lat="54.658552" lon="-2.963027"><ele>251</ele><time>2020-08-11T10:25:23Z</time><name>PT1117</name></trkpt>
<trkpt lat="54.658545" lon="-2.963005"><ele>251</ele><time>2020-08-11T10:25:24Z</time><name>PT1118</name></trkpt>
<trkpt lat="54.658542" lon="-2.962994"><ele>251</ele><time>2020-08-11T10:25:25Z</time><name>PT1119</name></trkpt>
<trkpt lat="54.658541" lon="-2.962991"><ele>251</ele><time>2020-08-11T10:25:26Z</time><name>PT1120</name></trkpt>
<trkpt lat="54.658536" lon="-2.962973"><ele>251</ele><time>2020-08-11T10:25:27Z</time><name>PT1121</name></trkpt>
<trkpt lat="54.658534" lon="-2.962945"><ele>252</ele><time>2020-08-11T10:25:28Z</time><name>PT1122</name></trkpt>
<trkpt lat="54.658532" lon="-2.962927"><ele>252</ele><time>2020-08-11T10:25:29Z</time><name>PT1123</name></trkpt>
<trkpt lat="54.658531" lon="-2.962917"><ele>252</ele><time>2020-08-11T10:25:30Z</time><name>PT1124</name></trkpt>
<trkpt lat="54.658530" lon="-2.962906"><ele>252</ele><time>2020-08-11T10:25:31Z</time><name>PT1125</name></trkpt>
<trkpt lat="54.658525" lon="-2.962892"><ele>252</ele><time>2020-08-11T10:25:32Z</time><name>PT1126</name></trkpt>
<trkpt lat="54.658524" lon="-2.962877"><ele>252</ele><time>2020-08-11T10:25:33Z</time><name>PT1127</name></trkpt>
<trkpt lat="54.658522" lon="-2.962862"><ele>252</ele><time>2020-08-11T10:25:34Z</time><name>PT1128</name></trkpt>
<trkpt lat="54.658518" lon="-2.962847"><ele>253</ele><time>2020-08-11T10:25:35Z</time><name>PT1129</name></trkpt>
<trkpt lat="54.658516" lon="-2.962836"><ele>253</ele><time>2020-08-11T10:25:36Z</time><name>PT1130</name></trkpt>
<trkpt lat="54.658513" lon="-2.962825"><ele>253</ele><time>2020-08-11T10:25:37Z</time><name>PT1131</name></trkpt>
<trkpt lat="54.658512" lon="-2.962808"><ele>253</ele><time>2020-08-11T10:25:38Z</time><name>PT1132</name></trkpt>
<trkpt lat="54.658515" lon="-2.962799"><ele>253</ele><time>2020-08-11T10:25:39Z</time><name>PT1133</name></trkpt>
<trkpt lat="54.658518" lon="-2.962785"><ele>254</ele><time>2020-08-11T10:25:40Z</time><name>PT1134</name></trkpt>
<trkpt lat="54.658516" lon="-2.962772"><ele>254</ele><time>2020-08-11T10:25:41Z</time><name>PT1135</name></trkpt>
<trkpt lat="54.658516" lon="-2.962760"><ele>254</ele><time>2020-08-11T10:25:42Z</time><name>PT1136</name></trkpt>
<trkpt lat="54.658516" lon="-2.962749"><ele>254</ele><time>2020-08-11T10:25:43Z</time><name>PT1137</name></trkpt>
<trkpt lat="54.658512" lon="-2.962737"><ele>254</ele><time>2020-08-11T10:25:44Z</time><name>PT1138</name></trkpt>
<trkpt lat="54.658510" lon="-2.962724"><ele>254</ele><time>2020-08-11T10:25:45Z</time><name>PT1139</name></trkpt>
<trkpt lat="54.658507" lon="-2.962708"><ele>254</ele><time>2020-08-11T10:25:46Z</time><name>PT1140</name></trkpt>
<trkpt lat="54.658504" lon="-2.962691"><ele>254</ele><time>2020-08-11T10:25:47Z</time><name>PT1141</name></trkpt>
<trkpt lat="54.658505" lon="-2.962680"><ele>254</ele><time>2020-08-11T10:25:48Z</time><name>PT1142</name></trkpt>
<trkpt lat="54.658502" lon="-2.962671"><ele>254</ele><time>2020-08-11T10:25:49Z</time><name>PT1143</name></trkpt>
<trkpt lat="54.658497" lon="-2.962658"><ele>254</ele><time>2020-08-11T10:25:50Z</time><name>PT1144</name></trkpt>
<trkpt lat="54.658497" lon="-2.962648"><ele>254</ele><time>2020-08-11T10:25:51Z</time><name>PT1145</name></trkpt>
<trkpt lat="54.658495" lon="-2.962637"><ele>254</ele><time>2020-08-11T10:25:52Z</time><name>PT1146</name></trkpt>
<trkpt lat="54.658493" lon="-2.962624"><ele>254</ele><time>2020-08-11T10:25:53Z</time><name>PT1147</name></trkpt>
<trkpt lat="54.658495" lon="-2.962611"><ele>254</ele><time>2020-08-11T10:25:54Z</time><name>PT1148</name></trkpt>
<trkpt lat="54.658491" lon="-2.962604"><ele>254</ele><time>2020-08-11T10:25:55Z</time><name>PT1149</name></trkpt>
<trkpt lat="54.658484" lon="-2.962602"><ele>254</ele><time>2020-08-11T10:25:56Z</time><name>PT1150</name></trkpt>
<trkpt lat="54.658480" lon="-2.962601"><ele>254</ele><time>2020-08-11T10:25:57Z</time><name>PT1151</name></trkpt>
<trkpt lat="54.658478" lon="-2.962599"><ele>254</ele><time>2020-08-11T10:25:58Z</time><name>PT1152</name></trkpt>
<trkpt lat="54.658479" lon="-2.962594"><ele>253</ele><time>2020-08-11T10:25:59Z</time><name>PT1153</name></trkpt>
<trkpt lat="54.658473" lon="-2.962585"><ele>253</ele><time>2020-08-11T10:26:00Z</time><name>PT1154</name></trkpt>
<trkpt lat="54.658463" lon="-2.962573"><ele>253</ele><time>2020-08-11T10:26:01Z</time><name>PT1155</name></trkpt>
<trkpt lat="54.658459" lon="-2.962563"><ele>253</ele><time>2020-08-11T10:26:02Z</time><name>PT1156</name></trkpt>
<trkpt lat="54.658456" lon="-2.962552"><ele>253</ele><time>2020-08-11T10:26:03Z</time><name>PT1157</name></trkpt>
<trkpt lat="54.658455" lon="-2.962542"><ele>253</ele><time>2020-08-11T10:26:04Z</time><name>PT1158</name></trkpt>
<trkpt lat="54.658454" lon="-2.962532"><ele>253</ele><time>2020-08-11T10:26:05Z</time><name>PT1159</name></trkpt>
<trkpt lat="54.658451" lon="-2.962515"><ele>253</ele><time>2020-08-11T10:26:06Z</time><name>PT1160</name></trkpt>
<trkpt lat="54.658450" lon="-2.962505"><ele>253</ele><time>2020-08-11T10:26:07Z</time><name>PT1161</name></trkpt>
<trkpt lat="54.658447" lon="-2.962499"><ele>253</ele><time>2020-08-11T10:26:08Z</time><name>PT1162</name></trkpt>
<trkpt lat="54.658447" lon="-2.962491"><ele>253</ele><time>2020-08-11T10:26:09Z</time><name>PT1163</name></trkpt>
<trkpt lat="54.658449" lon="-2.962485"><ele>252</ele><time>2020-08-11T10:26:10Z</time><name>PT1164</name></trkpt>
<trkpt lat="54.658442" lon="-2.962468"><ele>253</ele><time>2020-08-11T10:26:11Z</time><name>PT1165</name></trkpt>
<trkpt lat="54.658432" lon="-2.962454"><ele>253</ele><time>2020-08-11T10:26:12Z</time><name>PT1166</name></trkpt>
<trkpt lat="54.658429" lon="-2.962447"><ele>252</ele><time>2020-08-11T10:26:13Z</time><name>PT1167</name></trkpt>
<trkpt lat="54.658421" lon="-2.962436"><ele>253</ele><time>2020-08-11T10:26:14Z</time><name>PT1168</name></trkpt>
<trkpt lat="54.658414" lon="-2.962426"><ele>252</ele><time>2020-08-11T10:26:15Z</time><name>PT1169</name></trkpt>
<trkpt lat="54.658412" lon="-2.962418"><ele>252</ele><time>2020-08-11T10:26:16Z</time><name>PT1170</name></trkpt>
<trkpt lat="54.658408" lon="-2.962410"><ele>252</ele><time>2020-08-11T10:26:17Z</time><name>PT1171</name></trkpt>
<trkpt lat="54.658401" lon="-2.962401"><ele>251</ele><time>2020-08-11T10:26:18Z</time><name>PT1172</name></trkpt>
<trkpt lat="54.658392" lon="-2.962396"><ele>251</ele><time>2020-08-11T10:26:19Z</time><name>PT1173</name></trkpt>
<trkpt lat="54.658384" lon="-2.962382"><ele>251</ele><time>2020-08-11T10:26:20Z</time><name>PT1174</name></trkpt>
<trkpt lat="54.658380" lon="-2.962371"><ele>251</ele><time>2020-08-11T10:26:21Z</time><name>PT1175</name></trkpt>
<trkpt lat="54.658371" lon="-2.962362"><ele>251</ele><time>2020-08-11T10:26:22Z</time><name>PT1176</name></trkpt>
<trkpt lat="54.658365" lon="-2.962355"><ele>251</ele><time>2020-08-11T10:26:23Z</time><name>PT1177</name></trkpt>
<trkpt lat="54.658360" lon="-2.962343"><ele>251</ele><time>2020-08-11T10:26:24Z</time><name>PT1178</name></trkpt>
<trkpt lat="54.658351" lon="-2.962326"><ele>251</ele><time>2020-08-11T10:26:25Z</time><name>PT1179</name></trkpt>
<trkpt lat="54.658348" lon="-2.962314"><ele>252</ele><time>2020-08-11T10:26:26Z</time><name>PT1180</name></trkpt>
<trkpt lat="54.658342" lon="-2.962305"><ele>252</ele><time>2020-08-11T10:26:27Z</time><name>PT1181</name></trkpt>
<trkpt lat="54.658337" lon="-2.962291"><ele>252</ele><time>2020-08-11T10:26:28Z</time><name>PT1182</name></trkpt>
<trkpt lat="54.658338" lon="-2.962283"><ele>252</ele><time>2020-08-11T10:26:29Z</time><name>PT1183</name></trkpt>
<trkpt lat="54.658335" lon="-2.962274"><ele>252</ele><time>2020-08-11T10:26:30Z</time><name>PT1184</name></trkpt>
<trkpt lat="54.658332" lon="-2.962268"><ele>252</ele><time>2020-08-11T10:26:31Z</time><name>PT1185</name></trkpt>
<trkpt lat="54.658330" lon="-2.962261"><ele>253</ele><time>2020-08-11T10:26:32Z</time><name>PT1186</name></trkpt>
<trkpt lat="54.658325" lon="-2.962246"><ele>253</ele><time>2020-08-11T10:26:33Z</time><name>PT1187</name></trkpt>
<trkpt lat="54.658323" lon="-2.962239"><ele>253</ele><time>2020-08-11T10:26:34Z</time><name>PT1188</name></trkpt>
<trkpt lat="54.658319" lon="-2.962233"><ele>252</ele><time>2020-08-11T10:26:35Z</time><name>PT1189</name></trkpt>
<trkpt lat="54.658313" lon="-2.962214"><ele>252</ele><time>2020-08-11T10:26:36Z</time><name>PT1190</name></trkpt>
<trkpt lat="54.658312" lon="-2.962208"><ele>252</ele><time>2020-08-11T10:26:37Z</time><name>PT1191</name></trkpt>
<trkpt lat="54.658308" lon="-2.962195"><ele>252</ele><time>2020-08-11T10:26:38Z</time><name>PT1192</name></trkpt>
<trkpt lat="54.658304" lon="-2.962184"><ele>252</ele><time>2020-08-11T10:26:39Z</time><name>PT1193</name></trkpt>
<trkpt lat="54.658299" lon="-2.962175"><ele>252</ele><time>2020-08-11T10:26:40Z</time><name>PT1194</name></trkpt>
<trkpt lat="54.658293" lon="-2.962169"><ele>252</ele><time>2020-08-11T10:26:41Z</time><name>PT1195</name></trkpt>
<trkpt lat="54.658288" lon="-2.962157"><ele>252</ele><time>2020-08-11T10:26:42Z</time><name>PT1196</name></trkpt>
<trkpt lat="54.658284" lon="-2.962143"><ele>252</ele><time>2020-08-11T10:26:43Z</time><name>PT1197</name></trkpt>
<trkpt lat="54.658283" lon="-2.962126"><ele>252</ele><time>2020-08-11T10:26:44Z</time><name>PT1198</name></trkpt>
<trkpt lat="54.658283" lon="-2.962106"><ele>252</ele><time>2020-08-11T10:26:45Z</time><name>PT1199</name></trkpt>
<trkpt lat="54.658281" lon="-2.962099"><ele>252</ele><time>2020-08-11T10:26:46Z</time><name>PT1200</name></trkpt>
<trkpt lat="54.658277" lon="-2.962087"><ele>252</ele><time>2020-08-11T10:26:47Z</time><name>PT1201</name></trkpt>
<trkpt lat="54.658274" lon="-2.962078"><ele>252</ele><time>2020-08-11T10:26:48Z</time><name>PT1202</name></trkpt>
<trkpt lat="54.658268" lon="-2.962069"><ele>252</ele><time>2020-08-11T10:26:49Z</time><name>PT1203</name></trkpt>
<trkpt lat="54.658258" lon="-2.962055"><ele>253</ele><time>2020-08-11T10:26:50Z</time><name>PT1204</name></trkpt>
<trkpt lat="54.658253" lon="-2.962047"><ele>253</ele><time>2020-08-11T10:26:51Z</time><name>PT1205</name></trkpt>
<trkpt lat="54.658250" lon="-2.962041"><ele>253</ele><time>2020-08-11T10:26:52Z</time><name>PT1206</name></trkpt>
<trkpt lat="54.658234" lon="-2.962041"><ele>253</ele><time>2020-08-11T10:26:53Z</time><name>PT1207</name></trkpt>
<trkpt lat="54.658216" lon="-2.962038"><ele>254</ele><time>2020-08-11T10:26:54Z</time><name>PT1208</name></trkpt>
<trkpt lat="54.658209" lon="-2.962039"><ele>254</ele><time>2020-08-11T10:26:55Z</time><name>PT1209</name></trkpt>
<trkpt lat="54.658203" lon="-2.962027"><ele>254</ele><time>2020-08-11T10:26:56Z</time><name>PT1210</name></trkpt>
<trkpt lat="54.658197" lon="-2.962013"><ele>254</ele><time>2020-08-11T10:26:57Z</time><name>PT1211</name></trkpt>
<trkpt lat="54.658193" lon="-2.962001"><ele>254</ele><time>2020-08-11T10:26:58Z</time><name>PT1212</name></trkpt>
<trkpt lat="54.658190" lon="-2.961988"><ele>254</ele><time>2020-08-11T10:26:59Z</time><name>PT1213</name></trkpt>
<trkpt lat="54.658187" lon="-2.961981"><ele>254</ele><time>2020-08-11T10:27:00Z</time><name>PT1214</name></trkpt>
<trkpt lat="54.658182" lon="-2.961972"><ele>254</ele><time>2020-08-11T10:27:01Z</time><name>PT1215</name></trkpt>
<trkpt lat="54.658176" lon="-2.961959"><ele>254</ele><time>2020-08-11T10:27:02Z</time><name>PT1216</name></trkpt>
<trkpt lat="54.658169" lon="-2.961948"><ele>254</ele><time>2020-08-11T10:27:03Z</time><name>PT1217</name></trkpt>
<trkpt lat="54.658163" lon="-2.961937"><ele>254</ele><time>2020-08-11T10:27:04Z</time><name>PT1218</name></trkpt>
<trkpt lat="54.658157" lon="-2.961922"><ele>254</ele><time>2020-08-11T10:27:05Z</time><name>PT1219</name></trkpt>
<trkpt lat="54.658151" lon="-2.961908"><ele>254</ele><time>2020-08-11T10:27:06Z</time><name>PT1220</name></trkpt>
<trkpt lat="54.658148" lon="-2.961894"><ele>254</ele><time>2020-08-11T10:27:07Z</time><name>PT1221</name></trkpt>
<trkpt lat="54.658143" lon="-2.961881"><ele>254</ele><time>2020-08-11T10:27:08Z</time><name>PT1222</name></trkpt>
<trkpt lat="54.658141" lon="-2.961869"><ele>254</ele><time>2020-08-11T10:27:09Z</time><name>PT1223</name></trkpt>
<trkpt lat="54.658138" lon="-2.961853"><ele>254</ele><time>2020-08-11T10:27:10Z</time><name>PT1224</name></trkpt>
<trkpt lat="54.658133" lon="-2.961837"><ele>255</ele><time>2020-08-11T10:27:11Z</time><name>PT1225</name></trkpt>
<trkpt lat="54.658129" lon="-2.961819"><ele>255</ele><time>2020-08-11T10:27:12Z</time><name>PT1226</name></trkpt>
<trkpt lat="54.658124" lon="-2.961802"><ele>255</ele><time>2020-08-11T10:27:13Z</time><name>PT1227</name></trkpt>
<trkpt lat="54.658119" lon="-2.961789"><ele>255</ele><time>2020-08-11T10:27:14Z</time><name>PT1228</name></trkpt>
<trkpt lat="54.658116" lon="-2.961779"><ele>255</ele><time>2020-08-11T10:27:15Z</time><name>PT1229</name></trkpt>
<trkpt lat="54.658114" lon="-2.961763"><ele>255</ele><time>2020-08-11T10:27:16Z</time><name>PT1230</name></trkpt>
<trkpt lat="54.658113" lon="-2.961753"><ele>255</ele><time>2020-08-11T10:27:17Z</time><name>PT1231</name></trkpt>
<trkpt lat="54.658111" lon="-2.961747"><ele>255</ele><time>2020-08-11T10:27:18Z</time><name>PT1232</name></trkpt>
<trkpt lat="54.658107" lon="-2.961737"><ele>255</ele><time>2020-08-11T10:27:19Z</time><name>PT1233</name></trkpt>
<trkpt lat="54.658101" lon="-2.961727"><ele>255</ele><time>2020-08-11T10:27:20Z</time><name>PT1234</name></trkpt>
<trkpt lat="54.658097" lon="-2.961720"><ele>255</ele><time>2020-08-11T10:27:21Z</time><name>PT1235</name></trkpt>
<trkpt lat="54.658095" lon="-2.961715"><ele>254</ele><time>2020-08-11T10:27:22Z</time><name>PT1236</name></trkpt>
<trkpt lat="54.658093" lon="-2.961706"><ele>254</ele><time>2020-08-11T10:27:23Z</time><name>PT1237</name></trkpt>
<trkpt lat="54.658092" lon="-2.961694"><ele>255</ele><time>2020-08-11T10:27:24Z</time><name>PT1238</name></trkpt>
<trkpt lat="54.658092" lon="-2.961681"><ele>254</ele><time>2020-08-11T10:27:25Z</time><name>PT1239</name></trkpt>
<trkpt lat="54.658093" lon="-2.961665"><ele>255</ele><time>2020-08-11T10:27:26Z</time><name>PT1240</name></trkpt>
<trkpt lat="54.658093" lon="-2.961646"><ele>255</ele><time>2020-08-11T10:27:27Z</time><name>PT1241</name></trkpt>
<trkpt lat="54.658094" lon="-2.961633"><ele>255</ele><time>2020-08-11T10:27:28Z</time><name>PT1242</name></trkpt>
<trkpt lat="54.658091" lon="-2.961622"><ele>255</ele><time>2020-08-11T10:27:29Z</time><name>PT1243</name></trkpt>
<trkpt lat="54.658089" lon="-2.961611"><ele>255</ele><time>2020-08-11T10:27:30Z</time><name>PT1244</name></trkpt>
<trkpt lat="54.658082" lon="-2.961599"><ele>255</ele><time>2020-08-11T10:27:31Z</time><name>PT1245</name></trkpt>
<trkpt lat="54.658076" lon="-2.961587"><ele>255</ele><time>2020-08-11T10:27:32Z</time><name>PT1246</name></trkpt>
<trkpt lat="54.658072" lon="-2.961576"><ele>255</ele><time>2020-08-11T10:27:33Z</time><name>PT1247</name></trkpt>
<trkpt lat="54.658068" lon="-2.961566"><ele>256</ele><time>2020-08-11T10:27:34Z</time><name>PT1248</name></trkpt>
<trkpt lat="54.658066" lon="-2.961560"><ele>255</ele><time>2020-08-11T10:27:35Z</time><name>PT1249</name></trkpt>
<trkpt lat="54.658060" lon="-2.961555"><ele>255</ele><time>2020-08-11T10:27:36Z</time><name>PT1250</name></trkpt>
<trkpt lat="54.658053" lon="-2.961546"><ele>255</ele><time>2020-08-11T10:27:37Z</time><name>PT1251</name></trkpt>
<trkpt lat="54.658047" lon="-2.961535"><ele>255</ele><time>2020-08-11T10:27:38Z</time><name>PT1252</name></trkpt>
<trkpt lat="54.658040" lon="-2.961527"><ele>256</ele><time>2020-08-11T10:27:39Z</time><name>PT1253</name></trkpt>
<trkpt lat="54.658033" lon="-2.961522"><ele>255</ele><time>2020-08-11T10:27:40Z</time><name>PT1254</name></trkpt>
<trkpt lat="54.658027" lon="-2.961518"><ele>255</ele><time>2020-08-11T10:27:41Z</time><name>PT1255</name></trkpt>
<trkpt lat="54.658023" lon="-2.961506"><ele>255</ele><time>2020-08-11T10:27:42Z</time><name>PT1256</name></trkpt>
<trkpt lat="54.658018" lon="-2.961493"><ele>255</ele><time>2020-08-11T10:27:43Z</time><name>PT1257</name></trkpt>
<trkpt lat="54.658013" lon="-2.961487"><ele>255</ele><time>2020-08-11T10:27:44Z</time><name>PT1258</name></trkpt>
<trkpt lat="54.658010" lon="-2.961483"><ele>255</ele><time>2020-08-11T10:27:45Z</time><name>PT1259</name></trkpt>
<trkpt lat="54.658008" lon="-2.961474"><ele>255</ele><time>2020-08-11T10:27:46Z</time><name>PT1260</name></trkpt>
<trkpt lat="54.658006" lon="-2.961467"><ele>255</ele><time>2020-08-11T10:27:47Z</time><name>PT1261</name></trkpt>
<trkpt lat="54.658004" lon="-2.961456"><ele>256</ele><time>2020-08-11T10:27:48Z</time><name>PT1262</name></trkpt>
<trkpt lat="54.658000" lon="-2.961443"><ele>256</ele><time>2020-08-11T10:27:49Z</time><name>PT1263</name></trkpt>
<trkpt lat="54.657999" lon="-2.961431"><ele>256</ele><time>2020-08-11T10:27:50Z</time><name>PT1264</name></trkpt>
<trkpt lat="54.657997" lon="-2.961423"><ele>256</ele><time>2020-08-11T10:27:51Z</time><name>PT1265</name></trkpt>
<trkpt lat="54.657992" lon="-2.961414"><ele>256</ele><time>2020-08-11T10:27:52Z</time><name>PT1266</name></trkpt>
<trkpt lat="54.657991" lon="-2.961404"><ele>257</ele><time>2020-08-11T10:27:53Z</time><name>PT1267</name></trkpt>
<trkpt lat="54.657990" lon="-2.961392"><ele>257</ele><time>2020-08-11T10:27:54Z</time><name>PT1268</name></trkpt>
<trkpt lat="54.657988" lon="-2.961377"><ele>257</ele><time>2020-08-11T10:27:55Z</time><name>PT1269</name></trkpt>
<trkpt lat="54.657988" lon="-2.961366"><ele>257</ele><time>2020-08-11T10:27:56Z</time><name>PT1270</name></trkpt>
<trkpt lat="54.657990" lon="-2.961339"><ele>257</ele><time>2020-08-11T10:27:59Z</time><name>PT1271</name></trkpt>
<trkpt lat="54.657984" lon="-2.961303"><ele>258</ele><time>2020-08-11T10:28:02Z</time><name>PT1272</name></trkpt>
<trkpt lat="54.657981" lon="-2.961292"><ele>258</ele><time>2020-08-11T10:28:03Z</time><name>PT1273</name></trkpt>
<trkpt lat="54.657978" lon="-2.961280"><ele>258</ele><time>2020-08-11T10:28:04Z</time><name>PT1274</name></trkpt>
<trkpt lat="54.657974" lon="-2.961267"><ele>259</ele><time>2020-08-11T10:28:05Z</time><name>PT1275</name></trkpt>
<trkpt lat="54.657971" lon="-2.961254"><ele>259</ele><time>2020-08-11T10:28:06Z</time><name>PT1276</name></trkpt>
<trkpt lat="54.657968" lon="-2.961240"><ele>259</ele><time>2020-08-11T10:28:07Z</time><name>PT1277</name></trkpt>
<trkpt lat="54.657964" lon="-2.961228"><ele>259</ele><time>2020-08-11T10:28:08Z</time><name>PT1278</name></trkpt>
<trkpt lat="54.657961" lon="-2.961217"><ele>259</ele><time>2020-08-11T10:28:09Z</time><name>PT1279</name></trkpt>
<trkpt lat="54.657958" lon="-2.961203"><ele>259</ele><time>2020-08-11T10:28:10Z</time><name>PT1280</name></trkpt>
<trkpt lat="54.657955" lon="-2.961187"><ele>259</ele><time>2020-08-11T10:28:11Z</time><name>PT1281</name></trkpt>
<trkpt lat="54.657953" lon="-2.961175"><ele>259</ele><time>2020-08-11T10:28:12Z</time><name>PT1282</name></trkpt>
<trkpt lat="54.657951" lon="-2.961166"><ele>259</ele><time>2020-08-11T10:28:13Z</time><name>PT1283</name></trkpt>
<trkpt lat="54.657949" lon="-2.961155"><ele>259</ele><time>2020-08-11T10:28:14Z</time><name>PT1284</name></trkpt>
<trkpt lat="54.657946" lon="-2.961141"><ele>260</ele><time>2020-08-11T10:28:15Z</time><name>PT1285</name></trkpt>
<trkpt lat="54.657944" lon="-2.961129"><ele>260</ele><time>2020-08-11T10:28:16Z</time><name>PT1286</name></trkpt>
<trkpt lat="54.657942" lon="-2.961113"><ele>260</ele><time>2020-08-11T10:28:17Z</time><name>PT1287</name></trkpt>
<trkpt lat="54.657942" lon="-2.961102"><ele>260</ele><time>2020-08-11T10:28:18Z</time><name>PT1288</name></trkpt>
<trkpt lat="54.657934" lon="-2.961084"><ele>260</ele><time>2020-08-11T10:28:19Z</time><name>PT1289</name></trkpt>
<trkpt lat="54.657929" lon="-2.961072"><ele>261</ele><time>2020-08-11T10:28:20Z</time><name>PT1290</name></trkpt>
<trkpt lat="54.657926" lon="-2.961063"><ele>261</ele><time>2020-08-11T10:28:21Z</time><name>PT1291</name></trkpt>
<trkpt lat="54.657921" lon="-2.961051"><ele>261</ele><time>2020-08-11T10:28:22Z</time><name>PT1292</name></trkpt>
<trkpt lat="54.657918" lon="-2.961038"><ele>261</ele><time>2020-08-11T10:28:23Z</time><name>PT1293</name></trkpt>
<trkpt lat="54.657916" lon="-2.961023"><ele>261</ele><time>2020-08-11T10:28:24Z</time><name>PT1294</name></trkpt>
<trkpt lat="54.657915" lon="-2.961011"><ele>262</ele><time>2020-08-11T10:28:25Z</time><name>PT1295</name></trkpt>
<trkpt lat="54.657913" lon="-2.961000"><ele>262</ele><time>2020-08-11T10:28:26Z</time><name>PT1296</name></trkpt>
<trkpt lat="54.657912" lon="-2.960986"><ele>262</ele><time>2020-08-11T10:28:27Z</time><name>PT1297</name></trkpt>
<trkpt lat="54.657913" lon="-2.960975"><ele>263</ele><time>2020-08-11T10:28:28Z</time><name>PT1298</name></trkpt>
<trkpt lat="54.657910" lon="-2.960965"><ele>263</ele><time>2020-08-11T10:28:29Z</time><name>PT1299</name></trkpt>
<trkpt lat="54.657908" lon="-2.960953"><ele>263</ele><time>2020-08-11T10:28:30Z</time><name>PT1300</name></trkpt>
<trkpt lat="54.657906" lon="-2.960942"><ele>263</ele><time>2020-08-11T10:28:31Z</time><name>PT1301</name></trkpt>
<trkpt lat="54.657903" lon="-2.960932"><ele>263</ele><time>2020-08-11T10:28:32Z</time><name>PT1302</name></trkpt>
<trkpt lat="54.657899" lon="-2.960921"><ele>263</ele><time>2020-08-11T10:28:33Z</time><name>PT1303</name></trkpt>
<trkpt lat="54.657898" lon="-2.960914"><ele>263</ele><time>2020-08-11T10:28:34Z</time><name>PT1304</name></trkpt>
<trkpt lat="54.657895" lon="-2.960905"><ele>263</ele><time>2020-08-11T10:28:35Z</time><name>PT1305</name></trkpt>
<trkpt lat="54.657893" lon="-2.960895"><ele>264</ele><time>2020-08-11T10:28:36Z</time><name>PT1306</name></trkpt>
<trkpt lat="54.657890" lon="-2.960889"><ele>264</ele><time>2020-08-11T10:28:37Z</time><name>PT1307</name></trkpt>
<trkpt lat="54.657887" lon="-2.960882"><ele>264</ele><time>2020-08-11T10:28:38Z</time><name>PT1308</name></trkpt>
<trkpt lat="54.657885" lon="-2.960871"><ele>264</ele><time>2020-08-11T10:28:39Z</time><name>PT1309</name></trkpt>
<trkpt lat="54.657883" lon="-2.960861"><ele>265</ele><time>2020-08-11T10:28:40Z</time><name>PT1310</name></trkpt>
<trkpt lat="54.657879" lon="-2.960852"><ele>265</ele><time>2020-08-11T10:28:41Z</time><name>PT1311</name></trkpt>
<trkpt lat="54.657877" lon="-2.960839"><ele>265</ele><time>2020-08-11T10:28:42Z</time><name>PT1312</name></trkpt>
<trkpt lat="54.657875" lon="-2.960827"><ele>266</ele><time>2020-08-11T10:28:43Z</time><name>PT1313</name></trkpt>
<trkpt lat="54.657871" lon="-2.960819"><ele>266</ele><time>2020-08-11T10:28:44Z</time><name>PT1314</name></trkpt>
<trkpt lat="54.657868" lon="-2.960820"><ele>266</ele><time>2020-08-11T10:28:45Z</time><name>PT1315</name></trkpt>
<trkpt lat="54.657866" lon="-2.960821"><ele>265</ele><time>2020-08-11T10:28:46Z</time><name>PT1316</name></trkpt>
<trkpt lat="54.657864" lon="-2.960809"><ele>266</ele><time>2020-08-11T10:28:47Z</time><name>PT1317</name></trkpt>
<trkpt lat="54.657863" lon="-2.960797"><ele>266</ele><time>2020-08-11T10:28:48Z</time><name>PT1318</name></trkpt>
<trkpt lat="54.657859" lon="-2.960785"><ele>266</ele><time>2020-08-11T10:28:49Z</time><name>PT1319</name></trkpt>
<trkpt lat="54.657853" lon="-2.960774"><ele>266</ele><time>2020-08-11T10:28:50Z</time><name>PT1320</name></trkpt>
<trkpt lat="54.657850" lon="-2.960763"><ele>266</ele><time>2020-08-11T10:28:51Z</time><name>PT1321</name></trkpt>
<trkpt lat="54.657847" lon="-2.960751"><ele>267</ele><time>2020-08-11T10:28:52Z</time><name>PT1322</name></trkpt>
<trkpt lat="54.657845" lon="-2.960739"><ele>267</ele><time>2020-08-11T10:28:53Z</time><name>PT1323</name></trkpt>
<trkpt lat="54.657842" lon="-2.960726"><ele>267</ele><time>2020-08-11T10:28:54Z</time><name>PT1324</name></trkpt>
<trkpt lat="54.657839" lon="-2.960714"><ele>267</ele><time>2020-08-11T10:28:55Z</time><name>PT1325</name></trkpt>
<trkpt lat="54.657838" lon="-2.960701"><ele>268</ele><time>2020-08-11T10:28:56Z</time><name>PT1326</name></trkpt>
<trkpt lat="54.657836" lon="-2.960687"><ele>268</ele><time>2020-08-11T10:28:57Z</time><name>PT1327</name></trkpt>
<trkpt lat="54.657833" lon="-2.960674"><ele>268</ele><time>2020-08-11T10:28:58Z</time><name>PT1328</name></trkpt>
<trkpt lat="54.657830" lon="-2.960661"><ele>268</ele><time>2020-08-11T10:28:59Z</time><name>PT1329</name></trkpt>
<trkpt lat="54.657827" lon="-2.960651"><ele>268</ele><time>2020-08-11T10:29:00Z</time><name>PT1330</name></trkpt>
<trkpt lat="54.657825" lon="-2.960639"><ele>268</ele><time>2020-08-11T10:29:01Z</time><name>PT1331</name></trkpt>
<trkpt lat="54.657823" lon="-2.960633"><ele>268</ele><time>2020-08-11T10:29:02Z</time><name>PT1332</name></trkpt>
<trkpt lat="54.657821" lon="-2.960617"><ele>268</ele><time>2020-08-11T10:29:03Z</time><name>PT1333</name></trkpt>
<trkpt lat="54.657818" lon="-2.960595"><ele>268</ele><time>2020-08-11T10:29:04Z</time><name>PT1334</name></trkpt>
<trkpt lat="54.657815" lon="-2.960584"><ele>268</ele><time>2020-08-11T10:29:05Z</time><name>PT1335</name></trkpt>
<trkpt lat="54.657811" lon="-2.960569"><ele>269</ele><time>2020-08-11T10:29:06Z</time><name>PT1336</name></trkpt>
<trkpt lat="54.657807" lon="-2.960555"><ele>269</ele><time>2020-08-11T10:29:07Z</time><name>PT1337</name></trkpt>
<trkpt lat="54.657806" lon="-2.960550"><ele>269</ele><time>2020-08-11T10:29:08Z</time><name>PT1338</name></trkpt>
<trkpt lat="54.657803" lon="-2.960532"><ele>269</ele><time>2020-08-11T10:29:09Z</time><name>PT1339</name></trkpt>
<trkpt lat="54.657799" lon="-2.960511"><ele>269</ele><time>2020-08-11T10:29:10Z</time><name>PT1340</name></trkpt>
<trkpt lat="54.657797" lon="-2.960505"><ele>269</ele><time>2020-08-11T10:29:11Z</time><name>PT1341</name></trkpt>
<trkpt lat="54.657796" lon="-2.960489"><ele>270</ele><time>2020-08-11T10:29:12Z</time><name>PT1342</name></trkpt>
<trkpt lat="54.657793" lon="-2.960470"><ele>270</ele><time>2020-08-11T10:29:13Z</time><name>PT1343</name></trkpt>
<trkpt lat="54.657791" lon="-2.960466"><ele>270</ele><time>2020-08-11T10:29:14Z</time><name>PT1344</name></trkpt>
<trkpt lat="54.657786" lon="-2.960450"><ele>270</ele><time>2020-08-11T10:29:15Z</time><name>PT1345</name></trkpt>
<trkpt lat="54.657782" lon="-2.960430"><ele>270</ele><time>2020-08-11T10:29:16Z</time><name>PT1346</name></trkpt>
<trkpt lat="54.657779" lon="-2.960425"><ele>270</ele><time>2020-08-11T10:29:17Z</time><name>PT1347</name></trkpt>
<trkpt lat="54.657778" lon="-2.960416"><ele>270</ele><time>2020-08-11T10:29:18Z</time><name>PT1348</name></trkpt>
<trkpt lat="54.657776" lon="-2.960401"><ele>270</ele><time>2020-08-11T10:29:19Z</time><name>PT1349</name></trkpt>
<trkpt lat="54.657776" lon="-2.960397"><ele>270</ele><time>2020-08-11T10:29:20Z</time><name>PT1350</name></trkpt>
<trkpt lat="54.657773" lon="-2.960387"><ele>271</ele><time>2020-08-11T10:29:21Z</time><name>PT1351</name></trkpt>
<trkpt lat="54.657768" lon="-2.960369"><ele>271</ele><time>2020-08-11T10:29:22Z</time><name>PT1352</name></trkpt>
<trkpt lat="54.657765" lon="-2.960360"><ele>271</ele><time>2020-08-11T10:29:23Z</time><name>PT1353</name></trkpt>
<trkpt lat="54.657763" lon="-2.960350"><ele>271</ele><time>2020-08-11T10:29:24Z</time><name>PT1354</name></trkpt>
<trkpt lat="54.657757" lon="-2.960335"><ele>272</ele><time>2020-08-11T10:29:25Z</time><name>PT1355</name></trkpt>
<trkpt lat="54.657754" lon="-2.960322"><ele>272</ele><time>2020-08-11T10:29:26Z</time><name>PT1356</name></trkpt>
<trkpt lat="54.657753" lon="-2.960316"><ele>272</ele><time>2020-08-11T10:29:27Z</time><name>PT1357</name></trkpt>
<trkpt lat="54.657748" lon="-2.960299"><ele>272</ele><time>2020-08-11T10:29:28Z</time><name>PT1358</name></trkpt>
<trkpt lat="54.657747" lon="-2.960287"><ele>272</ele><time>2020-08-11T10:29:29Z</time><name>PT1359</name></trkpt>
<trkpt lat="54.657748" lon="-2.960287"><ele>273</ele><time>2020-08-11T10:29:30Z</time><name>PT1360</name></trkpt>
<trkpt lat="54.657745" lon="-2.960278"><ele>273</ele><time>2020-08-11T10:29:31Z</time><name>PT1361</name></trkpt>
<trkpt lat="54.657740" lon="-2.960265"><ele>273</ele><time>2020-08-11T10:29:32Z</time><name>PT1362</name></trkpt>
<trkpt lat="54.657740" lon="-2.960262"><ele>273</ele><time>2020-08-11T10:29:33Z</time><name>PT1363</name></trkpt>
<trkpt lat="54.657737" lon="-2.960250"><ele>273</ele><time>2020-08-11T10:29:34Z</time><name>PT1364</name></trkpt>
<trkpt lat="54.657734" lon="-2.960239"><ele>273</ele><time>2020-08-11T10:29:35Z</time><name>PT1365</name></trkpt>
<trkpt lat="54.657734" lon="-2.960237"><ele>273</ele><time>2020-08-11T10:29:36Z</time><name>PT1366</name></trkpt>
<trkpt lat="54.657731" lon="-2.960224"><ele>274</ele><time>2020-08-11T10:29:37Z</time><name>PT1367</name></trkpt>
<trkpt lat="54.657727" lon="-2.960210"><ele>274</ele><time>2020-08-11T10:29:38Z</time><name>PT1368</name></trkpt>
<trkpt lat="54.657726" lon="-2.960209"><ele>274</ele><time>2020-08-11T10:29:39Z</time><name>PT1369</name></trkpt>
<trkpt lat="54.657723" lon="-2.960200"><ele>274</ele><time>2020-08-11T10:29:40Z</time><name>PT1370</name></trkpt>
<trkpt lat="54.657721" lon="-2.960200"><ele>275</ele><time>2020-08-11T10:29:41Z</time><name>PT1371</name></trkpt>
<trkpt lat="54.657717" lon="-2.960185"><ele>275</ele><time>2020-08-11T10:29:42Z</time><name>PT1372</name></trkpt>
<trkpt lat="54.657714" lon="-2.960170"><ele>275</ele><time>2020-08-11T10:29:43Z</time><name>PT1373</name></trkpt>
<trkpt lat="54.657716" lon="-2.960170"><ele>276</ele><time>2020-08-11T10:29:44Z</time><name>PT1374</name></trkpt>
<trkpt lat="54.657718" lon="-2.960154"><ele>276</ele><time>2020-08-11T10:29:45Z</time><name>PT1375</name></trkpt>
<trkpt lat="54.657716" lon="-2.960141"><ele>276</ele><time>2020-08-11T10:29:46Z</time><name>PT1376</name></trkpt>
<trkpt lat="54.657715" lon="-2.960142"><ele>277</ele><time>2020-08-11T10:29:47Z</time><name>PT1377</name></trkpt>
<trkpt lat="54.657709" lon="-2.960131"><ele>277</ele><time>2020-08-11T10:29:48Z</time><name>PT1378</name></trkpt>
<trkpt lat="54.657703" lon="-2.960116"><ele>277</ele><time>2020-08-11T10:29:49Z</time><name>PT1379</name></trkpt>
<trkpt lat="54.657701" lon="-2.960116"><ele>277</ele><time>2020-08-11T10:29:50Z</time><name>PT1380</name></trkpt>
<trkpt lat="54.657701" lon="-2.960105"><ele>277</ele><time>2020-08-11T10:29:51Z</time><name>PT1381</name></trkpt>
<trkpt lat="54.657700" lon="-2.960092"><ele>277</ele><time>2020-08-11T10:29:52Z</time><name>PT1382</name></trkpt>
<trkpt lat="54.657700" lon="-2.960082"><ele>277</ele><time>2020-08-11T10:29:53Z</time><name>PT1383</name></trkpt>
<trkpt lat="54.657700" lon="-2.960074"><ele>277</ele><time>2020-08-11T10:29:54Z</time><name>PT1384</name></trkpt>
<trkpt lat="54.657698" lon="-2.960066"><ele>278</ele><time>2020-08-11T10:29:55Z</time><name>PT1385</name></trkpt>
<trkpt lat="54.657699" lon="-2.960065"><ele>278</ele><time>2020-08-11T10:29:56Z</time><name>PT1386</name></trkpt>
<trkpt lat="54.657701" lon="-2.960054"><ele>278</ele><time>2020-08-11T10:29:57Z</time><name>PT1387</name></trkpt>
<trkpt lat="54.657700" lon="-2.960044"><ele>278</ele><time>2020-08-11T10:29:58Z</time><name>PT1388</name></trkpt>
<trkpt lat="54.657700" lon="-2.960035"><ele>278</ele><time>2020-08-11T10:29:59Z</time><name>PT1389</name></trkpt>
<trkpt lat="54.657700" lon="-2.960027"><ele>278</ele><time>2020-08-11T10:30:00Z</time><name>PT1390</name></trkpt>
<trkpt lat="54.657699" lon="-2.960026"><ele>278</ele><time>2020-08-11T10:30:01Z</time><name>PT1391</name></trkpt>
<trkpt lat="54.657693" lon="-2.960020"><ele>278</ele><time>2020-08-11T10:30:02Z</time><name>PT1392</name></trkpt>
<trkpt lat="54.657690" lon="-2.960011"><ele>278</ele><time>2020-08-11T10:30:03Z</time><name>PT1393</name></trkpt>
<trkpt lat="54.657692" lon="-2.960007"><ele>278</ele><time>2020-08-11T10:30:04Z</time><name>PT1394</name></trkpt>
<trkpt lat="54.657688" lon="-2.959998"><ele>277</ele><time>2020-08-11T10:30:05Z</time><name>PT1395</name></trkpt>
<trkpt lat="54.657684" lon="-2.959996"><ele>278</ele><time>2020-08-11T10:30:06Z</time><name>PT1396</name></trkpt>
<trkpt lat="54.657677" lon="-2.959985"><ele>278</ele><time>2020-08-11T10:30:07Z</time><name>PT1397</name></trkpt>
<trkpt lat="54.657671" lon="-2.959971"><ele>278</ele><time>2020-08-11T10:30:08Z</time><name>PT1398</name></trkpt>
<trkpt lat="54.657669" lon="-2.959967"><ele>278</ele><time>2020-08-11T10:30:09Z</time><name>PT1399</name></trkpt>
<trkpt lat="54.657667" lon="-2.959950"><ele>278</ele><time>2020-08-11T10:30:10Z</time><name>PT1400</name></trkpt>
<trkpt lat="54.657663" lon="-2.959938"><ele>278</ele><time>2020-08-11T10:30:11Z</time><name>PT1401</name></trkpt>
<trkpt lat="54.657662" lon="-2.959936"><ele>279</ele><time>2020-08-11T10:30:12Z</time><name>PT1402</name></trkpt>
<trkpt lat="54.657660" lon="-2.959922"><ele>280</ele><time>2020-08-11T10:30:13Z</time><name>PT1403</name></trkpt>
<trkpt lat="54.657656" lon="-2.959912"><ele>280</ele><time>2020-08-11T10:30:14Z</time><name>PT1404</name></trkpt>
<trkpt lat="54.657654" lon="-2.959902"><ele>280</ele><time>2020-08-11T10:30:15Z</time><name>PT1405</name></trkpt>
<trkpt lat="54.657649" lon="-2.959888"><ele>280</ele><time>2020-08-11T10:30:16Z</time><name>PT1406</name></trkpt>
<trkpt lat="54.657649" lon="-2.959885"><ele>280</ele><time>2020-08-11T10:30:17Z</time><name>PT1407</name></trkpt>
<trkpt lat="54.657647" lon="-2.959879"><ele>281</ele><time>2020-08-11T10:30:18Z</time><name>PT1408</name></trkpt>
<trkpt lat="54.657642" lon="-2.959868"><ele>281</ele><time>2020-08-11T10:30:19Z</time><name>PT1409</name></trkpt>
<trkpt lat="54.657638" lon="-2.959858"><ele>281</ele><time>2020-08-11T10:30:20Z</time><name>PT1410</name></trkpt>
<trkpt lat="54.657633" lon="-2.959851"><ele>281</ele><time>2020-08-11T10:30:21Z</time><name>PT1411</name></trkpt>
<trkpt lat="54.657629" lon="-2.959844"><ele>282</ele><time>2020-08-11T10:30:22Z</time><name>PT1412</name></trkpt>
<trkpt lat="54.657623" lon="-2.959835"><ele>282</ele><time>2020-08-11T10:30:23Z</time><name>PT1413</name></trkpt>
<trkpt lat="54.657617" lon="-2.959818"><ele>282</ele><time>2020-08-11T10:30:24Z</time><name>PT1414</name></trkpt>
<trkpt lat="54.657614" lon="-2.959811"><ele>282</ele><time>2020-08-11T10:30:25Z</time><name>PT1415</name></trkpt>
<trkpt lat="54.657613" lon="-2.959812"><ele>282</ele><time>2020-08-11T10:30:26Z</time><name>PT1416</name></trkpt>
<trkpt lat="54.657609" lon="-2.959800"><ele>282</ele><time>2020-08-11T10:30:27Z</time><name>PT1417</name></trkpt>
<trkpt lat="54.657604" lon="-2.959792"><ele>282</ele><time>2020-08-11T10:30:28Z</time><name>PT1418</name></trkpt>
<trkpt lat="54.657603" lon="-2.959787"><ele>282</ele><time>2020-08-11T10:30:29Z</time><name>PT1419</name></trkpt>
<trkpt lat="54.657598" lon="-2.959772"><ele>282</ele><time>2020-08-11T10:30:30Z</time><name>PT1420</name></trkpt>
<trkpt lat="54.657594" lon="-2.959761"><ele>282</ele><time>2020-08-11T10:30:31Z</time><name>PT1421</name></trkpt>
<trkpt lat="54.657591" lon="-2.959751"><ele>282</ele><time>2020-08-11T10:30:32Z</time><name>PT1422</name></trkpt>
<trkpt lat="54.657585" lon="-2.959737"><ele>281</ele><time>2020-08-11T10:30:33Z</time><name>PT1423</name></trkpt>
<trkpt lat="54.657581" lon="-2.959734"><ele>282</ele><time>2020-08-11T10:30:34Z</time><name>PT1424</name></trkpt>
<trkpt lat="54.657575" lon="-2.959722"><ele>282</ele><time>2020-08-11T10:30:35Z</time><name>PT1425</name></trkpt>
<trkpt lat="54.657569" lon="-2.959706"><ele>282</ele><time>2020-08-11T10:30:36Z</time><name>PT1426</name></trkpt>
<trkpt lat="54.657566" lon="-2.959699"><ele>282</ele><time>2020-08-11T10:30:37Z</time><name>PT1427</name></trkpt>
<trkpt lat="54.657559" lon="-2.959687"><ele>282</ele><time>2020-08-11T10:30:38Z</time><name>PT1428</name></trkpt>
<trkpt lat="54.657557" lon="-2.959673"><ele>282</ele><time>2020-08-11T10:30:39Z</time><name>PT1429</name></trkpt>
<trkpt lat="54.657557" lon="-2.959670"><ele>282</ele><time>2020-08-11T10:30:40Z</time><name>PT1430</name></trkpt>
<trkpt lat="54.657552" lon="-2.959661"><ele>283</ele><time>2020-08-11T10:30:41Z</time><name>PT1431</name></trkpt>
<trkpt lat="54.657547" lon="-2.959652"><ele>283</ele><time>2020-08-11T10:30:42Z</time><name>PT1432</name></trkpt>
<trkpt lat="54.657547" lon="-2.959643"><ele>284</ele><time>2020-08-11T10:30:43Z</time><name>PT1433</name></trkpt>
<trkpt lat="54.657547" lon="-2.959643"><ele>284</ele><time>2020-08-11T10:30:44Z</time><name>PT1434</name></trkpt>
<trkpt lat="54.657545" lon="-2.959644"><ele>284</ele><time>2020-08-11T10:30:45Z</time><name>PT1435</name></trkpt>
<trkpt lat="54.657545" lon="-2.959645"><ele>284</ele><time>2020-08-11T10:30:46Z</time><name>PT1436</name></trkpt>
<trkpt lat="54.657544" lon="-2.959643"><ele>284</ele><time>2020-08-11T10:30:50Z</time><name>PT1437</name></trkpt>
<trkpt lat="54.657533" lon="-2.959623"><ele>284</ele><time>2020-08-11T10:30:51Z</time><name>PT1438</name></trkpt>
<trkpt lat="54.657529" lon="-2.959615"><ele>284</ele><time>2020-08-11T10:30:52Z</time><name>PT1439</name></trkpt>
<trkpt lat="54.657519" lon="-2.959604"><ele>284</ele><time>2020-08-11T10:30:53Z</time><name>PT1440</name></trkpt>
<trkpt lat="54.657512" lon="-2.959581"><ele>284</ele><time>2020-08-11T10:30:54Z</time><name>PT1441</name></trkpt>
<trkpt lat="54.657507" lon="-2.959570"><ele>284</ele><time>2020-08-11T10:30:55Z</time><name>PT1442</name></trkpt>
<trkpt lat="54.657504" lon="-2.959563"><ele>284</ele><time>2020-08-11T10:30:56Z</time><name>PT1443</name></trkpt>
<trkpt lat="54.657497" lon="-2.959550"><ele>284</ele><time>2020-08-11T10:30:57Z</time><name>PT1444</name></trkpt>
<trkpt lat="54.657493" lon="-2.959547"><ele>285</ele><time>2020-08-11T10:30:58Z</time><name>PT1445</name></trkpt>
<trkpt lat="54.657488" lon="-2.959534"><ele>285</ele><time>2020-08-11T10:30:59Z</time><name>PT1446</name></trkpt>
<trkpt lat="54.657483" lon="-2.959518"><ele>285</ele><time>2020-08-11T10:31:00Z</time><name>PT1447</name></trkpt>
<trkpt lat="54.657482" lon="-2.959512"><ele>285</ele><time>2020-08-11T10:31:01Z</time><name>PT1448</name></trkpt>
<trkpt lat="54.657468" lon="-2.959472"><ele>286</ele><time>2020-08-11T10:31:05Z</time><name>PT1449</name></trkpt>
<trkpt lat="54.657446" lon="-2.959430"><ele>287</ele><time>2020-08-11T10:31:09Z</time><name>PT1450</name></trkpt>
<trkpt lat="54.657432" lon="-2.959396"><ele>287</ele><time>2020-08-11T10:31:12Z</time><name>PT1451</name></trkpt>
<trkpt lat="54.657420" lon="-2.959368"><ele>288</ele><time>2020-08-11T10:31:16Z</time><name>PT1452</name></trkpt>
<trkpt lat="54.657409" lon="-2.959337"><ele>289</ele><time>2020-08-11T10:31:19Z</time><name>PT1453</name></trkpt>
<trkpt lat="54.657393" lon="-2.959294"><ele>289</ele><time>2020-08-11T10:31:23Z</time><name>PT1454</name></trkpt>
<trkpt lat="54.657375" lon="-2.959248"><ele>290</ele><time>2020-08-11T10:31:27Z</time><name>PT1455</name></trkpt>
<trkpt lat="54.657361" lon="-2.959216"><ele>290</ele><time>2020-08-11T10:31:30Z</time><name>PT1456</name></trkpt>
<trkpt lat="54.657352" lon="-2.959187"><ele>290</ele><time>2020-08-11T10:31:33Z</time><name>PT1457</name></trkpt>
<trkpt lat="54.657341" lon="-2.959152"><ele>292</ele><time>2020-08-11T10:31:37Z</time><name>PT1458</name></trkpt>
<trkpt lat="54.657332" lon="-2.959127"><ele>292</ele><time>2020-08-11T10:31:40Z</time><name>PT1459</name></trkpt>
<trkpt lat="54.657322" lon="-2.959101"><ele>293</ele><time>2020-08-11T10:31:43Z</time><name>PT1460</name></trkpt>
<trkpt lat="54.657321" lon="-2.959092"><ele>293</ele><time>2020-08-11T10:31:44Z</time><name>PT1461</name></trkpt>
<trkpt lat="54.657319" lon="-2.959084"><ele>294</ele><time>2020-08-11T10:31:45Z</time><name>PT1462</name></trkpt>
<trkpt lat="54.657318" lon="-2.959074"><ele>294</ele><time>2020-08-11T10:31:46Z</time><name>PT1463</name></trkpt>
<trkpt lat="54.657316" lon="-2.959063"><ele>294</ele><time>2020-08-11T10:31:47Z</time><name>PT1464</name></trkpt>
<trkpt lat="54.657313" lon="-2.959053"><ele>295</ele><time>2020-08-11T10:31:48Z</time><name>PT1465</name></trkpt>
<trkpt lat="54.657312" lon="-2.959042"><ele>295</ele><time>2020-08-11T10:31:49Z</time><name>PT1466</name></trkpt>
<trkpt lat="54.657311" lon="-2.959032"><ele>295</ele><time>2020-08-11T10:31:50Z</time><name>PT1467</name></trkpt>
<trkpt lat="54.657310" lon="-2.959023"><ele>295</ele><time>2020-08-11T10:31:51Z</time><name>PT1468</name></trkpt>
<trkpt lat="54.657309" lon="-2.959010"><ele>295</ele><time>2020-08-11T10:31:52Z</time><name>PT1469</name></trkpt>
<trkpt lat="54.657308" lon="-2.958998"><ele>295</ele><time>2020-08-11T10:31:53Z</time><name>PT1470</name></trkpt>
<trkpt lat="54.657304" lon="-2.958988"><ele>295</ele><time>2020-08-11T10:31:54Z</time><name>PT1471</name></trkpt>
<trkpt lat="54.657302" lon="-2.958974"><ele>295</ele><time>2020-08-11T10:31:55Z</time><name>PT1472</name></trkpt>
<trkpt lat="54.657301" lon="-2.958960"><ele>296</ele><time>2020-08-11T10:31:56Z</time><name>PT1473</name></trkpt>
<trkpt lat="54.657299" lon="-2.958944"><ele>296</ele><time>2020-08-11T10:31:57Z</time><name>PT1474</name></trkpt>
<trkpt lat="54.657297" lon="-2.958927"><ele>295</ele><time>2020-08-11T10:31:58Z</time><name>PT1475</name></trkpt>
<trkpt lat="54.657294" lon="-2.958910"><ele>296</ele><time>2020-08-11T10:31:59Z</time><name>PT1476</name></trkpt>
<trkpt lat="54.657293" lon="-2.958896"><ele>296</ele><time>2020-08-11T10:32:00Z</time><name>PT1477</name></trkpt>
<trkpt lat="54.657292" lon="-2.958878"><ele>296</ele><time>2020-08-11T10:32:01Z</time><name>PT1478</name></trkpt>
<trkpt lat="54.657290" lon="-2.958859"><ele>296</ele><time>2020-08-11T10:32:02Z</time><name>PT1479</name></trkpt>
<trkpt lat="54.657291" lon="-2.958843"><ele>296</ele><time>2020-08-11T10:32:03Z</time><name>PT1480</name></trkpt>
<trkpt lat="54.657291" lon="-2.958827"><ele>296</ele><time>2020-08-11T10:32:04Z</time><name>PT1481</name></trkpt>
<trkpt lat="54.657289" lon="-2.958808"><ele>296</ele><time>2020-08-11T10:32:05Z</time><name>PT1482</name></trkpt>
<trkpt lat="54.657288" lon="-2.958791"><ele>296</ele><time>2020-08-11T10:32:06Z</time><name>PT1483</name></trkpt>
<trkpt lat="54.657287" lon="-2.958773"><ele>296</ele><time>2020-08-11T10:32:07Z</time><name>PT1484</name></trkpt>
<trkpt lat="54.657287" lon="-2.958756"><ele>296</ele><time>2020-08-11T10:32:08Z</time><name>PT1485</name></trkpt>
<trkpt lat="54.657285" lon="-2.958738"><ele>297</ele><time>2020-08-11T10:32:09Z</time><name>PT1486</name></trkpt>
<trkpt lat="54.657282" lon="-2.958719"><ele>297</ele><time>2020-08-11T10:32:10Z</time><name>PT1487</name></trkpt>
<trkpt lat="54.657279" lon="-2.958703"><ele>297</ele><time>2020-08-11T10:32:11Z</time><name>PT1488</name></trkpt>
<trkpt lat="54.657275" lon="-2.958685"><ele>297</ele><time>2020-08-11T10:32:12Z</time><name>PT1489</name></trkpt>
<trkpt lat="54.657273" lon="-2.958666"><ele>297</ele><time>2020-08-11T10:32:13Z</time><name>PT1490</name></trkpt>
<trkpt lat="54.657270" lon="-2.958649"><ele>297</ele><time>2020-08-11T10:32:14Z</time><name>PT1491</name></trkpt>
<trkpt lat="54.657268" lon="-2.958631"><ele>297</ele><time>2020-08-11T10:32:15Z</time><name>PT1492</name></trkpt>
<trkpt lat="54.657265" lon="-2.958612"><ele>297</ele><time>2020-08-11T10:32:16Z</time><name>PT1493</name></trkpt>
<trkpt lat="54.657263" lon="-2.958596"><ele>297</ele><time>2020-08-11T10:32:17Z</time><name>PT1494</name></trkpt>
<trkpt lat="54.657258" lon="-2.958577"><ele>297</ele><time>2020-08-11T10:32:18Z</time><name>PT1495</name></trkpt>
<trkpt lat="54.657255" lon="-2.958560"><ele>297</ele><time>2020-08-11T10:32:19Z</time><name>PT1496</name></trkpt>
<trkpt lat="54.657251" lon="-2.958543"><ele>297</ele><time>2020-08-11T10:32:20Z</time><name>PT1497</name></trkpt>
<trkpt lat="54.657248" lon="-2.958527"><ele>297</ele><time>2020-08-11T10:32:21Z</time><name>PT1498</name></trkpt>
<trkpt lat="54.657245" lon="-2.958509"><ele>297</ele><time>2020-08-11T10:32:22Z</time><name>PT1499</name></trkpt>
<trkpt lat="54.657242" lon="-2.958491"><ele>297</ele><time>2020-08-11T10:32:23Z</time><name>PT1500</name></trkpt>
<trkpt lat="54.657238" lon="-2.958476"><ele>297</ele><time>2020-08-11T10:32:24Z</time><name>PT1501</name></trkpt>
<trkpt lat="54.657233" lon="-2.958458"><ele>296</ele><time>2020-08-11T10:32:25Z</time><name>PT1502</name></trkpt>
<trkpt lat="54.657229" lon="-2.958441"><ele>297</ele><time>2020-08-11T10:32:26Z</time><name>PT1503</name></trkpt>
<trkpt lat="54.657223" lon="-2.958422"><ele>297</ele><time>2020-08-11T10:32:27Z</time><name>PT1504</name></trkpt>
<trkpt lat="54.657219" lon="-2.958404"><ele>297</ele><time>2020-08-11T10:32:28Z</time><name>PT1505</name></trkpt>
<trkpt lat="54.657216" lon="-2.958386"><ele>296</ele><time>2020-08-11T10:32:29Z</time><name>PT1506</name></trkpt>
<trkpt lat="54.657213" lon="-2.958368"><ele>296</ele><time>2020-08-11T10:32:30Z</time><name>PT1507</name></trkpt>
<trkpt lat="54.657211" lon="-2.958353"><ele>296</ele><time>2020-08-11T10:32:31Z</time><name>PT1508</name></trkpt>
<trkpt lat="54.657208" lon="-2.958334"><ele>296</ele><time>2020-08-11T10:32:32Z</time><name>PT1509</name></trkpt>
<trkpt lat="54.657205" lon="-2.958315"><ele>296</ele><time>2020-08-11T10:32:33Z</time><name>PT1510</name></trkpt>
<trkpt lat="54.657200" lon="-2.958296"><ele>296</ele><time>2020-08-11T10:32:34Z</time><name>PT1511</name></trkpt>
<trkpt lat="54.657195" lon="-2.958280"><ele>296</ele><time>2020-08-11T10:32:35Z</time><name>PT1512</name></trkpt>
<trkpt lat="54.657190" lon="-2.958262"><ele>296</ele><time>2020-08-11T10:32:36Z</time><name>PT1513</name></trkpt>
<trkpt lat="54.657187" lon="-2.958243"><ele>296</ele><time>2020-08-11T10:32:37Z</time><name>PT1514</name></trkpt>
<trkpt lat="54.657185" lon="-2.958225"><ele>296</ele><time>2020-08-11T10:32:38Z</time><name>PT1515</name></trkpt>
<trkpt lat="54.657181" lon="-2.958207"><ele>296</ele><time>2020-08-11T10:32:39Z</time><name>PT1516</name></trkpt>
<trkpt lat="54.657178" lon="-2.958185"><ele>296</ele><time>2020-08-11T10:32:40Z</time><name>PT1517</name></trkpt>
<trkpt lat="54.657175" lon="-2.958165"><ele>295</ele><time>2020-08-11T10:32:41Z</time><name>PT1518</name></trkpt>
<trkpt lat="54.657172" lon="-2.958147"><ele>295</ele><time>2020-08-11T10:32:42Z</time><name>PT1519</name></trkpt>
<trkpt lat="54.657169" lon="-2.958133"><ele>295</ele><time>2020-08-11T10:32:43Z</time><name>PT1520</name></trkpt>
<trkpt lat="54.657167" lon="-2.958117"><ele>295</ele><time>2020-08-11T10:32:44Z</time><name>PT1521</name></trkpt>
<trkpt lat="54.657162" lon="-2.958098"><ele>294</ele><time>2020-08-11T10:32:45Z</time><name>PT1522</name></trkpt>
<trkpt lat="54.657157" lon="-2.958080"><ele>294</ele><time>2020-08-11T10:32:46Z</time><name>PT1523</name></trkpt>
<trkpt lat="54.657152" lon="-2.958063"><ele>294</ele><time>2020-08-11T10:32:47Z</time><name>PT1524</name></trkpt>
<trkpt lat="54.657146" lon="-2.958045"><ele>294</ele><time>2020-08-11T10:32:48Z</time><name>PT1525</name></trkpt>
<trkpt lat="54.657141" lon="-2.958031"><ele>294</ele><time>2020-08-11T10:32:49Z</time><name>PT1526</name></trkpt>
<trkpt lat="54.657137" lon="-2.958016"><ele>293</ele><time>2020-08-11T10:32:50Z</time><name>PT1527</name></trkpt>
<trkpt lat="54.657134" lon="-2.958001"><ele>293</ele><time>2020-08-11T10:32:51Z</time><name>PT1528</name></trkpt>
<trkpt lat="54.657131" lon="-2.957987"><ele>293</ele><time>2020-08-11T10:32:52Z</time><name>PT1529</name></trkpt>
<trkpt lat="54.657128" lon="-2.957971"><ele>293</ele><time>2020-08-11T10:32:53Z</time><name>PT1530</name></trkpt>
<trkpt lat="54.657126" lon="-2.957956"><ele>293</ele><time>2020-08-11T10:32:54Z</time><name>PT1531</name></trkpt>
<trkpt lat="54.657120" lon="-2.957938"><ele>292</ele><time>2020-08-11T10:32:55Z</time><name>PT1532</name></trkpt>
<trkpt lat="54.657115" lon="-2.957915"><ele>292</ele><time>2020-08-11T10:32:56Z</time><name>PT1533</name></trkpt>
<trkpt lat="54.657113" lon="-2.957899"><ele>292</ele><time>2020-08-11T10:32:57Z</time><name>PT1534</name></trkpt>
<trkpt lat="54.657112" lon="-2.957890"><ele>291</ele><time>2020-08-11T10:32:58Z</time><name>PT1535</name></trkpt>
<trkpt lat="54.657113" lon="-2.957866"><ele>292</ele><time>2020-08-11T10:32:59Z</time><name>PT1536</name></trkpt>
<trkpt lat="54.657115" lon="-2.957851"><ele>292</ele><time>2020-08-11T10:33:00Z</time><name>PT1537</name></trkpt>
<trkpt lat="54.657111" lon="-2.957827"><ele>292</ele><time>2020-08-11T10:33:01Z</time><name>PT1538</name></trkpt>
<trkpt lat="54.657106" lon="-2.957816"><ele>291</ele><time>2020-08-11T10:33:02Z</time><name>PT1539</name></trkpt>
<trkpt lat="54.657102" lon="-2.957803"><ele>291</ele><time>2020-08-11T10:33:03Z</time><name>PT1540</name></trkpt>
<trkpt lat="54.657100" lon="-2.957787"><ele>291</ele><time>2020-08-11T10:33:04Z</time><name>PT1541</name></trkpt>
<trkpt lat="54.657098" lon="-2.957773"><ele>290</ele><time>2020-08-11T10:33:05Z</time><name>PT1542</name></trkpt>
<trkpt lat="54.657094" lon="-2.957756"><ele>290</ele><time>2020-08-11T10:33:06Z</time><name>PT1543</name></trkpt>
<trkpt lat="54.657093" lon="-2.957734"><ele>291</ele><time>2020-08-11T10:33:07Z</time><name>PT1544</name></trkpt>
<trkpt lat="54.657091" lon="-2.957713"><ele>291</ele><time>2020-08-11T10:33:08Z</time><name>PT1545</name></trkpt>
<trkpt lat="54.657089" lon="-2.957697"><ele>291</ele><time>2020-08-11T10:33:09Z</time><name>PT1546</name></trkpt>
<trkpt lat="54.657086" lon="-2.957682"><ele>290</ele><time>2020-08-11T10:33:10Z</time><name>PT1547</name></trkpt>
<trkpt lat="54.657085" lon="-2.957663"><ele>290</ele><time>2020-08-11T10:33:11Z</time><name>PT1548</name></trkpt>
<trkpt lat="54.657084" lon="-2.957638"><ele>290</ele><time>2020-08-11T10:33:12Z</time><name>PT1549</name></trkpt>
<trkpt lat="54.657084" lon="-2.957615"><ele>290</ele><time>2020-08-11T10:33:13Z</time><name>PT1550</name></trkpt>
<trkpt lat="54.657082" lon="-2.957601"><ele>290</ele><time>2020-08-11T10:33:14Z</time><name>PT1551</name></trkpt>
<trkpt lat="54.657076" lon="-2.957583"><ele>289</ele><time>2020-08-11T10:33:15Z</time><name>PT1552</name></trkpt>
<trkpt lat="54.657073" lon="-2.957564"><ele>289</ele><time>2020-08-11T10:33:16Z</time><name>PT1553</name></trkpt>
<trkpt lat="54.657069" lon="-2.957539"><ele>290</ele><time>2020-08-11T10:33:17Z</time><name>PT1554</name></trkpt>
<trkpt lat="54.657068" lon="-2.957543"><ele>289</ele><time>2020-08-11T10:33:18Z</time><name>PT1555</name></trkpt>
<trkpt lat="54.657065" lon="-2.957529"><ele>289</ele><time>2020-08-11T10:33:19Z</time><name>PT1556</name></trkpt>
<trkpt lat="54.657063" lon="-2.957509"><ele>289</ele><time>2020-08-11T10:33:20Z</time><name>PT1557</name></trkpt>
<trkpt lat="54.657061" lon="-2.957487"><ele>289</ele><time>2020-08-11T10:33:21Z</time><name>PT1558</name></trkpt>
<trkpt lat="54.657055" lon="-2.957465"><ele>290</ele><time>2020-08-11T10:33:22Z</time><name>PT1559</name></trkpt>
<trkpt lat="54.657052" lon="-2.957453"><ele>289</ele><time>2020-08-11T10:33:23Z</time><name>PT1560</name></trkpt>
<trkpt lat="54.657049" lon="-2.957436"><ele>289</ele><time>2020-08-11T10:33:24Z</time><name>PT1561</name></trkpt>
<trkpt lat="54.657050" lon="-2.957419"><ele>289</ele><time>2020-08-11T10:33:25Z</time><name>PT1562</name></trkpt>
<trkpt lat="54.657048" lon="-2.957394"><ele>289</ele><time>2020-08-11T10:33:26Z</time><name>PT1563</name></trkpt>
<trkpt lat="54.657045" lon="-2.957377"><ele>289</ele><time>2020-08-11T10:33:27Z</time><name>PT1564</name></trkpt>
<trkpt lat="54.657042" lon="-2.957366"><ele>289</ele><time>2020-08-11T10:33:28Z</time><name>PT1565</name></trkpt>
<trkpt lat="54.657032" lon="-2.957357"><ele>289</ele><time>2020-08-11T10:33:29Z</time><name>PT1566</name></trkpt>
<trkpt lat="54.657029" lon="-2.957353"><ele>289</ele><time>2020-08-11T10:33:30Z</time><name>PT1567</name></trkpt>
<trkpt lat="54.657015" lon="-2.957355"><ele>288</ele><time>2020-08-11T10:33:31Z</time><name>PT1568</name></trkpt>
<trkpt lat="54.657009" lon="-2.957351"><ele>289</ele><time>2020-08-11T10:33:32Z</time><name>PT1569</name></trkpt>
<trkpt lat="54.657003" lon="-2.957349"><ele>288</ele><time>2020-08-11T10:33:33Z</time><name>PT1570</name></trkpt>
<trkpt lat="54.656999" lon="-2.957334"><ele>289</ele><time>2020-08-11T10:33:34Z</time><name>PT1571</name></trkpt>
<trkpt lat="54.656993" lon="-2.957335"><ele>289</ele><time>2020-08-11T10:33:35Z</time><name>PT1572</name></trkpt>
<trkpt lat="54.656991" lon="-2.957328"><ele>289</ele><time>2020-08-11T10:33:36Z</time><name>PT1573</name></trkpt>
<trkpt lat="54.656990" lon="-2.957324"><ele>289</ele><time>2020-08-11T10:33:37Z</time><name>PT1574</name></trkpt>
<trkpt lat="54.656991" lon="-2.957321"><ele>289</ele><time>2020-08-11T10:33:38Z</time><name>PT1575</name></trkpt>
<trkpt lat="54.656992" lon="-2.957317"><ele>289</ele><time>2020-08-11T10:33:39Z</time><name>PT1576</name></trkpt>
<trkpt lat="54.656994" lon="-2.957317"><ele>289</ele><time>2020-08-11T10:33:40Z</time><name>PT1577</name></trkpt>
<trkpt lat="54.656997" lon="-2.957307"><ele>289</ele><time>2020-08-11T10:33:41Z</time><name>PT1578</name></trkpt>
<trkpt lat="54.656999" lon="-2.957297"><ele>289</ele><time>2020-08-11T10:33:42Z</time><name>PT1579</name></trkpt>
<trkpt lat="54.656996" lon="-2.957289"><ele>289</ele><time>2020-08-11T10:33:43Z</time><name>PT1580</name></trkpt>
<trkpt lat="54.656995" lon="-2.957283"><ele>288</ele><time>2020-08-11T10:33:44Z</time><name>PT1581</name></trkpt>
<trkpt lat="54.656994" lon="-2.957271"><ele>288</ele><time>2020-08-11T10:33:45Z</time><name>PT1582</name></trkpt>
<trkpt lat="54.656995" lon="-2.957255"><ele>288</ele><time>2020-08-11T10:33:46Z</time><name>PT1583</name></trkpt>
<trkpt lat="54.656997" lon="-2.957245"><ele>289</ele><time>2020-08-11T10:33:47Z</time><name>PT1584</name></trkpt>
<trkpt lat="54.657002" lon="-2.957234"><ele>290</ele><time>2020-08-11T10:33:48Z</time><name>PT1585</name></trkpt>
<trkpt lat="54.657005" lon="-2.957225"><ele>290</ele><time>2020-08-11T10:33:49Z</time><name>PT1586</name></trkpt>
<trkpt lat="54.657006" lon="-2.957217"><ele>290</ele><time>2020-08-11T10:33:50Z</time><name>PT1587</name></trkpt>
<trkpt lat="54.657008" lon="-2.957209"><ele>289</ele><time>2020-08-11T10:33:51Z</time><name>PT1588</name></trkpt>
<trkpt lat="54.657008" lon="-2.957199"><ele>289</ele><time>2020-08-11T10:33:52Z</time><name>PT1589</name></trkpt>
<trkpt lat="54.657008" lon="-2.957192"><ele>290</ele><time>2020-08-11T10:33:53Z</time><name>PT1590</name></trkpt>
<trkpt lat="54.657006" lon="-2.957183"><ele>290</ele><time>2020-08-11T10:33:54Z</time><name>PT1591</name></trkpt>
<trkpt lat="54.657003" lon="-2.957176"><ele>290</ele><time>2020-08-11T10:33:55Z</time><name>PT1592</name></trkpt>
<trkpt lat="54.656997" lon="-2.957170"><ele>289</ele><time>2020-08-11T10:33:56Z</time><name>PT1593</name></trkpt>
<trkpt lat="54.656995" lon="-2.957159"><ele>289</ele><time>2020-08-11T10:33:57Z</time><name>PT1594</name></trkpt>
<trkpt lat="54.656995" lon="-2.957147"><ele>289</ele><time>2020-08-11T10:33:58Z</time><name>PT1595</name></trkpt>
<trkpt lat="54.656994" lon="-2.957139"><ele>289</ele><time>2020-08-11T10:33:59Z</time><name>PT1596</name></trkpt>
<trkpt lat="54.656988" lon="-2.957126"><ele>290</ele><time>2020-08-11T10:34:00Z</time><name>PT1597</name></trkpt>
<trkpt lat="54.656987" lon="-2.957113"><ele>290</ele><time>2020-08-11T10:34:01Z</time><name>PT1598</name></trkpt>
<trkpt lat="54.656985" lon="-2.957103"><ele>290</ele><time>2020-08-11T10:34:02Z</time><name>PT1599</name></trkpt>
<trkpt lat="54.656986" lon="-2.957096"><ele>290</ele><time>2020-08-11T10:34:03Z</time><name>PT1600</name></trkpt>
<trkpt lat="54.656983" lon="-2.957086"><ele>289</ele><time>2020-08-11T10:34:04Z</time><name>PT1601</name></trkpt>
<trkpt lat="54.656980" lon="-2.957074"><ele>289</ele><time>2020-08-11T10:34:05Z</time><name>PT1602</name></trkpt>
<trkpt lat="54.656976" lon="-2.957063"><ele>290</ele><time>2020-08-11T10:34:06Z</time><name>PT1603</name></trkpt>
<trkpt lat="54.656972" lon="-2.957053"><ele>290</ele><time>2020-08-11T10:34:07Z</time><name>PT1604</name></trkpt>
<trkpt lat="54.656969" lon="-2.957040"><ele>290</ele><time>2020-08-11T10:34:08Z</time><name>PT1605</name></trkpt>
<trkpt lat="54.656966" lon="-2.957027"><ele>289</ele><time>2020-08-11T10:34:09Z</time><name>PT1606</name></trkpt>
<trkpt lat="54.656963" lon="-2.957013"><ele>289</ele><time>2020-08-11T10:34:10Z</time><name>PT1607</name></trkpt>
<trkpt lat="54.656960" lon="-2.957001"><ele>289</ele><time>2020-08-11T10:34:11Z</time><name>PT1608</name></trkpt>
<trkpt lat="54.656955" lon="-2.956989"><ele>289</ele><time>2020-08-11T10:34:12Z</time><name>PT1609</name></trkpt>
<trkpt lat="54.656951" lon="-2.956972"><ele>289</ele><time>2020-08-11T10:34:13Z</time><name>PT1610</name></trkpt>
<trkpt lat="54.656947" lon="-2.956960"><ele>289</ele><time>2020-08-11T10:34:14Z</time><name>PT1611</name></trkpt>
<trkpt lat="54.656941" lon="-2.956949"><ele>289</ele><time>2020-08-11T10:34:15Z</time><name>PT1612</name></trkpt>
<trkpt lat="54.656938" lon="-2.956940"><ele>289</ele><time>2020-08-11T10:34:16Z</time><name>PT1613</name></trkpt>
<trkpt lat="54.656936" lon="-2.956931"><ele>289</ele><time>2020-08-11T10:34:17Z</time><name>PT1614</name></trkpt>
<trkpt lat="54.656934" lon="-2.956921"><ele>289</ele><time>2020-08-11T10:34:18Z</time><name>PT1615</name></trkpt>
<trkpt lat="54.656932" lon="-2.956909"><ele>288</ele><time>2020-08-11T10:34:19Z</time><name>PT1616</name></trkpt>
<trkpt lat="54.656928" lon="-2.956896"><ele>288</ele><time>2020-08-11T10:34:20Z</time><name>PT1617</name></trkpt>
<trkpt lat="54.656922" lon="-2.956888"><ele>288</ele><time>2020-08-11T10:34:21Z</time><name>PT1618</name></trkpt>
<trkpt lat="54.656915" lon="-2.956878"><ele>288</ele><time>2020-08-11T10:34:22Z</time><name>PT1619</name></trkpt>
<trkpt lat="54.656911" lon="-2.956870"><ele>288</ele><time>2020-08-11T10:34:23Z</time><name>PT1620</name></trkpt>
<trkpt lat="54.656905" lon="-2.956861"><ele>287</ele><time>2020-08-11T10:34:24Z</time><name>PT1621</name></trkpt>
<trkpt lat="54.656899" lon="-2.956850"><ele>287</ele><time>2020-08-11T10:34:25Z</time><name>PT1622</name></trkpt>
<trkpt lat="54.656893" lon="-2.956837"><ele>287</ele><time>2020-08-11T10:34:26Z</time><name>PT1623</name></trkpt>
<trkpt lat="54.656888" lon="-2.956823"><ele>288</ele><time>2020-08-11T10:34:27Z</time><name>PT1624</name></trkpt>
<trkpt lat="54.656884" lon="-2.956815"><ele>288</ele><time>2020-08-11T10:34:28Z</time><name>PT1625</name></trkpt>
<trkpt lat="54.656877" lon="-2.956807"><ele>288</ele><time>2020-08-11T10:34:29Z</time><name>PT1626</name></trkpt>
<trkpt lat="54.656871" lon="-2.956799"><ele>288</ele><time>2020-08-11T10:34:30Z</time><name>PT1627</name></trkpt>
<trkpt lat="54.656864" lon="-2.956789"><ele>288</ele><time>2020-08-11T10:34:31Z</time><name>PT1628</name></trkpt>
<trkpt lat="54.656858" lon="-2.956782"><ele>289</ele><time>2020-08-11T10:34:32Z</time><name>PT1629</name></trkpt>
<trkpt lat="54.656852" lon="-2.956777"><ele>288</ele><time>2020-08-11T10:34:33Z</time><name>PT1630</name></trkpt>
<trkpt lat="54.656846" lon="-2.956772"><ele>288</ele><time>2020-08-11T10:34:34Z</time><name>PT1631</name></trkpt>
<trkpt lat="54.656841" lon="-2.956758"><ele>287</ele><time>2020-08-11T10:34:35Z</time><name>PT1632</name></trkpt>
<trkpt lat="54.656836" lon="-2.956739"><ele>287</ele><time>2020-08-11T10:34:36Z</time><name>PT1633</name></trkpt>
<trkpt lat="54.656835" lon="-2.956730"><ele>288</ele><time>2020-08-11T10:34:37Z</time><name>PT1634</name></trkpt>
<trkpt lat="54.656835" lon="-2.956720"><ele>287</ele><time>2020-08-11T10:34:38Z</time><name>PT1635</name></trkpt>
<trkpt lat="54.656834" lon="-2.956709"><ele>287</ele><time>2020-08-11T10:34:39Z</time><name>PT1636</name></trkpt>
<trkpt lat="54.656834" lon="-2.956695"><ele>287</ele><time>2020-08-11T10:34:40Z</time><name>PT1637</name></trkpt>
<trkpt lat="54.656833" lon="-2.956676"><ele>288</ele><time>2020-08-11T10:34:41Z</time><name>PT1638</name></trkpt>
<trkpt lat="54.656834" lon="-2.956661"><ele>288</ele><time>2020-08-11T10:34:42Z</time><name>PT1639</name></trkpt>
<trkpt lat="54.656836" lon="-2.956648"><ele>288</ele><time>2020-08-11T10:34:43Z</time><name>PT1640</name></trkpt>
<trkpt lat="54.656835" lon="-2.956594"><ele>288</ele><time>2020-08-11T10:34:47Z</time><name>PT1641</name></trkpt>
<trkpt lat="54.656834" lon="-2.956546"><ele>289</ele><time>2020-08-11T10:34:50Z</time><name>PT1642</name></trkpt>
<trkpt lat="54.656826" lon="-2.956502"><ele>289</ele><time>2020-08-11T10:34:53Z</time><name>PT1643</name></trkpt>
<trkpt lat="54.656819" lon="-2.956440"><ele>290</ele><time>2020-08-11T10:34:57Z</time><name>PT1644</name></trkpt>
<trkpt lat="54.656820" lon="-2.956398"><ele>291</ele><time>2020-08-11T10:35:00Z</time><name>PT1645</name></trkpt>
<trkpt lat="54.656821" lon="-2.956355"><ele>291</ele><time>2020-08-11T10:35:03Z</time><name>PT1646</name></trkpt>
<trkpt lat="54.656830" lon="-2.956302"><ele>292</ele><time>2020-08-11T10:35:06Z</time><name>PT1647</name></trkpt>
<trkpt lat="54.656841" lon="-2.956247"><ele>292</ele><time>2020-08-11T10:35:10Z</time><name>PT1648</name></trkpt>
<trkpt lat="54.656846" lon="-2.956183"><ele>293</ele><time>2020-08-11T10:35:14Z</time><name>PT1649</name></trkpt>
<trkpt lat="54.656852" lon="-2.956132"><ele>294</ele><time>2020-08-11T10:35:18Z</time><name>PT1650</name></trkpt>
<trkpt lat="54.656843" lon="-2.956095"><ele>295</ele><time>2020-08-11T10:35:22Z</time><name>PT1651</name></trkpt>
<trkpt lat="54.656832" lon="-2.956052"><ele>294</ele><time>2020-08-11T10:35:26Z</time><name>PT1652</name></trkpt>
<trkpt lat="54.656826" lon="-2.956017"><ele>294</ele><time>2020-08-11T10:35:29Z</time><name>PT1653</name></trkpt>
<trkpt lat="54.656824" lon="-2.955970"><ele>295</ele><time>2020-08-11T10:35:33Z</time><name>PT1654</name></trkpt>
<trkpt lat="54.656817" lon="-2.955928"><ele>294</ele><time>2020-08-11T10:35:36Z</time><name>PT1655</name></trkpt>
<trkpt lat="54.656817" lon="-2.955893"><ele>295</ele><time>2020-08-11T10:35:39Z</time><name>PT1656</name></trkpt>
<trkpt lat="54.656814" lon="-2.955852"><ele>296</ele><time>2020-08-11T10:35:43Z</time><name>PT1657</name></trkpt>
<trkpt lat="54.656805" lon="-2.955808"><ele>296</ele><time>2020-08-11T10:35:46Z</time><name>PT1658</name></trkpt>
<trkpt lat="54.656802" lon="-2.955763"><ele>295</ele><time>2020-08-11T10:35:50Z</time><name>PT1659</name></trkpt>
<trkpt lat="54.656796" lon="-2.955719"><ele>295</ele><time>2020-08-11T10:35:54Z</time><name>PT1660</name></trkpt>
<trkpt lat="54.656793" lon="-2.955682"><ele>296</ele><time>2020-08-11T10:35:57Z</time><name>PT1661</name></trkpt>
<trkpt lat="54.656785" lon="-2.955623"><ele>297</ele><time>2020-08-11T10:36:01Z</time><name>PT1662</name></trkpt>
<trkpt lat="54.656784" lon="-2.955580"><ele>297</ele><time>2020-08-11T10:36:05Z</time><name>PT1663</name></trkpt>
<trkpt lat="54.656776" lon="-2.955542"><ele>297</ele><time>2020-08-11T10:36:08Z</time><name>PT1664</name></trkpt>
<trkpt lat="54.656769" lon="-2.955496"><ele>298</ele><time>2020-08-11T10:36:12Z</time><name>PT1665</name></trkpt>
<trkpt lat="54.656754" lon="-2.955462"><ele>297</ele><time>2020-08-11T10:36:15Z</time><name>PT1666</name></trkpt>
<trkpt lat="54.656749" lon="-2.955427"><ele>298</ele><time>2020-08-11T10:36:18Z</time><name>PT1667</name></trkpt>
<trkpt lat="54.656746" lon="-2.955382"><ele>299</ele><time>2020-08-11T10:36:21Z</time><name>PT1668</name></trkpt>
<trkpt lat="54.656741" lon="-2.955326"><ele>299</ele><time>2020-08-11T10:36:25Z</time><name>PT1669</name></trkpt>
<trkpt lat="54.656738" lon="-2.955263"><ele>301</ele><time>2020-08-11T10:36:29Z</time><name>PT1670</name></trkpt>
<trkpt lat="54.656728" lon="-2.955214"><ele>301</ele><time>2020-08-11T10:36:33Z</time><name>PT1671</name></trkpt>
<trkpt lat="54.656714" lon="-2.955172"><ele>302</ele><time>2020-08-11T10:36:37Z</time><name>PT1672</name></trkpt>
<trkpt lat="54.656704" lon="-2.955142"><ele>302</ele><time>2020-08-11T10:36:40Z</time><name>PT1673</name></trkpt>
<trkpt lat="54.656697" lon="-2.955112"><ele>303</ele><time>2020-08-11T10:36:43Z</time><name>PT1674</name></trkpt>
<trkpt lat="54.656693" lon="-2.955083"><ele>303</ele><time>2020-08-11T10:36:46Z</time><name>PT1675</name></trkpt>
<trkpt lat="54.656684" lon="-2.955036"><ele>305</ele><time>2020-08-11T10:36:50Z</time><name>PT1676</name></trkpt>
<trkpt lat="54.656671" lon="-2.955002"><ele>306</ele><time>2020-08-11T10:36:53Z</time><name>PT1677</name></trkpt>
<trkpt lat="54.656657" lon="-2.954965"><ele>305</ele><time>2020-08-11T10:36:56Z</time><name>PT1678</name></trkpt>
<trkpt lat="54.656640" lon="-2.954929"><ele>305</ele><time>2020-08-11T10:36:59Z</time><name>PT1679</name></trkpt>
<trkpt lat="54.656633" lon="-2.954882"><ele>307</ele><time>2020-08-11T10:37:03Z</time><name>PT1680</name></trkpt>
<trkpt lat="54.656650" lon="-2.954838"><ele>308</ele><time>2020-08-11T10:37:07Z</time><name>PT1681</name></trkpt>
<trkpt lat="54.656654" lon="-2.954796"><ele>308</ele><time>2020-08-11T10:37:10Z</time><name>PT1682</name></trkpt>
<trkpt lat="54.656653" lon="-2.954745"><ele>309</ele><time>2020-08-11T10:37:14Z</time><name>PT1683</name></trkpt>
<trkpt lat="54.656654" lon="-2.954714"><ele>309</ele><time>2020-08-11T10:37:18Z</time><name>PT1684</name></trkpt>
<trkpt lat="54.656656" lon="-2.954689"><ele>309</ele><time>2020-08-11T10:37:21Z</time><name>PT1685</name></trkpt>
<trkpt lat="54.656663" lon="-2.954660"><ele>309</ele><time>2020-08-11T10:37:24Z</time><name>PT1686</name></trkpt>
<trkpt lat="54.656672" lon="-2.954632"><ele>310</ele><time>2020-08-11T10:37:28Z</time><name>PT1687</name></trkpt>
<trkpt lat="54.656684" lon="-2.954593"><ele>312</ele><time>2020-08-11T10:37:32Z</time><name>PT1688</name></trkpt>
<trkpt lat="54.656688" lon="-2.954541"><ele>312</ele><time>2020-08-11T10:37:36Z</time><name>PT1689</name></trkpt>
<trkpt lat="54.656692" lon="-2.954487"><ele>313</ele><time>2020-08-11T10:37:40Z</time><name>PT1690</name></trkpt>
<trkpt lat="54.656698" lon="-2.954449"><ele>314</ele><time>2020-08-11T10:37:43Z</time><name>PT1691</name></trkpt>
<trkpt lat="54.656702" lon="-2.954426"><ele>314</ele><time>2020-08-11T10:37:46Z</time><name>PT1692</name></trkpt>
<trkpt lat="54.656703" lon="-2.954395"><ele>314</ele><time>2020-08-11T10:37:50Z</time><name>PT1693</name></trkpt>
<trkpt lat="54.656709" lon="-2.954367"><ele>314</ele><time>2020-08-11T10:37:53Z</time><name>PT1694</name></trkpt>
<trkpt lat="54.656714" lon="-2.954330"><ele>314</ele><time>2020-08-11T10:37:57Z</time><name>PT1695</name></trkpt>
<trkpt lat="54.656715" lon="-2.954304"><ele>315</ele><time>2020-08-11T10:38:00Z</time><name>PT1696</name></trkpt>
<trkpt lat="54.656711" lon="-2.954274"><ele>315</ele><time>2020-08-11T10:38:03Z</time><name>PT1697</name></trkpt>
<trkpt lat="54.656704" lon="-2.954228"><ele>315</ele><time>2020-08-11T10:38:07Z</time><name>PT1698</name></trkpt>
<trkpt lat="54.656700" lon="-2.954184"><ele>316</ele><time>2020-08-11T10:38:11Z</time><name>PT1699</name></trkpt>
<trkpt lat="54.656696" lon="-2.954148"><ele>316</ele><time>2020-08-11T10:38:14Z</time><name>PT1700</name></trkpt>
<trkpt lat="54.656693" lon="-2.954114"><ele>316</ele><time>2020-08-11T10:38:17Z</time><name>PT1701</name></trkpt>
<trkpt lat="54.656695" lon="-2.954078"><ele>316</ele><time>2020-08-11T10:38:21Z</time><name>PT1702</name></trkpt>
<trkpt lat="54.656695" lon="-2.954049"><ele>317</ele><time>2020-08-11T10:38:24Z</time><name>PT1703</name></trkpt>
<trkpt lat="54.656695" lon="-2.954026"><ele>318</ele><time>2020-08-11T10:38:27Z</time><name>PT1704</name></trkpt>
<trkpt lat="54.656699" lon="-2.953998"><ele>319</ele><time>2020-08-11T10:38:31Z</time><name>PT1705</name></trkpt>
<trkpt lat="54.656707" lon="-2.953967"><ele>320</ele><time>2020-08-11T10:38:35Z</time><name>PT1706</name></trkpt>
<trkpt lat="54.656709" lon="-2.953943"><ele>321</ele><time>2020-08-11T10:38:38Z</time><name>PT1707</name></trkpt>
<trkpt lat="54.656711" lon="-2.953919"><ele>322</ele><time>2020-08-11T10:38:42Z</time><name>PT1708</name></trkpt>
<trkpt lat="54.656715" lon="-2.953899"><ele>322</ele><time>2020-08-11T10:38:45Z</time><name>PT1709</name></trkpt>
<trkpt lat="54.656717" lon="-2.953876"><ele>323</ele><time>2020-08-11T10:38:48Z</time><name>PT1710</name></trkpt>
<trkpt lat="54.656719" lon="-2.953853"><ele>323</ele><time>2020-08-11T10:38:52Z</time><name>PT1711</name></trkpt>
<trkpt lat="54.656717" lon="-2.953827"><ele>325</ele><time>2020-08-11T10:38:55Z</time><name>PT1712</name></trkpt>
<trkpt lat="54.656718" lon="-2.953807"><ele>325</ele><time>2020-08-11T10:38:58Z</time><name>PT1713</name></trkpt>
<trkpt lat="54.656721" lon="-2.953791"><ele>325</ele><time>2020-08-11T10:39:02Z</time><name>PT1714</name></trkpt>
<trkpt lat="54.656718" lon="-2.953778"><ele>326</ele><time>2020-08-11T10:39:05Z</time><name>PT1715</name></trkpt>
<trkpt lat="54.656717" lon="-2.953733"><ele>327</ele><time>2020-08-11T10:39:09Z</time><name>PT1716</name></trkpt>
<trkpt lat="54.656714" lon="-2.953712"><ele>328</ele><time>2020-08-11T10:39:12Z</time><name>PT1717</name></trkpt>
<trkpt lat="54.656715" lon="-2.953686"><ele>329</ele><time>2020-08-11T10:39:16Z</time><name>PT1718</name></trkpt>
<trkpt lat="54.656719" lon="-2.953665"><ele>329</ele><time>2020-08-11T10:39:19Z</time><name>PT1719</name></trkpt>
<trkpt lat="54.656717" lon="-2.953656"><ele>329</ele><time>2020-08-11T10:39:20Z</time><name>PT1720</name></trkpt>
<trkpt lat="54.656714" lon="-2.953651"><ele>329</ele><time>2020-08-11T10:39:21Z</time><name>PT1721</name></trkpt>
<trkpt lat="54.656714" lon="-2.953640"><ele>329</ele><time>2020-08-11T10:39:22Z</time><name>PT1722</name></trkpt>
<trkpt lat="54.656716" lon="-2.953633"><ele>329</ele><time>2020-08-11T10:39:23Z</time><name>PT1723</name></trkpt>
<trkpt lat="54.656717" lon="-2.953625"><ele>329</ele><time>2020-08-11T10:39:24Z</time><name>PT1724</name></trkpt>
<trkpt lat="54.656718" lon="-2.953615"><ele>329</ele><time>2020-08-11T10:39:25Z</time><name>PT1725</name></trkpt>
<trkpt lat="54.656716" lon="-2.953610"><ele>329</ele><time>2020-08-11T10:39:26Z</time><name>PT1726</name></trkpt>
<trkpt lat="54.656715" lon="-2.953600"><ele>329</ele><time>2020-08-11T10:39:27Z</time><name>PT1727</name></trkpt>
<trkpt lat="54.656716" lon="-2.953593"><ele>329</ele><time>2020-08-11T10:39:28Z</time><name>PT1728</name></trkpt>
<trkpt lat="54.656717" lon="-2.953585"><ele>329</ele><time>2020-08-11T10:39:29Z</time><name>PT1729</name></trkpt>
<trkpt lat="54.656719" lon="-2.953579"><ele>330</ele><time>2020-08-11T10:39:30Z</time><name>PT1730</name></trkpt>
<trkpt lat="54.656727" lon="-2.953574"><ele>330</ele><time>2020-08-11T10:39:31Z</time><name>PT1731</name></trkpt>
<trkpt lat="54.656732" lon="-2.953570"><ele>329</ele><time>2020-08-11T10:39:32Z</time><name>PT1732</name></trkpt>
<trkpt lat="54.656734" lon="-2.953570"><ele>330</ele><time>2020-08-11T10:39:33Z</time><name>PT1733</name></trkpt>
<trkpt lat="54.656735" lon="-2.953577"><ele>329</ele><time>2020-08-11T10:39:37Z</time><name>PT1734</name></trkpt>
<trkpt lat="54.656738" lon="-2.953562"><ele>330</ele><time>2020-08-11T10:39:38Z</time><name>PT1735</name></trkpt>
<trkpt lat="54.656742" lon="-2.953545"><ele>330</ele><time>2020-08-11T10:39:39Z</time><name>PT1736</name></trkpt>
<trkpt lat="54.656743" lon="-2.953533"><ele>330</ele><time>2020-08-11T10:39:40Z</time><name>PT1737</name></trkpt>
<trkpt lat="54.656745" lon="-2.953522"><ele>331</ele><time>2020-08-11T10:39:41Z</time><name>PT1738</name></trkpt>
<trkpt lat="54.656744" lon="-2.953510"><ele>331</ele><time>2020-08-11T10:39:42Z</time><name>PT1739</name></trkpt>
<trkpt lat="54.656746" lon="-2.953501"><ele>331</ele><time>2020-08-11T10:39:43Z</time><name>PT1740</name></trkpt>
<trkpt lat="54.656746" lon="-2.953487"><ele>331</ele><time>2020-08-11T10:39:44Z</time><name>PT1741</name></trkpt>
<trkpt lat="54.656744" lon="-2.953484"><ele>331</ele><time>2020-08-11T10:39:45Z</time><name>PT1742</name></trkpt>
<trkpt lat="54.656745" lon="-2.953476"><ele>332</ele><time>2020-08-11T10:39:46Z</time><name>PT1743</name></trkpt>
<trkpt lat="54.656747" lon="-2.953469"><ele>332</ele><time>2020-08-11T10:39:47Z</time><name>PT1744</name></trkpt>
<trkpt lat="54.656747" lon="-2.953463"><ele>332</ele><time>2020-08-11T10:39:48Z</time><name>PT1745</name></trkpt>
<trkpt lat="54.656749" lon="-2.953450"><ele>331</ele><time>2020-08-11T10:39:52Z</time><name>PT1746</name></trkpt>
<trkpt lat="54.656753" lon="-2.953430"><ele>332</ele><time>2020-08-11T10:39:53Z</time><name>PT1747</name></trkpt>
<trkpt lat="54.656756" lon="-2.953414"><ele>332</ele><time>2020-08-11T10:39:54Z</time><name>PT1748</name></trkpt>
<trkpt lat="54.656759" lon="-2.953404"><ele>332</ele><time>2020-08-11T10:39:55Z</time><name>PT1749</name></trkpt>
<trkpt lat="54.656759" lon="-2.953397"><ele>332</ele><time>2020-08-11T10:39:56Z</time><name>PT1750</name></trkpt>
<trkpt lat="54.656763" lon="-2.953387"><ele>332</ele><time>2020-08-11T10:39:57Z</time><name>PT1751</name></trkpt>
<trkpt lat="54.656763" lon="-2.953378"><ele>333</ele><time>2020-08-11T10:39:58Z</time><name>PT1752</name></trkpt>
<trkpt lat="54.656762" lon="-2.953366"><ele>333</ele><time>2020-08-11T10:39:59Z</time><name>PT1753</name></trkpt>
<trkpt lat="54.656761" lon="-2.953348"><ele>333</ele><time>2020-08-11T10:40:00Z</time><name>PT1754</name></trkpt>
<trkpt lat="54.656760" lon="-2.953338"><ele>333</ele><time>2020-08-11T10:40:01Z</time><name>PT1755</name></trkpt>
<trkpt lat="54.656767" lon="-2.953319"><ele>333</ele><time>2020-08-11T10:40:02Z</time><name>PT1756</name></trkpt>
<trkpt lat="54.656770" lon="-2.953309"><ele>333</ele><time>2020-08-11T10:40:03Z</time><name>PT1757</name></trkpt>
<trkpt lat="54.656773" lon="-2.953290"><ele>334</ele><time>2020-08-11T10:40:04Z</time><name>PT1758</name></trkpt>
<trkpt lat="54.656777" lon="-2.953282"><ele>334</ele><time>2020-08-11T10:40:05Z</time><name>PT1759</name></trkpt>
<trkpt lat="54.656782" lon="-2.953277"><ele>333</ele><time>2020-08-11T10:40:06Z</time><name>PT1760</name></trkpt>
<trkpt lat="54.656785" lon="-2.953263"><ele>334</ele><time>2020-08-11T10:40:07Z</time><name>PT1761</name></trkpt>
<trkpt lat="54.656788" lon="-2.953255"><ele>334</ele><time>2020-08-11T10:40:08Z</time><name>PT1762</name></trkpt>
<trkpt lat="54.656792" lon="-2.953247"><ele>335</ele><time>2020-08-11T10:40:09Z</time><name>PT1763</name></trkpt>
<trkpt lat="54.656799" lon="-2.953241"><ele>335</ele><time>2020-08-11T10:40:10Z</time><name>PT1764</name></trkpt>
<trkpt lat="54.656803" lon="-2.953233"><ele>335</ele><time>2020-08-11T10:40:11Z</time><name>PT1765</name></trkpt>
<trkpt lat="54.656806" lon="-2.953221"><ele>335</ele><time>2020-08-11T10:40:12Z</time><name>PT1766</name></trkpt>
<trkpt lat="54.656811" lon="-2.953212"><ele>335</ele><time>2020-08-11T10:40:13Z</time><name>PT1767</name></trkpt>
<trkpt lat="54.656814" lon="-2.953209"><ele>336</ele><time>2020-08-11T10:40:14Z</time><name>PT1768</name></trkpt>
<trkpt lat="54.656819" lon="-2.953201"><ele>336</ele><time>2020-08-11T10:40:15Z</time><name>PT1769</name></trkpt>
<trkpt lat="54.656820" lon="-2.953195"><ele>336</ele><time>2020-08-11T10:40:16Z</time><name>PT1770</name></trkpt>
<trkpt lat="54.656825" lon="-2.953188"><ele>337</ele><time>2020-08-11T10:40:17Z</time><name>PT1771</name></trkpt>
<trkpt lat="54.656829" lon="-2.953178"><ele>337</ele><time>2020-08-11T10:40:18Z</time><name>PT1772</name></trkpt>
<trkpt lat="54.656833" lon="-2.953173"><ele>338</ele><time>2020-08-11T10:40:19Z</time><name>PT1773</name></trkpt>
<trkpt lat="54.656838" lon="-2.953163"><ele>338</ele><time>2020-08-11T10:40:20Z</time><name>PT1774</name></trkpt>
<trkpt lat="54.656840" lon="-2.953156"><ele>338</ele><time>2020-08-11T10:40:21Z</time><name>PT1775</name></trkpt>
<trkpt lat="54.656842" lon="-2.953149"><ele>338</ele><time>2020-08-11T10:40:22Z</time><name>PT1776</name></trkpt>
<trkpt lat="54.656845" lon="-2.953141"><ele>338</ele><time>2020-08-11T10:40:23Z</time><name>PT1777</name></trkpt>
<trkpt lat="54.656850" lon="-2.953136"><ele>338</ele><time>2020-08-11T10:40:24Z</time><name>PT1778</name></trkpt>
<trkpt lat="54.656853" lon="-2.953132"><ele>338</ele><time>2020-08-11T10:40:25Z</time><name>PT1779</name></trkpt>
<trkpt lat="54.656850" lon="-2.953125"><ele>338</ele><time>2020-08-11T10:40:26Z</time><name>PT1780</name></trkpt>
<trkpt lat="54.656845" lon="-2.953111"><ele>339</ele><time>2020-08-11T10:40:27Z</time><name>PT1781</name></trkpt>
<trkpt lat="54.656845" lon="-2.953111"><ele>338</ele><time>2020-08-11T10:40:28Z</time><name>PT1782</name></trkpt>
<trkpt lat="54.656846" lon="-2.953108"><ele>338</ele><time>2020-08-11T10:40:29Z</time><name>PT1783</name></trkpt>
<trkpt lat="54.656844" lon="-2.953107"><ele>338</ele><time>2020-08-11T10:40:30Z</time><name>PT1784</name></trkpt>
<trkpt lat="54.656835" lon="-2.953095"><ele>338</ele><time>2020-08-11T10:40:31Z</time><name>PT1785</name></trkpt>
<trkpt lat="54.656827" lon="-2.953070"><ele>338</ele><time>2020-08-11T10:40:32Z</time><name>PT1786</name></trkpt>
<trkpt lat="54.656823" lon="-2.953068"><ele>338</ele><time>2020-08-11T10:40:33Z</time><name>PT1787</name></trkpt>
<trkpt lat="54.656814" lon="-2.953062"><ele>338</ele><time>2020-08-11T10:40:34Z</time><name>PT1788</name></trkpt>
<trkpt lat="54.656809" lon="-2.953057"><ele>339</ele><time>2020-08-11T10:40:35Z</time><name>PT1789</name></trkpt>
<trkpt lat="54.656806" lon="-2.953052"><ele>339</ele><time>2020-08-11T10:40:36Z</time><name>PT1790</name></trkpt>
<trkpt lat="54.656802" lon="-2.953044"><ele>339</ele><time>2020-08-11T10:40:37Z</time><name>PT1791</name></trkpt>
<trkpt lat="54.656801" lon="-2.953043"><ele>339</ele><time>2020-08-11T10:40:38Z</time><name>PT1792</name></trkpt>
<trkpt lat="54.656794" lon="-2.953037"><ele>339</ele><time>2020-08-11T10:40:39Z</time><name>PT1793</name></trkpt>
<trkpt lat="54.656789" lon="-2.953030"><ele>340</ele><time>2020-08-11T10:40:40Z</time><name>PT1794</name></trkpt>
<trkpt lat="54.656784" lon="-2.953026"><ele>339</ele><time>2020-08-11T10:40:41Z</time><name>PT1795</name></trkpt>
<trkpt lat="54.656772" lon="-2.953036"><ele>339</ele><time>2020-08-11T10:40:42Z</time><name>PT1796</name></trkpt>
<trkpt lat="54.656767" lon="-2.953033"><ele>339</ele><time>2020-08-11T10:40:43Z</time><name>PT1797</name></trkpt>
<trkpt lat="54.656759" lon="-2.953028"><ele>340</ele><time>2020-08-11T10:40:44Z</time><name>PT1798</name></trkpt>
<trkpt lat="54.656750" lon="-2.953028"><ele>339</ele><time>2020-08-11T10:40:45Z</time><name>PT1799</name></trkpt>
<trkpt lat="54.656751" lon="-2.953034"><ele>340</ele><time>2020-08-11T10:40:46Z</time><name>PT1800</name></trkpt>
<trkpt lat="54.656742" lon="-2.953037"><ele>340</ele><time>2020-08-11T10:40:47Z</time><name>PT1801</name></trkpt>
<trkpt lat="54.656734" lon="-2.953038"><ele>340</ele><time>2020-08-11T10:40:48Z</time><name>PT1802</name></trkpt>
<trkpt lat="54.656732" lon="-2.953038"><ele>340</ele><time>2020-08-11T10:40:49Z</time><name>PT1803</name></trkpt>
<trkpt lat="54.656722" lon="-2.953038"><ele>340</ele><time>2020-08-11T10:40:50Z</time><name>PT1804</name></trkpt>
<trkpt lat="54.656715" lon="-2.953037"><ele>340</ele><time>2020-08-11T10:40:51Z</time><name>PT1805</name></trkpt>
<trkpt lat="54.656708" lon="-2.953033"><ele>341</ele><time>2020-08-11T10:40:52Z</time><name>PT1806</name></trkpt>
<trkpt lat="54.656699" lon="-2.953031"><ele>341</ele><time>2020-08-11T10:40:53Z</time><name>PT1807</name></trkpt>
<trkpt lat="54.656694" lon="-2.953030"><ele>341</ele><time>2020-08-11T10:40:54Z</time><name>PT1808</name></trkpt>
<trkpt lat="54.656693" lon="-2.953031"><ele>340</ele><time>2020-08-11T10:40:55Z</time><name>PT1809</name></trkpt>
<trkpt lat="54.656686" lon="-2.953030"><ele>340</ele><time>2020-08-11T10:40:56Z</time><name>PT1810</name></trkpt>
<trkpt lat="54.656681" lon="-2.953029"><ele>340</ele><time>2020-08-11T10:40:57Z</time><name>PT1811</name></trkpt>
<trkpt lat="54.656683" lon="-2.953027"><ele>341</ele><time>2020-08-11T10:40:58Z</time><name>PT1812</name></trkpt>
<trkpt lat="54.656674" lon="-2.953022"><ele>341</ele><time>2020-08-11T10:40:59Z</time><name>PT1813</name></trkpt>
<trkpt lat="54.656668" lon="-2.953020"><ele>341</ele><time>2020-08-11T10:41:00Z</time><name>PT1814</name></trkpt>
<trkpt lat="54.656667" lon="-2.953010"><ele>341</ele><time>2020-08-11T10:41:01Z</time><name>PT1815</name></trkpt>
<trkpt lat="54.656664" lon="-2.952999"><ele>341</ele><time>2020-08-11T10:41:02Z</time><name>PT1816</name></trkpt>
<trkpt lat="54.656665" lon="-2.952999"><ele>342</ele><time>2020-08-11T10:41:03Z</time><name>PT1817</name></trkpt>
<trkpt lat="54.656660" lon="-2.952994"><ele>342</ele><time>2020-08-11T10:41:04Z</time><name>PT1818</name></trkpt>
<trkpt lat="54.656652" lon="-2.952984"><ele>342</ele><time>2020-08-11T10:41:05Z</time><name>PT1819</name></trkpt>
<trkpt lat="54.656651" lon="-2.952988"><ele>342</ele><time>2020-08-11T10:41:06Z</time><name>PT1820</name></trkpt>
<trkpt lat="54.656644" lon="-2.952979"><ele>342</ele><time>2020-08-11T10:41:07Z</time><name>PT1821</name></trkpt>
<trkpt lat="54.656643" lon="-2.952973"><ele>343</ele><time>2020-08-11T10:41:08Z</time><name>PT1822</name></trkpt>
<trkpt lat="54.656640" lon="-2.952965"><ele>343</ele><time>2020-08-11T10:41:09Z</time><name>PT1823</name></trkpt>
<trkpt lat="54.656645" lon="-2.952949"><ele>343</ele><time>2020-08-11T10:41:10Z</time><name>PT1824</name></trkpt>
<trkpt lat="54.656649" lon="-2.952940"><ele>343</ele><time>2020-08-11T10:41:11Z</time><name>PT1825</name></trkpt>
<trkpt lat="54.656650" lon="-2.952932"><ele>343</ele><time>2020-08-11T10:41:12Z</time><name>PT1826</name></trkpt>
<trkpt lat="54.656652" lon="-2.952925"><ele>344</ele><time>2020-08-11T10:41:13Z</time><name>PT1827</name></trkpt>
<trkpt lat="54.656655" lon="-2.952914"><ele>344</ele><time>2020-08-11T10:41:14Z</time><name>PT1828</name></trkpt>
<trkpt lat="54.656657" lon="-2.952911"><ele>345</ele><time>2020-08-11T10:41:15Z</time><name>PT1829</name></trkpt>
<trkpt lat="54.656659" lon="-2.952901"><ele>345</ele><time>2020-08-11T10:41:16Z</time><name>PT1830</name></trkpt>
<trkpt lat="54.656659" lon="-2.952893"><ele>345</ele><time>2020-08-11T10:41:17Z</time><name>PT1831</name></trkpt>
<trkpt lat="54.656659" lon="-2.952881"><ele>346</ele><time>2020-08-11T10:41:18Z</time><name>PT1832</name></trkpt>
<trkpt lat="54.656658" lon="-2.952863"><ele>346</ele><time>2020-08-11T10:41:19Z</time><name>PT1833</name></trkpt>
<trkpt lat="54.656658" lon="-2.952855"><ele>346</ele><time>2020-08-11T10:41:20Z</time><name>PT1834</name></trkpt>
<trkpt lat="54.656655" lon="-2.952846"><ele>345</ele><time>2020-08-11T10:41:21Z</time><name>PT1835</name></trkpt>
<trkpt lat="54.656646" lon="-2.952836"><ele>345</ele><time>2020-08-11T10:41:22Z</time><name>PT1836</name></trkpt>
<trkpt lat="54.656644" lon="-2.952830"><ele>345</ele><time>2020-08-11T10:41:23Z</time><name>PT1837</name></trkpt>
<trkpt lat="54.656641" lon="-2.952813"><ele>345</ele><time>2020-08-11T10:41:24Z</time><name>PT1838</name></trkpt>
<trkpt lat="54.656637" lon="-2.952797"><ele>345</ele><time>2020-08-11T10:41:25Z</time><name>PT1839</name></trkpt>
<trkpt lat="54.656636" lon="-2.952791"><ele>346</ele><time>2020-08-11T10:41:26Z</time><name>PT1840</name></trkpt>
<trkpt lat="54.656636" lon="-2.952788"><ele>346</ele><time>2020-08-11T10:41:27Z</time><name>PT1841</name></trkpt>
<trkpt lat="54.656637" lon="-2.952776"><ele>346</ele><time>2020-08-11T10:41:28Z</time><name>PT1842</name></trkpt>
<trkpt lat="54.656637" lon="-2.952763"><ele>346</ele><time>2020-08-11T10:41:29Z</time><name>PT1843</name></trkpt>
<trkpt lat="54.656633" lon="-2.952750"><ele>346</ele><time>2020-08-11T10:41:30Z</time><name>PT1844</name></trkpt>
<trkpt lat="54.656630" lon="-2.952739"><ele>347</ele><time>2020-08-11T10:41:31Z</time><name>PT1845</name></trkpt>
<trkpt lat="54.656627" lon="-2.952735"><ele>347</ele><time>2020-08-11T10:41:32Z</time><name>PT1846</name></trkpt>
<trkpt lat="54.656621" lon="-2.952724"><ele>347</ele><time>2020-08-11T10:41:33Z</time><name>PT1847</name></trkpt>
<trkpt lat="54.656618" lon="-2.952719"><ele>347</ele><time>2020-08-11T10:41:34Z</time><name>PT1848</name></trkpt>
<trkpt lat="54.656617" lon="-2.952707"><ele>347</ele><time>2020-08-11T10:41:35Z</time><name>PT1849</name></trkpt>
<trkpt lat="54.656616" lon="-2.952693"><ele>347</ele><time>2020-08-11T10:41:36Z</time><name>PT1850</name></trkpt>
<trkpt lat="54.656617" lon="-2.952678"><ele>347</ele><time>2020-08-11T10:41:37Z</time><name>PT1851</name></trkpt>
<trkpt lat="54.656617" lon="-2.952665"><ele>348</ele><time>2020-08-11T10:41:38Z</time><name>PT1852</name></trkpt>
<trkpt lat="54.656615" lon="-2.952659"><ele>348</ele><time>2020-08-11T10:41:39Z</time><name>PT1853</name></trkpt>
<trkpt lat="54.656613" lon="-2.952647"><ele>348</ele><time>2020-08-11T10:41:40Z</time><name>PT1854</name></trkpt>
<trkpt lat="54.656613" lon="-2.952634"><ele>348</ele><time>2020-08-11T10:41:41Z</time><name>PT1855</name></trkpt>
<trkpt lat="54.656614" lon="-2.952624"><ele>348</ele><time>2020-08-11T10:41:42Z</time><name>PT1856</name></trkpt>
<trkpt lat="54.656618" lon="-2.952612"><ele>348</ele><time>2020-08-11T10:41:43Z</time><name>PT1857</name></trkpt>
<trkpt lat="54.656619" lon="-2.952604"><ele>348</ele><time>2020-08-11T10:41:44Z</time><name>PT1858</name></trkpt>
<trkpt lat="54.656621" lon="-2.952593"><ele>348</ele><time>2020-08-11T10:41:45Z</time><name>PT1859</name></trkpt>
<trkpt lat="54.656622" lon="-2.952578"><ele>348</ele><time>2020-08-11T10:41:46Z</time><name>PT1860</name></trkpt>
<trkpt lat="54.656622" lon="-2.952569"><ele>349</ele><time>2020-08-11T10:41:47Z</time><name>PT1861</name></trkpt>
<trkpt lat="54.656618" lon="-2.952566"><ele>349</ele><time>2020-08-11T10:41:48Z</time><name>PT1862</name></trkpt>
<trkpt lat="54.656612" lon="-2.952562"><ele>349</ele><time>2020-08-11T10:41:49Z</time><name>PT1863</name></trkpt>
<trkpt lat="54.656611" lon="-2.952564"><ele>349</ele><time>2020-08-11T10:41:50Z</time><name>PT1864</name></trkpt>
<trkpt lat="54.656610" lon="-2.952563"><ele>350</ele><time>2020-08-11T10:41:51Z</time><name>PT1865</name></trkpt>
<trkpt lat="54.656608" lon="-2.952559"><ele>350</ele><time>2020-08-11T10:41:52Z</time><name>PT1866</name></trkpt>
<trkpt lat="54.656605" lon="-2.952552"><ele>350</ele><time>2020-08-11T10:41:53Z</time><name>PT1867</name></trkpt>
<trkpt lat="54.656606" lon="-2.952554"><ele>350</ele><time>2020-08-11T10:41:57Z</time><name>PT1868</name></trkpt>
<trkpt lat="54.656602" lon="-2.952552"><ele>350</ele><time>2020-08-11T10:41:58Z</time><name>PT1869</name></trkpt>
<trkpt lat="54.656602" lon="-2.952549"><ele>350</ele><time>2020-08-11T10:41:59Z</time><name>PT1870</name></trkpt>
<trkpt lat="54.656600" lon="-2.952546"><ele>350</ele><time>2020-08-11T10:42:00Z</time><name>PT1871</name></trkpt>
<trkpt lat="54.656596" lon="-2.952543"><ele>351</ele><time>2020-08-11T10:42:01Z</time><name>PT1872</name></trkpt>
<trkpt lat="54.656589" lon="-2.952541"><ele>351</ele><time>2020-08-11T10:42:02Z</time><name>PT1873</name></trkpt>
<trkpt lat="54.656583" lon="-2.952535"><ele>350</ele><time>2020-08-11T10:42:03Z</time><name>PT1874</name></trkpt>
<trkpt lat="54.656577" lon="-2.952533"><ele>350</ele><time>2020-08-11T10:42:04Z</time><name>PT1875</name></trkpt>
<trkpt lat="54.656575" lon="-2.952519"><ele>350</ele><time>2020-08-11T10:42:05Z</time><name>PT1876</name></trkpt>
<trkpt lat="54.656570" lon="-2.952518"><ele>350</ele><time>2020-08-11T10:42:06Z</time><name>PT1877</name></trkpt>
<trkpt lat="54.656565" lon="-2.952514"><ele>350</ele><time>2020-08-11T10:42:07Z</time><name>PT1878</name></trkpt>
<trkpt lat="54.656562" lon="-2.952513"><ele>350</ele><time>2020-08-11T10:42:08Z</time><name>PT1879</name></trkpt>
<trkpt lat="54.656560" lon="-2.952510"><ele>349</ele><time>2020-08-11T10:42:09Z</time><name>PT1880</name></trkpt>
<trkpt lat="54.656555" lon="-2.952505"><ele>349</ele><time>2020-08-11T10:42:10Z</time><name>PT1881</name></trkpt>
<trkpt lat="54.656542" lon="-2.952507"><ele>349</ele><time>2020-08-11T10:42:11Z</time><name>PT1882</name></trkpt>
<trkpt lat="54.656542" lon="-2.952507"><ele>349</ele><time>2020-08-11T10:42:12Z</time><name>PT1883</name></trkpt>
<trkpt lat="54.656542" lon="-2.952505"><ele>348</ele><time>2020-08-11T10:42:13Z</time><name>PT1884</name></trkpt>
<trkpt lat="54.656539" lon="-2.952504"><ele>348</ele><time>2020-08-11T10:42:14Z</time><name>PT1885</name></trkpt>
<trkpt lat="54.656539" lon="-2.952506"><ele>348</ele><time>2020-08-11T10:42:15Z</time><name>PT1886</name></trkpt>
<trkpt lat="54.656539" lon="-2.952516"><ele>347</ele><time>2020-08-11T10:42:16Z</time><name>PT1887</name></trkpt>
<trkpt lat="54.656542" lon="-2.952516"><ele>348</ele><time>2020-08-11T10:42:17Z</time><name>PT1888</name></trkpt>
<trkpt lat="54.656541" lon="-2.952518"><ele>348</ele><time>2020-08-11T10:42:18Z</time><name>PT1889</name></trkpt>
<trkpt lat="54.656540" lon="-2.952518"><ele>348</ele><time>2020-08-11T10:42:19Z</time><name>PT1890</name></trkpt>
<trkpt lat="54.656538" lon="-2.952519"><ele>348</ele><time>2020-08-11T10:42:23Z</time><name>PT1891</name></trkpt>
<trkpt lat="54.656537" lon="-2.952519"><ele>348</ele><time>2020-08-11T10:42:53Z</time><name>PT1892</name></trkpt>
<trkpt lat="54.656549" lon="-2.952487"><ele>347</ele><time>2020-08-11T10:42:57Z</time><name>PT1893</name></trkpt>
<trkpt lat="54.656560" lon="-2.952471"><ele>347</ele><time>2020-08-11T10:43:00Z</time><name>PT1894</name></trkpt>
<trkpt lat="54.656582" lon="-2.952464"><ele>348</ele><time>2020-08-11T10:43:03Z</time><name>PT1895</name></trkpt>
<trkpt lat="54.656583" lon="-2.952465"><ele>348</ele><time>2020-08-11T10:43:06Z</time><name>PT1896</name></trkpt>
<trkpt lat="54.656585" lon="-2.952455"><ele>349</ele><time>2020-08-11T10:43:20Z</time><name>PT1897</name></trkpt>
<trkpt lat="54.656592" lon="-2.952461"><ele>349</ele><time>2020-08-11T10:43:23Z</time><name>PT1898</name></trkpt>
<trkpt lat="54.656621" lon="-2.952468"><ele>350</ele><time>2020-08-11T10:43:26Z</time><name>PT1899</name></trkpt>
<trkpt lat="54.656654" lon="-2.952464"><ele>348</ele><time>2020-08-11T10:43:29Z</time><name>PT1900</name></trkpt>
<trkpt lat="54.656696" lon="-2.952434"><ele>347</ele><time>2020-08-11T10:43:33Z</time><name>PT1901</name></trkpt>
<trkpt lat="54.656733" lon="-2.952424"><ele>347</ele><time>2020-08-11T10:43:36Z</time><name>PT1902</name></trkpt>
<trkpt lat="54.656760" lon="-2.952409"><ele>347</ele><time>2020-08-11T10:43:39Z</time><name>PT1903</name></trkpt>
<trkpt lat="54.656796" lon="-2.952425"><ele>346</ele><time>2020-08-11T10:43:42Z</time><name>PT1904</name></trkpt>
<trkpt lat="54.656837" lon="-2.952425"><ele>346</ele><time>2020-08-11T10:43:46Z</time><name>PT1905</name></trkpt>
<trkpt lat="54.656880" lon="-2.952427"><ele>345</ele><time>2020-08-11T10:43:50Z</time><name>PT1906</name></trkpt>
<trkpt lat="54.656922" lon="-2.952413"><ele>344</ele><time>2020-08-11T10:43:53Z</time><name>PT1907</name></trkpt>
<trkpt lat="54.656963" lon="-2.952404"><ele>344</ele><time>2020-08-11T10:43:56Z</time><name>PT1908</name></trkpt>
<trkpt lat="54.657011" lon="-2.952433"><ele>344</ele><time>2020-08-11T10:44:00Z</time><name>PT1909</name></trkpt>
<trkpt lat="54.657050" lon="-2.952471"><ele>344</ele><time>2020-08-11T10:44:04Z</time><name>PT1910</name></trkpt>
<trkpt lat="54.657095" lon="-2.952519"><ele>344</ele><time>2020-08-11T10:44:07Z</time><name>PT1911</name></trkpt>
<trkpt lat="54.657140" lon="-2.952552"><ele>343</ele><time>2020-08-11T10:44:11Z</time><name>PT1912</name></trkpt>
<trkpt lat="54.657181" lon="-2.952599"><ele>341</ele><time>2020-08-11T10:44:15Z</time><name>PT1913</name></trkpt>
<trkpt lat="54.657217" lon="-2.952621"><ele>341</ele><time>2020-08-11T10:44:18Z</time><name>PT1914</name></trkpt>
<trkpt lat="54.657247" lon="-2.952626"><ele>342</ele><time>2020-08-11T10:44:21Z</time><name>PT1915</name></trkpt>
<trkpt lat="54.657296" lon="-2.952652"><ele>342</ele><time>2020-08-11T10:44:25Z</time><name>PT1916</name></trkpt>
<trkpt lat="54.657351" lon="-2.952679"><ele>342</ele><time>2020-08-11T10:44:29Z</time><name>PT1917</name></trkpt>
<trkpt lat="54.657384" lon="-2.952699"><ele>343</ele><time>2020-08-11T10:44:32Z</time><name>PT1918</name></trkpt>
<trkpt lat="54.657429" lon="-2.952719"><ele>343</ele><time>2020-08-11T10:44:36Z</time><name>PT1919</name></trkpt>
<trkpt lat="54.657466" lon="-2.952730"><ele>344</ele><time>2020-08-11T10:44:39Z</time><name>PT1920</name></trkpt>
<trkpt lat="54.657511" lon="-2.952741"><ele>344</ele><time>2020-08-11T10:44:43Z</time><name>PT1921</name></trkpt>
<trkpt lat="54.657553" lon="-2.952754"><ele>344</ele><time>2020-08-11T10:44:47Z</time><name>PT1922</name></trkpt>
<trkpt lat="54.657592" lon="-2.952771"><ele>344</ele><time>2020-08-11T10:44:50Z</time><name>PT1923</name></trkpt>
<trkpt lat="54.657627" lon="-2.952794"><ele>344</ele><time>2020-08-11T10:44:54Z</time><name>PT1924</name></trkpt>
<trkpt lat="54.657637" lon="-2.952809"><ele>343</ele><time>2020-08-11T10:44:57Z</time><name>PT1925</name></trkpt>
<trkpt lat="54.657640" lon="-2.952815"><ele>342</ele><time>2020-08-11T10:45:00Z</time><name>PT1926</name></trkpt>
<trkpt lat="54.657647" lon="-2.952809"><ele>342</ele><time>2020-08-11T10:45:07Z</time><name>PT1927</name></trkpt>
<trkpt lat="54.657656" lon="-2.952804"><ele>342</ele><time>2020-08-11T10:45:08Z</time><name>PT1928</name></trkpt>
<trkpt lat="54.657661" lon="-2.952797"><ele>341</ele><time>2020-08-11T10:45:09Z</time><name>PT1929</name></trkpt>
<trkpt lat="54.657669" lon="-2.952788"><ele>341</ele><time>2020-08-11T10:45:10Z</time><name>PT1930</name></trkpt>
<trkpt lat="54.657679" lon="-2.952782"><ele>341</ele><time>2020-08-11T10:45:11Z</time><name>PT1931</name></trkpt>
<trkpt lat="54.657683" lon="-2.952774"><ele>341</ele><time>2020-08-11T10:45:12Z</time><name>PT1932</name></trkpt>
<trkpt lat="54.657695" lon="-2.952751"><ele>341</ele><time>2020-08-11T10:45:14Z</time><name>PT1933</name></trkpt>
<trkpt lat="54.657709" lon="-2.952741"><ele>341</ele><time>2020-08-11T10:45:15Z</time><name>PT1934</name></trkpt>
<trkpt lat="54.657722" lon="-2.952730"><ele>341</ele><time>2020-08-11T10:45:16Z</time><name>PT1935</name></trkpt>
<trkpt lat="54.657733" lon="-2.952719"><ele>341</ele><time>2020-08-11T10:45:17Z</time><name>PT1936</name></trkpt>
<trkpt lat="54.657743" lon="-2.952711"><ele>341</ele><time>2020-08-11T10:45:18Z</time><name>PT1937</name></trkpt>
<trkpt lat="54.657754" lon="-2.952708"><ele>341</ele><time>2020-08-11T10:45:19Z</time><name>PT1938</name></trkpt>
<trkpt lat="54.657765" lon="-2.952703"><ele>341</ele><time>2020-08-11T10:45:20Z</time><name>PT1939</name></trkpt>
<trkpt lat="54.657779" lon="-2.952704"><ele>340</ele><time>2020-08-11T10:45:21Z</time><name>PT1940</name></trkpt>
<trkpt lat="54.657793" lon="-2.952708"><ele>341</ele><time>2020-08-11T10:45:22Z</time><name>PT1941</name></trkpt>
<trkpt lat="54.657805" lon="-2.952707"><ele>340</ele><time>2020-08-11T10:45:23Z</time><name>PT1942</name></trkpt>
<trkpt lat="54.657816" lon="-2.952708"><ele>340</ele><time>2020-08-11T10:45:24Z</time><name>PT1943</name></trkpt>
<trkpt lat="54.657825" lon="-2.952713"><ele>340</ele><time>2020-08-11T10:45:25Z</time><name>PT1944</name></trkpt>
<trkpt lat="54.657839" lon="-2.952718"><ele>340</ele><time>2020-08-11T10:45:26Z</time><name>PT1945</name></trkpt>
<trkpt lat="54.657851" lon="-2.952729"><ele>340</ele><time>2020-08-11T10:45:27Z</time><name>PT1946</name></trkpt>
<trkpt lat="54.657857" lon="-2.952737"><ele>340</ele><time>2020-08-11T10:45:28Z</time><name>PT1947</name></trkpt>
<trkpt lat="54.657863" lon="-2.952740"><ele>339</ele><time>2020-08-11T10:45:29Z</time><name>PT1948</name></trkpt>
<trkpt lat="54.657870" lon="-2.952746"><ele>339</ele><time>2020-08-11T10:45:30Z</time><name>PT1949</name></trkpt>
<trkpt lat="54.657879" lon="-2.952752"><ele>339</ele><time>2020-08-11T10:45:31Z</time><name>PT1950</name></trkpt>
<trkpt lat="54.657885" lon="-2.952759"><ele>339</ele><time>2020-08-11T10:45:32Z</time><name>PT1951</name></trkpt>
<trkpt lat="54.657892" lon="-2.952765"><ele>339</ele><time>2020-08-11T10:45:33Z</time><name>PT1952</name></trkpt>
<trkpt lat="54.657901" lon="-2.952771"><ele>339</ele><time>2020-08-11T10:45:34Z</time><name>PT1953</name></trkpt>
<trkpt lat="54.657912" lon="-2.952779"><ele>338</ele><time>2020-08-11T10:45:35Z</time><name>PT1954</name></trkpt>
<trkpt lat="54.657924" lon="-2.952784"><ele>338</ele><time>2020-08-11T10:45:36Z</time><name>PT1955</name></trkpt>
<trkpt lat="54.657940" lon="-2.952785"><ele>338</ele><time>2020-08-11T10:45:37Z</time><name>PT1956</name></trkpt>
<trkpt lat="54.657955" lon="-2.952785"><ele>338</ele><time>2020-08-11T10:45:38Z</time><name>PT1957</name></trkpt>
<trkpt lat="54.657962" lon="-2.952789"><ele>337</ele><time>2020-08-11T10:45:39Z</time><name>PT1958</name></trkpt>
<trkpt lat="54.657970" lon="-2.952791"><ele>337</ele><time>2020-08-11T10:45:40Z</time><name>PT1959</name></trkpt>
<trkpt lat="54.657979" lon="-2.952792"><ele>337</ele><time>2020-08-11T10:45:41Z</time><name>PT1960</name></trkpt>
<trkpt lat="54.657992" lon="-2.952795"><ele>337</ele><time>2020-08-11T10:45:42Z</time><name>PT1961</name></trkpt>
<trkpt lat="54.658002" lon="-2.952799"><ele>337</ele><time>2020-08-11T10:45:43Z</time><name>PT1962</name></trkpt>
<trkpt lat="54.658016" lon="-2.952798"><ele>337</ele><time>2020-08-11T10:45:44Z</time><name>PT1963</name></trkpt>
<trkpt lat="54.658028" lon="-2.952796"><ele>337</ele><time>2020-08-11T10:45:45Z</time><name>PT1964</name></trkpt>
<trkpt lat="54.658039" lon="-2.952807"><ele>337</ele><time>2020-08-11T10:45:46Z</time><name>PT1965</name></trkpt>
<trkpt lat="54.658048" lon="-2.952814"><ele>337</ele><time>2020-08-11T10:45:47Z</time><name>PT1966</name></trkpt>
<trkpt lat="54.658059" lon="-2.952815"><ele>337</ele><time>2020-08-11T10:45:48Z</time><name>PT1967</name></trkpt>
<trkpt lat="54.658072" lon="-2.952817"><ele>337</ele><time>2020-08-11T10:45:49Z</time><name>PT1968</name></trkpt>
<trkpt lat="54.658085" lon="-2.952821"><ele>336</ele><time>2020-08-11T10:45:50Z</time><name>PT1969</name></trkpt>
<trkpt lat="54.658101" lon="-2.952831"><ele>336</ele><time>2020-08-11T10:45:51Z</time><name>PT1970</name></trkpt>
<trkpt lat="54.658114" lon="-2.952835"><ele>336</ele><time>2020-08-11T10:45:52Z</time><name>PT1971</name></trkpt>
<trkpt lat="54.658125" lon="-2.952841"><ele>336</ele><time>2020-08-11T10:45:53Z</time><name>PT1972</name></trkpt>
<trkpt lat="54.658133" lon="-2.952842"><ele>336</ele><time>2020-08-11T10:45:54Z</time><name>PT1973</name></trkpt>
<trkpt lat="54.658142" lon="-2.952842"><ele>336</ele><time>2020-08-11T10:45:55Z</time><name>PT1974</name></trkpt>
<trkpt lat="54.658153" lon="-2.952844"><ele>335</ele><time>2020-08-11T10:45:56Z</time><name>PT1975</name></trkpt>
<trkpt lat="54.658166" lon="-2.952848"><ele>335</ele><time>2020-08-11T10:45:57Z</time><name>PT1976</name></trkpt>
<trkpt lat="54.658183" lon="-2.952849"><ele>335</ele><time>2020-08-11T10:45:58Z</time><name>PT1977</name></trkpt>
<trkpt lat="54.658200" lon="-2.952848"><ele>335</ele><time>2020-08-11T10:45:59Z</time><name>PT1978</name></trkpt>
<trkpt lat="54.658212" lon="-2.952853"><ele>335</ele><time>2020-08-11T10:46:00Z</time><name>PT1979</name></trkpt>
<trkpt lat="54.658221" lon="-2.952853"><ele>335</ele><time>2020-08-11T10:46:01Z</time><name>PT1980</name></trkpt>
<trkpt lat="54.658229" lon="-2.952852"><ele>334</ele><time>2020-08-11T10:46:02Z</time><name>PT1981</name></trkpt>
<trkpt lat="54.658243" lon="-2.952856"><ele>334</ele><time>2020-08-11T10:46:03Z</time><name>PT1982</name></trkpt>
<trkpt lat="54.658259" lon="-2.952857"><ele>334</ele><time>2020-08-11T10:46:04Z</time><name>PT1983</name></trkpt>
<trkpt lat="54.658277" lon="-2.952859"><ele>335</ele><time>2020-08-11T10:46:05Z</time><name>PT1984</name></trkpt>
<trkpt lat="54.658292" lon="-2.952862"><ele>335</ele><time>2020-08-11T10:46:06Z</time><name>PT1985</name></trkpt>
<trkpt lat="54.658302" lon="-2.952864"><ele>334</ele><time>2020-08-11T10:46:07Z</time><name>PT1986</name></trkpt>
<trkpt lat="54.658309" lon="-2.952867"><ele>333</ele><time>2020-08-11T10:46:08Z</time><name>PT1987</name></trkpt>
<trkpt lat="54.658319" lon="-2.952868"><ele>333</ele><time>2020-08-11T10:46:09Z</time><name>PT1988</name></trkpt>
<trkpt lat="54.658329" lon="-2.952867"><ele>333</ele><time>2020-08-11T10:46:10Z</time><name>PT1989</name></trkpt>
<trkpt lat="54.658340" lon="-2.952866"><ele>332</ele><time>2020-08-11T10:46:11Z</time><name>PT1990</name></trkpt>
<trkpt lat="54.658352" lon="-2.952865"><ele>332</ele><time>2020-08-11T10:46:12Z</time><name>PT1991</name></trkpt>
<trkpt lat="54.658366" lon="-2.952861"><ele>332</ele><time>2020-08-11T10:46:13Z</time><name>PT1992</name></trkpt>
<trkpt lat="54.658380" lon="-2.952858"><ele>331</ele><time>2020-08-11T10:46:14Z</time><name>PT1993</name></trkpt>
<trkpt lat="54.658388" lon="-2.952860"><ele>331</ele><time>2020-08-11T10:46:15Z</time><name>PT1994</name></trkpt>
<trkpt lat="54.658397" lon="-2.952857"><ele>331</ele><time>2020-08-11T10:46:16Z</time><name>PT1995</name></trkpt>
<trkpt lat="54.658410" lon="-2.952856"><ele>330</ele><time>2020-08-11T10:46:17Z</time><name>PT1996</name></trkpt>
<trkpt lat="54.658423" lon="-2.952860"><ele>330</ele><time>2020-08-11T10:46:18Z</time><name>PT1997</name></trkpt>
<trkpt lat="54.658436" lon="-2.952868"><ele>330</ele><time>2020-08-11T10:46:19Z</time><name>PT1998</name></trkpt>
<trkpt lat="54.658450" lon="-2.952877"><ele>330</ele><time>2020-08-11T10:46:20Z</time><name>PT1999</name></trkpt>
<trkpt lat="54.658464" lon="-2.952885"><ele>329</ele><time>2020-08-11T10:46:21Z</time><name>PT2000</name></trkpt>
<trkpt lat="54.658472" lon="-2.952891"><ele>329</ele><time>2020-08-11T10:46:22Z</time><name>PT2001</name></trkpt>
<trkpt lat="54.658480" lon="-2.952895"><ele>329</ele><time>2020-08-11T10:46:23Z</time><name>PT2002</name></trkpt>
<trkpt lat="54.658492" lon="-2.952898"><ele>329</ele><time>2020-08-11T10:46:24Z</time><name>PT2003</name></trkpt>
<trkpt lat="54.658503" lon="-2.952907"><ele>328</ele><time>2020-08-11T10:46:25Z</time><name>PT2004</name></trkpt>
<trkpt lat="54.658514" lon="-2.952917"><ele>328</ele><time>2020-08-11T10:46:26Z</time><name>PT2005</name></trkpt>
<trkpt lat="54.658527" lon="-2.952925"><ele>328</ele><time>2020-08-11T10:46:27Z</time><name>PT2006</name></trkpt>
<trkpt lat="54.658536" lon="-2.952930"><ele>328</ele><time>2020-08-11T10:46:28Z</time><name>PT2007</name></trkpt>
<trkpt lat="54.658543" lon="-2.952934"><ele>328</ele><time>2020-08-11T10:46:29Z</time><name>PT2008</name></trkpt>
<trkpt lat="54.658552" lon="-2.952936"><ele>327</ele><time>2020-08-11T10:46:30Z</time><name>PT2009</name></trkpt>
<trkpt lat="54.658565" lon="-2.952940"><ele>327</ele><time>2020-08-11T10:46:31Z</time><name>PT2010</name></trkpt>
<trkpt lat="54.658577" lon="-2.952945"><ele>327</ele><time>2020-08-11T10:46:32Z</time><name>PT2011</name></trkpt>
<trkpt lat="54.658591" lon="-2.952948"><ele>327</ele><time>2020-08-11T10:46:33Z</time><name>PT2012</name></trkpt>
<trkpt lat="54.658608" lon="-2.952951"><ele>326</ele><time>2020-08-11T10:46:34Z</time><name>PT2013</name></trkpt>
<trkpt lat="54.658619" lon="-2.952953"><ele>326</ele><time>2020-08-11T10:46:35Z</time><name>PT2014</name></trkpt>
<trkpt lat="54.658627" lon="-2.952955"><ele>325</ele><time>2020-08-11T10:46:36Z</time><name>PT2015</name></trkpt>
<trkpt lat="54.658637" lon="-2.952955"><ele>325</ele><time>2020-08-11T10:46:37Z</time><name>PT2016</name></trkpt>
<trkpt lat="54.658650" lon="-2.952957"><ele>325</ele><time>2020-08-11T10:46:38Z</time><name>PT2017</name></trkpt>
<trkpt lat="54.658664" lon="-2.952957"><ele>325</ele><time>2020-08-11T10:46:39Z</time><name>PT2018</name></trkpt>
<trkpt lat="54.658682" lon="-2.952959"><ele>325</ele><time>2020-08-11T10:46:40Z</time><name>PT2019</name></trkpt>
<trkpt lat="54.658698" lon="-2.952961"><ele>326</ele><time>2020-08-11T10:46:41Z</time><name>PT2020</name></trkpt>
<trkpt lat="54.658708" lon="-2.952961"><ele>326</ele><time>2020-08-11T10:46:42Z</time><name>PT2021</name></trkpt>
<trkpt lat="54.658715" lon="-2.952965"><ele>325</ele><time>2020-08-11T10:46:43Z</time><name>PT2022</name></trkpt>
<trkpt lat="54.658723" lon="-2.952969"><ele>325</ele><time>2020-08-11T10:46:44Z</time><name>PT2023</name></trkpt>
<trkpt lat="54.658736" lon="-2.952972"><ele>325</ele><time>2020-08-11T10:46:45Z</time><name>PT2024</name></trkpt>
<trkpt lat="54.658752" lon="-2.952971"><ele>325</ele><time>2020-08-11T10:46:46Z</time><name>PT2025</name></trkpt>
<trkpt lat="54.658767" lon="-2.952975"><ele>325</ele><time>2020-08-11T10:46:47Z</time><name>PT2026</name></trkpt>
<trkpt lat="54.658779" lon="-2.952978"><ele>325</ele><time>2020-08-11T10:46:48Z</time><name>PT2027</name></trkpt>
<trkpt lat="54.658787" lon="-2.952982"><ele>325</ele><time>2020-08-11T10:46:49Z</time><name>PT2028</name></trkpt>
<trkpt lat="54.658795" lon="-2.952984"><ele>324</ele><time>2020-08-11T10:46:50Z</time><name>PT2029</name></trkpt>
<trkpt lat="54.658807" lon="-2.952991"><ele>324</ele><time>2020-08-11T10:46:51Z</time><name>PT2030</name></trkpt>
<trkpt lat="54.658821" lon="-2.952995"><ele>324</ele><time>2020-08-11T10:46:52Z</time><name>PT2031</name></trkpt>
<trkpt lat="54.658835" lon="-2.953003"><ele>324</ele><time>2020-08-11T10:46:53Z</time><name>PT2032</name></trkpt>
<trkpt lat="54.658851" lon="-2.953016"><ele>325</ele><time>2020-08-11T10:46:54Z</time><name>PT2033</name></trkpt>
<trkpt lat="54.658866" lon="-2.953027"><ele>325</ele><time>2020-08-11T10:46:55Z</time><name>PT2034</name></trkpt>
<trkpt lat="54.658876" lon="-2.953035"><ele>324</ele><time>2020-08-11T10:46:56Z</time><name>PT2035</name></trkpt>
<trkpt lat="54.658887" lon="-2.953038"><ele>324</ele><time>2020-08-11T10:46:57Z</time><name>PT2036</name></trkpt>
<trkpt lat="54.658896" lon="-2.953041"><ele>323</ele><time>2020-08-11T10:46:58Z</time><name>PT2037</name></trkpt>
<trkpt lat="54.658910" lon="-2.953046"><ele>323</ele><time>2020-08-11T10:46:59Z</time><name>PT2038</name></trkpt>
<trkpt lat="54.658921" lon="-2.953052"><ele>323</ele><time>2020-08-11T10:47:00Z</time><name>PT2039</name></trkpt>
<trkpt lat="54.658936" lon="-2.953060"><ele>324</ele><time>2020-08-11T10:47:01Z</time><name>PT2040</name></trkpt>
<trkpt lat="54.658950" lon="-2.953071"><ele>324</ele><time>2020-08-11T10:47:02Z</time><name>PT2041</name></trkpt>
<trkpt lat="54.658959" lon="-2.953080"><ele>323</ele><time>2020-08-11T10:47:03Z</time><name>PT2042</name></trkpt>
<trkpt lat="54.658966" lon="-2.953087"><ele>323</ele><time>2020-08-11T10:47:04Z</time><name>PT2043</name></trkpt>
<trkpt lat="54.658975" lon="-2.953090"><ele>323</ele><time>2020-08-11T10:47:05Z</time><name>PT2044</name></trkpt>
<trkpt lat="54.658987" lon="-2.953095"><ele>322</ele><time>2020-08-11T10:47:06Z</time><name>PT2045</name></trkpt>
<trkpt lat="54.659000" lon="-2.953102"><ele>322</ele><time>2020-08-11T10:47:07Z</time><name>PT2046</name></trkpt>
<trkpt lat="54.659019" lon="-2.953111"><ele>322</ele><time>2020-08-11T10:47:08Z</time><name>PT2047</name></trkpt>
<trkpt lat="54.659036" lon="-2.953118"><ele>322</ele><time>2020-08-11T10:47:09Z</time><name>PT2048</name></trkpt>
<trkpt lat="54.659054" lon="-2.953129"><ele>322</ele><time>2020-08-11T10:47:10Z</time><name>PT2049</name></trkpt>
<trkpt lat="54.659066" lon="-2.953139"><ele>322</ele><time>2020-08-11T10:47:11Z</time><name>PT2050</name></trkpt>
<trkpt lat="54.659077" lon="-2.953143"><ele>323</ele><time>2020-08-11T10:47:12Z</time><name>PT2051</name></trkpt>
<trkpt lat="54.659087" lon="-2.953146"><ele>322</ele><time>2020-08-11T10:47:13Z</time><name>PT2052</name></trkpt>
<trkpt lat="54.659100" lon="-2.953151"><ele>322</ele><time>2020-08-11T10:47:14Z</time><name>PT2053</name></trkpt>
<trkpt lat="54.659113" lon="-2.953155"><ele>321</ele><time>2020-08-11T10:47:15Z</time><name>PT2054</name></trkpt>
<trkpt lat="54.659130" lon="-2.953158"><ele>322</ele><time>2020-08-11T10:47:16Z</time><name>PT2055</name></trkpt>
<trkpt lat="54.659147" lon="-2.953162"><ele>322</ele><time>2020-08-11T10:47:17Z</time><name>PT2056</name></trkpt>
<trkpt lat="54.659159" lon="-2.953168"><ele>322</ele><time>2020-08-11T10:47:18Z</time><name>PT2057</name></trkpt>
<trkpt lat="54.659168" lon="-2.953172"><ele>322</ele><time>2020-08-11T10:47:19Z</time><name>PT2058</name></trkpt>
<trkpt lat="54.659176" lon="-2.953175"><ele>321</ele><time>2020-08-11T10:47:20Z</time><name>PT2059</name></trkpt>
<trkpt lat="54.659187" lon="-2.953180"><ele>321</ele><time>2020-08-11T10:47:21Z</time><name>PT2060</name></trkpt>
<trkpt lat="54.659197" lon="-2.953186"><ele>321</ele><time>2020-08-11T10:47:22Z</time><name>PT2061</name></trkpt>
<trkpt lat="54.659209" lon="-2.953189"><ele>321</ele><time>2020-08-11T10:47:23Z</time><name>PT2062</name></trkpt>
<trkpt lat="54.659221" lon="-2.953197"><ele>321</ele><time>2020-08-11T10:47:24Z</time><name>PT2063</name></trkpt>
<trkpt lat="54.659230" lon="-2.953205"><ele>321</ele><time>2020-08-11T10:47:25Z</time><name>PT2064</name></trkpt>
<trkpt lat="54.659236" lon="-2.953212"><ele>320</ele><time>2020-08-11T10:47:26Z</time><name>PT2065</name></trkpt>
<trkpt lat="54.659243" lon="-2.953216"><ele>320</ele><time>2020-08-11T10:47:27Z</time><name>PT2066</name></trkpt>
<trkpt lat="54.659254" lon="-2.953219"><ele>320</ele><time>2020-08-11T10:47:28Z</time><name>PT2067</name></trkpt>
<trkpt lat="54.659268" lon="-2.953226"><ele>319</ele><time>2020-08-11T10:47:29Z</time><name>PT2068</name></trkpt>
<trkpt lat="54.659280" lon="-2.953236"><ele>319</ele><time>2020-08-11T10:47:30Z</time><name>PT2069</name></trkpt>
<trkpt lat="54.659293" lon="-2.953248"><ele>320</ele><time>2020-08-11T10:47:31Z</time><name>PT2070</name></trkpt>
<trkpt lat="54.659304" lon="-2.953258"><ele>320</ele><time>2020-08-11T10:47:32Z</time><name>PT2071</name></trkpt>
<trkpt lat="54.659314" lon="-2.953264"><ele>319</ele><time>2020-08-11T10:47:33Z</time><name>PT2072</name></trkpt>
<trkpt lat="54.659320" lon="-2.953269"><ele>319</ele><time>2020-08-11T10:47:34Z</time><name>PT2073</name></trkpt>
<trkpt lat="54.659328" lon="-2.953275"><ele>319</ele><time>2020-08-11T10:47:35Z</time><name>PT2074</name></trkpt>
<trkpt lat="54.659338" lon="-2.953281"><ele>319</ele><time>2020-08-11T10:47:36Z</time><name>PT2075</name></trkpt>
<trkpt lat="54.659344" lon="-2.953284"><ele>318</ele><time>2020-08-11T10:47:37Z</time><name>PT2076</name></trkpt>
<trkpt lat="54.659346" lon="-2.953283"><ele>318</ele><time>2020-08-11T10:47:38Z</time><name>PT2077</name></trkpt>
<trkpt lat="54.659350" lon="-2.953277"><ele>318</ele><time>2020-08-11T10:47:39Z</time><name>PT2078</name></trkpt>
<trkpt lat="54.659355" lon="-2.953274"><ele>318</ele><time>2020-08-11T10:47:40Z</time><name>PT2079</name></trkpt>
<trkpt lat="54.659360" lon="-2.953275"><ele>318</ele><time>2020-08-11T10:47:41Z</time><name>PT2080</name></trkpt>
<trkpt lat="54.659375" lon="-2.953277"><ele>318</ele><time>2020-08-11T10:47:42Z</time><name>PT2081</name></trkpt>
<trkpt lat="54.659390" lon="-2.953281"><ele>318</ele><time>2020-08-11T10:47:43Z</time><name>PT2082</name></trkpt>
<trkpt lat="54.659399" lon="-2.953287"><ele>318</ele><time>2020-08-11T10:47:44Z</time><name>PT2083</name></trkpt>
<trkpt lat="54.659404" lon="-2.953295"><ele>317</ele><time>2020-08-11T10:47:45Z</time><name>PT2084</name></trkpt>
<trkpt lat="54.659413" lon="-2.953298"><ele>317</ele><time>2020-08-11T10:47:46Z</time><name>PT2085</name></trkpt>
<trkpt lat="54.659424" lon="-2.953299"><ele>317</ele><time>2020-08-11T10:47:47Z</time><name>PT2086</name></trkpt>
<trkpt lat="54.659441" lon="-2.953304"><ele>318</ele><time>2020-08-11T10:47:48Z</time><name>PT2087</name></trkpt>
<trkpt lat="54.659452" lon="-2.953311"><ele>317</ele><time>2020-08-11T10:47:49Z</time><name>PT2088</name></trkpt>
<trkpt lat="54.659459" lon="-2.953315"><ele>317</ele><time>2020-08-11T10:47:50Z</time><name>PT2089</name></trkpt>
<trkpt lat="54.659466" lon="-2.953326"><ele>317</ele><time>2020-08-11T10:47:51Z</time><name>PT2090</name></trkpt>
<trkpt lat="54.659479" lon="-2.953337"><ele>317</ele><time>2020-08-11T10:47:52Z</time><name>PT2091</name></trkpt>
<trkpt lat="54.659494" lon="-2.953350"><ele>318</ele><time>2020-08-11T10:47:53Z</time><name>PT2092</name></trkpt>
<trkpt lat="54.659504" lon="-2.953360"><ele>317</ele><time>2020-08-11T10:47:54Z</time><name>PT2093</name></trkpt>
<trkpt lat="54.659511" lon="-2.953369"><ele>317</ele><time>2020-08-11T10:47:55Z</time><name>PT2094</name></trkpt>
<trkpt lat="54.659523" lon="-2.953376"><ele>317</ele><time>2020-08-11T10:47:56Z</time><name>PT2095</name></trkpt>
<trkpt lat="54.659534" lon="-2.953388"><ele>318</ele><time>2020-08-11T10:47:57Z</time><name>PT2096</name></trkpt>
<trkpt lat="54.659544" lon="-2.953399"><ele>318</ele><time>2020-08-11T10:47:58Z</time><name>PT2097</name></trkpt>
<trkpt lat="54.659550" lon="-2.953408"><ele>318</ele><time>2020-08-11T10:47:59Z</time><name>PT2098</name></trkpt>
<trkpt lat="54.659579" lon="-2.953433"><ele>318</ele><time>2020-08-11T10:48:02Z</time><name>PT2099</name></trkpt>
<trkpt lat="54.659616" lon="-2.953463"><ele>318</ele><time>2020-08-11T10:48:06Z</time><name>PT2100</name></trkpt>
<trkpt lat="54.659660" lon="-2.953472"><ele>318</ele><time>2020-08-11T10:48:10Z</time><name>PT2101</name></trkpt>
<trkpt lat="54.659688" lon="-2.953479"><ele>318</ele><time>2020-08-11T10:48:13Z</time><name>PT2102</name></trkpt>
<trkpt lat="54.659718" lon="-2.953500"><ele>317</ele><time>2020-08-11T10:48:17Z</time><name>PT2103</name></trkpt>
<trkpt lat="54.659738" lon="-2.953524"><ele>317</ele><time>2020-08-11T10:48:20Z</time><name>PT2104</name></trkpt>
<trkpt lat="54.659763" lon="-2.953551"><ele>318</ele><time>2020-08-11T10:48:23Z</time><name>PT2105</name></trkpt>
<trkpt lat="54.659804" lon="-2.953576"><ele>319</ele><time>2020-08-11T10:48:27Z</time><name>PT2106</name></trkpt>
<trkpt lat="54.659832" lon="-2.953576"><ele>318</ele><time>2020-08-11T10:48:30Z</time><name>PT2107</name></trkpt>
<trkpt lat="54.659854" lon="-2.953585"><ele>319</ele><time>2020-08-11T10:48:33Z</time><name>PT2108</name></trkpt>
<trkpt lat="54.659882" lon="-2.953600"><ele>318</ele><time>2020-08-11T10:48:37Z</time><name>PT2109</name></trkpt>
<trkpt lat="54.659902" lon="-2.953615"><ele>318</ele><time>2020-08-11T10:48:40Z</time><name>PT2110</name></trkpt>
<trkpt lat="54.659936" lon="-2.953641"><ele>318</ele><time>2020-08-11T10:48:44Z</time><name>PT2111</name></trkpt>
<trkpt lat="54.659969" lon="-2.953680"><ele>318</ele><time>2020-08-11T10:48:48Z</time><name>PT2112</name></trkpt>
<trkpt lat="54.660006" lon="-2.953709"><ele>319</ele><time>2020-08-11T10:48:52Z</time><name>PT2113</name></trkpt>
<trkpt lat="54.660037" lon="-2.953713"><ele>319</ele><time>2020-08-11T10:48:56Z</time><name>PT2114</name></trkpt>
<trkpt lat="54.660077" lon="-2.953747"><ele>320</ele><time>2020-08-11T10:49:00Z</time><name>PT2115</name></trkpt>
<trkpt lat="54.660105" lon="-2.953769"><ele>319</ele><time>2020-08-11T10:49:03Z</time><name>PT2116</name></trkpt>
<trkpt lat="54.660141" lon="-2.953799"><ele>319</ele><time>2020-08-11T10:49:07Z</time><name>PT2117</name></trkpt>
<trkpt lat="54.660176" lon="-2.953818"><ele>319</ele><time>2020-08-11T10:49:11Z</time><name>PT2118</name></trkpt>
<trkpt lat="54.660200" lon="-2.953842"><ele>319</ele><time>2020-08-11T10:49:14Z</time><name>PT2119</name></trkpt>
<trkpt lat="54.660227" lon="-2.953852"><ele>320</ele><time>2020-08-11T10:49:17Z</time><name>PT2120</name></trkpt>
<trkpt lat="54.660255" lon="-2.953856"><ele>321</ele><time>2020-08-11T10:49:20Z</time><name>PT2121</name></trkpt>
<trkpt lat="54.660277" lon="-2.953874"><ele>321</ele><time>2020-08-11T10:49:23Z</time><name>PT2122</name></trkpt>
<trkpt lat="54.660294" lon="-2.953910"><ele>321</ele><time>2020-08-11T10:49:27Z</time><name>PT2123</name></trkpt>
<trkpt lat="54.660329" lon="-2.953936"><ele>321</ele><time>2020-08-11T10:49:31Z</time><name>PT2124</name></trkpt>
<trkpt lat="54.660359" lon="-2.953950"><ele>322</ele><time>2020-08-11T10:49:34Z</time><name>PT2125</name></trkpt>
<trkpt lat="54.660394" lon="-2.953978"><ele>322</ele><time>2020-08-11T10:49:38Z</time><name>PT2126</name></trkpt>
<trkpt lat="54.660423" lon="-2.953991"><ele>323</ele><time>2020-08-11T10:49:41Z</time><name>PT2127</name></trkpt>
<trkpt lat="54.660457" lon="-2.954023"><ele>323</ele><time>2020-08-11T10:49:45Z</time><name>PT2128</name></trkpt>
<trkpt lat="54.660480" lon="-2.954044"><ele>323</ele><time>2020-08-11T10:49:48Z</time><name>PT2129</name></trkpt>
<trkpt lat="54.660523" lon="-2.954063"><ele>323</ele><time>2020-08-11T10:49:52Z</time><name>PT2130</name></trkpt>
<trkpt lat="54.660568" lon="-2.954086"><ele>324</ele><time>2020-08-11T10:49:56Z</time><name>PT2131</name></trkpt>
<trkpt lat="54.660609" lon="-2.954111"><ele>325</ele><time>2020-08-11T10:50:00Z</time><name>PT2132</name></trkpt>
<trkpt lat="54.660649" lon="-2.954144"><ele>325</ele><time>2020-08-11T10:50:04Z</time><name>PT2133</name></trkpt>
<trkpt lat="54.660683" lon="-2.954173"><ele>325</ele><time>2020-08-11T10:50:08Z</time><name>PT2134</name></trkpt>
<trkpt lat="54.660714" lon="-2.954186"><ele>326</ele><time>2020-08-11T10:50:11Z</time><name>PT2135</name></trkpt>
<trkpt lat="54.660748" lon="-2.954226"><ele>326</ele><time>2020-08-11T10:50:15Z</time><name>PT2136</name></trkpt>
<trkpt lat="54.660772" lon="-2.954244"><ele>325</ele><time>2020-08-11T10:50:18Z</time><name>PT2137</name></trkpt>
<trkpt lat="54.660797" lon="-2.954220"><ele>326</ele><time>2020-08-11T10:50:21Z</time><name>PT2138</name></trkpt>
<trkpt lat="54.660836" lon="-2.954195"><ele>325</ele><time>2020-08-11T10:50:25Z</time><name>PT2139</name></trkpt>
<trkpt lat="54.660871" lon="-2.954186"><ele>326</ele><time>2020-08-11T10:50:28Z</time><name>PT2140</name></trkpt>
<trkpt lat="54.660916" lon="-2.954160"><ele>326</ele><time>2020-08-11T10:50:32Z</time><name>PT2141</name></trkpt>
<trkpt lat="54.660947" lon="-2.954151"><ele>326</ele><time>2020-08-11T10:50:35Z</time><name>PT2142</name></trkpt>
<trkpt lat="54.660973" lon="-2.954138"><ele>325</ele><time>2020-08-11T10:50:38Z</time><name>PT2143</name></trkpt>
<trkpt lat="54.661008" lon="-2.954165"><ele>325</ele><time>2020-08-11T10:50:42Z</time><name>PT2144</name></trkpt>
<trkpt lat="54.661039" lon="-2.954215"><ele>326</ele><time>2020-08-11T10:50:46Z</time><name>PT2145</name></trkpt>
<trkpt lat="54.661054" lon="-2.954268"><ele>326</ele><time>2020-08-11T10:50:49Z</time><name>PT2146</name></trkpt>
<trkpt lat="54.661076" lon="-2.954314"><ele>328</ele><time>2020-08-11T10:50:53Z</time><name>PT2147</name></trkpt>
<trkpt lat="54.661090" lon="-2.954339"><ele>328</ele><time>2020-08-11T10:50:56Z</time><name>PT2148</name></trkpt>
<trkpt lat="54.661097" lon="-2.954382"><ele>329</ele><time>2020-08-11T10:51:00Z</time><name>PT2149</name></trkpt>
<trkpt lat="54.661098" lon="-2.954415"><ele>330</ele><time>2020-08-11T10:51:03Z</time><name>PT2150</name></trkpt>
<trkpt lat="54.661107" lon="-2.954455"><ele>331</ele><time>2020-08-11T10:51:07Z</time><name>PT2151</name></trkpt>
<trkpt lat="54.661118" lon="-2.954483"><ele>331</ele><time>2020-08-11T10:51:10Z</time><name>PT2152</name></trkpt>
<trkpt lat="54.661138" lon="-2.954517"><ele>331</ele><time>2020-08-11T10:51:13Z</time><name>PT2153</name></trkpt>
<trkpt lat="54.661165" lon="-2.954544"><ele>331</ele><time>2020-08-11T10:51:17Z</time><name>PT2154</name></trkpt>
<trkpt lat="54.661187" lon="-2.954541"><ele>331</ele><time>2020-08-11T10:51:20Z</time><name>PT2155</name></trkpt>
<trkpt lat="54.661208" lon="-2.954543"><ele>332</ele><time>2020-08-11T10:51:23Z</time><name>PT2156</name></trkpt>
<trkpt lat="54.661225" lon="-2.954560"><ele>332</ele><time>2020-08-11T10:51:26Z</time><name>PT2157</name></trkpt>
<trkpt lat="54.661235" lon="-2.954562"><ele>333</ele><time>2020-08-11T10:51:29Z</time><name>PT2158</name></trkpt>
<trkpt lat="54.661261" lon="-2.954590"><ele>335</ele><time>2020-08-11T10:51:33Z</time><name>PT2159</name></trkpt>
<trkpt lat="54.661274" lon="-2.954621"><ele>335</ele><time>2020-08-11T10:51:37Z</time><name>PT2160</name></trkpt>
<trkpt lat="54.661277" lon="-2.954619"><ele>335</ele><time>2020-08-11T10:51:41Z</time><name>PT2161</name></trkpt>
<trkpt lat="54.661288" lon="-2.954630"><ele>335</ele><time>2020-08-11T10:52:17Z</time><name>PT2162</name></trkpt>
<trkpt lat="54.661326" lon="-2.954643"><ele>336</ele><time>2020-08-11T10:52:21Z</time><name>PT2163</name></trkpt>
<trkpt lat="54.661360" lon="-2.954651"><ele>337</ele><time>2020-08-11T10:52:24Z</time><name>PT2164</name></trkpt>
<trkpt lat="54.661398" lon="-2.954670"><ele>337</ele><time>2020-08-11T10:52:28Z</time><name>PT2165</name></trkpt>
<trkpt lat="54.661406" lon="-2.954669"><ele>336</ele><time>2020-08-11T10:52:29Z</time><name>PT2166</name></trkpt>
<trkpt lat="54.661415" lon="-2.954662"><ele>337</ele><time>2020-08-11T10:52:30Z</time><name>PT2167</name></trkpt>
<trkpt lat="54.661425" lon="-2.954655"><ele>337</ele><time>2020-08-11T10:52:31Z</time><name>PT2168</name></trkpt>
<trkpt lat="54.661433" lon="-2.954652"><ele>337</ele><time>2020-08-11T10:52:32Z</time><name>PT2169</name></trkpt>
<trkpt lat="54.661445" lon="-2.954651"><ele>337</ele><time>2020-08-11T10:52:33Z</time><name>PT2170</name></trkpt>
<trkpt lat="54.661457" lon="-2.954653"><ele>337</ele><time>2020-08-11T10:52:34Z</time><name>PT2171</name></trkpt>
<trkpt lat="54.661469" lon="-2.954655"><ele>336</ele><time>2020-08-11T10:52:35Z</time><name>PT2172</name></trkpt>
<trkpt lat="54.661480" lon="-2.954656"><ele>336</ele><time>2020-08-11T10:52:36Z</time><name>PT2173</name></trkpt>
<trkpt lat="54.661489" lon="-2.954659"><ele>336</ele><time>2020-08-11T10:52:37Z</time><name>PT2174</name></trkpt>
<trkpt lat="54.661496" lon="-2.954663"><ele>336</ele><time>2020-08-11T10:52:38Z</time><name>PT2175</name></trkpt>
<trkpt lat="54.661507" lon="-2.954666"><ele>336</ele><time>2020-08-11T10:52:39Z</time><name>PT2176</name></trkpt>
<trkpt lat="54.661521" lon="-2.954660"><ele>336</ele><time>2020-08-11T10:52:40Z</time><name>PT2177</name></trkpt>
<trkpt lat="54.661532" lon="-2.954654"><ele>335</ele><time>2020-08-11T10:52:41Z</time><name>PT2178</name></trkpt>
<trkpt lat="54.661545" lon="-2.954654"><ele>335</ele><time>2020-08-11T10:52:42Z</time><name>PT2179</name></trkpt>
<trkpt lat="54.661559" lon="-2.954653"><ele>335</ele><time>2020-08-11T10:52:43Z</time><name>PT2180</name></trkpt>
<trkpt lat="54.661570" lon="-2.954655"><ele>335</ele><time>2020-08-11T10:52:44Z</time><name>PT2181</name></trkpt>
<trkpt lat="54.661583" lon="-2.954658"><ele>335</ele><time>2020-08-11T10:52:45Z</time><name>PT2182</name></trkpt>
<trkpt lat="54.661594" lon="-2.954662"><ele>335</ele><time>2020-08-11T10:52:46Z</time><name>PT2183</name></trkpt>
<trkpt lat="54.661607" lon="-2.954667"><ele>335</ele><time>2020-08-11T10:52:47Z</time><name>PT2184</name></trkpt>
<trkpt lat="54.661620" lon="-2.954674"><ele>335</ele><time>2020-08-11T10:52:48Z</time><name>PT2185</name></trkpt>
<trkpt lat="54.661629" lon="-2.954683"><ele>335</ele><time>2020-08-11T10:52:49Z</time><name>PT2186</name></trkpt>
<trkpt lat="54.661641" lon="-2.954690"><ele>335</ele><time>2020-08-11T10:52:50Z</time><name>PT2187</name></trkpt>
<trkpt lat="54.661652" lon="-2.954697"><ele>335</ele><time>2020-08-11T10:52:51Z</time><name>PT2188</name></trkpt>
<trkpt lat="54.661665" lon="-2.954702"><ele>335</ele><time>2020-08-11T10:52:52Z</time><name>PT2189</name></trkpt>
<trkpt lat="54.661678" lon="-2.954705"><ele>335</ele><time>2020-08-11T10:52:53Z</time><name>PT2190</name></trkpt>
<trkpt lat="54.661689" lon="-2.954707"><ele>335</ele><time>2020-08-11T10:52:54Z</time><name>PT2191</name></trkpt>
<trkpt lat="54.661702" lon="-2.954708"><ele>335</ele><time>2020-08-11T10:52:55Z</time><name>PT2192</name></trkpt>
<trkpt lat="54.661713" lon="-2.954709"><ele>335</ele><time>2020-08-11T10:52:56Z</time><name>PT2193</name></trkpt>
<trkpt lat="54.661725" lon="-2.954710"><ele>335</ele><time>2020-08-11T10:52:57Z</time><name>PT2194</name></trkpt>
<trkpt lat="54.661736" lon="-2.954713"><ele>336</ele><time>2020-08-11T10:52:58Z</time><name>PT2195</name></trkpt>
<trkpt lat="54.661746" lon="-2.954716"><ele>336</ele><time>2020-08-11T10:52:59Z</time><name>PT2196</name></trkpt>
<trkpt lat="54.661756" lon="-2.954716"><ele>336</ele><time>2020-08-11T10:53:00Z</time><name>PT2197</name></trkpt>
<trkpt lat="54.661765" lon="-2.954716"><ele>336</ele><time>2020-08-11T10:53:01Z</time><name>PT2198</name></trkpt>
<trkpt lat="54.661773" lon="-2.954715"><ele>337</ele><time>2020-08-11T10:53:02Z</time><name>PT2199</name></trkpt>
<trkpt lat="54.661781" lon="-2.954716"><ele>337</ele><time>2020-08-11T10:53:03Z</time><name>PT2200</name></trkpt>
<trkpt lat="54.661789" lon="-2.954716"><ele>337</ele><time>2020-08-11T10:53:04Z</time><name>PT2201</name></trkpt>
<trkpt lat="54.661798" lon="-2.954715"><ele>337</ele><time>2020-08-11T10:53:05Z</time><name>PT2202</name></trkpt>
<trkpt lat="54.661806" lon="-2.954714"><ele>337</ele><time>2020-08-11T10:53:06Z</time><name>PT2203</name></trkpt>
<trkpt lat="54.661816" lon="-2.954719"><ele>337</ele><time>2020-08-11T10:53:07Z</time><name>PT2204</name></trkpt>
<trkpt lat="54.661824" lon="-2.954727"><ele>338</ele><time>2020-08-11T10:53:08Z</time><name>PT2205</name></trkpt>
<trkpt lat="54.661831" lon="-2.954732"><ele>338</ele><time>2020-08-11T10:53:09Z</time><name>PT2206</name></trkpt>
<trkpt lat="54.661838" lon="-2.954739"><ele>338</ele><time>2020-08-11T10:53:10Z</time><name>PT2207</name></trkpt>
<trkpt lat="54.661846" lon="-2.954748"><ele>338</ele><time>2020-08-11T10:53:11Z</time><name>PT2208</name></trkpt>
<trkpt lat="54.661854" lon="-2.954760"><ele>338</ele><time>2020-08-11T10:53:12Z</time><name>PT2209</name></trkpt>
<trkpt lat="54.661861" lon="-2.954770"><ele>338</ele><time>2020-08-11T10:53:13Z</time><name>PT2210</name></trkpt>
<trkpt lat="54.661869" lon="-2.954780"><ele>339</ele><time>2020-08-11T10:53:14Z</time><name>PT2211</name></trkpt>
<trkpt lat="54.661877" lon="-2.954788"><ele>338</ele><time>2020-08-11T10:53:15Z</time><name>PT2212</name></trkpt>
<trkpt lat="54.661887" lon="-2.954796"><ele>339</ele><time>2020-08-11T10:53:16Z</time><name>PT2213</name></trkpt>
<trkpt lat="54.661896" lon="-2.954802"><ele>339</ele><time>2020-08-11T10:53:17Z</time><name>PT2214</name></trkpt>
<trkpt lat="54.661906" lon="-2.954803"><ele>339</ele><time>2020-08-11T10:53:18Z</time><name>PT2215</name></trkpt>
<trkpt lat="54.661917" lon="-2.954798"><ele>339</ele><time>2020-08-11T10:53:19Z</time><name>PT2216</name></trkpt>
<trkpt lat="54.661926" lon="-2.954791"><ele>339</ele><time>2020-08-11T10:53:20Z</time><name>PT2217</name></trkpt>
<trkpt lat="54.661937" lon="-2.954782"><ele>339</ele><time>2020-08-11T10:53:21Z</time><name>PT2218</name></trkpt>
<trkpt lat="54.661947" lon="-2.954774"><ele>339</ele><time>2020-08-11T10:53:22Z</time><name>PT2219</name></trkpt>
<trkpt lat="54.661957" lon="-2.954763"><ele>339</ele><time>2020-08-11T10:53:23Z</time><name>PT2220</name></trkpt>
<trkpt lat="54.661966" lon="-2.954752"><ele>339</ele><time>2020-08-11T10:53:24Z</time><name>PT2221</name></trkpt>
<trkpt lat="54.661976" lon="-2.954741"><ele>339</ele><time>2020-08-11T10:53:25Z</time><name>PT2222</name></trkpt>
<trkpt lat="54.661985" lon="-2.954739"><ele>339</ele><time>2020-08-11T10:53:26Z</time><name>PT2223</name></trkpt>
<trkpt lat="54.661995" lon="-2.954737"><ele>338</ele><time>2020-08-11T10:53:27Z</time><name>PT2224</name></trkpt>
<trkpt lat="54.662005" lon="-2.954731"><ele>338</ele><time>2020-08-11T10:53:28Z</time><name>PT2225</name></trkpt>
<trkpt lat="54.662016" lon="-2.954721"><ele>338</ele><time>2020-08-11T10:53:29Z</time><name>PT2226</name></trkpt>
<trkpt lat="54.662027" lon="-2.954715"><ele>338</ele><time>2020-08-11T10:53:30Z</time><name>PT2227</name></trkpt>
<trkpt lat="54.662039" lon="-2.954711"><ele>339</ele><time>2020-08-11T10:53:31Z</time><name>PT2228</name></trkpt>
<trkpt lat="54.662050" lon="-2.954706"><ele>338</ele><time>2020-08-11T10:53:32Z</time><name>PT2229</name></trkpt>
<trkpt lat="54.662062" lon="-2.954701"><ele>338</ele><time>2020-08-11T10:53:33Z</time><name>PT2230</name></trkpt>
<trkpt lat="54.662075" lon="-2.954697"><ele>338</ele><time>2020-08-11T10:53:34Z</time><name>PT2231</name></trkpt>
<trkpt lat="54.662087" lon="-2.954692"><ele>339</ele><time>2020-08-11T10:53:35Z</time><name>PT2232</name></trkpt>
<trkpt lat="54.662097" lon="-2.954688"><ele>338</ele><time>2020-08-11T10:53:36Z</time><name>PT2233</name></trkpt>
<trkpt lat="54.662110" lon="-2.954684"><ele>338</ele><time>2020-08-11T10:53:37Z</time><name>PT2234</name></trkpt>
<trkpt lat="54.662121" lon="-2.954680"><ele>338</ele><time>2020-08-11T10:53:38Z</time><name>PT2235</name></trkpt>
<trkpt lat="54.662132" lon="-2.954678"><ele>338</ele><time>2020-08-11T10:53:39Z</time><name>PT2236</name></trkpt>
<trkpt lat="54.662142" lon="-2.954677"><ele>338</ele><time>2020-08-11T10:53:40Z</time><name>PT2237</name></trkpt>
<trkpt lat="54.662152" lon="-2.954675"><ele>338</ele><time>2020-08-11T10:53:41Z</time><name>PT2238</name></trkpt>
<trkpt lat="54.662160" lon="-2.954676"><ele>338</ele><time>2020-08-11T10:53:42Z</time><name>PT2239</name></trkpt>
<trkpt lat="54.662162" lon="-2.954679"><ele>338</ele><time>2020-08-11T10:53:43Z</time><name>PT2240</name></trkpt>
<trkpt lat="54.662165" lon="-2.954684"><ele>338</ele><time>2020-08-11T10:53:44Z</time><name>PT2241</name></trkpt>
<trkpt lat="54.662168" lon="-2.954688"><ele>337</ele><time>2020-08-11T10:53:45Z</time><name>PT2242</name></trkpt>
<trkpt lat="54.662176" lon="-2.954690"><ele>337</ele><time>2020-08-11T10:53:46Z</time><name>PT2243</name></trkpt>
<trkpt lat="54.662184" lon="-2.954692"><ele>337</ele><time>2020-08-11T10:53:47Z</time><name>PT2244</name></trkpt>
<trkpt lat="54.662191" lon="-2.954701"><ele>337</ele><time>2020-08-11T10:53:48Z</time><name>PT2245</name></trkpt>
<trkpt lat="54.662199" lon="-2.954707"><ele>337</ele><time>2020-08-11T10:53:49Z</time><name>PT2246</name></trkpt>
<trkpt lat="54.662207" lon="-2.954709"><ele>336</ele><time>2020-08-11T10:53:50Z</time><name>PT2247</name></trkpt>
<trkpt lat="54.662217" lon="-2.954712"><ele>336</ele><time>2020-08-11T10:53:51Z</time><name>PT2248</name></trkpt>
<trkpt lat="54.662228" lon="-2.954716"><ele>336</ele><time>2020-08-11T10:53:52Z</time><name>PT2249</name></trkpt>
<trkpt lat="54.662237" lon="-2.954716"><ele>336</ele><time>2020-08-11T10:53:53Z</time><name>PT2250</name></trkpt>
<trkpt lat="54.662247" lon="-2.954722"><ele>335</ele><time>2020-08-11T10:53:54Z</time><name>PT2251</name></trkpt>
<trkpt lat="54.662260" lon="-2.954729"><ele>335</ele><time>2020-08-11T10:53:55Z</time><name>PT2252</name></trkpt>
<trkpt lat="54.662265" lon="-2.954737"><ele>335</ele><time>2020-08-11T10:53:56Z</time><name>PT2253</name></trkpt>
<trkpt lat="54.662272" lon="-2.954746"><ele>334</ele><time>2020-08-11T10:53:57Z</time><name>PT2254</name></trkpt>
<trkpt lat="54.662281" lon="-2.954760"><ele>334</ele><time>2020-08-11T10:53:58Z</time><name>PT2255</name></trkpt>
<trkpt lat="54.662294" lon="-2.954777"><ele>335</ele><time>2020-08-11T10:53:59Z</time><name>PT2256</name></trkpt>
<trkpt lat="54.662301" lon="-2.954789"><ele>335</ele><time>2020-08-11T10:54:00Z</time><name>PT2257</name></trkpt>
<trkpt lat="54.662309" lon="-2.954799"><ele>335</ele><time>2020-08-11T10:54:01Z</time><name>PT2258</name></trkpt>
<trkpt lat="54.662319" lon="-2.954810"><ele>335</ele><time>2020-08-11T10:54:02Z</time><name>PT2259</name></trkpt>
<trkpt lat="54.662329" lon="-2.954822"><ele>335</ele><time>2020-08-11T10:54:03Z</time><name>PT2260</name></trkpt>
<trkpt lat="54.662341" lon="-2.954836"><ele>335</ele><time>2020-08-11T10:54:04Z</time><name>PT2261</name></trkpt>
<trkpt lat="54.662351" lon="-2.954849"><ele>334</ele><time>2020-08-11T10:54:05Z</time><name>PT2262</name></trkpt>
<trkpt lat="54.662360" lon="-2.954857"><ele>335</ele><time>2020-08-11T10:54:06Z</time><name>PT2263</name></trkpt>
<trkpt lat="54.662368" lon="-2.954865"><ele>334</ele><time>2020-08-11T10:54:07Z</time><name>PT2264</name></trkpt>
<trkpt lat="54.662382" lon="-2.954873"><ele>334</ele><time>2020-08-11T10:54:08Z</time><name>PT2265</name></trkpt>
<trkpt lat="54.662394" lon="-2.954884"><ele>334</ele><time>2020-08-11T10:54:09Z</time><name>PT2266</name></trkpt>
<trkpt lat="54.662403" lon="-2.954893"><ele>335</ele><time>2020-08-11T10:54:10Z</time><name>PT2267</name></trkpt>
<trkpt lat="54.662410" lon="-2.954892"><ele>334</ele><time>2020-08-11T10:54:11Z</time><name>PT2268</name></trkpt>
<trkpt lat="54.662421" lon="-2.954893"><ele>335</ele><time>2020-08-11T10:54:12Z</time><name>PT2269</name></trkpt>
<trkpt lat="54.662432" lon="-2.954899"><ele>335</ele><time>2020-08-11T10:54:13Z</time><name>PT2270</name></trkpt>
<trkpt lat="54.662438" lon="-2.954905"><ele>334</ele><time>2020-08-11T10:54:14Z</time><name>PT2271</name></trkpt>
<trkpt lat="54.662446" lon="-2.954912"><ele>334</ele><time>2020-08-11T10:54:15Z</time><name>PT2272</name></trkpt>
<trkpt lat="54.662456" lon="-2.954924"><ele>334</ele><time>2020-08-11T10:54:16Z</time><name>PT2273</name></trkpt>
<trkpt lat="54.662469" lon="-2.954938"><ele>334</ele><time>2020-08-11T10:54:17Z</time><name>PT2274</name></trkpt>
<trkpt lat="54.662477" lon="-2.954948"><ele>334</ele><time>2020-08-11T10:54:18Z</time><name>PT2275</name></trkpt>
<trkpt lat="54.662485" lon="-2.954952"><ele>334</ele><time>2020-08-11T10:54:19Z</time><name>PT2276</name></trkpt>
<trkpt lat="54.662495" lon="-2.954961"><ele>334</ele><time>2020-08-11T10:54:20Z</time><name>PT2277</name></trkpt>
<trkpt lat="54.662506" lon="-2.954975"><ele>334</ele><time>2020-08-11T10:54:21Z</time><name>PT2278</name></trkpt>
<trkpt lat="54.662516" lon="-2.954989"><ele>335</ele><time>2020-08-11T10:54:22Z</time><name>PT2279</name></trkpt>
<trkpt lat="54.662525" lon="-2.954996"><ele>335</ele><time>2020-08-11T10:54:23Z</time><name>PT2280</name></trkpt>
<trkpt lat="54.662531" lon="-2.955010"><ele>334</ele><time>2020-08-11T10:54:24Z</time><name>PT2281</name></trkpt>
<trkpt lat="54.662540" lon="-2.955026"><ele>335</ele><time>2020-08-11T10:54:25Z</time><name>PT2282</name></trkpt>
<trkpt lat="54.662545" lon="-2.955039"><ele>335</ele><time>2020-08-11T10:54:26Z</time><name>PT2283</name></trkpt>
<trkpt lat="54.662550" lon="-2.955046"><ele>335</ele><time>2020-08-11T10:54:27Z</time><name>PT2284</name></trkpt>
<trkpt lat="54.662555" lon="-2.955062"><ele>335</ele><time>2020-08-11T10:54:28Z</time><name>PT2285</name></trkpt>
<trkpt lat="54.662559" lon="-2.955081"><ele>335</ele><time>2020-08-11T10:54:29Z</time><name>PT2286</name></trkpt>
<trkpt lat="54.662559" lon="-2.955091"><ele>335</ele><time>2020-08-11T10:54:30Z</time><name>PT2287</name></trkpt>
<trkpt lat="54.662559" lon="-2.955096"><ele>335</ele><time>2020-08-11T10:54:31Z</time><name>PT2288</name></trkpt>
<trkpt lat="54.662557" lon="-2.955109"><ele>335</ele><time>2020-08-11T10:54:32Z</time><name>PT2289</name></trkpt>
<trkpt lat="54.662553" lon="-2.955121"><ele>335</ele><time>2020-08-11T10:54:33Z</time><name>PT2290</name></trkpt>
<trkpt lat="54.662553" lon="-2.955128"><ele>335</ele><time>2020-08-11T10:54:34Z</time><name>PT2291</name></trkpt>
<trkpt lat="54.662556" lon="-2.955138"><ele>335</ele><time>2020-08-11T10:54:35Z</time><name>PT2292</name></trkpt>
<trkpt lat="54.662556" lon="-2.955148"><ele>335</ele><time>2020-08-11T10:54:36Z</time><name>PT2293</name></trkpt>
<trkpt lat="54.662556" lon="-2.955155"><ele>335</ele><time>2020-08-11T10:54:37Z</time><name>PT2294</name></trkpt>
<trkpt lat="54.662559" lon="-2.955165"><ele>335</ele><time>2020-08-11T10:54:38Z</time><name>PT2295</name></trkpt>
<trkpt lat="54.662563" lon="-2.955177"><ele>335</ele><time>2020-08-11T10:54:39Z</time><name>PT2296</name></trkpt>
<trkpt lat="54.662565" lon="-2.955185"><ele>335</ele><time>2020-08-11T10:54:40Z</time><name>PT2297</name></trkpt>
<trkpt lat="54.662568" lon="-2.955192"><ele>336</ele><time>2020-08-11T10:54:41Z</time><name>PT2298</name></trkpt>
<trkpt lat="54.662574" lon="-2.955202"><ele>336</ele><time>2020-08-11T10:54:42Z</time><name>PT2299</name></trkpt>
<trkpt lat="54.662576" lon="-2.955206"><ele>336</ele><time>2020-08-11T10:54:43Z</time><name>PT2300</name></trkpt>
<trkpt lat="54.662584" lon="-2.955210"><ele>336</ele><time>2020-08-11T10:54:44Z</time><name>PT2301</name></trkpt>
<trkpt lat="54.662588" lon="-2.955219"><ele>336</ele><time>2020-08-11T10:54:45Z</time><name>PT2302</name></trkpt>
<trkpt lat="54.662593" lon="-2.955220"><ele>337</ele><time>2020-08-11T10:54:46Z</time><name>PT2303</name></trkpt>
<trkpt lat="54.662601" lon="-2.955225"><ele>338</ele><time>2020-08-11T10:54:47Z</time><name>PT2304</name></trkpt>
<trkpt lat="54.662607" lon="-2.955231"><ele>338</ele><time>2020-08-11T10:54:48Z</time><name>PT2305</name></trkpt>
<trkpt lat="54.662613" lon="-2.955235"><ele>338</ele><time>2020-08-11T10:54:49Z</time><name>PT2306</name></trkpt>
<trkpt lat="54.662621" lon="-2.955239"><ele>338</ele><time>2020-08-11T10:54:50Z</time><name>PT2307</name></trkpt>
<trkpt lat="54.662627" lon="-2.955241"><ele>338</ele><time>2020-08-11T10:54:51Z</time><name>PT2308</name></trkpt>
<trkpt lat="54.662633" lon="-2.955238"><ele>338</ele><time>2020-08-11T10:54:52Z</time><name>PT2309</name></trkpt>
<trkpt lat="54.662643" lon="-2.955233"><ele>338</ele><time>2020-08-11T10:54:53Z</time><name>PT2310</name></trkpt>
<trkpt lat="54.662649" lon="-2.955230"><ele>339</ele><time>2020-08-11T10:54:54Z</time><name>PT2311</name></trkpt>
<trkpt lat="54.662655" lon="-2.955228"><ele>339</ele><time>2020-08-11T10:54:55Z</time><name>PT2312</name></trkpt>
<trkpt lat="54.662665" lon="-2.955228"><ele>339</ele><time>2020-08-11T10:54:56Z</time><name>PT2313</name></trkpt>
<trkpt lat="54.662671" lon="-2.955224"><ele>339</ele><time>2020-08-11T10:54:57Z</time><name>PT2314</name></trkpt>
<trkpt lat="54.662681" lon="-2.955218"><ele>339</ele><time>2020-08-11T10:54:58Z</time><name>PT2315</name></trkpt>
<trkpt lat="54.662694" lon="-2.955215"><ele>339</ele><time>2020-08-11T10:54:59Z</time><name>PT2316</name></trkpt>
<trkpt lat="54.662702" lon="-2.955216"><ele>339</ele><time>2020-08-11T10:55:00Z</time><name>PT2317</name></trkpt>
<trkpt lat="54.662707" lon="-2.955220"><ele>340</ele><time>2020-08-11T10:55:01Z</time><name>PT2318</name></trkpt>
<trkpt lat="54.662714" lon="-2.955226"><ele>340</ele><time>2020-08-11T10:55:02Z</time><name>PT2319</name></trkpt>
<trkpt lat="54.662722" lon="-2.955233"><ele>340</ele><time>2020-08-11T10:55:03Z</time><name>PT2320</name></trkpt>
<trkpt lat="54.662727" lon="-2.955236"><ele>340</ele><time>2020-08-11T10:55:04Z</time><name>PT2321</name></trkpt>
<trkpt lat="54.662733" lon="-2.955238"><ele>341</ele><time>2020-08-11T10:55:05Z</time><name>PT2322</name></trkpt>
<trkpt lat="54.662737" lon="-2.955242"><ele>341</ele><time>2020-08-11T10:55:06Z</time><name>PT2323</name></trkpt>
<trkpt lat="54.662740" lon="-2.955246"><ele>341</ele><time>2020-08-11T10:55:07Z</time><name>PT2324</name></trkpt>
<trkpt lat="54.662743" lon="-2.955253"><ele>341</ele><time>2020-08-11T10:55:08Z</time><name>PT2325</name></trkpt>
<trkpt lat="54.662746" lon="-2.955256"><ele>341</ele><time>2020-08-11T10:55:09Z</time><name>PT2326</name></trkpt>
<trkpt lat="54.662750" lon="-2.955268"><ele>341</ele><time>2020-08-11T10:55:10Z</time><name>PT2327</name></trkpt>
<trkpt lat="54.662745" lon="-2.955282"><ele>340</ele><time>2020-08-11T10:55:11Z</time><name>PT2328</name></trkpt>
<trkpt lat="54.662743" lon="-2.955283"><ele>341</ele><time>2020-08-11T10:55:12Z</time><name>PT2329</name></trkpt>
<trkpt lat="54.662740" lon="-2.955284"><ele>340</ele><time>2020-08-11T10:55:13Z</time><name>PT2330</name></trkpt>
<trkpt lat="54.662742" lon="-2.955284"><ele>340</ele><time>2020-08-11T10:55:14Z</time><name>PT2331</name></trkpt>
<trkpt lat="54.662740" lon="-2.955283"><ele>340</ele><time>2020-08-11T10:55:20Z</time><name>PT2332</name></trkpt>
<trkpt lat="54.662741" lon="-2.955283"><ele>340</ele><time>2020-08-11T10:55:21Z</time><name>PT2333</name></trkpt>
<trkpt lat="54.662742" lon="-2.955282"><ele>340</ele><time>2020-08-11T10:55:22Z</time><name>PT2334</name></trkpt>
<trkpt lat="54.662746" lon="-2.955291"><ele>340</ele><time>2020-08-11T10:55:41Z</time><name>PT2335</name></trkpt>
<trkpt lat="54.662756" lon="-2.955347"><ele>339</ele><time>2020-08-11T10:55:45Z</time><name>PT2336</name></trkpt>
<trkpt lat="54.662766" lon="-2.955398"><ele>338</ele><time>2020-08-11T10:55:48Z</time><name>PT2337</name></trkpt>
<trkpt lat="54.662758" lon="-2.955466"><ele>336</ele><time>2020-08-11T10:55:52Z</time><name>PT2338</name></trkpt>
<trkpt lat="54.662743" lon="-2.955524"><ele>337</ele><time>2020-08-11T10:55:55Z</time><name>PT2339</name></trkpt>
<trkpt lat="54.662715" lon="-2.955590"><ele>336</ele><time>2020-08-11T10:55:59Z</time><name>PT2340</name></trkpt>
<trkpt lat="54.662712" lon="-2.955606"><ele>336</ele><time>2020-08-11T10:56:00Z</time><name>PT2341</name></trkpt>
<trkpt lat="54.662709" lon="-2.955623"><ele>335</ele><time>2020-08-11T10:56:01Z</time><name>PT2342</name></trkpt>
<trkpt lat="54.662704" lon="-2.955640"><ele>335</ele><time>2020-08-11T10:56:02Z</time><name>PT2343</name></trkpt>
<trkpt lat="54.662698" lon="-2.955657"><ele>335</ele><time>2020-08-11T10:56:03Z</time><name>PT2344</name></trkpt>
<trkpt lat="54.662694" lon="-2.955670"><ele>334</ele><time>2020-08-11T10:56:04Z</time><name>PT2345</name></trkpt>
<trkpt lat="54.662690" lon="-2.955683"><ele>334</ele><time>2020-08-11T10:56:05Z</time><name>PT2346</name></trkpt>
<trkpt lat="54.662685" lon="-2.955696"><ele>334</ele><time>2020-08-11T10:56:06Z</time><name>PT2347</name></trkpt>
<trkpt lat="54.662681" lon="-2.955708"><ele>333</ele><time>2020-08-11T10:56:07Z</time><name>PT2348</name></trkpt>
<trkpt lat="54.662679" lon="-2.955719"><ele>333</ele><time>2020-08-11T10:56:08Z</time><name>PT2349</name></trkpt>
<trkpt lat="54.662675" lon="-2.955730"><ele>333</ele><time>2020-08-11T10:56:09Z</time><name>PT2350</name></trkpt>
<trkpt lat="54.662668" lon="-2.955741"><ele>332</ele><time>2020-08-11T10:56:10Z</time><name>PT2351</name></trkpt>
<trkpt lat="54.662663" lon="-2.955751"><ele>332</ele><time>2020-08-11T10:56:11Z</time><name>PT2352</name></trkpt>
<trkpt lat="54.662658" lon="-2.955763"><ele>332</ele><time>2020-08-11T10:56:12Z</time><name>PT2353</name></trkpt>
<trkpt lat="54.662655" lon="-2.955778"><ele>332</ele><time>2020-08-11T10:56:13Z</time><name>PT2354</name></trkpt>
<trkpt lat="54.662654" lon="-2.955794"><ele>331</ele><time>2020-08-11T10:56:14Z</time><name>PT2355</name></trkpt>
<trkpt lat="54.662652" lon="-2.955809"><ele>331</ele><time>2020-08-11T10:56:15Z</time><name>PT2356</name></trkpt>
<trkpt lat="54.662650" lon="-2.955825"><ele>330</ele><time>2020-08-11T10:56:16Z</time><name>PT2357</name></trkpt>
<trkpt lat="54.662646" lon="-2.955841"><ele>330</ele><time>2020-08-11T10:56:17Z</time><name>PT2358</name></trkpt>
<trkpt lat="54.662641" lon="-2.955857"><ele>330</ele><time>2020-08-11T10:56:18Z</time><name>PT2359</name></trkpt>
<trkpt lat="54.662636" lon="-2.955871"><ele>329</ele><time>2020-08-11T10:56:19Z</time><name>PT2360</name></trkpt>
<trkpt lat="54.662632" lon="-2.955890"><ele>329</ele><time>2020-08-11T10:56:20Z</time><name>PT2361</name></trkpt>
<trkpt lat="54.662627" lon="-2.955912"><ele>329</ele><time>2020-08-11T10:56:21Z</time><name>PT2362</name></trkpt>
<trkpt lat="54.662623" lon="-2.955930"><ele>329</ele><time>2020-08-11T10:56:22Z</time><name>PT2363</name></trkpt>
<trkpt lat="54.662619" lon="-2.955947"><ele>329</ele><time>2020-08-11T10:56:23Z</time><name>PT2364</name></trkpt>
<trkpt lat="54.662616" lon="-2.955963"><ele>329</ele><time>2020-08-11T10:56:24Z</time><name>PT2365</name></trkpt>
<trkpt lat="54.662616" lon="-2.955979"><ele>329</ele><time>2020-08-11T10:56:25Z</time><name>PT2366</name></trkpt>
<trkpt lat="54.662615" lon="-2.955996"><ele>329</ele><time>2020-08-11T10:56:26Z</time><name>PT2367</name></trkpt>
<trkpt lat="54.662612" lon="-2.956011"><ele>328</ele><time>2020-08-11T10:56:27Z</time><name>PT2368</name></trkpt>
<trkpt lat="54.662608" lon="-2.956024"><ele>328</ele><time>2020-08-11T10:56:28Z</time><name>PT2369</name></trkpt>
<trkpt lat="54.662604" lon="-2.956034"><ele>328</ele><time>2020-08-11T10:56:29Z</time><name>PT2370</name></trkpt>
<trkpt lat="54.662602" lon="-2.956042"><ele>328</ele><time>2020-08-11T10:56:30Z</time><name>PT2371</name></trkpt>
<trkpt lat="54.662598" lon="-2.956052"><ele>328</ele><time>2020-08-11T10:56:31Z</time><name>PT2372</name></trkpt>
<trkpt lat="54.662594" lon="-2.956056"><ele>327</ele><time>2020-08-11T10:56:32Z</time><name>PT2373</name></trkpt>
<trkpt lat="54.662589" lon="-2.956059"><ele>327</ele><time>2020-08-11T10:56:33Z</time><name>PT2374</name></trkpt>
<trkpt lat="54.662585" lon="-2.956067"><ele>327</ele><time>2020-08-11T10:56:34Z</time><name>PT2375</name></trkpt>
<trkpt lat="54.662584" lon="-2.956078"><ele>327</ele><time>2020-08-11T10:56:35Z</time><name>PT2376</name></trkpt>
<trkpt lat="54.662581" lon="-2.956089"><ele>327</ele><time>2020-08-11T10:56:36Z</time><name>PT2377</name></trkpt>
<trkpt lat="54.662577" lon="-2.956101"><ele>326</ele><time>2020-08-11T10:56:37Z</time><name>PT2378</name></trkpt>
<trkpt lat="54.662574" lon="-2.956112"><ele>326</ele><time>2020-08-11T10:56:38Z</time><name>PT2379</name></trkpt>
<trkpt lat="54.662572" lon="-2.956126"><ele>326</ele><time>2020-08-11T10:56:39Z</time><name>PT2380</name></trkpt>
<trkpt lat="54.662569" lon="-2.956140"><ele>325</ele><time>2020-08-11T10:56:40Z</time><name>PT2381</name></trkpt>
<trkpt lat="54.662567" lon="-2.956156"><ele>325</ele><time>2020-08-11T10:56:41Z</time><name>PT2382</name></trkpt>
<trkpt lat="54.662564" lon="-2.956177"><ele>325</ele><time>2020-08-11T10:56:42Z</time><name>PT2383</name></trkpt>
<trkpt lat="54.662559" lon="-2.956196"><ele>324</ele><time>2020-08-11T10:56:43Z</time><name>PT2384</name></trkpt>
<trkpt lat="54.662554" lon="-2.956215"><ele>324</ele><time>2020-08-11T10:56:44Z</time><name>PT2385</name></trkpt>
<trkpt lat="54.662549" lon="-2.956230"><ele>324</ele><time>2020-08-11T10:56:45Z</time><name>PT2386</name></trkpt>
<trkpt lat="54.662545" lon="-2.956246"><ele>324</ele><time>2020-08-11T10:56:46Z</time><name>PT2387</name></trkpt>
<trkpt lat="54.662542" lon="-2.956261"><ele>324</ele><time>2020-08-11T10:56:47Z</time><name>PT2388</name></trkpt>
<trkpt lat="54.662538" lon="-2.956277"><ele>324</ele><time>2020-08-11T10:56:48Z</time><name>PT2389</name></trkpt>
<trkpt lat="54.662535" lon="-2.956290"><ele>324</ele><time>2020-08-11T10:56:49Z</time><name>PT2390</name></trkpt>
<trkpt lat="54.662531" lon="-2.956305"><ele>324</ele><time>2020-08-11T10:56:50Z</time><name>PT2391</name></trkpt>
<trkpt lat="54.662528" lon="-2.956319"><ele>323</ele><time>2020-08-11T10:56:51Z</time><name>PT2392</name></trkpt>
<trkpt lat="54.662524" lon="-2.956337"><ele>323</ele><time>2020-08-11T10:56:52Z</time><name>PT2393</name></trkpt>
<trkpt lat="54.662521" lon="-2.956353"><ele>323</ele><time>2020-08-11T10:56:53Z</time><name>PT2394</name></trkpt>
<trkpt lat="54.662517" lon="-2.956366"><ele>323</ele><time>2020-08-11T10:56:54Z</time><name>PT2395</name></trkpt>
<trkpt lat="54.662513" lon="-2.956381"><ele>323</ele><time>2020-08-11T10:56:55Z</time><name>PT2396</name></trkpt>
<trkpt lat="54.662510" lon="-2.956397"><ele>323</ele><time>2020-08-11T10:56:56Z</time><name>PT2397</name></trkpt>
<trkpt lat="54.662505" lon="-2.956414"><ele>323</ele><time>2020-08-11T10:56:57Z</time><name>PT2398</name></trkpt>
<trkpt lat="54.662499" lon="-2.956432"><ele>322</ele><time>2020-08-11T10:56:58Z</time><name>PT2399</name></trkpt>
<trkpt lat="54.662492" lon="-2.956447"><ele>322</ele><time>2020-08-11T10:56:59Z</time><name>PT2400</name></trkpt>
<trkpt lat="54.662485" lon="-2.956462"><ele>322</ele><time>2020-08-11T10:57:00Z</time><name>PT2401</name></trkpt>
<trkpt lat="54.662479" lon="-2.956477"><ele>322</ele><time>2020-08-11T10:57:01Z</time><name>PT2402</name></trkpt>
<trkpt lat="54.662472" lon="-2.956494"><ele>322</ele><time>2020-08-11T10:57:02Z</time><name>PT2403</name></trkpt>
<trkpt lat="54.662466" lon="-2.956510"><ele>321</ele><time>2020-08-11T10:57:03Z</time><name>PT2404</name></trkpt>
<trkpt lat="54.662461" lon="-2.956523"><ele>321</ele><time>2020-08-11T10:57:04Z</time><name>PT2405</name></trkpt>
<trkpt lat="54.662455" lon="-2.956533"><ele>321</ele><time>2020-08-11T10:57:05Z</time><name>PT2406</name></trkpt>
<trkpt lat="54.662450" lon="-2.956544"><ele>321</ele><time>2020-08-11T10:57:06Z</time><name>PT2407</name></trkpt>
<trkpt lat="54.662443" lon="-2.956558"><ele>320</ele><time>2020-08-11T10:57:07Z</time><name>PT2408</name></trkpt>
<trkpt lat="54.662434" lon="-2.956572"><ele>320</ele><time>2020-08-11T10:57:08Z</time><name>PT2409</name></trkpt>
<trkpt lat="54.662428" lon="-2.956580"><ele>320</ele><time>2020-08-11T10:57:09Z</time><name>PT2410</name></trkpt>
<trkpt lat="54.662421" lon="-2.956586"><ele>320</ele><time>2020-08-11T10:57:10Z</time><name>PT2411</name></trkpt>
<trkpt lat="54.662416" lon="-2.956596"><ele>319</ele><time>2020-08-11T10:57:11Z</time><name>PT2412</name></trkpt>
<trkpt lat="54.662411" lon="-2.956606"><ele>319</ele><time>2020-08-11T10:57:12Z</time><name>PT2413</name></trkpt>
<trkpt lat="54.662406" lon="-2.956616"><ele>319</ele><time>2020-08-11T10:57:13Z</time><name>PT2414</name></trkpt>
<trkpt lat="54.662401" lon="-2.956626"><ele>318</ele><time>2020-08-11T10:57:14Z</time><name>PT2415</name></trkpt>
<trkpt lat="54.662397" lon="-2.956644"><ele>318</ele><time>2020-08-11T10:57:15Z</time><name>PT2416</name></trkpt>
<trkpt lat="54.662396" lon="-2.956665"><ele>317</ele><time>2020-08-11T10:57:16Z</time><name>PT2417</name></trkpt>
<trkpt lat="54.662397" lon="-2.956684"><ele>317</ele><time>2020-08-11T10:57:17Z</time><name>PT2418</name></trkpt>
<trkpt lat="54.662399" lon="-2.956697"><ele>317</ele><time>2020-08-11T10:57:18Z</time><name>PT2419</name></trkpt>
<trkpt lat="54.662403" lon="-2.956712"><ele>316</ele><time>2020-08-11T10:57:19Z</time><name>PT2420</name></trkpt>
<trkpt lat="54.662408" lon="-2.956727"><ele>316</ele><time>2020-08-11T10:57:20Z</time><name>PT2421</name></trkpt>
<trkpt lat="54.662410" lon="-2.956745"><ele>316</ele><time>2020-08-11T10:57:21Z</time><name>PT2422</name></trkpt>
<trkpt lat="54.662415" lon="-2.956755"><ele>316</ele><time>2020-08-11T10:57:22Z</time><name>PT2423</name></trkpt>
<trkpt lat="54.662419" lon="-2.956770"><ele>315</ele><time>2020-08-11T10:57:23Z</time><name>PT2424</name></trkpt>
<trkpt lat="54.662422" lon="-2.956785"><ele>315</ele><time>2020-08-11T10:57:24Z</time><name>PT2425</name></trkpt>
<trkpt lat="54.662424" lon="-2.956802"><ele>315</ele><time>2020-08-11T10:57:25Z</time><name>PT2426</name></trkpt>
<trkpt lat="54.662427" lon="-2.956819"><ele>314</ele><time>2020-08-11T10:57:26Z</time><name>PT2427</name></trkpt>
<trkpt lat="54.662433" lon="-2.956836"><ele>314</ele><time>2020-08-11T10:57:27Z</time><name>PT2428</name></trkpt>
<trkpt lat="54.662437" lon="-2.956858"><ele>313</ele><time>2020-08-11T10:57:28Z</time><name>PT2429</name></trkpt>
<trkpt lat="54.662437" lon="-2.956880"><ele>313</ele><time>2020-08-11T10:57:29Z</time><name>PT2430</name></trkpt>
<trkpt lat="54.662434" lon="-2.956900"><ele>313</ele><time>2020-08-11T10:57:30Z</time><name>PT2431</name></trkpt>
<trkpt lat="54.662433" lon="-2.956919"><ele>313</ele><time>2020-08-11T10:57:31Z</time><name>PT2432</name></trkpt>
<trkpt lat="54.662433" lon="-2.956939"><ele>313</ele><time>2020-08-11T10:57:32Z</time><name>PT2433</name></trkpt>
<trkpt lat="54.662431" lon="-2.956959"><ele>313</ele><time>2020-08-11T10:57:33Z</time><name>PT2434</name></trkpt>
<trkpt lat="54.662428" lon="-2.956978"><ele>312</ele><time>2020-08-11T10:57:34Z</time><name>PT2435</name></trkpt>
<trkpt lat="54.662425" lon="-2.956998"><ele>312</ele><time>2020-08-11T10:57:35Z</time><name>PT2436</name></trkpt>
<trkpt lat="54.662420" lon="-2.957013"><ele>312</ele><time>2020-08-11T10:57:36Z</time><name>PT2437</name></trkpt>
<trkpt lat="54.662415" lon="-2.957029"><ele>312</ele><time>2020-08-11T10:57:37Z</time><name>PT2438</name></trkpt>
<trkpt lat="54.662411" lon="-2.957048"><ele>312</ele><time>2020-08-11T10:57:38Z</time><name>PT2439</name></trkpt>
<trkpt lat="54.662408" lon="-2.957066"><ele>312</ele><time>2020-08-11T10:57:39Z</time><name>PT2440</name></trkpt>
<trkpt lat="54.662405" lon="-2.957083"><ele>312</ele><time>2020-08-11T10:57:40Z</time><name>PT2441</name></trkpt>
<trkpt lat="54.662401" lon="-2.957099"><ele>312</ele><time>2020-08-11T10:57:41Z</time><name>PT2442</name></trkpt>
<trkpt lat="54.662398" lon="-2.957121"><ele>312</ele><time>2020-08-11T10:57:42Z</time><name>PT2443</name></trkpt>
<trkpt lat="54.662393" lon="-2.957137"><ele>312</ele><time>2020-08-11T10:57:43Z</time><name>PT2444</name></trkpt>
<trkpt lat="54.662387" lon="-2.957158"><ele>312</ele><time>2020-08-11T10:57:44Z</time><name>PT2445</name></trkpt>
<trkpt lat="54.662383" lon="-2.957177"><ele>312</ele><time>2020-08-11T10:57:45Z</time><name>PT2446</name></trkpt>
<trkpt lat="54.662377" lon="-2.957192"><ele>312</ele><time>2020-08-11T10:57:46Z</time><name>PT2447</name></trkpt>
<trkpt lat="54.662369" lon="-2.957209"><ele>312</ele><time>2020-08-11T10:57:47Z</time><name>PT2448</name></trkpt>
<trkpt lat="54.662361" lon="-2.957225"><ele>312</ele><time>2020-08-11T10:57:48Z</time><name>PT2449</name></trkpt>
<trkpt lat="54.662353" lon="-2.957247"><ele>312</ele><time>2020-08-11T10:57:49Z</time><name>PT2450</name></trkpt>
<trkpt lat="54.662346" lon="-2.957263"><ele>311</ele><time>2020-08-11T10:57:50Z</time><name>PT2451</name></trkpt>
<trkpt lat="54.662339" lon="-2.957277"><ele>311</ele><time>2020-08-11T10:57:51Z</time><name>PT2452</name></trkpt>
<trkpt lat="54.662333" lon="-2.957290"><ele>311</ele><time>2020-08-11T10:57:52Z</time><name>PT2453</name></trkpt>
<trkpt lat="54.662329" lon="-2.957301"><ele>311</ele><time>2020-08-11T10:57:53Z</time><name>PT2454</name></trkpt>
<trkpt lat="54.662322" lon="-2.957312"><ele>311</ele><time>2020-08-11T10:57:54Z</time><name>PT2455</name></trkpt>
<trkpt lat="54.662314" lon="-2.957324"><ele>311</ele><time>2020-08-11T10:57:55Z</time><name>PT2456</name></trkpt>
<trkpt lat="54.662308" lon="-2.957333"><ele>311</ele><time>2020-08-11T10:57:56Z</time><name>PT2457</name></trkpt>
<trkpt lat="54.662303" lon="-2.957344"><ele>310</ele><time>2020-08-11T10:57:57Z</time><name>PT2458</name></trkpt>
<trkpt lat="54.662297" lon="-2.957359"><ele>310</ele><time>2020-08-11T10:57:58Z</time><name>PT2459</name></trkpt>
<trkpt lat="54.662291" lon="-2.957375"><ele>310</ele><time>2020-08-11T10:57:59Z</time><name>PT2460</name></trkpt>
<trkpt lat="54.662287" lon="-2.957388"><ele>309</ele><time>2020-08-11T10:58:00Z</time><name>PT2461</name></trkpt>
<trkpt lat="54.662282" lon="-2.957400"><ele>309</ele><time>2020-08-11T10:58:01Z</time><name>PT2462</name></trkpt>
<trkpt lat="54.662276" lon="-2.957414"><ele>309</ele><time>2020-08-11T10:58:02Z</time><name>PT2463</name></trkpt>
<trkpt lat="54.662269" lon="-2.957428"><ele>309</ele><time>2020-08-11T10:58:03Z</time><name>PT2464</name></trkpt>
<trkpt lat="54.662263" lon="-2.957444"><ele>308</ele><time>2020-08-11T10:58:04Z</time><name>PT2465</name></trkpt>
<trkpt lat="54.662258" lon="-2.957464"><ele>308</ele><time>2020-08-11T10:58:05Z</time><name>PT2466</name></trkpt>
<trkpt lat="54.662253" lon="-2.957481"><ele>308</ele><time>2020-08-11T10:58:06Z</time><name>PT2467</name></trkpt>
<trkpt lat="54.662247" lon="-2.957496"><ele>308</ele><time>2020-08-11T10:58:07Z</time><name>PT2468</name></trkpt>
<trkpt lat="54.662241" lon="-2.957512"><ele>308</ele><time>2020-08-11T10:58:08Z</time><name>PT2469</name></trkpt>
<trkpt lat="54.662235" lon="-2.957530"><ele>308</ele><time>2020-08-11T10:58:09Z</time><name>PT2470</name></trkpt>
<trkpt lat="54.662229" lon="-2.957551"><ele>307</ele><time>2020-08-11T10:58:10Z</time><name>PT2471</name></trkpt>
<trkpt lat="54.662223" lon="-2.957569"><ele>307</ele><time>2020-08-11T10:58:11Z</time><name>PT2472</name></trkpt>
<trkpt lat="54.662218" lon="-2.957581"><ele>307</ele><time>2020-08-11T10:58:12Z</time><name>PT2473</name></trkpt>
<trkpt lat="54.662214" lon="-2.957591"><ele>307</ele><time>2020-08-11T10:58:13Z</time><name>PT2474</name></trkpt>
<trkpt lat="54.662212" lon="-2.957598"><ele>307</ele><time>2020-08-11T10:58:14Z</time><name>PT2475</name></trkpt>
<trkpt lat="54.662213" lon="-2.957604"><ele>307</ele><time>2020-08-11T10:58:15Z</time><name>PT2476</name></trkpt>
<trkpt lat="54.662215" lon="-2.957610"><ele>307</ele><time>2020-08-11T10:58:16Z</time><name>PT2477</name></trkpt>
<trkpt lat="54.662211" lon="-2.957614"><ele>306</ele><time>2020-08-11T10:58:17Z</time><name>PT2478</name></trkpt>
<trkpt lat="54.662204" lon="-2.957621"><ele>306</ele><time>2020-08-11T10:58:18Z</time><name>PT2479</name></trkpt>
<trkpt lat="54.662196" lon="-2.957623"><ele>306</ele><time>2020-08-11T10:58:19Z</time><name>PT2480</name></trkpt>
<trkpt lat="54.662186" lon="-2.957628"><ele>306</ele><time>2020-08-11T10:58:20Z</time><name>PT2481</name></trkpt>
<trkpt lat="54.662176" lon="-2.957632"><ele>306</ele><time>2020-08-11T10:58:21Z</time><name>PT2482</name></trkpt>
<trkpt lat="54.662164" lon="-2.957636"><ele>306</ele><time>2020-08-11T10:58:22Z</time><name>PT2483</name></trkpt>
<trkpt lat="54.662155" lon="-2.957637"><ele>305</ele><time>2020-08-11T10:58:23Z</time><name>PT2484</name></trkpt>
<trkpt lat="54.662145" lon="-2.957635"><ele>305</ele><time>2020-08-11T10:58:24Z</time><name>PT2485</name></trkpt>
<trkpt lat="54.662137" lon="-2.957630"><ele>305</ele><time>2020-08-11T10:58:25Z</time><name>PT2486</name></trkpt>
<trkpt lat="54.662127" lon="-2.957629"><ele>305</ele><time>2020-08-11T10:58:26Z</time><name>PT2487</name></trkpt>
<trkpt lat="54.662117" lon="-2.957631"><ele>304</ele><time>2020-08-11T10:58:27Z</time><name>PT2488</name></trkpt>
<trkpt lat="54.662110" lon="-2.957633"><ele>304</ele><time>2020-08-11T10:58:28Z</time><name>PT2489</name></trkpt>
<trkpt lat="54.662102" lon="-2.957641"><ele>304</ele><time>2020-08-11T10:58:29Z</time><name>PT2490</name></trkpt>
<trkpt lat="54.662099" lon="-2.957652"><ele>303</ele><time>2020-08-11T10:58:30Z</time><name>PT2491</name></trkpt>
<trkpt lat="54.662100" lon="-2.957661"><ele>303</ele><time>2020-08-11T10:58:31Z</time><name>PT2492</name></trkpt>
<trkpt lat="54.662104" lon="-2.957666"><ele>303</ele><time>2020-08-11T10:58:32Z</time><name>PT2493</name></trkpt>
<trkpt lat="54.662107" lon="-2.957670"><ele>303</ele><time>2020-08-11T10:58:33Z</time><name>PT2494</name></trkpt>
<trkpt lat="54.662110" lon="-2.957673"><ele>303</ele><time>2020-08-11T10:58:34Z</time><name>PT2495</name></trkpt>
<trkpt lat="54.662109" lon="-2.957682"><ele>303</ele><time>2020-08-11T10:58:40Z</time><name>PT2496</name></trkpt>
<trkpt lat="54.662111" lon="-2.957693"><ele>302</ele><time>2020-08-11T10:58:41Z</time><name>PT2497</name></trkpt>
<trkpt lat="54.662111" lon="-2.957691"><ele>301</ele><time>2020-08-11T10:58:42Z</time><name>PT2498</name></trkpt>
<trkpt lat="54.662112" lon="-2.957707"><ele>302</ele><time>2020-08-11T10:58:43Z</time><name>PT2499</name></trkpt>
<trkpt lat="54.662111" lon="-2.957713"><ele>301</ele><time>2020-08-11T10:58:44Z</time><name>PT2500</name></trkpt>
<trkpt lat="54.662118" lon="-2.957719"><ele>301</ele><time>2020-08-11T10:58:45Z</time><name>PT2501</name></trkpt>
<trkpt lat="54.662119" lon="-2.957723"><ele>301</ele><time>2020-08-11T10:58:46Z</time><name>PT2502</name></trkpt>
<trkpt lat="54.662120" lon="-2.957732"><ele>300</ele><time>2020-08-11T10:58:47Z</time><name>PT2503</name></trkpt>
<trkpt lat="54.662118" lon="-2.957740"><ele>300</ele><time>2020-08-11T10:58:48Z</time><name>PT2504</name></trkpt>
<trkpt lat="54.662121" lon="-2.957742"><ele>300</ele><time>2020-08-11T10:58:49Z</time><name>PT2505</name></trkpt>
<trkpt lat="54.662121" lon="-2.957741"><ele>299</ele><time>2020-08-11T10:58:50Z</time><name>PT2506</name></trkpt>
<trkpt lat="54.662116" lon="-2.957747"><ele>299</ele><time>2020-08-11T10:58:51Z</time><name>PT2507</name></trkpt>
<trkpt lat="54.662109" lon="-2.957758"><ele>299</ele><time>2020-08-11T10:58:52Z</time><name>PT2508</name></trkpt>
<trkpt lat="54.662104" lon="-2.957769"><ele>298</ele><time>2020-08-11T10:58:53Z</time><name>PT2509</name></trkpt>
<trkpt lat="54.662101" lon="-2.957782"><ele>298</ele><time>2020-08-11T10:58:54Z</time><name>PT2510</name></trkpt>
<trkpt lat="54.662095" lon="-2.957796"><ele>298</ele><time>2020-08-11T10:58:55Z</time><name>PT2511</name></trkpt>
<trkpt lat="54.662090" lon="-2.957810"><ele>298</ele><time>2020-08-11T10:58:56Z</time><name>PT2512</name></trkpt>
<trkpt lat="54.662088" lon="-2.957818"><ele>297</ele><time>2020-08-11T10:58:57Z</time><name>PT2513</name></trkpt>
<trkpt lat="54.662087" lon="-2.957824"><ele>297</ele><time>2020-08-11T10:58:58Z</time><name>PT2514</name></trkpt>
<trkpt lat="54.662068" lon="-2.957871"><ele>296</ele><time>2020-08-11T10:59:02Z</time><name>PT2515</name></trkpt>
<trkpt lat="54.662055" lon="-2.957901"><ele>295</ele><time>2020-08-11T10:59:06Z</time><name>PT2516</name></trkpt>
<trkpt lat="54.662026" lon="-2.957959"><ele>294</ele><time>2020-08-11T10:59:10Z</time><name>PT2517</name></trkpt>
<trkpt lat="54.662010" lon="-2.958014"><ele>293</ele><time>2020-08-11T10:59:14Z</time><name>PT2518</name></trkpt>
<trkpt lat="54.662001" lon="-2.958036"><ele>292</ele><time>2020-08-11T10:59:17Z</time><name>PT2519</name></trkpt>
<trkpt lat="54.662000" lon="-2.958040"><ele>291</ele><time>2020-08-11T10:59:18Z</time><name>PT2520</name></trkpt>
<trkpt lat="54.661996" lon="-2.958033"><ele>291</ele><time>2020-08-11T10:59:19Z</time><name>PT2521</name></trkpt>
<trkpt lat="54.661987" lon="-2.958037"><ele>291</ele><time>2020-08-11T10:59:20Z</time><name>PT2522</name></trkpt>
<trkpt lat="54.661976" lon="-2.958036"><ele>290</ele><time>2020-08-11T10:59:21Z</time><name>PT2523</name></trkpt>
<trkpt lat="54.661964" lon="-2.958040"><ele>289</ele><time>2020-08-11T10:59:22Z</time><name>PT2524</name></trkpt>
<trkpt lat="54.661955" lon="-2.958052"><ele>289</ele><time>2020-08-11T10:59:23Z</time><name>PT2525</name></trkpt>
<trkpt lat="54.661953" lon="-2.958061"><ele>288</ele><time>2020-08-11T10:59:24Z</time><name>PT2526</name></trkpt>
<trkpt lat="54.661948" lon="-2.958072"><ele>288</ele><time>2020-08-11T10:59:25Z</time><name>PT2527</name></trkpt>
<trkpt lat="54.661936" lon="-2.958091"><ele>288</ele><time>2020-08-11T10:59:26Z</time><name>PT2528</name></trkpt>
<trkpt lat="54.661933" lon="-2.958107"><ele>288</ele><time>2020-08-11T10:59:27Z</time><name>PT2529</name></trkpt>
<trkpt lat="54.661931" lon="-2.958120"><ele>289</ele><time>2020-08-11T10:59:28Z</time><name>PT2530</name></trkpt>
<trkpt lat="54.661928" lon="-2.958128"><ele>289</ele><time>2020-08-11T10:59:29Z</time><name>PT2531</name></trkpt>
<trkpt lat="54.661924" lon="-2.958128"><ele>288</ele><time>2020-08-11T10:59:30Z</time><name>PT2532</name></trkpt>
<trkpt lat="54.661923" lon="-2.958130"><ele>288</ele><time>2020-08-11T10:59:31Z</time><name>PT2533</name></trkpt>
<trkpt lat="54.661922" lon="-2.958145"><ele>287</ele><time>2020-08-11T10:59:32Z</time><name>PT2534</name></trkpt>
<trkpt lat="54.661914" lon="-2.958171"><ele>287</ele><time>2020-08-11T10:59:33Z</time><name>PT2535</name></trkpt>
<trkpt lat="54.661903" lon="-2.958205"><ele>287</ele><time>2020-08-11T10:59:34Z</time><name>PT2536</name></trkpt>
<trkpt lat="54.661893" lon="-2.958232"><ele>287</ele><time>2020-08-11T10:59:35Z</time><name>PT2537</name></trkpt>
<trkpt lat="54.661888" lon="-2.958252"><ele>287</ele><time>2020-08-11T10:59:36Z</time><name>PT2538</name></trkpt>
<trkpt lat="54.661886" lon="-2.958261"><ele>287</ele><time>2020-08-11T10:59:37Z</time><name>PT2539</name></trkpt>
<trkpt lat="54.661882" lon="-2.958274"><ele>287</ele><time>2020-08-11T10:59:38Z</time><name>PT2540</name></trkpt>
<trkpt lat="54.661879" lon="-2.958300"><ele>286</ele><time>2020-08-11T10:59:39Z</time><name>PT2541</name></trkpt>
<trkpt lat="54.661876" lon="-2.958331"><ele>286</ele><time>2020-08-11T10:59:40Z</time><name>PT2542</name></trkpt>
<trkpt lat="54.661874" lon="-2.958352"><ele>286</ele><time>2020-08-11T10:59:41Z</time><name>PT2543</name></trkpt>
<trkpt lat="54.661872" lon="-2.958362"><ele>286</ele><time>2020-08-11T10:59:42Z</time><name>PT2544</name></trkpt>
<trkpt lat="54.661873" lon="-2.958368"><ele>285</ele><time>2020-08-11T10:59:43Z</time><name>PT2545</name></trkpt>
<trkpt lat="54.661872" lon="-2.958376"><ele>285</ele><time>2020-08-11T10:59:44Z</time><name>PT2546</name></trkpt>
<trkpt lat="54.661869" lon="-2.958392"><ele>285</ele><time>2020-08-11T10:59:45Z</time><name>PT2547</name></trkpt>
<trkpt lat="54.661867" lon="-2.958412"><ele>284</ele><time>2020-08-11T10:59:46Z</time><name>PT2548</name></trkpt>
<trkpt lat="54.661869" lon="-2.958428"><ele>284</ele><time>2020-08-11T10:59:47Z</time><name>PT2549</name></trkpt>
<trkpt lat="54.661869" lon="-2.958438"><ele>283</ele><time>2020-08-11T10:59:48Z</time><name>PT2550</name></trkpt>
<trkpt lat="54.661870" lon="-2.958442"><ele>283</ele><time>2020-08-11T10:59:49Z</time><name>PT2551</name></trkpt>
<trkpt lat="54.661871" lon="-2.958445"><ele>283</ele><time>2020-08-11T10:59:50Z</time><name>PT2552</name></trkpt>
<trkpt lat="54.661871" lon="-2.958448"><ele>282</ele><time>2020-08-11T10:59:51Z</time><name>PT2553</name></trkpt>
<trkpt lat="54.661864" lon="-2.958461"><ele>283</ele><time>2020-08-11T10:59:52Z</time><name>PT2554</name></trkpt>
<trkpt lat="54.661853" lon="-2.958476"><ele>282</ele><time>2020-08-11T10:59:53Z</time><name>PT2555</name></trkpt>
<trkpt lat="54.661845" lon="-2.958491"><ele>282</ele><time>2020-08-11T10:59:54Z</time><name>PT2556</name></trkpt>
<trkpt lat="54.661846" lon="-2.958494"><ele>281</ele><time>2020-08-11T10:59:55Z</time><name>PT2557</name></trkpt>
<trkpt lat="54.661847" lon="-2.958500"><ele>281</ele><time>2020-08-11T10:59:56Z</time><name>PT2558</name></trkpt>
<trkpt lat="54.661842" lon="-2.958518"><ele>281</ele><time>2020-08-11T10:59:57Z</time><name>PT2559</name></trkpt>
<trkpt lat="54.661834" lon="-2.958535"><ele>280</ele><time>2020-08-11T10:59:58Z</time><name>PT2560</name></trkpt>
<trkpt lat="54.661831" lon="-2.958544"><ele>280</ele><time>2020-08-11T10:59:59Z</time><name>PT2561</name></trkpt>
<trkpt lat="54.661831" lon="-2.958545"><ele>280</ele><time>2020-08-11T11:00:00Z</time><name>PT2562</name></trkpt>
<trkpt lat="54.661830" lon="-2.958551"><ele>280</ele><time>2020-08-11T11:00:01Z</time><name>PT2563</name></trkpt>
<trkpt lat="54.661825" lon="-2.958568"><ele>280</ele><time>2020-08-11T11:00:02Z</time><name>PT2564</name></trkpt>
<trkpt lat="54.661817" lon="-2.958587"><ele>280</ele><time>2020-08-11T11:00:03Z</time><name>PT2565</name></trkpt>
<trkpt lat="54.661812" lon="-2.958603"><ele>280</ele><time>2020-08-11T11:00:04Z</time><name>PT2566</name></trkpt>
<trkpt lat="54.661810" lon="-2.958607"><ele>280</ele><time>2020-08-11T11:00:05Z</time><name>PT2567</name></trkpt>
<trkpt lat="54.661808" lon="-2.958610"><ele>279</ele><time>2020-08-11T11:00:06Z</time><name>PT2568</name></trkpt>
<trkpt lat="54.661805" lon="-2.958604"><ele>278</ele><time>2020-08-11T11:00:07Z</time><name>PT2569</name></trkpt>
<trkpt lat="54.661804" lon="-2.958611"><ele>278</ele><time>2020-08-11T11:00:08Z</time><name>PT2570</name></trkpt>
<trkpt lat="54.661804" lon="-2.958632"><ele>278</ele><time>2020-08-11T11:00:09Z</time><name>PT2571</name></trkpt>
<trkpt lat="54.661801" lon="-2.958659"><ele>278</ele><time>2020-08-11T11:00:10Z</time><name>PT2572</name></trkpt>
<trkpt lat="54.661795" lon="-2.958672"><ele>277</ele><time>2020-08-11T11:00:11Z</time><name>PT2573</name></trkpt>
<trkpt lat="54.661796" lon="-2.958680"><ele>276</ele><time>2020-08-11T11:00:12Z</time><name>PT2574</name></trkpt>
<trkpt lat="54.661795" lon="-2.958703"><ele>276</ele><time>2020-08-11T11:00:13Z</time><name>PT2575</name></trkpt>
<trkpt lat="54.661793" lon="-2.958723"><ele>276</ele><time>2020-08-11T11:00:14Z</time><name>PT2576</name></trkpt>
<trkpt lat="54.661790" lon="-2.958734"><ele>276</ele><time>2020-08-11T11:00:15Z</time><name>PT2577</name></trkpt>
<trkpt lat="54.661786" lon="-2.958759"><ele>276</ele><time>2020-08-11T11:00:16Z</time><name>PT2578</name></trkpt>
<trkpt lat="54.661780" lon="-2.958784"><ele>276</ele><time>2020-08-11T11:00:17Z</time><name>PT2579</name></trkpt>
<trkpt lat="54.661775" lon="-2.958792"><ele>275</ele><time>2020-08-11T11:00:18Z</time><name>PT2580</name></trkpt>
<trkpt lat="54.661772" lon="-2.958812"><ele>276</ele><time>2020-08-11T11:00:19Z</time><name>PT2581</name></trkpt>
<trkpt lat="54.661760" lon="-2.958834"><ele>276</ele><time>2020-08-11T11:00:20Z</time><name>PT2582</name></trkpt>
<trkpt lat="54.661755" lon="-2.958845"><ele>276</ele><time>2020-08-11T11:00:21Z</time><name>PT2583</name></trkpt>
<trkpt lat="54.661753" lon="-2.958852"><ele>276</ele><time>2020-08-11T11:00:22Z</time><name>PT2584</name></trkpt>
<trkpt lat="54.661750" lon="-2.958864"><ele>276</ele><time>2020-08-11T11:00:23Z</time><name>PT2585</name></trkpt>
<trkpt lat="54.661742" lon="-2.958884"><ele>277</ele><time>2020-08-11T11:00:24Z</time><name>PT2586</name></trkpt>
<trkpt lat="54.661735" lon="-2.958897"><ele>276</ele><time>2020-08-11T11:00:25Z</time><name>PT2587</name></trkpt>
<trkpt lat="54.661728" lon="-2.958912"><ele>276</ele><time>2020-08-11T11:00:26Z</time><name>PT2588</name></trkpt>
<trkpt lat="54.661719" lon="-2.958934"><ele>276</ele><time>2020-08-11T11:00:27Z</time><name>PT2589</name></trkpt>
<trkpt lat="54.661713" lon="-2.958950"><ele>276</ele><time>2020-08-11T11:00:28Z</time><name>PT2590</name></trkpt>
<trkpt lat="54.661707" lon="-2.958961"><ele>276</ele><time>2020-08-11T11:00:29Z</time><name>PT2591</name></trkpt>
<trkpt lat="54.661699" lon="-2.958971"><ele>276</ele><time>2020-08-11T11:00:30Z</time><name>PT2592</name></trkpt>
<trkpt lat="54.661694" lon="-2.958984"><ele>276</ele><time>2020-08-11T11:00:31Z</time><name>PT2593</name></trkpt>
<trkpt lat="54.661688" lon="-2.958990"><ele>275</ele><time>2020-08-11T11:00:32Z</time><name>PT2594</name></trkpt>
<trkpt lat="54.661678" lon="-2.959000"><ele>275</ele><time>2020-08-11T11:00:33Z</time><name>PT2595</name></trkpt>
<trkpt lat="54.661671" lon="-2.958999"><ele>275</ele><time>2020-08-11T11:00:34Z</time><name>PT2596</name></trkpt>
<trkpt lat="54.661664" lon="-2.959004"><ele>274</ele><time>2020-08-11T11:00:35Z</time><name>PT2597</name></trkpt>
<trkpt lat="54.661655" lon="-2.959027"><ele>274</ele><time>2020-08-11T11:00:36Z</time><name>PT2598</name></trkpt>
<trkpt lat="54.661651" lon="-2.959050"><ele>274</ele><time>2020-08-11T11:00:37Z</time><name>PT2599</name></trkpt>
<trkpt lat="54.661647" lon="-2.959060"><ele>274</ele><time>2020-08-11T11:00:38Z</time><name>PT2600</name></trkpt>
<trkpt lat="54.661643" lon="-2.959077"><ele>274</ele><time>2020-08-11T11:00:39Z</time><name>PT2601</name></trkpt>
<trkpt lat="54.661637" lon="-2.959103"><ele>274</ele><time>2020-08-11T11:00:40Z</time><name>PT2602</name></trkpt>
<trkpt lat="54.661637" lon="-2.959118"><ele>274</ele><time>2020-08-11T11:00:41Z</time><name>PT2603</name></trkpt>
<trkpt lat="54.661634" lon="-2.959129"><ele>274</ele><time>2020-08-11T11:00:42Z</time><name>PT2604</name></trkpt>
<trkpt lat="54.661624" lon="-2.959147"><ele>274</ele><time>2020-08-11T11:00:43Z</time><name>PT2605</name></trkpt>
<trkpt lat="54.661613" lon="-2.959170"><ele>274</ele><time>2020-08-11T11:00:44Z</time><name>PT2606</name></trkpt>
<trkpt lat="54.661605" lon="-2.959184"><ele>274</ele><time>2020-08-11T11:00:45Z</time><name>PT2607</name></trkpt>
<trkpt lat="54.661601" lon="-2.959190"><ele>274</ele><time>2020-08-11T11:00:46Z</time><name>PT2608</name></trkpt>
<trkpt lat="54.661595" lon="-2.959197"><ele>274</ele><time>2020-08-11T11:00:47Z</time><name>PT2609</name></trkpt>
<trkpt lat="54.661582" lon="-2.959212"><ele>274</ele><time>2020-08-11T11:00:48Z</time><name>PT2610</name></trkpt>
<trkpt lat="54.661575" lon="-2.959218"><ele>274</ele><time>2020-08-11T11:00:49Z</time><name>PT2611</name></trkpt>
<trkpt lat="54.661569" lon="-2.959221"><ele>274</ele><time>2020-08-11T11:00:50Z</time><name>PT2612</name></trkpt>
<trkpt lat="54.661558" lon="-2.959237"><ele>274</ele><time>2020-08-11T11:00:51Z</time><name>PT2613</name></trkpt>
<trkpt lat="54.661548" lon="-2.959253"><ele>274</ele><time>2020-08-11T11:00:52Z</time><name>PT2614</name></trkpt>
<trkpt lat="54.661544" lon="-2.959265"><ele>274</ele><time>2020-08-11T11:00:53Z</time><name>PT2615</name></trkpt>
<trkpt lat="54.661538" lon="-2.959273"><ele>274</ele><time>2020-08-11T11:00:54Z</time><name>PT2616</name></trkpt>
<trkpt lat="54.661532" lon="-2.959283"><ele>273</ele><time>2020-08-11T11:00:55Z</time><name>PT2617</name></trkpt>
<trkpt lat="54.661529" lon="-2.959289"><ele>273</ele><time>2020-08-11T11:00:56Z</time><name>PT2618</name></trkpt>
<trkpt lat="54.661523" lon="-2.959305"><ele>273</ele><time>2020-08-11T11:00:57Z</time><name>PT2619</name></trkpt>
<trkpt lat="54.661513" lon="-2.959319"><ele>273</ele><time>2020-08-11T11:00:58Z</time><name>PT2620</name></trkpt>
<trkpt lat="54.661507" lon="-2.959326"><ele>272</ele><time>2020-08-11T11:00:59Z</time><name>PT2621</name></trkpt>
<trkpt lat="54.661504" lon="-2.959326"><ele>272</ele><time>2020-08-11T11:01:00Z</time><name>PT2622</name></trkpt>
<trkpt lat="54.661501" lon="-2.959333"><ele>272</ele><time>2020-08-11T11:01:01Z</time><name>PT2623</name></trkpt>
<trkpt lat="54.661499" lon="-2.959335"><ele>271</ele><time>2020-08-11T11:01:02Z</time><name>PT2624</name></trkpt>
<trkpt lat="54.661500" lon="-2.959343"><ele>271</ele><time>2020-08-11T11:01:03Z</time><name>PT2625</name></trkpt>
<trkpt lat="54.661503" lon="-2.959344"><ele>270</ele><time>2020-08-11T11:01:04Z</time><name>PT2626</name></trkpt>
<trkpt lat="54.661502" lon="-2.959351"><ele>270</ele><time>2020-08-11T11:01:05Z</time><name>PT2627</name></trkpt>
<trkpt lat="54.661496" lon="-2.959366"><ele>271</ele><time>2020-08-11T11:01:06Z</time><name>PT2628</name></trkpt>
<trkpt lat="54.661491" lon="-2.959379"><ele>271</ele><time>2020-08-11T11:01:07Z</time><name>PT2629</name></trkpt>
<trkpt lat="54.661481" lon="-2.959386"><ele>270</ele><time>2020-08-11T11:01:08Z</time><name>PT2630</name></trkpt>
<trkpt lat="54.661475" lon="-2.959397"><ele>270</ele><time>2020-08-11T11:01:09Z</time><name>PT2631</name></trkpt>
<trkpt lat="54.661471" lon="-2.959397"><ele>269</ele><time>2020-08-11T11:01:10Z</time><name>PT2632</name></trkpt>
<trkpt lat="54.661467" lon="-2.959396"><ele>269</ele><time>2020-08-11T11:01:11Z</time><name>PT2633</name></trkpt>
<trkpt lat="54.661457" lon="-2.959412"><ele>269</ele><time>2020-08-11T11:01:12Z</time><name>PT2634</name></trkpt>
<trkpt lat="54.661436" lon="-2.959434"><ele>270</ele><time>2020-08-11T11:01:13Z</time><name>PT2635</name></trkpt>
<trkpt lat="54.661423" lon="-2.959445"><ele>270</ele><time>2020-08-11T11:01:14Z</time><name>PT2636</name></trkpt>
<trkpt lat="54.661418" lon="-2.959449"><ele>269</ele><time>2020-08-11T11:01:15Z</time><name>PT2637</name></trkpt>
<trkpt lat="54.661417" lon="-2.959452"><ele>268</ele><time>2020-08-11T11:01:16Z</time><name>PT2638</name></trkpt>
<trkpt lat="54.661417" lon="-2.959457"><ele>268</ele><time>2020-08-11T11:01:17Z</time><name>PT2639</name></trkpt>
<trkpt lat="54.661416" lon="-2.959461"><ele>267</ele><time>2020-08-11T11:01:18Z</time><name>PT2640</name></trkpt>
<trkpt lat="54.661417" lon="-2.959477"><ele>267</ele><time>2020-08-11T11:01:19Z</time><name>PT2641</name></trkpt>
<trkpt lat="54.661408" lon="-2.959495"><ele>267</ele><time>2020-08-11T11:01:20Z</time><name>PT2642</name></trkpt>
<trkpt lat="54.661394" lon="-2.959520"><ele>267</ele><time>2020-08-11T11:01:21Z</time><name>PT2643</name></trkpt>
<trkpt lat="54.661380" lon="-2.959541"><ele>267</ele><time>2020-08-11T11:01:22Z</time><name>PT2644</name></trkpt>
<trkpt lat="54.661372" lon="-2.959552"><ele>267</ele><time>2020-08-11T11:01:23Z</time><name>PT2645</name></trkpt>
<trkpt lat="54.661366" lon="-2.959557"><ele>266</ele><time>2020-08-11T11:01:24Z</time><name>PT2646</name></trkpt>
<trkpt lat="54.661361" lon="-2.959572"><ele>266</ele><time>2020-08-11T11:01:25Z</time><name>PT2647</name></trkpt>
<trkpt lat="54.661353" lon="-2.959592"><ele>266</ele><time>2020-08-11T11:01:26Z</time><name>PT2648</name></trkpt>
<trkpt lat="54.661341" lon="-2.959614"><ele>266</ele><time>2020-08-11T11:01:27Z</time><name>PT2649</name></trkpt>
<trkpt lat="54.661338" lon="-2.959623"><ele>265</ele><time>2020-08-11T11:01:28Z</time><name>PT2650</name></trkpt>
<trkpt lat="54.661340" lon="-2.959627"><ele>265</ele><time>2020-08-11T11:01:29Z</time><name>PT2651</name></trkpt>
<trkpt lat="54.661342" lon="-2.959648"><ele>265</ele><time>2020-08-11T11:01:30Z</time><name>PT2652</name></trkpt>
<trkpt lat="54.661337" lon="-2.959669"><ele>265</ele><time>2020-08-11T11:01:31Z</time><name>PT2653</name></trkpt>
<trkpt lat="54.661335" lon="-2.959685"><ele>265</ele><time>2020-08-11T11:01:32Z</time><name>PT2654</name></trkpt>
<trkpt lat="54.661330" lon="-2.959699"><ele>265</ele><time>2020-08-11T11:01:33Z</time><name>PT2655</name></trkpt>
<trkpt lat="54.661324" lon="-2.959711"><ele>265</ele><time>2020-08-11T11:01:34Z</time><name>PT2656</name></trkpt>
<trkpt lat="54.661318" lon="-2.959725"><ele>265</ele><time>2020-08-11T11:01:35Z</time><name>PT2657</name></trkpt>
<trkpt lat="54.661312" lon="-2.959742"><ele>265</ele><time>2020-08-11T11:01:36Z</time><name>PT2658</name></trkpt>
<trkpt lat="54.661307" lon="-2.959763"><ele>265</ele><time>2020-08-11T11:01:37Z</time><name>PT2659</name></trkpt>
<trkpt lat="54.661303" lon="-2.959782"><ele>265</ele><time>2020-08-11T11:01:38Z</time><name>PT2660</name></trkpt>
<trkpt lat="54.661298" lon="-2.959800"><ele>265</ele><time>2020-08-11T11:01:39Z</time><name>PT2661</name></trkpt>
<trkpt lat="54.661292" lon="-2.959821"><ele>265</ele><time>2020-08-11T11:01:40Z</time><name>PT2662</name></trkpt>
<trkpt lat="54.661287" lon="-2.959839"><ele>265</ele><time>2020-08-11T11:01:41Z</time><name>PT2663</name></trkpt>
<trkpt lat="54.661281" lon="-2.959859"><ele>265</ele><time>2020-08-11T11:01:42Z</time><name>PT2664</name></trkpt>
<trkpt lat="54.661276" lon="-2.959875"><ele>264</ele><time>2020-08-11T11:01:43Z</time><name>PT2665</name></trkpt>
<trkpt lat="54.661270" lon="-2.959891"><ele>264</ele><time>2020-08-11T11:01:44Z</time><name>PT2666</name></trkpt>
<trkpt lat="54.661267" lon="-2.959904"><ele>264</ele><time>2020-08-11T11:01:45Z</time><name>PT2667</name></trkpt>
<trkpt lat="54.661270" lon="-2.959908"><ele>264</ele><time>2020-08-11T11:01:46Z</time><name>PT2668</name></trkpt>
<trkpt lat="54.661265" lon="-2.959918"><ele>263</ele><time>2020-08-11T11:01:47Z</time><name>PT2669</name></trkpt>
<trkpt lat="54.661253" lon="-2.959948"><ele>263</ele><time>2020-08-11T11:01:48Z</time><name>PT2670</name></trkpt>
<trkpt lat="54.661241" lon="-2.959983"><ele>263</ele><time>2020-08-11T11:01:49Z</time><name>PT2671</name></trkpt>
<trkpt lat="54.661234" lon="-2.959995"><ele>263</ele><time>2020-08-11T11:01:50Z</time><name>PT2672</name></trkpt>
<trkpt lat="54.661233" lon="-2.959998"><ele>263</ele><time>2020-08-11T11:01:51Z</time><name>PT2673</name></trkpt>
<trkpt lat="54.661229" lon="-2.960004"><ele>262</ele><time>2020-08-11T11:01:52Z</time><name>PT2674</name></trkpt>
<trkpt lat="54.661219" lon="-2.960028"><ele>263</ele><time>2020-08-11T11:01:53Z</time><name>PT2675</name></trkpt>
<trkpt lat="54.661206" lon="-2.960067"><ele>263</ele><time>2020-08-11T11:01:54Z</time><name>PT2676</name></trkpt>
<trkpt lat="54.661198" lon="-2.960091"><ele>262</ele><time>2020-08-11T11:01:55Z</time><name>PT2677</name></trkpt>
<trkpt lat="54.661194" lon="-2.960102"><ele>262</ele><time>2020-08-11T11:01:56Z</time><name>PT2678</name></trkpt>
<trkpt lat="54.661191" lon="-2.960111"><ele>262</ele><time>2020-08-11T11:01:57Z</time><name>PT2679</name></trkpt>
<trkpt lat="54.661182" lon="-2.960133"><ele>262</ele><time>2020-08-11T11:01:58Z</time><name>PT2680</name></trkpt>
<trkpt lat="54.661171" lon="-2.960168"><ele>262</ele><time>2020-08-11T11:01:59Z</time><name>PT2681</name></trkpt>
<trkpt lat="54.661163" lon="-2.960191"><ele>262</ele><time>2020-08-11T11:02:00Z</time><name>PT2682</name></trkpt>
<trkpt lat="54.661162" lon="-2.960197"><ele>262</ele><time>2020-08-11T11:02:01Z</time><name>PT2683</name></trkpt>
<trkpt lat="54.661159" lon="-2.960203"><ele>261</ele><time>2020-08-11T11:02:02Z</time><name>PT2684</name></trkpt>
<trkpt lat="54.661150" lon="-2.960251"><ele>262</ele><time>2020-08-11T11:02:03Z</time><name>PT2685</name></trkpt>
<trkpt lat="54.661143" lon="-2.960281"><ele>262</ele><time>2020-08-11T11:02:04Z</time><name>PT2686</name></trkpt>
<trkpt lat="54.661140" lon="-2.960295"><ele>262</ele><time>2020-08-11T11:02:05Z</time><name>PT2687</name></trkpt>
<trkpt lat="54.661139" lon="-2.960304"><ele>261</ele><time>2020-08-11T11:02:06Z</time><name>PT2688</name></trkpt>
<trkpt lat="54.661136" lon="-2.960321"><ele>261</ele><time>2020-08-11T11:02:07Z</time><name>PT2689</name></trkpt>
<trkpt lat="54.661139" lon="-2.960348"><ele>261</ele><time>2020-08-11T11:02:08Z</time><name>PT2690</name></trkpt>
<trkpt lat="54.661139" lon="-2.960365"><ele>261</ele><time>2020-08-11T11:02:09Z</time><name>PT2691</name></trkpt>
<trkpt lat="54.661139" lon="-2.960377"><ele>261</ele><time>2020-08-11T11:02:10Z</time><name>PT2692</name></trkpt>
<trkpt lat="54.661136" lon="-2.960399"><ele>262</ele><time>2020-08-11T11:02:11Z</time><name>PT2693</name></trkpt>
<trkpt lat="54.661131" lon="-2.960422"><ele>261</ele><time>2020-08-11T11:02:12Z</time><name>PT2694</name></trkpt>
<trkpt lat="54.661123" lon="-2.960437"><ele>261</ele><time>2020-08-11T11:02:13Z</time><name>PT2695</name></trkpt>
<trkpt lat="54.661114" lon="-2.960447"><ele>261</ele><time>2020-08-11T11:02:14Z</time><name>PT2696</name></trkpt>
<trkpt lat="54.661106" lon="-2.960465"><ele>261</ele><time>2020-08-11T11:02:15Z</time><name>PT2697</name></trkpt>
<trkpt lat="54.661106" lon="-2.960473"><ele>261</ele><time>2020-08-11T11:02:16Z</time><name>PT2698</name></trkpt>
<trkpt lat="54.661082" lon="-2.960529"><ele>261</ele><time>2020-08-11T11:02:20Z</time><name>PT2699</name></trkpt>
<trkpt lat="54.661066" lon="-2.960585"><ele>261</ele><time>2020-08-11T11:02:23Z</time><name>PT2700</name></trkpt>
<trkpt lat="54.661034" lon="-2.960637"><ele>261</ele><time>2020-08-11T11:02:27Z</time><name>PT2701</name></trkpt>
<trkpt lat="54.661019" lon="-2.960703"><ele>260</ele><time>2020-08-11T11:02:31Z</time><name>PT2702</name></trkpt>
<trkpt lat="54.661010" lon="-2.960749"><ele>260</ele><time>2020-08-11T11:02:34Z</time><name>PT2703</name></trkpt>
<trkpt lat="54.661003" lon="-2.960806"><ele>260</ele><time>2020-08-11T11:02:38Z</time><name>PT2704</name></trkpt>
<trkpt lat="54.661016" lon="-2.960887"><ele>259</ele><time>2020-08-11T11:02:42Z</time><name>PT2705</name></trkpt>
<trkpt lat="54.661004" lon="-2.960961"><ele>259</ele><time>2020-08-11T11:02:45Z</time><name>PT2706</name></trkpt>
<trkpt lat="54.660993" lon="-2.961012"><ele>259</ele><time>2020-08-11T11:02:48Z</time><name>PT2707</name></trkpt>
<trkpt lat="54.660979" lon="-2.961054"><ele>258</ele><time>2020-08-11T11:02:52Z</time><name>PT2708</name></trkpt>
<trkpt lat="54.660947" lon="-2.961075"><ele>257</ele><time>2020-08-11T11:02:56Z</time><name>PT2709</name></trkpt>
<trkpt lat="54.660932" lon="-2.961084"><ele>257</ele><time>2020-08-11T11:02:59Z</time><name>PT2710</name></trkpt>
<trkpt lat="54.660912" lon="-2.961085"><ele>257</ele><time>2020-08-11T11:03:02Z</time><name>PT2711</name></trkpt>
<trkpt lat="54.660883" lon="-2.961110"><ele>257</ele><time>2020-08-11T11:03:06Z</time><name>PT2712</name></trkpt>
<trkpt lat="54.660858" lon="-2.961127"><ele>256</ele><time>2020-08-11T11:03:10Z</time><name>PT2713</name></trkpt>
<trkpt lat="54.660825" lon="-2.961179"><ele>256</ele><time>2020-08-11T11:03:14Z</time><name>PT2714</name></trkpt>
<trkpt lat="54.660804" lon="-2.961235"><ele>256</ele><time>2020-08-11T11:03:18Z</time><name>PT2715</name></trkpt>
<trkpt lat="54.660785" lon="-2.961288"><ele>257</ele><time>2020-08-11T11:03:21Z</time><name>PT2716</name></trkpt>
<trkpt lat="54.660780" lon="-2.961305"><ele>257</ele><time>2020-08-11T11:03:22Z</time><name>PT2717</name></trkpt>
<trkpt lat="54.660779" lon="-2.961321"><ele>257</ele><time>2020-08-11T11:03:23Z</time><name>PT2718</name></trkpt>
<trkpt lat="54.660774" lon="-2.961337"><ele>256</ele><time>2020-08-11T11:03:24Z</time><name>PT2719</name></trkpt>
<trkpt lat="54.660767" lon="-2.961349"><ele>256</ele><time>2020-08-11T11:03:25Z</time><name>PT2720</name></trkpt>
<trkpt lat="54.660762" lon="-2.961362"><ele>256</ele><time>2020-08-11T11:03:26Z</time><name>PT2721</name></trkpt>
<trkpt lat="54.660753" lon="-2.961385"><ele>256</ele><time>2020-08-11T11:03:27Z</time><name>PT2722</name></trkpt>
<trkpt lat="54.660748" lon="-2.961407"><ele>256</ele><time>2020-08-11T11:03:28Z</time><name>PT2723</name></trkpt>
<trkpt lat="54.660747" lon="-2.961418"><ele>256</ele><time>2020-08-11T11:03:29Z</time><name>PT2724</name></trkpt>
<trkpt lat="54.660747" lon="-2.961428"><ele>256</ele><time>2020-08-11T11:03:30Z</time><name>PT2725</name></trkpt>
<trkpt lat="54.660749" lon="-2.961445"><ele>256</ele><time>2020-08-11T11:03:31Z</time><name>PT2726</name></trkpt>
<trkpt lat="54.660754" lon="-2.961481"><ele>256</ele><time>2020-08-11T11:03:32Z</time><name>PT2727</name></trkpt>
<trkpt lat="54.660758" lon="-2.961519"><ele>255</ele><time>2020-08-11T11:03:33Z</time><name>PT2728</name></trkpt>
<trkpt lat="54.660761" lon="-2.961543"><ele>255</ele><time>2020-08-11T11:03:34Z</time><name>PT2729</name></trkpt>
<trkpt lat="54.660762" lon="-2.961551"><ele>255</ele><time>2020-08-11T11:03:35Z</time><name>PT2730</name></trkpt>
<trkpt lat="54.660764" lon="-2.961562"><ele>255</ele><time>2020-08-11T11:03:36Z</time><name>PT2731</name></trkpt>
<trkpt lat="54.660765" lon="-2.961585"><ele>255</ele><time>2020-08-11T11:03:37Z</time><name>PT2732</name></trkpt>
<trkpt lat="54.660769" lon="-2.961617"><ele>255</ele><time>2020-08-11T11:03:38Z</time><name>PT2733</name></trkpt>
<trkpt lat="54.660768" lon="-2.961643"><ele>255</ele><time>2020-08-11T11:03:39Z</time><name>PT2734</name></trkpt>
<trkpt lat="54.660768" lon="-2.961656"><ele>255</ele><time>2020-08-11T11:03:40Z</time><name>PT2735</name></trkpt>
<trkpt lat="54.660766" lon="-2.961664"><ele>255</ele><time>2020-08-11T11:03:41Z</time><name>PT2736</name></trkpt>
<trkpt lat="54.660769" lon="-2.961684"><ele>255</ele><time>2020-08-11T11:03:42Z</time><name>PT2737</name></trkpt>
<trkpt lat="54.660767" lon="-2.961717"><ele>255</ele><time>2020-08-11T11:03:43Z</time><name>PT2738</name></trkpt>
<trkpt lat="54.660768" lon="-2.961742"><ele>255</ele><time>2020-08-11T11:03:44Z</time><name>PT2739</name></trkpt>
<trkpt lat="54.660773" lon="-2.961760"><ele>255</ele><time>2020-08-11T11:03:45Z</time><name>PT2740</name></trkpt>
<trkpt lat="54.660778" lon="-2.961773"><ele>255</ele><time>2020-08-11T11:03:46Z</time><name>PT2741</name></trkpt>
<trkpt lat="54.660786" lon="-2.961788"><ele>255</ele><time>2020-08-11T11:03:47Z</time><name>PT2742</name></trkpt>
<trkpt lat="54.660793" lon="-2.961815"><ele>255</ele><time>2020-08-11T11:03:48Z</time><name>PT2743</name></trkpt>
<trkpt lat="54.660797" lon="-2.961838"><ele>255</ele><time>2020-08-11T11:03:49Z</time><name>PT2744</name></trkpt>
<trkpt lat="54.660798" lon="-2.961846"><ele>255</ele><time>2020-08-11T11:03:50Z</time><name>PT2745</name></trkpt>
<trkpt lat="54.660802" lon="-2.961865"><ele>255</ele><time>2020-08-11T11:03:51Z</time><name>PT2746</name></trkpt>
<trkpt lat="54.660803" lon="-2.961885"><ele>255</ele><time>2020-08-11T11:03:52Z</time><name>PT2747</name></trkpt>
<trkpt lat="54.660803" lon="-2.961895"><ele>255</ele><time>2020-08-11T11:03:53Z</time><name>PT2748</name></trkpt>
<trkpt lat="54.660804" lon="-2.961903"><ele>254</ele><time>2020-08-11T11:03:54Z</time><name>PT2749</name></trkpt>
<trkpt lat="54.660799" lon="-2.961923"><ele>254</ele><time>2020-08-11T11:03:55Z</time><name>PT2750</name></trkpt>
<trkpt lat="54.660788" lon="-2.961942"><ele>254</ele><time>2020-08-11T11:03:56Z</time><name>PT2751</name></trkpt>
<trkpt lat="54.660782" lon="-2.961950"><ele>254</ele><time>2020-08-11T11:03:57Z</time><name>PT2752</name></trkpt>
<trkpt lat="54.660776" lon="-2.961958"><ele>254</ele><time>2020-08-11T11:03:58Z</time><name>PT2753</name></trkpt>
<trkpt lat="54.660768" lon="-2.961977"><ele>254</ele><time>2020-08-11T11:03:59Z</time><name>PT2754</name></trkpt>
<trkpt lat="54.660755" lon="-2.961998"><ele>254</ele><time>2020-08-11T11:04:00Z</time><name>PT2755</name></trkpt>
<trkpt lat="54.660748" lon="-2.962016"><ele>253</ele><time>2020-08-11T11:04:01Z</time><name>PT2756</name></trkpt>
<trkpt lat="54.660744" lon="-2.962021"><ele>252</ele><time>2020-08-11T11:04:02Z</time><name>PT2757</name></trkpt>
<trkpt lat="54.660741" lon="-2.962028"><ele>252</ele><time>2020-08-11T11:04:03Z</time><name>PT2758</name></trkpt>
<trkpt lat="54.660733" lon="-2.962047"><ele>252</ele><time>2020-08-11T11:04:04Z</time><name>PT2759</name></trkpt>
<trkpt lat="54.660716" lon="-2.962070"><ele>253</ele><time>2020-08-11T11:04:05Z</time><name>PT2760</name></trkpt>
<trkpt lat="54.660706" lon="-2.962089"><ele>253</ele><time>2020-08-11T11:04:06Z</time><name>PT2761</name></trkpt>
<trkpt lat="54.660702" lon="-2.962096"><ele>253</ele><time>2020-08-11T11:04:07Z</time><name>PT2762</name></trkpt>
<trkpt lat="54.660698" lon="-2.962101"><ele>253</ele><time>2020-08-11T11:04:08Z</time><name>PT2763</name></trkpt>
<trkpt lat="54.660687" lon="-2.962116"><ele>253</ele><time>2020-08-11T11:04:09Z</time><name>PT2764</name></trkpt>
<trkpt lat="54.660674" lon="-2.962134"><ele>253</ele><time>2020-08-11T11:04:10Z</time><name>PT2765</name></trkpt>
<trkpt lat="54.660667" lon="-2.962141"><ele>253</ele><time>2020-08-11T11:04:11Z</time><name>PT2766</name></trkpt>
<trkpt lat="54.660661" lon="-2.962142"><ele>253</ele><time>2020-08-11T11:04:12Z</time><name>PT2767</name></trkpt>
<trkpt lat="54.660654" lon="-2.962152"><ele>252</ele><time>2020-08-11T11:04:13Z</time><name>PT2768</name></trkpt>
<trkpt lat="54.660645" lon="-2.962167"><ele>252</ele><time>2020-08-11T11:04:14Z</time><name>PT2769</name></trkpt>
<trkpt lat="54.660637" lon="-2.962181"><ele>252</ele><time>2020-08-11T11:04:15Z</time><name>PT2770</name></trkpt>
<trkpt lat="54.660631" lon="-2.962188"><ele>252</ele><time>2020-08-11T11:04:16Z</time><name>PT2771</name></trkpt>
<trkpt lat="54.660623" lon="-2.962197"><ele>252</ele><time>2020-08-11T11:04:17Z</time><name>PT2772</name></trkpt>
<trkpt lat="54.660612" lon="-2.962211"><ele>251</ele><time>2020-08-11T11:04:18Z</time><name>PT2773</name></trkpt>
<trkpt lat="54.660603" lon="-2.962228"><ele>250</ele><time>2020-08-11T11:04:19Z</time><name>PT2774</name></trkpt>
<trkpt lat="54.660598" lon="-2.962239"><ele>250</ele><time>2020-08-11T11:04:20Z</time><name>PT2775</name></trkpt>
<trkpt lat="54.660594" lon="-2.962246"><ele>250</ele><time>2020-08-11T11:04:21Z</time><name>PT2776</name></trkpt>
<trkpt lat="54.660589" lon="-2.962253"><ele>249</ele><time>2020-08-11T11:04:22Z</time><name>PT2777</name></trkpt>
<trkpt lat="54.660581" lon="-2.962261"><ele>249</ele><time>2020-08-11T11:04:23Z</time><name>PT2778</name></trkpt>
<trkpt lat="54.660575" lon="-2.962272"><ele>249</ele><time>2020-08-11T11:04:24Z</time><name>PT2779</name></trkpt>
<trkpt lat="54.660573" lon="-2.962284"><ele>249</ele><time>2020-08-11T11:04:25Z</time><name>PT2780</name></trkpt>
<trkpt lat="54.660569" lon="-2.962290"><ele>249</ele><time>2020-08-11T11:04:26Z</time><name>PT2781</name></trkpt>
<trkpt lat="54.660566" lon="-2.962295"><ele>249</ele><time>2020-08-11T11:04:27Z</time><name>PT2782</name></trkpt>
<trkpt lat="54.660565" lon="-2.962300"><ele>249</ele><time>2020-08-11T11:04:28Z</time><name>PT2783</name></trkpt>
<trkpt lat="54.660563" lon="-2.962297"><ele>248</ele><time>2020-08-11T11:04:29Z</time><name>PT2784</name></trkpt>
<trkpt lat="54.660560" lon="-2.962302"><ele>248</ele><time>2020-08-11T11:04:30Z</time><name>PT2785</name></trkpt>
<trkpt lat="54.660558" lon="-2.962310"><ele>248</ele><time>2020-08-11T11:04:31Z</time><name>PT2786</name></trkpt>
<trkpt lat="54.660554" lon="-2.962319"><ele>248</ele><time>2020-08-11T11:04:32Z</time><name>PT2787</name></trkpt>
<trkpt lat="54.660554" lon="-2.962325"><ele>248</ele><time>2020-08-11T11:04:33Z</time><name>PT2788</name></trkpt>
<trkpt lat="54.660554" lon="-2.962331"><ele>248</ele><time>2020-08-11T11:04:34Z</time><name>PT2789</name></trkpt>
<trkpt lat="54.660554" lon="-2.962332"><ele>248</ele><time>2020-08-11T11:04:35Z</time><name>PT2790</name></trkpt>
<trkpt lat="54.660545" lon="-2.962335"><ele>248</ele><time>2020-08-11T11:04:36Z</time><name>PT2791</name></trkpt>
<trkpt lat="54.660537" lon="-2.962352"><ele>249</ele><time>2020-08-11T11:04:37Z</time><name>PT2792</name></trkpt>
<trkpt lat="54.660532" lon="-2.962373"><ele>249</ele><time>2020-08-11T11:04:38Z</time><name>PT2793</name></trkpt>
<trkpt lat="54.660524" lon="-2.962378"><ele>249</ele><time>2020-08-11T11:04:39Z</time><name>PT2794</name></trkpt>
<trkpt lat="54.660516" lon="-2.962399"><ele>249</ele><time>2020-08-11T11:04:40Z</time><name>PT2795</name></trkpt>
<trkpt lat="54.660513" lon="-2.962418"><ele>249</ele><time>2020-08-11T11:04:41Z</time><name>PT2796</name></trkpt>
<trkpt lat="54.660509" lon="-2.962431"><ele>248</ele><time>2020-08-11T11:04:42Z</time><name>PT2797</name></trkpt>
<trkpt lat="54.660506" lon="-2.962439"><ele>249</ele><time>2020-08-11T11:04:43Z</time><name>PT2798</name></trkpt>
<trkpt lat="54.660501" lon="-2.962454"><ele>249</ele><time>2020-08-11T11:04:44Z</time><name>PT2799</name></trkpt>
<trkpt lat="54.660493" lon="-2.962473"><ele>249</ele><time>2020-08-11T11:04:45Z</time><name>PT2800</name></trkpt>
<trkpt lat="54.660486" lon="-2.962487"><ele>249</ele><time>2020-08-11T11:04:46Z</time><name>PT2801</name></trkpt>
<trkpt lat="54.660479" lon="-2.962493"><ele>249</ele><time>2020-08-11T11:04:47Z</time><name>PT2802</name></trkpt>
<trkpt lat="54.660471" lon="-2.962507"><ele>249</ele><time>2020-08-11T11:04:48Z</time><name>PT2803</name></trkpt>
<trkpt lat="54.660465" lon="-2.962521"><ele>249</ele><time>2020-08-11T11:04:49Z</time><name>PT2804</name></trkpt>
<trkpt lat="54.660458" lon="-2.962536"><ele>249</ele><time>2020-08-11T11:04:50Z</time><name>PT2805</name></trkpt>
<trkpt lat="54.660451" lon="-2.962548"><ele>249</ele><time>2020-08-11T11:04:51Z</time><name>PT2806</name></trkpt>
<trkpt lat="54.660444" lon="-2.962561"><ele>250</ele><time>2020-08-11T11:04:52Z</time><name>PT2807</name></trkpt>
<trkpt lat="54.660437" lon="-2.962572"><ele>250</ele><time>2020-08-11T11:04:53Z</time><name>PT2808</name></trkpt>
<trkpt lat="54.660429" lon="-2.962587"><ele>249</ele><time>2020-08-11T11:04:54Z</time><name>PT2809</name></trkpt>
<trkpt lat="54.660422" lon="-2.962599"><ele>250</ele><time>2020-08-11T11:04:55Z</time><name>PT2810</name></trkpt>
<trkpt lat="54.660419" lon="-2.962609"><ele>249</ele><time>2020-08-11T11:04:56Z</time><name>PT2811</name></trkpt>
<trkpt lat="54.660409" lon="-2.962628"><ele>249</ele><time>2020-08-11T11:04:57Z</time><name>PT2812</name></trkpt>
<trkpt lat="54.660398" lon="-2.962645"><ele>249</ele><time>2020-08-11T11:04:58Z</time><name>PT2813</name></trkpt>
<trkpt lat="54.660393" lon="-2.962654"><ele>249</ele><time>2020-08-11T11:04:59Z</time><name>PT2814</name></trkpt>
<trkpt lat="54.660387" lon="-2.962660"><ele>249</ele><time>2020-08-11T11:05:00Z</time><name>PT2815</name></trkpt>
<trkpt lat="54.660377" lon="-2.962674"><ele>249</ele><time>2020-08-11T11:05:01Z</time><name>PT2816</name></trkpt>
<trkpt lat="54.660369" lon="-2.962689"><ele>249</ele><time>2020-08-11T11:05:02Z</time><name>PT2817</name></trkpt>
<trkpt lat="54.660367" lon="-2.962697"><ele>249</ele><time>2020-08-11T11:05:03Z</time><name>PT2818</name></trkpt>
<trkpt lat="54.660356" lon="-2.962715"><ele>249</ele><time>2020-08-11T11:05:04Z</time><name>PT2819</name></trkpt>
<trkpt lat="54.660344" lon="-2.962740"><ele>249</ele><time>2020-08-11T11:05:05Z</time><name>PT2820</name></trkpt>
<trkpt lat="54.660339" lon="-2.962751"><ele>249</ele><time>2020-08-11T11:05:06Z</time><name>PT2821</name></trkpt>
<trkpt lat="54.660335" lon="-2.962757"><ele>248</ele><time>2020-08-11T11:05:07Z</time><name>PT2822</name></trkpt>
<trkpt lat="54.660322" lon="-2.962774"><ele>249</ele><time>2020-08-11T11:05:08Z</time><name>PT2823</name></trkpt>
<trkpt lat="54.660312" lon="-2.962791"><ele>248</ele><time>2020-08-11T11:05:09Z</time><name>PT2824</name></trkpt>
<trkpt lat="54.660305" lon="-2.962806"><ele>248</ele><time>2020-08-11T11:05:10Z</time><name>PT2825</name></trkpt>
<trkpt lat="54.660297" lon="-2.962819"><ele>248</ele><time>2020-08-11T11:05:11Z</time><name>PT2826</name></trkpt>
<trkpt lat="54.660288" lon="-2.962820"><ele>248</ele><time>2020-08-11T11:05:12Z</time><name>PT2827</name></trkpt>
<trkpt lat="54.660281" lon="-2.962830"><ele>248</ele><time>2020-08-11T11:05:13Z</time><name>PT2828</name></trkpt>
<trkpt lat="54.660273" lon="-2.962848"><ele>248</ele><time>2020-08-11T11:05:14Z</time><name>PT2829</name></trkpt>
<trkpt lat="54.660264" lon="-2.962849"><ele>247</ele><time>2020-08-11T11:05:15Z</time><name>PT2830</name></trkpt>
<trkpt lat="54.660259" lon="-2.962852"><ele>247</ele><time>2020-08-11T11:05:16Z</time><name>PT2831</name></trkpt>
<trkpt lat="54.660248" lon="-2.962867"><ele>247</ele><time>2020-08-11T11:05:17Z</time><name>PT2832</name></trkpt>
<trkpt lat="54.660238" lon="-2.962877"><ele>247</ele><time>2020-08-11T11:05:18Z</time><name>PT2833</name></trkpt>
<trkpt lat="54.660232" lon="-2.962880"><ele>247</ele><time>2020-08-11T11:05:19Z</time><name>PT2834</name></trkpt>
<trkpt lat="54.660225" lon="-2.962888"><ele>247</ele><time>2020-08-11T11:05:20Z</time><name>PT2835</name></trkpt>
<trkpt lat="54.660216" lon="-2.962904"><ele>247</ele><time>2020-08-11T11:05:21Z</time><name>PT2836</name></trkpt>
<trkpt lat="54.660207" lon="-2.962912"><ele>247</ele><time>2020-08-11T11:05:22Z</time><name>PT2837</name></trkpt>
<trkpt lat="54.660201" lon="-2.962918"><ele>247</ele><time>2020-08-11T11:05:23Z</time><name>PT2838</name></trkpt>
<trkpt lat="54.660192" lon="-2.962923"><ele>247</ele><time>2020-08-11T11:05:24Z</time><name>PT2839</name></trkpt>
<trkpt lat="54.660177" lon="-2.962933"><ele>246</ele><time>2020-08-11T11:05:25Z</time><name>PT2840</name></trkpt>
<trkpt lat="54.660167" lon="-2.962937"><ele>246</ele><time>2020-08-11T11:05:26Z</time><name>PT2841</name></trkpt>
<trkpt lat="54.660161" lon="-2.962934"><ele>246</ele><time>2020-08-11T11:05:27Z</time><name>PT2842</name></trkpt>
<trkpt lat="54.660152" lon="-2.962934"><ele>246</ele><time>2020-08-11T11:05:28Z</time><name>PT2843</name></trkpt>
<trkpt lat="54.660142" lon="-2.962939"><ele>246</ele><time>2020-08-11T11:05:29Z</time><name>PT2844</name></trkpt>
<trkpt lat="54.660136" lon="-2.962942"><ele>246</ele><time>2020-08-11T11:05:30Z</time><name>PT2845</name></trkpt>
<trkpt lat="54.660123" lon="-2.962953"><ele>246</ele><time>2020-08-11T11:05:31Z</time><name>PT2846</name></trkpt>
<trkpt lat="54.660106" lon="-2.962960"><ele>246</ele><time>2020-08-11T11:05:32Z</time><name>PT2847</name></trkpt>
<trkpt lat="54.660096" lon="-2.962963"><ele>246</ele><time>2020-08-11T11:05:33Z</time><name>PT2848</name></trkpt>
<trkpt lat="54.660086" lon="-2.962975"><ele>246</ele><time>2020-08-11T11:05:34Z</time><name>PT2849</name></trkpt>
<trkpt lat="54.660074" lon="-2.962984"><ele>247</ele><time>2020-08-11T11:05:35Z</time><name>PT2850</name></trkpt>
<trkpt lat="54.660064" lon="-2.962985"><ele>247</ele><time>2020-08-11T11:05:36Z</time><name>PT2851</name></trkpt>
<trkpt lat="54.660056" lon="-2.962981"><ele>247</ele><time>2020-08-11T11:05:37Z</time><name>PT2852</name></trkpt>
<trkpt lat="54.660047" lon="-2.962982"><ele>246</ele><time>2020-08-11T11:05:38Z</time><name>PT2853</name></trkpt>
<trkpt lat="54.660040" lon="-2.962980"><ele>246</ele><time>2020-08-11T11:05:39Z</time><name>PT2854</name></trkpt>
<trkpt lat="54.660033" lon="-2.962985"><ele>246</ele><time>2020-08-11T11:05:40Z</time><name>PT2855</name></trkpt>
<trkpt lat="54.660022" lon="-2.962988"><ele>246</ele><time>2020-08-11T11:05:41Z</time><name>PT2856</name></trkpt>
<trkpt lat="54.660018" lon="-2.962983"><ele>245</ele><time>2020-08-11T11:05:42Z</time><name>PT2857</name></trkpt>
<trkpt lat="54.660010" lon="-2.962987"><ele>245</ele><time>2020-08-11T11:05:43Z</time><name>PT2858</name></trkpt>
<trkpt lat="54.660000" lon="-2.962991"><ele>245</ele><time>2020-08-11T11:05:44Z</time><name>PT2859</name></trkpt>
<trkpt lat="54.659991" lon="-2.962987"><ele>245</ele><time>2020-08-11T11:05:45Z</time><name>PT2860</name></trkpt>
<trkpt lat="54.659982" lon="-2.962989"><ele>245</ele><time>2020-08-11T11:05:46Z</time><name>PT2861</name></trkpt>
<trkpt lat="54.659980" lon="-2.962984"><ele>244</ele><time>2020-08-11T11:05:47Z</time><name>PT2862</name></trkpt>
<trkpt lat="54.659973" lon="-2.962987"><ele>244</ele><time>2020-08-11T11:05:48Z</time><name>PT2863</name></trkpt>
<trkpt lat="54.659969" lon="-2.962987"><ele>244</ele><time>2020-08-11T11:05:49Z</time><name>PT2864</name></trkpt>
<trkpt lat="54.659964" lon="-2.962992"><ele>244</ele><time>2020-08-11T11:05:50Z</time><name>PT2865</name></trkpt>
<trkpt lat="54.659947" lon="-2.963001"><ele>245</ele><time>2020-08-11T11:05:51Z</time><name>PT2866</name></trkpt>
<trkpt lat="54.659941" lon="-2.963002"><ele>245</ele><time>2020-08-11T11:05:52Z</time><name>PT2867</name></trkpt>
<trkpt lat="54.659932" lon="-2.963006"><ele>245</ele><time>2020-08-11T11:05:53Z</time><name>PT2868</name></trkpt>
<trkpt lat="54.659927" lon="-2.963008"><ele>245</ele><time>2020-08-11T11:05:54Z</time><name>PT2869</name></trkpt>
<trkpt lat="54.659917" lon="-2.963004"><ele>245</ele><time>2020-08-11T11:05:55Z</time><name>PT2870</name></trkpt>
<trkpt lat="54.659911" lon="-2.962996"><ele>245</ele><time>2020-08-11T11:05:56Z</time><name>PT2871</name></trkpt>
<trkpt lat="54.659903" lon="-2.962999"><ele>245</ele><time>2020-08-11T11:05:57Z</time><name>PT2872</name></trkpt>
<trkpt lat="54.659899" lon="-2.963005"><ele>245</ele><time>2020-08-11T11:05:58Z</time><name>PT2873</name></trkpt>
<trkpt lat="54.659896" lon="-2.963005"><ele>245</ele><time>2020-08-11T11:05:59Z</time><name>PT2874</name></trkpt>
<trkpt lat="54.659891" lon="-2.963009"><ele>245</ele><time>2020-08-11T11:06:00Z</time><name>PT2875</name></trkpt>
<trkpt lat="54.659888" lon="-2.963009"><ele>245</ele><time>2020-08-11T11:06:01Z</time><name>PT2876</name></trkpt>
<trkpt lat="54.659880" lon="-2.963018"><ele>245</ele><time>2020-08-11T11:06:02Z</time><name>PT2877</name></trkpt>
<trkpt lat="54.659869" lon="-2.963024"><ele>245</ele><time>2020-08-11T11:06:03Z</time><name>PT2878</name></trkpt>
<trkpt lat="54.659855" lon="-2.963036"><ele>245</ele><time>2020-08-11T11:06:04Z</time><name>PT2879</name></trkpt>
<trkpt lat="54.659847" lon="-2.963043"><ele>244</ele><time>2020-08-11T11:06:05Z</time><name>PT2880</name></trkpt>
<trkpt lat="54.659838" lon="-2.963047"><ele>244</ele><time>2020-08-11T11:06:06Z</time><name>PT2881</name></trkpt>
<trkpt lat="54.659828" lon="-2.963054"><ele>244</ele><time>2020-08-11T11:06:07Z</time><name>PT2882</name></trkpt>
<trkpt lat="54.659822" lon="-2.963058"><ele>244</ele><time>2020-08-11T11:06:08Z</time><name>PT2883</name></trkpt>
<trkpt lat="54.659815" lon="-2.963070"><ele>245</ele><time>2020-08-11T11:06:09Z</time><name>PT2884</name></trkpt>
<trkpt lat="54.659810" lon="-2.963086"><ele>246</ele><time>2020-08-11T11:06:10Z</time><name>PT2885</name></trkpt>
<trkpt lat="54.659801" lon="-2.963102"><ele>246</ele><time>2020-08-11T11:06:11Z</time><name>PT2886</name></trkpt>
<trkpt lat="54.659795" lon="-2.963114"><ele>246</ele><time>2020-08-11T11:06:12Z</time><name>PT2887</name></trkpt>
<trkpt lat="54.659788" lon="-2.963124"><ele>246</ele><time>2020-08-11T11:06:13Z</time><name>PT2888</name></trkpt>
<trkpt lat="54.659779" lon="-2.963132"><ele>246</ele><time>2020-08-11T11:06:14Z</time><name>PT2889</name></trkpt>
<trkpt lat="54.659772" lon="-2.963141"><ele>246</ele><time>2020-08-11T11:06:15Z</time><name>PT2890</name></trkpt>
<trkpt lat="54.659767" lon="-2.963152"><ele>246</ele><time>2020-08-11T11:06:16Z</time><name>PT2891</name></trkpt>
<trkpt lat="54.659761" lon="-2.963165"><ele>246</ele><time>2020-08-11T11:06:17Z</time><name>PT2892</name></trkpt>
<trkpt lat="54.659754" lon="-2.963178"><ele>246</ele><time>2020-08-11T11:06:18Z</time><name>PT2893</name></trkpt>
<trkpt lat="54.659748" lon="-2.963190"><ele>246</ele><time>2020-08-11T11:06:19Z</time><name>PT2894</name></trkpt>
<trkpt lat="54.659743" lon="-2.963205"><ele>246</ele><time>2020-08-11T11:06:20Z</time><name>PT2895</name></trkpt>
<trkpt lat="54.659739" lon="-2.963219"><ele>246</ele><time>2020-08-11T11:06:21Z</time><name>PT2896</name></trkpt>
<trkpt lat="54.659727" lon="-2.963261"><ele>246</ele><time>2020-08-11T11:06:24Z</time><name>PT2897</name></trkpt>
<trkpt lat="54.659717" lon="-2.963336"><ele>245</ele><time>2020-08-11T11:06:28Z</time><name>PT2898</name></trkpt>
<trkpt lat="54.659710" lon="-2.963387"><ele>245</ele><time>2020-08-11T11:06:31Z</time><name>PT2899</name></trkpt>
<trkpt lat="54.659703" lon="-2.963434"><ele>244</ele><time>2020-08-11T11:06:34Z</time><name>PT2900</name></trkpt>
<trkpt lat="54.659687" lon="-2.963483"><ele>244</ele><time>2020-08-11T11:06:38Z</time><name>PT2901</name></trkpt>
<trkpt lat="54.659676" lon="-2.963533"><ele>244</ele><time>2020-08-11T11:06:42Z</time><name>PT2902</name></trkpt>
<trkpt lat="54.659649" lon="-2.963560"><ele>244</ele><time>2020-08-11T11:06:45Z</time><name>PT2903</name></trkpt>
<trkpt lat="54.659629" lon="-2.963584"><ele>244</ele><time>2020-08-11T11:06:48Z</time><name>PT2904</name></trkpt>
<trkpt lat="54.659628" lon="-2.963605"><ele>243</ele><time>2020-08-11T11:06:52Z</time><name>PT2905</name></trkpt>
<trkpt lat="54.659604" lon="-2.963601"><ele>244</ele><time>2020-08-11T11:06:56Z</time><name>PT2906</name></trkpt>
<trkpt lat="54.659580" lon="-2.963606"><ele>244</ele><time>2020-08-11T11:06:59Z</time><name>PT2907</name></trkpt>
<trkpt lat="54.659553" lon="-2.963629"><ele>244</ele><time>2020-08-11T11:07:03Z</time><name>PT2908</name></trkpt>
<trkpt lat="54.659531" lon="-2.963655"><ele>244</ele><time>2020-08-11T11:07:06Z</time><name>PT2909</name></trkpt>
<trkpt lat="54.659505" lon="-2.963700"><ele>243</ele><time>2020-08-11T11:07:10Z</time><name>PT2910</name></trkpt>
<trkpt lat="54.659475" lon="-2.963757"><ele>243</ele><time>2020-08-11T11:07:14Z</time><name>PT2911</name></trkpt>
<trkpt lat="54.659437" lon="-2.963762"><ele>243</ele><time>2020-08-11T11:07:18Z</time><name>PT2912</name></trkpt>
<trkpt lat="54.659424" lon="-2.963785"><ele>243</ele><time>2020-08-11T11:07:21Z</time><name>PT2913</name></trkpt>
<trkpt lat="54.659426" lon="-2.963835"><ele>242</ele><time>2020-08-11T11:07:24Z</time><name>PT2914</name></trkpt>
<trkpt lat="54.659408" lon="-2.963900"><ele>243</ele><time>2020-08-11T11:07:27Z</time><name>PT2915</name></trkpt>
<trkpt lat="54.659393" lon="-2.963975"><ele>242</ele><time>2020-08-11T11:07:31Z</time><name>PT2916</name></trkpt>
<trkpt lat="54.659377" lon="-2.964035"><ele>242</ele><time>2020-08-11T11:07:35Z</time><name>PT2917</name></trkpt>
<trkpt lat="54.659379" lon="-2.964090"><ele>241</ele><time>2020-08-11T11:07:38Z</time><name>PT2918</name></trkpt>
<trkpt lat="54.659373" lon="-2.964148"><ele>241</ele><time>2020-08-11T11:07:42Z</time><name>PT2919</name></trkpt>
<trkpt lat="54.659371" lon="-2.964223"><ele>241</ele><time>2020-08-11T11:07:46Z</time><name>PT2920</name></trkpt>
<trkpt lat="54.659371" lon="-2.964286"><ele>240</ele><time>2020-08-11T11:07:50Z</time><name>PT2921</name></trkpt>
<trkpt lat="54.659371" lon="-2.964340"><ele>239</ele><time>2020-08-11T11:07:53Z</time><name>PT2922</name></trkpt>
<trkpt lat="54.659348" lon="-2.964411"><ele>239</ele><time>2020-08-11T11:07:57Z</time><name>PT2923</name></trkpt>
<trkpt lat="54.659318" lon="-2.964453"><ele>239</ele><time>2020-08-11T11:08:00Z</time><name>PT2924</name></trkpt>
<trkpt lat="54.659306" lon="-2.964480"><ele>239</ele><time>2020-08-11T11:08:02Z</time><name>PT2925</name></trkpt>
<trkpt lat="54.659298" lon="-2.964489"><ele>239</ele><time>2020-08-11T11:08:03Z</time><name>PT2926</name></trkpt>
<trkpt lat="54.659292" lon="-2.964495"><ele>239</ele><time>2020-08-11T11:08:04Z</time><name>PT2927</name></trkpt>
<trkpt lat="54.659285" lon="-2.964511"><ele>239</ele><time>2020-08-11T11:08:05Z</time><name>PT2928</name></trkpt>
<trkpt lat="54.659275" lon="-2.964526"><ele>239</ele><time>2020-08-11T11:08:06Z</time><name>PT2929</name></trkpt>
<trkpt lat="54.659269" lon="-2.964539"><ele>239</ele><time>2020-08-11T11:08:07Z</time><name>PT2930</name></trkpt>
<trkpt lat="54.659267" lon="-2.964544"><ele>239</ele><time>2020-08-11T11:08:08Z</time><name>PT2931</name></trkpt>
<trkpt lat="54.659262" lon="-2.964559"><ele>239</ele><time>2020-08-11T11:08:09Z</time><name>PT2932</name></trkpt>
<trkpt lat="54.659251" lon="-2.964585"><ele>239</ele><time>2020-08-11T11:08:10Z</time><name>PT2933</name></trkpt>
<trkpt lat="54.659244" lon="-2.964598"><ele>238</ele><time>2020-08-11T11:08:11Z</time><name>PT2934</name></trkpt>
<trkpt lat="54.659236" lon="-2.964600"><ele>238</ele><time>2020-08-11T11:08:12Z</time><name>PT2935</name></trkpt>
<trkpt lat="54.659230" lon="-2.964614"><ele>238</ele><time>2020-08-11T11:08:13Z</time><name>PT2936</name></trkpt>
<trkpt lat="54.659219" lon="-2.964638"><ele>238</ele><time>2020-08-11T11:08:14Z</time><name>PT2937</name></trkpt>
<trkpt lat="54.659212" lon="-2.964657"><ele>238</ele><time>2020-08-11T11:08:15Z</time><name>PT2938</name></trkpt>
<trkpt lat="54.659208" lon="-2.964665"><ele>238</ele><time>2020-08-11T11:08:16Z</time><name>PT2939</name></trkpt>
<trkpt lat="54.659214" lon="-2.964677"><ele>237</ele><time>2020-08-11T11:08:17Z</time><name>PT2940</name></trkpt>
<trkpt lat="54.659216" lon="-2.964702"><ele>237</ele><time>2020-08-11T11:08:18Z</time><name>PT2941</name></trkpt>
<trkpt lat="54.659218" lon="-2.964717"><ele>237</ele><time>2020-08-11T11:08:19Z</time><name>PT2942</name></trkpt>
<trkpt lat="54.659218" lon="-2.964728"><ele>237</ele><time>2020-08-11T11:08:20Z</time><name>PT2943</name></trkpt>
<trkpt lat="54.659215" lon="-2.964741"><ele>236</ele><time>2020-08-11T11:08:21Z</time><name>PT2944</name></trkpt>
<trkpt lat="54.659211" lon="-2.964754"><ele>236</ele><time>2020-08-11T11:08:22Z</time><name>PT2945</name></trkpt>
<trkpt lat="54.659207" lon="-2.964760"><ele>236</ele><time>2020-08-11T11:08:23Z</time><name>PT2946</name></trkpt>
<trkpt lat="54.659204" lon="-2.964778"><ele>236</ele><time>2020-08-11T11:08:24Z</time><name>PT2947</name></trkpt>
<trkpt lat="54.659199" lon="-2.964806"><ele>236</ele><time>2020-08-11T11:08:25Z</time><name>PT2948</name></trkpt>
<trkpt lat="54.659197" lon="-2.964827"><ele>236</ele><time>2020-08-11T11:08:26Z</time><name>PT2949</name></trkpt>
<trkpt lat="54.659194" lon="-2.964839"><ele>236</ele><time>2020-08-11T11:08:27Z</time><name>PT2950</name></trkpt>
<trkpt lat="54.659192" lon="-2.964857"><ele>236</ele><time>2020-08-11T11:08:28Z</time><name>PT2951</name></trkpt>
<trkpt lat="54.659189" lon="-2.964878"><ele>236</ele><time>2020-08-11T11:08:29Z</time><name>PT2952</name></trkpt>
<trkpt lat="54.659189" lon="-2.964889"><ele>236</ele><time>2020-08-11T11:08:30Z</time><name>PT2953</name></trkpt>
<trkpt lat="54.659188" lon="-2.964900"><ele>236</ele><time>2020-08-11T11:08:31Z</time><name>PT2954</name></trkpt>
<trkpt lat="54.659189" lon="-2.964902"><ele>235</ele><time>2020-08-11T11:08:32Z</time><name>PT2955</name></trkpt>
<trkpt lat="54.659193" lon="-2.964910"><ele>235</ele><time>2020-08-11T11:08:33Z</time><name>PT2956</name></trkpt>
<trkpt lat="54.659191" lon="-2.964936"><ele>235</ele><time>2020-08-11T11:08:34Z</time><name>PT2957</name></trkpt>
<trkpt lat="54.659190" lon="-2.964959"><ele>235</ele><time>2020-08-11T11:08:35Z</time><name>PT2958</name></trkpt>
<trkpt lat="54.659188" lon="-2.964968"><ele>234</ele><time>2020-08-11T11:08:36Z</time><name>PT2959</name></trkpt>
<trkpt lat="54.659184" lon="-2.964981"><ele>234</ele><time>2020-08-11T11:08:37Z</time><name>PT2960</name></trkpt>
<trkpt lat="54.659176" lon="-2.965007"><ele>234</ele><time>2020-08-11T11:08:38Z</time><name>PT2961</name></trkpt>
<trkpt lat="54.659172" lon="-2.965022"><ele>234</ele><time>2020-08-11T11:08:39Z</time><name>PT2962</name></trkpt>
<trkpt lat="54.659168" lon="-2.965031"><ele>234</ele><time>2020-08-11T11:08:40Z</time><name>PT2963</name></trkpt>
<trkpt lat="54.659161" lon="-2.965050"><ele>235</ele><time>2020-08-11T11:08:41Z</time><name>PT2964</name></trkpt>
<trkpt lat="54.659151" lon="-2.965073"><ele>235</ele><time>2020-08-11T11:08:42Z</time><name>PT2965</name></trkpt>
<trkpt lat="54.659145" lon="-2.965089"><ele>235</ele><time>2020-08-11T11:08:43Z</time><name>PT2966</name></trkpt>
<trkpt lat="54.659143" lon="-2.965099"><ele>235</ele><time>2020-08-11T11:08:44Z</time><name>PT2967</name></trkpt>
<trkpt lat="54.659141" lon="-2.965111"><ele>234</ele><time>2020-08-11T11:08:45Z</time><name>PT2968</name></trkpt>
<trkpt lat="54.659135" lon="-2.965125"><ele>234</ele><time>2020-08-11T11:08:46Z</time><name>PT2969</name></trkpt>
<trkpt lat="54.659130" lon="-2.965137"><ele>234</ele><time>2020-08-11T11:08:47Z</time><name>PT2970</name></trkpt>
<trkpt lat="54.659122" lon="-2.965149"><ele>234</ele><time>2020-08-11T11:08:48Z</time><name>PT2971</name></trkpt>
<trkpt lat="54.659115" lon="-2.965156"><ele>234</ele><time>2020-08-11T11:08:49Z</time><name>PT2972</name></trkpt>
<trkpt lat="54.659110" lon="-2.965162"><ele>234</ele><time>2020-08-11T11:08:50Z</time><name>PT2973</name></trkpt>
<trkpt lat="54.659107" lon="-2.965167"><ele>234</ele><time>2020-08-11T11:08:51Z</time><name>PT2974</name></trkpt>
<trkpt lat="54.659102" lon="-2.965178"><ele>234</ele><time>2020-08-11T11:08:52Z</time><name>PT2975</name></trkpt>
<trkpt lat="54.659097" lon="-2.965188"><ele>233</ele><time>2020-08-11T11:08:53Z</time><name>PT2976</name></trkpt>
<trkpt lat="54.659093" lon="-2.965195"><ele>233</ele><time>2020-08-11T11:08:54Z</time><name>PT2977</name></trkpt>
<trkpt lat="54.659089" lon="-2.965206"><ele>233</ele><time>2020-08-11T11:08:55Z</time><name>PT2978</name></trkpt>
<trkpt lat="54.659084" lon="-2.965219"><ele>233</ele><time>2020-08-11T11:08:56Z</time><name>PT2979</name></trkpt>
<trkpt lat="54.659076" lon="-2.965226"><ele>233</ele><time>2020-08-11T11:08:57Z</time><name>PT2980</name></trkpt>
<trkpt lat="54.659072" lon="-2.965237"><ele>233</ele><time>2020-08-11T11:08:58Z</time><name>PT2981</name></trkpt>
<trkpt lat="54.659063" lon="-2.965239"><ele>232</ele><time>2020-08-11T11:08:59Z</time><name>PT2982</name></trkpt>
<trkpt lat="54.659057" lon="-2.965237"><ele>232</ele><time>2020-08-11T11:09:00Z</time><name>PT2983</name></trkpt>
<trkpt lat="54.659049" lon="-2.965244"><ele>232</ele><time>2020-08-11T11:09:01Z</time><name>PT2984</name></trkpt>
<trkpt lat="54.659042" lon="-2.965260"><ele>232</ele><time>2020-08-11T11:09:02Z</time><name>PT2985</name></trkpt>
<trkpt lat="54.659036" lon="-2.965277"><ele>232</ele><time>2020-08-11T11:09:03Z</time><name>PT2986</name></trkpt>
<trkpt lat="54.659035" lon="-2.965283"><ele>232</ele><time>2020-08-11T11:09:04Z</time><name>PT2987</name></trkpt>
<trkpt lat="54.659030" lon="-2.965278"><ele>232</ele><time>2020-08-11T11:09:05Z</time><name>PT2988</name></trkpt>
<trkpt lat="54.659023" lon="-2.965274"><ele>232</ele><time>2020-08-11T11:09:06Z</time><name>PT2989</name></trkpt>
<trkpt lat="54.659013" lon="-2.965284"><ele>232</ele><time>2020-08-11T11:09:07Z</time><name>PT2990</name></trkpt>
<trkpt lat="54.658998" lon="-2.965297"><ele>232</ele><time>2020-08-11T11:09:08Z</time><name>PT2991</name></trkpt>
<trkpt lat="54.658988" lon="-2.965301"><ele>232</ele><time>2020-08-11T11:09:09Z</time><name>PT2992</name></trkpt>
<trkpt lat="54.658981" lon="-2.965302"><ele>232</ele><time>2020-08-11T11:09:10Z</time><name>PT2993</name></trkpt>
<trkpt lat="54.658977" lon="-2.965319"><ele>231</ele><time>2020-08-11T11:09:11Z</time><name>PT2994</name></trkpt>
<trkpt lat="54.658974" lon="-2.965331"><ele>231</ele><time>2020-08-11T11:09:12Z</time><name>PT2995</name></trkpt>
<trkpt lat="54.658972" lon="-2.965340"><ele>232</ele><time>2020-08-11T11:09:13Z</time><name>PT2996</name></trkpt>
<trkpt lat="54.658976" lon="-2.965359"><ele>232</ele><time>2020-08-11T11:09:14Z</time><name>PT2997</name></trkpt>
<trkpt lat="54.658976" lon="-2.965372"><ele>231</ele><time>2020-08-11T11:09:15Z</time><name>PT2998</name></trkpt>
<trkpt lat="54.658976" lon="-2.965373"><ele>231</ele><time>2020-08-11T11:09:16Z</time><name>PT2999</name></trkpt>
<trkpt lat="54.658977" lon="-2.965384"><ele>231</ele><time>2020-08-11T11:09:17Z</time><name>PT3000</name></trkpt>
<trkpt lat="54.658977" lon="-2.965397"><ele>231</ele><time>2020-08-11T11:09:18Z</time><name>PT3001</name></trkpt>
<trkpt lat="54.658976" lon="-2.965404"><ele>230</ele><time>2020-08-11T11:09:19Z</time><name>PT3002</name></trkpt>
<trkpt lat="54.658969" lon="-2.965416"><ele>230</ele><time>2020-08-11T11:09:20Z</time><name>PT3003</name></trkpt>
<trkpt lat="54.658965" lon="-2.965425"><ele>230</ele><time>2020-08-11T11:09:21Z</time><name>PT3004</name></trkpt>
<trkpt lat="54.658965" lon="-2.965434"><ele>230</ele><time>2020-08-11T11:09:22Z</time><name>PT3005</name></trkpt>
<trkpt lat="54.658963" lon="-2.965441"><ele>230</ele><time>2020-08-11T11:09:23Z</time><name>PT3006</name></trkpt>
<trkpt lat="54.658952" lon="-2.965447"><ele>230</ele><time>2020-08-11T11:09:24Z</time><name>PT3007</name></trkpt>
<trkpt lat="54.658945" lon="-2.965448"><ele>230</ele><time>2020-08-11T11:09:25Z</time><name>PT3008</name></trkpt>
<trkpt lat="54.658940" lon="-2.965453"><ele>230</ele><time>2020-08-11T11:09:26Z</time><name>PT3009</name></trkpt>
<trkpt lat="54.658927" lon="-2.965463"><ele>231</ele><time>2020-08-11T11:09:27Z</time><name>PT3010</name></trkpt>
<trkpt lat="54.658915" lon="-2.965468"><ele>231</ele><time>2020-08-11T11:09:28Z</time><name>PT3011</name></trkpt>
<trkpt lat="54.658909" lon="-2.965473"><ele>231</ele><time>2020-08-11T11:09:29Z</time><name>PT3012</name></trkpt>
<trkpt lat="54.658903" lon="-2.965472"><ele>231</ele><time>2020-08-11T11:09:30Z</time><name>PT3013</name></trkpt>
<trkpt lat="54.658895" lon="-2.965472"><ele>232</ele><time>2020-08-11T11:09:31Z</time><name>PT3014</name></trkpt>
<trkpt lat="54.658888" lon="-2.965477"><ele>231</ele><time>2020-08-11T11:09:32Z</time><name>PT3015</name></trkpt>
<trkpt lat="54.658884" lon="-2.965487"><ele>231</ele><time>2020-08-11T11:09:33Z</time><name>PT3016</name></trkpt>
<trkpt lat="54.658879" lon="-2.965504"><ele>231</ele><time>2020-08-11T11:09:34Z</time><name>PT3017</name></trkpt>
<trkpt lat="54.658873" lon="-2.965516"><ele>231</ele><time>2020-08-11T11:09:35Z</time><name>PT3018</name></trkpt>
<trkpt lat="54.658868" lon="-2.965525"><ele>231</ele><time>2020-08-11T11:09:36Z</time><name>PT3019</name></trkpt>
<trkpt lat="54.658860" lon="-2.965539"><ele>231</ele><time>2020-08-11T11:09:37Z</time><name>PT3020</name></trkpt>
<trkpt lat="54.658854" lon="-2.965557"><ele>230</ele><time>2020-08-11T11:09:38Z</time><name>PT3021</name></trkpt>
<trkpt lat="54.658846" lon="-2.965577"><ele>230</ele><time>2020-08-11T11:09:39Z</time><name>PT3022</name></trkpt>
<trkpt lat="54.658837" lon="-2.965594"><ele>230</ele><time>2020-08-11T11:09:40Z</time><name>PT3023</name></trkpt>
<trkpt lat="54.658826" lon="-2.965602"><ele>230</ele><time>2020-08-11T11:09:41Z</time><name>PT3024</name></trkpt>
<trkpt lat="54.658819" lon="-2.965609"><ele>230</ele><time>2020-08-11T11:09:42Z</time><name>PT3025</name></trkpt>
<trkpt lat="54.658810" lon="-2.965619"><ele>229</ele><time>2020-08-11T11:09:43Z</time><name>PT3026</name></trkpt>
<trkpt lat="54.658799" lon="-2.965631"><ele>230</ele><time>2020-08-11T11:09:44Z</time><name>PT3027</name></trkpt>
<trkpt lat="54.658787" lon="-2.965644"><ele>230</ele><time>2020-08-11T11:09:45Z</time><name>PT3028</name></trkpt>
<trkpt lat="54.658780" lon="-2.965656"><ele>229</ele><time>2020-08-11T11:09:46Z</time><name>PT3029</name></trkpt>
<trkpt lat="54.658774" lon="-2.965668"><ele>229</ele><time>2020-08-11T11:09:47Z</time><name>PT3030</name></trkpt>
<trkpt lat="54.658768" lon="-2.965682"><ele>229</ele><time>2020-08-11T11:09:48Z</time><name>PT3031</name></trkpt>
<trkpt lat="54.658762" lon="-2.965703"><ele>229</ele><time>2020-08-11T11:09:49Z</time><name>PT3032</name></trkpt>
<trkpt lat="54.658760" lon="-2.965726"><ele>230</ele><time>2020-08-11T11:09:50Z</time><name>PT3033</name></trkpt>
<trkpt lat="54.658757" lon="-2.965749"><ele>229</ele><time>2020-08-11T11:09:51Z</time><name>PT3034</name></trkpt>
<trkpt lat="54.658753" lon="-2.965763"><ele>229</ele><time>2020-08-11T11:09:52Z</time><name>PT3035</name></trkpt>
<trkpt lat="54.658749" lon="-2.965777"><ele>229</ele><time>2020-08-11T11:09:53Z</time><name>PT3036</name></trkpt>
<trkpt lat="54.658745" lon="-2.965787"><ele>229</ele><time>2020-08-11T11:09:54Z</time><name>PT3037</name></trkpt>
<trkpt lat="54.658740" lon="-2.965795"><ele>229</ele><time>2020-08-11T11:09:55Z</time><name>PT3038</name></trkpt>
<trkpt lat="54.658739" lon="-2.965801"><ele>228</ele><time>2020-08-11T11:09:56Z</time><name>PT3039</name></trkpt>
<trkpt lat="54.658737" lon="-2.965805"><ele>228</ele><time>2020-08-11T11:09:57Z</time><name>PT3040</name></trkpt>
<trkpt lat="54.658735" lon="-2.965810"><ele>228</ele><time>2020-08-11T11:09:58Z</time><name>PT3041</name></trkpt>
<trkpt lat="54.658726" lon="-2.965823"><ele>227</ele><time>2020-08-11T11:09:59Z</time><name>PT3042</name></trkpt>
<trkpt lat="54.658717" lon="-2.965839"><ele>228</ele><time>2020-08-11T11:10:00Z</time><name>PT3043</name></trkpt>
<trkpt lat="54.658712" lon="-2.965850"><ele>228</ele><time>2020-08-11T11:10:01Z</time><name>PT3044</name></trkpt>
<trkpt lat="54.658706" lon="-2.965862"><ele>228</ele><time>2020-08-11T11:10:02Z</time><name>PT3045</name></trkpt>
<trkpt lat="54.658700" lon="-2.965871"><ele>228</ele><time>2020-08-11T11:10:03Z</time><name>PT3046</name></trkpt>
<trkpt lat="54.658699" lon="-2.965875"><ele>228</ele><time>2020-08-11T11:10:04Z</time><name>PT3047</name></trkpt>
<trkpt lat="54.658695" lon="-2.965880"><ele>228</ele><time>2020-08-11T11:10:05Z</time><name>PT3048</name></trkpt>
<trkpt lat="54.658692" lon="-2.965887"><ele>228</ele><time>2020-08-11T11:10:06Z</time><name>PT3049</name></trkpt>
<trkpt lat="54.658690" lon="-2.965890"><ele>228</ele><time>2020-08-11T11:10:07Z</time><name>PT3050</name></trkpt>
<trkpt lat="54.658689" lon="-2.965890"><ele>228</ele><time>2020-08-11T11:10:08Z</time><name>PT3051</name></trkpt>
<trkpt lat="54.658683" lon="-2.965894"><ele>228</ele><time>2020-08-11T11:10:09Z</time><name>PT3052</name></trkpt>
<trkpt lat="54.658674" lon="-2.965905"><ele>228</ele><time>2020-08-11T11:10:10Z</time><name>PT3053</name></trkpt>
<trkpt lat="54.658668" lon="-2.965914"><ele>228</ele><time>2020-08-11T11:10:11Z</time><name>PT3054</name></trkpt>
<trkpt lat="54.658664" lon="-2.965926"><ele>228</ele><time>2020-08-11T11:10:12Z</time><name>PT3055</name></trkpt>
<trkpt lat="54.658659" lon="-2.965943"><ele>228</ele><time>2020-08-11T11:10:13Z</time><name>PT3056</name></trkpt>
<trkpt lat="54.658652" lon="-2.965965"><ele>228</ele><time>2020-08-11T11:10:14Z</time><name>PT3057</name></trkpt>
<trkpt lat="54.658646" lon="-2.965988"><ele>229</ele><time>2020-08-11T11:10:15Z</time><name>PT3058</name></trkpt>
<trkpt lat="54.658641" lon="-2.965999"><ele>228</ele><time>2020-08-11T11:10:16Z</time><name>PT3059</name></trkpt>
<trkpt lat="54.658636" lon="-2.966017"><ele>228</ele><time>2020-08-11T11:10:17Z</time><name>PT3060</name></trkpt>
<trkpt lat="54.658630" lon="-2.966035"><ele>228</ele><time>2020-08-11T11:10:18Z</time><name>PT3061</name></trkpt>
<trkpt lat="54.658622" lon="-2.966056"><ele>228</ele><time>2020-08-11T11:10:19Z</time><name>PT3062</name></trkpt>
<trkpt lat="54.658615" lon="-2.966078"><ele>228</ele><time>2020-08-11T11:10:20Z</time><name>PT3063</name></trkpt>
<trkpt lat="54.658610" lon="-2.966093"><ele>228</ele><time>2020-08-11T11:10:21Z</time><name>PT3064</name></trkpt>
<trkpt lat="54.658610" lon="-2.966101"><ele>228</ele><time>2020-08-11T11:10:22Z</time><name>PT3065</name></trkpt>
<trkpt lat="54.658606" lon="-2.966117"><ele>227</ele><time>2020-08-11T11:10:23Z</time><name>PT3066</name></trkpt>
<trkpt lat="54.658601" lon="-2.966140"><ele>227</ele><time>2020-08-11T11:10:24Z</time><name>PT3067</name></trkpt>
<trkpt lat="54.658600" lon="-2.966167"><ele>228</ele><time>2020-08-11T11:10:25Z</time><name>PT3068</name></trkpt>
<trkpt lat="54.658598" lon="-2.966185"><ele>228</ele><time>2020-08-11T11:10:26Z</time><name>PT3069</name></trkpt>
<trkpt lat="54.658598" lon="-2.966198"><ele>227</ele><time>2020-08-11T11:10:27Z</time><name>PT3070</name></trkpt>
<trkpt lat="54.658596" lon="-2.966222"><ele>227</ele><time>2020-08-11T11:10:28Z</time><name>PT3071</name></trkpt>
<trkpt lat="54.658589" lon="-2.966249"><ele>227</ele><time>2020-08-11T11:10:29Z</time><name>PT3072</name></trkpt>
<trkpt lat="54.658586" lon="-2.966275"><ele>228</ele><time>2020-08-11T11:10:30Z</time><name>PT3073</name></trkpt>
<trkpt lat="54.658588" lon="-2.966293"><ele>228</ele><time>2020-08-11T11:10:31Z</time><name>PT3074</name></trkpt>
<trkpt lat="54.658588" lon="-2.966309"><ele>228</ele><time>2020-08-11T11:10:32Z</time><name>PT3075</name></trkpt>
<trkpt lat="54.658586" lon="-2.966332"><ele>228</ele><time>2020-08-11T11:10:33Z</time><name>PT3076</name></trkpt>
<trkpt lat="54.658588" lon="-2.966356"><ele>229</ele><time>2020-08-11T11:10:34Z</time><name>PT3077</name></trkpt>
<trkpt lat="54.658590" lon="-2.966378"><ele>229</ele><time>2020-08-11T11:10:35Z</time><name>PT3078</name></trkpt>
<trkpt lat="54.658591" lon="-2.966396"><ele>229</ele><time>2020-08-11T11:10:36Z</time><name>PT3079</name></trkpt>
<trkpt lat="54.658591" lon="-2.966416"><ele>228</ele><time>2020-08-11T11:10:37Z</time><name>PT3080</name></trkpt>
<trkpt lat="54.658589" lon="-2.966439"><ele>228</ele><time>2020-08-11T11:10:38Z</time><name>PT3081</name></trkpt>
<trkpt lat="54.658592" lon="-2.966467"><ele>229</ele><time>2020-08-11T11:10:39Z</time><name>PT3082</name></trkpt>
<trkpt lat="54.658593" lon="-2.966488"><ele>229</ele><time>2020-08-11T11:10:40Z</time><name>PT3083</name></trkpt>
<trkpt lat="54.658591" lon="-2.966502"><ele>228</ele><time>2020-08-11T11:10:41Z</time><name>PT3084</name></trkpt>
<trkpt lat="54.658589" lon="-2.966524"><ele>228</ele><time>2020-08-11T11:10:42Z</time><name>PT3085</name></trkpt>
<trkpt lat="54.658588" lon="-2.966547"><ele>228</ele><time>2020-08-11T11:10:43Z</time><name>PT3086</name></trkpt>
<trkpt lat="54.658588" lon="-2.966575"><ele>229</ele><time>2020-08-11T11:10:44Z</time><name>PT3087</name></trkpt>
<trkpt lat="54.658587" lon="-2.966598"><ele>229</ele><time>2020-08-11T11:10:45Z</time><name>PT3088</name></trkpt>
<trkpt lat="54.658587" lon="-2.966613"><ele>228</ele><time>2020-08-11T11:10:46Z</time><name>PT3089</name></trkpt>
<trkpt lat="54.658589" lon="-2.966637"><ele>228</ele><time>2020-08-11T11:10:47Z</time><name>PT3090</name></trkpt>
<trkpt lat="54.658592" lon="-2.966660"><ele>228</ele><time>2020-08-11T11:10:48Z</time><name>PT3091</name></trkpt>
<trkpt lat="54.658593" lon="-2.966688"><ele>228</ele><time>2020-08-11T11:10:49Z</time><name>PT3092</name></trkpt>
<trkpt lat="54.658591" lon="-2.966704"><ele>228</ele><time>2020-08-11T11:10:50Z</time><name>PT3093</name></trkpt>
<trkpt lat="54.658592" lon="-2.966719"><ele>228</ele><time>2020-08-11T11:10:51Z</time><name>PT3094</name></trkpt>
<trkpt lat="54.658588" lon="-2.966741"><ele>227</ele><time>2020-08-11T11:10:52Z</time><name>PT3095</name></trkpt>
<trkpt lat="54.658586" lon="-2.966765"><ele>228</ele><time>2020-08-11T11:10:53Z</time><name>PT3096</name></trkpt>
<trkpt lat="54.658585" lon="-2.966786"><ele>228</ele><time>2020-08-11T11:10:54Z</time><name>PT3097</name></trkpt>
<trkpt lat="54.658584" lon="-2.966799"><ele>228</ele><time>2020-08-11T11:10:55Z</time><name>PT3098</name></trkpt>
<trkpt lat="54.658583" lon="-2.966819"><ele>227</ele><time>2020-08-11T11:10:56Z</time><name>PT3099</name></trkpt>
<trkpt lat="54.658579" lon="-2.966843"><ele>227</ele><time>2020-08-11T11:10:57Z</time><name>PT3100</name></trkpt>
<trkpt lat="54.658577" lon="-2.966871"><ele>228</ele><time>2020-08-11T11:10:58Z</time><name>PT3101</name></trkpt>
<trkpt lat="54.658576" lon="-2.966891"><ele>228</ele><time>2020-08-11T11:10:59Z</time><name>PT3102</name></trkpt>
<trkpt lat="54.658575" lon="-2.966907"><ele>228</ele><time>2020-08-11T11:11:00Z</time><name>PT3103</name></trkpt>
<trkpt lat="54.658574" lon="-2.966930"><ele>228</ele><time>2020-08-11T11:11:01Z</time><name>PT3104</name></trkpt>
<trkpt lat="54.658574" lon="-2.967016"><ele>229</ele><time>2020-08-11T11:11:05Z</time><name>PT3105</name></trkpt>
<trkpt lat="54.658570" lon="-2.967090"><ele>229</ele><time>2020-08-11T11:11:08Z</time><name>PT3106</name></trkpt>
<trkpt lat="54.658563" lon="-2.967140"><ele>228</ele><time>2020-08-11T11:11:11Z</time><name>PT3107</name></trkpt>
<trkpt lat="54.658556" lon="-2.967187"><ele>229</ele><time>2020-08-11T11:11:14Z</time><name>PT3108</name></trkpt>
<trkpt lat="54.658545" lon="-2.967266"><ele>228</ele><time>2020-08-11T11:11:18Z</time><name>PT3109</name></trkpt>
<trkpt lat="54.658540" lon="-2.967327"><ele>228</ele><time>2020-08-11T11:11:21Z</time><name>PT3110</name></trkpt>
<trkpt lat="54.658529" lon="-2.967407"><ele>228</ele><time>2020-08-11T11:11:25Z</time><name>PT3111</name></trkpt>
<trkpt lat="54.658531" lon="-2.967478"><ele>229</ele><time>2020-08-11T11:11:28Z</time><name>PT3112</name></trkpt>
<trkpt lat="54.658532" lon="-2.967578"><ele>229</ele><time>2020-08-11T11:11:32Z</time><name>PT3113</name></trkpt>
<trkpt lat="54.658531" lon="-2.967630"><ele>228</ele><time>2020-08-11T11:11:35Z</time><name>PT3114</name></trkpt>
<trkpt lat="54.658537" lon="-2.967700"><ele>229</ele><time>2020-08-11T11:11:38Z</time><name>PT3115</name></trkpt>
<trkpt lat="54.658542" lon="-2.967784"><ele>229</ele><time>2020-08-11T11:11:42Z</time><name>PT3116</name></trkpt>
<trkpt lat="54.658543" lon="-2.967868"><ele>230</ele><time>2020-08-11T11:11:46Z</time><name>PT3117</name></trkpt>
<trkpt lat="54.658535" lon="-2.967943"><ele>230</ele><time>2020-08-11T11:11:50Z</time><name>PT3118</name></trkpt>
<trkpt lat="54.658523" lon="-2.968028"><ele>230</ele><time>2020-08-11T11:11:54Z</time><name>PT3119</name></trkpt>
<trkpt lat="54.658509" lon="-2.968099"><ele>230</ele><time>2020-08-11T11:11:57Z</time><name>PT3120</name></trkpt>
<trkpt lat="54.658501" lon="-2.968178"><ele>230</ele><time>2020-08-11T11:12:01Z</time><name>PT3121</name></trkpt>
<trkpt lat="54.658497" lon="-2.968235"><ele>230</ele><time>2020-08-11T11:12:04Z</time><name>PT3122</name></trkpt>
<trkpt lat="54.658490" lon="-2.968329"><ele>230</ele><time>2020-08-11T11:12:08Z</time><name>PT3123</name></trkpt>
<trkpt lat="54.658480" lon="-2.968398"><ele>230</ele><time>2020-08-11T11:12:11Z</time><name>PT3124</name></trkpt>
<trkpt lat="54.658471" lon="-2.968480"><ele>229</ele><time>2020-08-11T11:12:15Z</time><name>PT3125</name></trkpt>
<trkpt lat="54.658460" lon="-2.968560"><ele>229</ele><time>2020-08-11T11:12:19Z</time><name>PT3126</name></trkpt>
<trkpt lat="54.658449" lon="-2.968647"><ele>228</ele><time>2020-08-11T11:12:23Z</time><name>PT3127</name></trkpt>
<trkpt lat="54.658452" lon="-2.968701"><ele>228</ele><time>2020-08-11T11:12:26Z</time><name>PT3128</name></trkpt>
<trkpt lat="54.658440" lon="-2.968752"><ele>228</ele><time>2020-08-11T11:12:30Z</time><name>PT3129</name></trkpt>
<trkpt lat="54.658422" lon="-2.968784"><ele>228</ele><time>2020-08-11T11:12:33Z</time><name>PT3130</name></trkpt>
<trkpt lat="54.658409" lon="-2.968865"><ele>227</ele><time>2020-08-11T11:12:37Z</time><name>PT3131</name></trkpt>
<trkpt lat="54.658400" lon="-2.968929"><ele>228</ele><time>2020-08-11T11:12:40Z</time><name>PT3132</name></trkpt>
<trkpt lat="54.658387" lon="-2.969011"><ele>229</ele><time>2020-08-11T11:12:44Z</time><name>PT3133</name></trkpt>
<trkpt lat="54.658378" lon="-2.969070"><ele>228</ele><time>2020-08-11T11:12:47Z</time><name>PT3134</name></trkpt>
<trkpt lat="54.658363" lon="-2.969146"><ele>227</ele><time>2020-08-11T11:12:51Z</time><name>PT3135</name></trkpt>
<trkpt lat="54.658354" lon="-2.969204"><ele>228</ele><time>2020-08-11T11:12:54Z</time><name>PT3136</name></trkpt>
<trkpt lat="54.658336" lon="-2.969279"><ele>228</ele><time>2020-08-11T11:12:58Z</time><name>PT3137</name></trkpt>
<trkpt lat="54.658320" lon="-2.969346"><ele>229</ele><time>2020-08-11T11:13:02Z</time><name>PT3138</name></trkpt>
<trkpt lat="54.658302" lon="-2.969408"><ele>227</ele><time>2020-08-11T11:13:06Z</time><name>PT3139</name></trkpt>
<trkpt lat="54.658291" lon="-2.969467"><ele>228</ele><time>2020-08-11T11:13:10Z</time><name>PT3140</name></trkpt>
<trkpt lat="54.658283" lon="-2.969541"><ele>227</ele><time>2020-08-11T11:13:14Z</time><name>PT3141</name></trkpt>
<trkpt lat="54.658271" lon="-2.969603"><ele>228</ele><time>2020-08-11T11:13:17Z</time><name>PT3142</name></trkpt>
<trkpt lat="54.658269" lon="-2.969661"><ele>228</ele><time>2020-08-11T11:13:20Z</time><name>PT3143</name></trkpt>
<trkpt lat="54.658249" lon="-2.969735"><ele>227</ele><time>2020-08-11T11:13:24Z</time><name>PT3144</name></trkpt>
<trkpt lat="54.658236" lon="-2.969796"><ele>228</ele><time>2020-08-11T11:13:27Z</time><name>PT3145</name></trkpt>
<trkpt lat="54.658222" lon="-2.969866"><ele>228</ele><time>2020-08-11T11:13:31Z</time><name>PT3146</name></trkpt>
<trkpt lat="54.658209" lon="-2.969922"><ele>228</ele><time>2020-08-11T11:13:34Z</time><name>PT3147</name></trkpt>
<trkpt lat="54.658193" lon="-2.969969"><ele>228</ele><time>2020-08-11T11:13:37Z</time><name>PT3148</name></trkpt>
<trkpt lat="54.658174" lon="-2.970041"><ele>227</ele><time>2020-08-11T11:13:41Z</time><name>PT3149</name></trkpt>
<trkpt lat="54.658160" lon="-2.970108"><ele>227</ele><time>2020-08-11T11:13:44Z</time><name>PT3150</name></trkpt>
<trkpt lat="54.658147" lon="-2.970190"><ele>227</ele><time>2020-08-11T11:13:48Z</time><name>PT3151</name></trkpt>
<trkpt lat="54.658134" lon="-2.970264"><ele>227</ele><time>2020-08-11T11:13:52Z</time><name>PT3152</name></trkpt>
<trkpt lat="54.658122" lon="-2.970340"><ele>227</ele><time>2020-08-11T11:13:56Z</time><name>PT3153</name></trkpt>
<trkpt lat="54.658119" lon="-2.970417"><ele>227</ele><time>2020-08-11T11:14:00Z</time><name>PT3154</name></trkpt>
<trkpt lat="54.658117" lon="-2.970479"><ele>227</ele><time>2020-08-11T11:14:03Z</time><name>PT3155</name></trkpt>
<trkpt lat="54.658115" lon="-2.970560"><ele>227</ele><time>2020-08-11T11:14:07Z</time><name>PT3156</name></trkpt>
<trkpt lat="54.658093" lon="-2.970591"><ele>227</ele><time>2020-08-11T11:14:11Z</time><name>PT3157</name></trkpt>
<trkpt lat="54.658060" lon="-2.970593"><ele>227</ele><time>2020-08-11T11:14:15Z</time><name>PT3158</name></trkpt>
<trkpt lat="54.658038" lon="-2.970655"><ele>226</ele><time>2020-08-11T11:14:19Z</time><name>PT3159</name></trkpt>
<trkpt lat="54.658019" lon="-2.970721"><ele>227</ele><time>2020-08-11T11:14:23Z</time><name>PT3160</name></trkpt>
<trkpt lat="54.658010" lon="-2.970774"><ele>228</ele><time>2020-08-11T11:14:26Z</time><name>PT3161</name></trkpt>
<trkpt lat="54.657987" lon="-2.970834"><ele>228</ele><time>2020-08-11T11:14:30Z</time><name>PT3162</name></trkpt>
<trkpt lat="54.657967" lon="-2.970877"><ele>228</ele><time>2020-08-11T11:14:33Z</time><name>PT3163</name></trkpt>
<trkpt lat="54.657958" lon="-2.970946"><ele>228</ele><time>2020-08-11T11:14:37Z</time><name>PT3164</name></trkpt>
<trkpt lat="54.657956" lon="-2.970986"><ele>228</ele><time>2020-08-11T11:14:40Z</time><name>PT3165</name></trkpt>
<trkpt lat="54.657959" lon="-2.971001"><ele>228</ele><time>2020-08-11T11:14:43Z</time><name>PT3166</name></trkpt>
<trkpt lat="54.657955" lon="-2.971000"><ele>228</ele><time>2020-08-11T11:14:47Z</time><name>PT3167</name></trkpt>
<trkpt lat="54.657952" lon="-2.971030"><ele>228</ele><time>2020-08-11T11:14:54Z</time><name>PT3168</name></trkpt>
<trkpt lat="54.657935" lon="-2.971086"><ele>227</ele><time>2020-08-11T11:14:57Z</time><name>PT3169</name></trkpt>
<trkpt lat="54.657909" lon="-2.971126"><ele>227</ele><time>2020-08-11T11:15:00Z</time><name>PT3170</name></trkpt>
<trkpt lat="54.657880" lon="-2.971173"><ele>226</ele><time>2020-08-11T11:15:04Z</time><name>PT3171</name></trkpt>
<trkpt lat="54.657855" lon="-2.971212"><ele>226</ele><time>2020-08-11T11:15:07Z</time><name>PT3172</name></trkpt>
<trkpt lat="54.657826" lon="-2.971236"><ele>225</ele><time>2020-08-11T11:15:10Z</time><name>PT3173</name></trkpt>
<trkpt lat="54.657804" lon="-2.971251"><ele>225</ele><time>2020-08-11T11:15:13Z</time><name>PT3174</name></trkpt>
<trkpt lat="54.657802" lon="-2.971251"><ele>225</ele><time>2020-08-11T11:15:17Z</time><name>PT3175</name></trkpt>
<trkpt lat="54.657803" lon="-2.971253"><ele>225</ele><time>2020-08-11T11:15:20Z</time><name>PT3176</name></trkpt>
<trkpt lat="54.657795" lon="-2.971260"><ele>224</ele><time>2020-08-11T11:15:24Z</time><name>PT3177</name></trkpt>
<trkpt lat="54.657791" lon="-2.971270"><ele>225</ele><time>2020-08-11T11:15:31Z</time><name>PT3178</name></trkpt>
<trkpt lat="54.657739" lon="-2.971298"><ele>226</ele><time>2020-08-11T11:15:35Z</time><name>PT3179</name></trkpt>
<trkpt lat="54.657703" lon="-2.971319"><ele>225</ele><time>2020-08-11T11:15:38Z</time><name>PT3180</name></trkpt>
<trkpt lat="54.657659" lon="-2.971339"><ele>226</ele><time>2020-08-11T11:15:41Z</time><name>PT3181</name></trkpt>
<trkpt lat="54.657608" lon="-2.971368"><ele>226</ele><time>2020-08-11T11:15:45Z</time><name>PT3182</name></trkpt>
<trkpt lat="54.657580" lon="-2.971387"><ele>226</ele><time>2020-08-11T11:15:48Z</time><name>PT3183</name></trkpt>
<trkpt lat="54.657546" lon="-2.971389"><ele>226</ele><time>2020-08-11T11:15:51Z</time><name>PT3184</name></trkpt>
<trkpt lat="54.657502" lon="-2.971385"><ele>225</ele><time>2020-08-11T11:15:55Z</time><name>PT3185</name></trkpt>
<trkpt lat="54.657460" lon="-2.971395"><ele>225</ele><time>2020-08-11T11:15:59Z</time><name>PT3186</name></trkpt>
<trkpt lat="54.657438" lon="-2.971403"><ele>225</ele><time>2020-08-11T11:16:02Z</time><name>PT3187</name></trkpt>
<trkpt lat="54.657438" lon="-2.971406"><ele>225</ele><time>2020-08-11T11:16:06Z</time><name>PT3188</name></trkpt>
<trkpt lat="54.657440" lon="-2.971404"><ele>224</ele><time>2020-08-11T11:16:09Z</time><name>PT3189</name></trkpt>
<trkpt lat="54.657396" lon="-2.971392"><ele>224</ele><time>2020-08-11T11:16:13Z</time><name>PT3190</name></trkpt>
<trkpt lat="54.657369" lon="-2.971395"><ele>224</ele><time>2020-08-11T11:16:17Z</time><name>PT3191</name></trkpt>
<trkpt lat="54.657366" lon="-2.971363"><ele>224</ele><time>2020-08-11T11:16:20Z</time><name>PT3192</name></trkpt>
<trkpt lat="54.657357" lon="-2.971336"><ele>224</ele><time>2020-08-11T11:16:24Z</time><name>PT3193</name></trkpt>
<trkpt lat="54.657347" lon="-2.971318"><ele>224</ele><time>2020-08-11T11:16:27Z</time><name>PT3194</name></trkpt>
<trkpt lat="54.657315" lon="-2.971312"><ele>223</ele><time>2020-08-11T11:16:31Z</time><name>PT3195</name></trkpt>
<trkpt lat="54.657286" lon="-2.971338"><ele>225</ele><time>2020-08-11T11:16:35Z</time><name>PT3196</name></trkpt>
<trkpt lat="54.657279" lon="-2.971371"><ele>225</ele><time>2020-08-11T11:16:38Z</time><name>PT3197</name></trkpt>
<trkpt lat="54.657280" lon="-2.971419"><ele>225</ele><time>2020-08-11T11:16:41Z</time><name>PT3198</name></trkpt>
<trkpt lat="54.657291" lon="-2.971474"><ele>226</ele><time>2020-08-11T11:16:45Z</time><name>PT3199</name></trkpt>
<trkpt lat="54.657295" lon="-2.971486"><ele>226</ele><time>2020-08-11T11:16:48Z</time><name>PT3200</name></trkpt>
<trkpt lat="54.657304" lon="-2.971533"><ele>226</ele><time>2020-08-11T11:16:51Z</time><name>PT3201</name></trkpt>
<trkpt lat="54.657312" lon="-2.971580"><ele>226</ele><time>2020-08-11T11:16:54Z</time><name>PT3202</name></trkpt>
<trkpt lat="54.657319" lon="-2.971629"><ele>227</ele><time>2020-08-11T11:16:57Z</time><name>PT3203</name></trkpt>
<trkpt lat="54.657329" lon="-2.971714"><ele>227</ele><time>2020-08-11T11:17:01Z</time><name>PT3204</name></trkpt>
<trkpt lat="54.657329" lon="-2.971733"><ele>226</ele><time>2020-08-11T11:17:02Z</time><name>PT3205</name></trkpt>
<trkpt lat="54.657328" lon="-2.971750"><ele>227</ele><time>2020-08-11T11:17:03Z</time><name>PT3206</name></trkpt>
<trkpt lat="54.657326" lon="-2.971770"><ele>226</ele><time>2020-08-11T11:17:04Z</time><name>PT3207</name></trkpt>
<trkpt lat="54.657325" lon="-2.971789"><ele>226</ele><time>2020-08-11T11:17:05Z</time><name>PT3208</name></trkpt>
<trkpt lat="54.657324" lon="-2.971811"><ele>226</ele><time>2020-08-11T11:17:06Z</time><name>PT3209</name></trkpt>
<trkpt lat="54.657323" lon="-2.971831"><ele>226</ele><time>2020-08-11T11:17:07Z</time><name>PT3210</name></trkpt>
<trkpt lat="54.657321" lon="-2.971850"><ele>226</ele><time>2020-08-11T11:17:08Z</time><name>PT3211</name></trkpt>
<trkpt lat="54.657319" lon="-2.971867"><ele>226</ele><time>2020-08-11T11:17:09Z</time><name>PT3212</name></trkpt>
<trkpt lat="54.657318" lon="-2.971886"><ele>226</ele><time>2020-08-11T11:17:10Z</time><name>PT3213</name></trkpt>
<trkpt lat="54.657317" lon="-2.971905"><ele>226</ele><time>2020-08-11T11:17:11Z</time><name>PT3214</name></trkpt>
<trkpt lat="54.657317" lon="-2.971924"><ele>226</ele><time>2020-08-11T11:17:12Z</time><name>PT3215</name></trkpt>
<trkpt lat="54.657317" lon="-2.971944"><ele>227</ele><time>2020-08-11T11:17:13Z</time><name>PT3216</name></trkpt>
<trkpt lat="54.657318" lon="-2.971963"><ele>227</ele><time>2020-08-11T11:17:14Z</time><name>PT3217</name></trkpt>
<trkpt lat="54.657317" lon="-2.971983"><ele>227</ele><time>2020-08-11T11:17:15Z</time><name>PT3218</name></trkpt>
<trkpt lat="54.657318" lon="-2.972004"><ele>227</ele><time>2020-08-11T11:17:16Z</time><name>PT3219</name></trkpt>
<trkpt lat="54.657320" lon="-2.972023"><ele>228</ele><time>2020-08-11T11:17:17Z</time><name>PT3220</name></trkpt>
<trkpt lat="54.657321" lon="-2.972041"><ele>228</ele><time>2020-08-11T11:17:18Z</time><name>PT3221</name></trkpt>
<trkpt lat="54.657324" lon="-2.972058"><ele>228</ele><time>2020-08-11T11:17:19Z</time><name>PT3222</name></trkpt>
<trkpt lat="54.657327" lon="-2.972075"><ele>228</ele><time>2020-08-11T11:17:20Z</time><name>PT3223</name></trkpt>
<trkpt lat="54.657331" lon="-2.972093"><ele>228</ele><time>2020-08-11T11:17:21Z</time><name>PT3224</name></trkpt>
<trkpt lat="54.657335" lon="-2.972107"><ele>228</ele><time>2020-08-11T11:17:22Z</time><name>PT3225</name></trkpt>
<trkpt lat="54.657337" lon="-2.972122"><ele>228</ele><time>2020-08-11T11:17:23Z</time><name>PT3226</name></trkpt>
<trkpt lat="54.657341" lon="-2.972138"><ele>228</ele><time>2020-08-11T11:17:24Z</time><name>PT3227</name></trkpt>
<trkpt lat="54.657345" lon="-2.972154"><ele>228</ele><time>2020-08-11T11:17:25Z</time><name>PT3228</name></trkpt>
<trkpt lat="54.657349" lon="-2.972173"><ele>228</ele><time>2020-08-11T11:17:26Z</time><name>PT3229</name></trkpt>
<trkpt lat="54.657355" lon="-2.972187"><ele>228</ele><time>2020-08-11T11:17:27Z</time><name>PT3230</name></trkpt>
<trkpt lat="54.657361" lon="-2.972201"><ele>228</ele><time>2020-08-11T11:17:28Z</time><name>PT3231</name></trkpt>
<trkpt lat="54.657363" lon="-2.972216"><ele>228</ele><time>2020-08-11T11:17:29Z</time><name>PT3232</name></trkpt>
<trkpt lat="54.657365" lon="-2.972234"><ele>228</ele><time>2020-08-11T11:17:30Z</time><name>PT3233</name></trkpt>
<trkpt lat="54.657367" lon="-2.972246"><ele>228</ele><time>2020-08-11T11:17:31Z</time><name>PT3234</name></trkpt>
<trkpt lat="54.657369" lon="-2.972263"><ele>228</ele><time>2020-08-11T11:17:32Z</time><name>PT3235</name></trkpt>
<trkpt lat="54.657369" lon="-2.972284"><ele>228</ele><time>2020-08-11T11:17:33Z</time><name>PT3236</name></trkpt>
<trkpt lat="54.657366" lon="-2.972307"><ele>228</ele><time>2020-08-11T11:17:34Z</time><name>PT3237</name></trkpt>
<trkpt lat="54.657364" lon="-2.972323"><ele>229</ele><time>2020-08-11T11:17:35Z</time><name>PT3238</name></trkpt>
<trkpt lat="54.657363" lon="-2.972337"><ele>229</ele><time>2020-08-11T11:17:36Z</time><name>PT3239</name></trkpt>
<trkpt lat="54.657360" lon="-2.972356"><ele>229</ele><time>2020-08-11T11:17:37Z</time><name>PT3240</name></trkpt>
<trkpt lat="54.657351" lon="-2.972375"><ele>230</ele><time>2020-08-11T11:17:38Z</time><name>PT3241</name></trkpt>
<trkpt lat="54.657346" lon="-2.972390"><ele>230</ele><time>2020-08-11T11:17:39Z</time><name>PT3242</name></trkpt>
<trkpt lat="54.657346" lon="-2.972407"><ele>231</ele><time>2020-08-11T11:17:40Z</time><name>PT3243</name></trkpt>
<trkpt lat="54.657343" lon="-2.972427"><ele>231</ele><time>2020-08-11T11:17:41Z</time><name>PT3244</name></trkpt>
<trkpt lat="54.657340" lon="-2.972449"><ele>231</ele><time>2020-08-11T11:17:42Z</time><name>PT3245</name></trkpt>
<trkpt lat="54.657337" lon="-2.972462"><ele>231</ele><time>2020-08-11T11:17:43Z</time><name>PT3246</name></trkpt>
<trkpt lat="54.657332" lon="-2.972476"><ele>231</ele><time>2020-08-11T11:17:44Z</time><name>PT3247</name></trkpt>
<trkpt lat="54.657326" lon="-2.972495"><ele>231</ele><time>2020-08-11T11:17:45Z</time><name>PT3248</name></trkpt>
<trkpt lat="54.657319" lon="-2.972515"><ele>231</ele><time>2020-08-11T11:17:46Z</time><name>PT3249</name></trkpt>
<trkpt lat="54.657317" lon="-2.972528"><ele>231</ele><time>2020-08-11T11:17:47Z</time><name>PT3250</name></trkpt>
<trkpt lat="54.657314" lon="-2.972543"><ele>231</ele><time>2020-08-11T11:17:48Z</time><name>PT3251</name></trkpt>
<trkpt lat="54.657310" lon="-2.972566"><ele>231</ele><time>2020-08-11T11:17:49Z</time><name>PT3252</name></trkpt>
<trkpt lat="54.657308" lon="-2.972581"><ele>230</ele><time>2020-08-11T11:17:50Z</time><name>PT3253</name></trkpt>
<trkpt lat="54.657306" lon="-2.972597"><ele>230</ele><time>2020-08-11T11:17:51Z</time><name>PT3254</name></trkpt>
<trkpt lat="54.657300" lon="-2.972615"><ele>230</ele><time>2020-08-11T11:17:52Z</time><name>PT3255</name></trkpt>
<trkpt lat="54.657295" lon="-2.972631"><ele>231</ele><time>2020-08-11T11:17:53Z</time><name>PT3256</name></trkpt>
<trkpt lat="54.657293" lon="-2.972646"><ele>231</ele><time>2020-08-11T11:17:54Z</time><name>PT3257</name></trkpt>
<trkpt lat="54.657289" lon="-2.972664"><ele>231</ele><time>2020-08-11T11:17:55Z</time><name>PT3258</name></trkpt>
<trkpt lat="54.657285" lon="-2.972686"><ele>231</ele><time>2020-08-11T11:17:56Z</time><name>PT3259</name></trkpt>
<trkpt lat="54.657282" lon="-2.972702"><ele>231</ele><time>2020-08-11T11:17:57Z</time><name>PT3260</name></trkpt>
<trkpt lat="54.657278" lon="-2.972719"><ele>231</ele><time>2020-08-11T11:17:58Z</time><name>PT3261</name></trkpt>
<trkpt lat="54.657271" lon="-2.972736"><ele>231</ele><time>2020-08-11T11:17:59Z</time><name>PT3262</name></trkpt>
<trkpt lat="54.657268" lon="-2.972756"><ele>231</ele><time>2020-08-11T11:18:00Z</time><name>PT3263</name></trkpt>
<trkpt lat="54.657266" lon="-2.972771"><ele>231</ele><time>2020-08-11T11:18:01Z</time><name>PT3264</name></trkpt>
<trkpt lat="54.657264" lon="-2.972785"><ele>231</ele><time>2020-08-11T11:18:02Z</time><name>PT3265</name></trkpt>
<trkpt lat="54.657261" lon="-2.972803"><ele>231</ele><time>2020-08-11T11:18:03Z</time><name>PT3266</name></trkpt>
<trkpt lat="54.657256" lon="-2.972828"><ele>230</ele><time>2020-08-11T11:18:04Z</time><name>PT3267</name></trkpt>
<trkpt lat="54.657253" lon="-2.972844"><ele>230</ele><time>2020-08-11T11:18:05Z</time><name>PT3268</name></trkpt>
<trkpt lat="54.657251" lon="-2.972860"><ele>230</ele><time>2020-08-11T11:18:06Z</time><name>PT3269</name></trkpt>
<trkpt lat="54.657249" lon="-2.972878"><ele>230</ele><time>2020-08-11T11:18:07Z</time><name>PT3270</name></trkpt>
<trkpt lat="54.657245" lon="-2.972900"><ele>230</ele><time>2020-08-11T11:18:08Z</time><name>PT3271</name></trkpt>
<trkpt lat="54.657245" lon="-2.972916"><ele>230</ele><time>2020-08-11T11:18:09Z</time><name>PT3272</name></trkpt>
<trkpt lat="54.657245" lon="-2.972934"><ele>230</ele><time>2020-08-11T11:18:10Z</time><name>PT3273</name></trkpt>
<trkpt lat="54.657243" lon="-2.972953"><ele>230</ele><time>2020-08-11T11:18:11Z</time><name>PT3274</name></trkpt>
<trkpt lat="54.657243" lon="-2.972980"><ele>230</ele><time>2020-08-11T11:18:12Z</time><name>PT3275</name></trkpt>
<trkpt lat="54.657243" lon="-2.972995"><ele>230</ele><time>2020-08-11T11:18:13Z</time><name>PT3276</name></trkpt>
<trkpt lat="54.657240" lon="-2.973011"><ele>229</ele><time>2020-08-11T11:18:14Z</time><name>PT3277</name></trkpt>
<trkpt lat="54.657237" lon="-2.973032"><ele>229</ele><time>2020-08-11T11:18:15Z</time><name>PT3278</name></trkpt>
<trkpt lat="54.657236" lon="-2.973052"><ele>229</ele><time>2020-08-11T11:18:16Z</time><name>PT3279</name></trkpt>
<trkpt lat="54.657234" lon="-2.973066"><ele>229</ele><time>2020-08-11T11:18:17Z</time><name>PT3280</name></trkpt>
<trkpt lat="54.657230" lon="-2.973083"><ele>229</ele><time>2020-08-11T11:18:18Z</time><name>PT3281</name></trkpt>
<trkpt lat="54.657225" lon="-2.973105"><ele>229</ele><time>2020-08-11T11:18:19Z</time><name>PT3282</name></trkpt>
<trkpt lat="54.657218" lon="-2.973119"><ele>229</ele><time>2020-08-11T11:18:20Z</time><name>PT3283</name></trkpt>
<trkpt lat="54.657214" lon="-2.973129"><ele>229</ele><time>2020-08-11T11:18:21Z</time><name>PT3284</name></trkpt>
<trkpt lat="54.657212" lon="-2.973133"><ele>229</ele><time>2020-08-11T11:18:22Z</time><name>PT3285</name></trkpt>
<trkpt lat="54.657209" lon="-2.973142"><ele>229</ele><time>2020-08-11T11:18:23Z</time><name>PT3286</name></trkpt>
<trkpt lat="54.657205" lon="-2.973152"><ele>229</ele><time>2020-08-11T11:18:24Z</time><name>PT3287</name></trkpt>
<trkpt lat="54.657196" lon="-2.973164"><ele>229</ele><time>2020-08-11T11:18:25Z</time><name>PT3288</name></trkpt>
<trkpt lat="54.657185" lon="-2.973179"><ele>229</ele><time>2020-08-11T11:18:26Z</time><name>PT3289</name></trkpt>
<trkpt lat="54.657175" lon="-2.973190"><ele>229</ele><time>2020-08-11T11:18:27Z</time><name>PT3290</name></trkpt>
<trkpt lat="54.657169" lon="-2.973199"><ele>229</ele><time>2020-08-11T11:18:28Z</time><name>PT3291</name></trkpt>
<trkpt lat="54.657163" lon="-2.973212"><ele>229</ele><time>2020-08-11T11:18:29Z</time><name>PT3292</name></trkpt>
<trkpt lat="54.657159" lon="-2.973232"><ele>229</ele><time>2020-08-11T11:18:30Z</time><name>PT3293</name></trkpt>
<trkpt lat="54.657159" lon="-2.973248"><ele>229</ele><time>2020-08-11T11:18:31Z</time><name>PT3294</name></trkpt>
<trkpt lat="54.657159" lon="-2.973260"><ele>229</ele><time>2020-08-11T11:18:32Z</time><name>PT3295</name></trkpt>
<trkpt lat="54.657156" lon="-2.973277"><ele>228</ele><time>2020-08-11T11:18:33Z</time><name>PT3296</name></trkpt>
<trkpt lat="54.657152" lon="-2.973301"><ele>229</ele><time>2020-08-11T11:18:34Z</time><name>PT3297</name></trkpt>
<trkpt lat="54.657147" lon="-2.973315"><ele>228</ele><time>2020-08-11T11:18:35Z</time><name>PT3298</name></trkpt>
<trkpt lat="54.657143" lon="-2.973329"><ele>228</ele><time>2020-08-11T11:18:36Z</time><name>PT3299</name></trkpt>
<trkpt lat="54.657138" lon="-2.973346"><ele>228</ele><time>2020-08-11T11:18:37Z</time><name>PT3300</name></trkpt>
<trkpt lat="54.657131" lon="-2.973367"><ele>228</ele><time>2020-08-11T11:18:38Z</time><name>PT3301</name></trkpt>
<trkpt lat="54.657130" lon="-2.973383"><ele>229</ele><time>2020-08-11T11:18:39Z</time><name>PT3302</name></trkpt>
<trkpt lat="54.657125" lon="-2.973397"><ele>229</ele><time>2020-08-11T11:18:40Z</time><name>PT3303</name></trkpt>
<trkpt lat="54.657119" lon="-2.973416"><ele>228</ele><time>2020-08-11T11:18:41Z</time><name>PT3304</name></trkpt>
<trkpt lat="54.657112" lon="-2.973439"><ele>228</ele><time>2020-08-11T11:18:42Z</time><name>PT3305</name></trkpt>
<trkpt lat="54.657108" lon="-2.973457"><ele>228</ele><time>2020-08-11T11:18:43Z</time><name>PT3306</name></trkpt>
<trkpt lat="54.657106" lon="-2.973470"><ele>228</ele><time>2020-08-11T11:18:44Z</time><name>PT3307</name></trkpt>
<trkpt lat="54.657103" lon="-2.973487"><ele>228</ele><time>2020-08-11T11:18:45Z</time><name>PT3308</name></trkpt>
<trkpt lat="54.657097" lon="-2.973508"><ele>228</ele><time>2020-08-11T11:18:46Z</time><name>PT3309</name></trkpt>
<trkpt lat="54.657089" lon="-2.973528"><ele>228</ele><time>2020-08-11T11:18:47Z</time><name>PT3310</name></trkpt>
<trkpt lat="54.657088" lon="-2.973544"><ele>228</ele><time>2020-08-11T11:18:48Z</time><name>PT3311</name></trkpt>
<trkpt lat="54.657086" lon="-2.973563"><ele>228</ele><time>2020-08-11T11:18:49Z</time><name>PT3312</name></trkpt>
<trkpt lat="54.657084" lon="-2.973584"><ele>228</ele><time>2020-08-11T11:18:50Z</time><name>PT3313</name></trkpt>
<trkpt lat="54.657081" lon="-2.973604"><ele>228</ele><time>2020-08-11T11:18:51Z</time><name>PT3314</name></trkpt>
<trkpt lat="54.657078" lon="-2.973619"><ele>228</ele><time>2020-08-11T11:18:52Z</time><name>PT3315</name></trkpt>
<trkpt lat="54.657078" lon="-2.973633"><ele>228</ele><time>2020-08-11T11:18:53Z</time><name>PT3316</name></trkpt>
<trkpt lat="54.657078" lon="-2.973653"><ele>228</ele><time>2020-08-11T11:18:54Z</time><name>PT3317</name></trkpt>
<trkpt lat="54.657075" lon="-2.973675"><ele>228</ele><time>2020-08-11T11:18:55Z</time><name>PT3318</name></trkpt>
<trkpt lat="54.657073" lon="-2.973687"><ele>228</ele><time>2020-08-11T11:18:56Z</time><name>PT3319</name></trkpt>
<trkpt lat="54.657072" lon="-2.973704"><ele>228</ele><time>2020-08-11T11:18:57Z</time><name>PT3320</name></trkpt>
<trkpt lat="54.657075" lon="-2.973724"><ele>228</ele><time>2020-08-11T11:18:58Z</time><name>PT3321</name></trkpt>
<trkpt lat="54.657075" lon="-2.973745"><ele>228</ele><time>2020-08-11T11:18:59Z</time><name>PT3322</name></trkpt>
<trkpt lat="54.657074" lon="-2.973760"><ele>228</ele><time>2020-08-11T11:19:00Z</time><name>PT3323</name></trkpt>
<trkpt lat="54.657070" lon="-2.973777"><ele>228</ele><time>2020-08-11T11:19:01Z</time><name>PT3324</name></trkpt>
<trkpt lat="54.657069" lon="-2.973801"><ele>228</ele><time>2020-08-11T11:19:02Z</time><name>PT3325</name></trkpt>
<trkpt lat="54.657069" lon="-2.973820"><ele>229</ele><time>2020-08-11T11:19:03Z</time><name>PT3326</name></trkpt>
<trkpt lat="54.657067" lon="-2.973835"><ele>229</ele><time>2020-08-11T11:19:04Z</time><name>PT3327</name></trkpt>
<trkpt lat="54.657063" lon="-2.973852"><ele>229</ele><time>2020-08-11T11:19:05Z</time><name>PT3328</name></trkpt>
<trkpt lat="54.657059" lon="-2.973869"><ele>229</ele><time>2020-08-11T11:19:06Z</time><name>PT3329</name></trkpt>
<trkpt lat="54.657058" lon="-2.973880"><ele>229</ele><time>2020-08-11T11:19:07Z</time><name>PT3330</name></trkpt>
<trkpt lat="54.657055" lon="-2.973897"><ele>229</ele><time>2020-08-11T11:19:08Z</time><name>PT3331</name></trkpt>
<trkpt lat="54.657048" lon="-2.973918"><ele>229</ele><time>2020-08-11T11:19:09Z</time><name>PT3332</name></trkpt>
<trkpt lat="54.657044" lon="-2.973934"><ele>229</ele><time>2020-08-11T11:19:10Z</time><name>PT3333</name></trkpt>
<trkpt lat="54.657044" lon="-2.973948"><ele>228</ele><time>2020-08-11T11:19:11Z</time><name>PT3334</name></trkpt>
<trkpt lat="54.657042" lon="-2.973965"><ele>228</ele><time>2020-08-11T11:19:12Z</time><name>PT3335</name></trkpt>
<trkpt lat="54.657039" lon="-2.973988"><ele>229</ele><time>2020-08-11T11:19:13Z</time><name>PT3336</name></trkpt>
<trkpt lat="54.657036" lon="-2.974001"><ele>229</ele><time>2020-08-11T11:19:14Z</time><name>PT3337</name></trkpt>
<trkpt lat="54.657032" lon="-2.974015"><ele>229</ele><time>2020-08-11T11:19:15Z</time><name>PT3338</name></trkpt>
<trkpt lat="54.657029" lon="-2.974035"><ele>228</ele><time>2020-08-11T11:19:16Z</time><name>PT3339</name></trkpt>
<trkpt lat="54.657025" lon="-2.974058"><ele>229</ele><time>2020-08-11T11:19:17Z</time><name>PT3340</name></trkpt>
<trkpt lat="54.657025" lon="-2.974073"><ele>229</ele><time>2020-08-11T11:19:18Z</time><name>PT3341</name></trkpt>
<trkpt lat="54.657021" lon="-2.974088"><ele>228</ele><time>2020-08-11T11:19:19Z</time><name>PT3342</name></trkpt>
<trkpt lat="54.657015" lon="-2.974112"><ele>228</ele><time>2020-08-11T11:19:20Z</time><name>PT3343</name></trkpt>
<trkpt lat="54.657011" lon="-2.974132"><ele>229</ele><time>2020-08-11T11:19:21Z</time><name>PT3344</name></trkpt>
<trkpt lat="54.657010" lon="-2.974145"><ele>229</ele><time>2020-08-11T11:19:22Z</time><name>PT3345</name></trkpt>
<trkpt lat="54.657008" lon="-2.974159"><ele>228</ele><time>2020-08-11T11:19:23Z</time><name>PT3346</name></trkpt>
<trkpt lat="54.656999" lon="-2.974179"><ele>229</ele><time>2020-08-11T11:19:24Z</time><name>PT3347</name></trkpt>
<trkpt lat="54.656993" lon="-2.974200"><ele>229</ele><time>2020-08-11T11:19:25Z</time><name>PT3348</name></trkpt>
<trkpt lat="54.656992" lon="-2.974214"><ele>229</ele><time>2020-08-11T11:19:26Z</time><name>PT3349</name></trkpt>
<trkpt lat="54.656989" lon="-2.974231"><ele>229</ele><time>2020-08-11T11:19:27Z</time><name>PT3350</name></trkpt>
<trkpt lat="54.656985" lon="-2.974253"><ele>229</ele><time>2020-08-11T11:19:28Z</time><name>PT3351</name></trkpt>
<trkpt lat="54.656979" lon="-2.974269"><ele>229</ele><time>2020-08-11T11:19:29Z</time><name>PT3352</name></trkpt>
<trkpt lat="54.656976" lon="-2.974282"><ele>229</ele><time>2020-08-11T11:19:30Z</time><name>PT3353</name></trkpt>
<trkpt lat="54.656968" lon="-2.974295"><ele>229</ele><time>2020-08-11T11:19:31Z</time><name>PT3354</name></trkpt>
<trkpt lat="54.656961" lon="-2.974315"><ele>229</ele><time>2020-08-11T11:19:32Z</time><name>PT3355</name></trkpt>
<trkpt lat="54.656955" lon="-2.974333"><ele>229</ele><time>2020-08-11T11:19:33Z</time><name>PT3356</name></trkpt>
<trkpt lat="54.656950" lon="-2.974344"><ele>229</ele><time>2020-08-11T11:19:34Z</time><name>PT3357</name></trkpt>
<trkpt lat="54.656942" lon="-2.974358"><ele>229</ele><time>2020-08-11T11:19:35Z</time><name>PT3358</name></trkpt>
<trkpt lat="54.656937" lon="-2.974382"><ele>229</ele><time>2020-08-11T11:19:36Z</time><name>PT3359</name></trkpt>
<trkpt lat="54.656930" lon="-2.974400"><ele>228</ele><time>2020-08-11T11:19:37Z</time><name>PT3360</name></trkpt>
<trkpt lat="54.656927" lon="-2.974412"><ele>229</ele><time>2020-08-11T11:19:38Z</time><name>PT3361</name></trkpt>
<trkpt lat="54.656923" lon="-2.974429"><ele>228</ele><time>2020-08-11T11:19:39Z</time><name>PT3362</name></trkpt>
<trkpt lat="54.656918" lon="-2.974449"><ele>229</ele><time>2020-08-11T11:19:40Z</time><name>PT3363</name></trkpt>
<trkpt lat="54.656912" lon="-2.974468"><ele>229</ele><time>2020-08-11T11:19:41Z</time><name>PT3364</name></trkpt>
<trkpt lat="54.656912" lon="-2.974482"><ele>229</ele><time>2020-08-11T11:19:42Z</time><name>PT3365</name></trkpt>
<trkpt lat="54.656908" lon="-2.974498"><ele>229</ele><time>2020-08-11T11:19:43Z</time><name>PT3366</name></trkpt>
<trkpt lat="54.656906" lon="-2.974519"><ele>229</ele><time>2020-08-11T11:19:44Z</time><name>PT3367</name></trkpt>
<trkpt lat="54.656903" lon="-2.974537"><ele>229</ele><time>2020-08-11T11:19:45Z</time><name>PT3368</name></trkpt>
<trkpt lat="54.656900" lon="-2.974550"><ele>228</ele><time>2020-08-11T11:19:46Z</time><name>PT3369</name></trkpt>
<trkpt lat="54.656894" lon="-2.974567"><ele>228</ele><time>2020-08-11T11:19:47Z</time><name>PT3370</name></trkpt>
<trkpt lat="54.656888" lon="-2.974588"><ele>228</ele><time>2020-08-11T11:19:48Z</time><name>PT3371</name></trkpt>
<trkpt lat="54.656884" lon="-2.974609"><ele>228</ele><time>2020-08-11T11:19:49Z</time><name>PT3372</name></trkpt>
<trkpt lat="54.656883" lon="-2.974623"><ele>229</ele><time>2020-08-11T11:19:50Z</time><name>PT3373</name></trkpt>
<trkpt lat="54.656880" lon="-2.974639"><ele>228</ele><time>2020-08-11T11:19:51Z</time><name>PT3374</name></trkpt>
<trkpt lat="54.656877" lon="-2.974663"><ele>229</ele><time>2020-08-11T11:19:52Z</time><name>PT3375</name></trkpt>
<trkpt lat="54.656874" lon="-2.974681"><ele>229</ele><time>2020-08-11T11:19:53Z</time><name>PT3376</name></trkpt>
<trkpt lat="54.656874" lon="-2.974691"><ele>229</ele><time>2020-08-11T11:19:54Z</time><name>PT3377</name></trkpt>
<trkpt lat="54.656872" lon="-2.974707"><ele>229</ele><time>2020-08-11T11:19:55Z</time><name>PT3378</name></trkpt>
<trkpt lat="54.656867" lon="-2.974728"><ele>230</ele><time>2020-08-11T11:19:56Z</time><name>PT3379</name></trkpt>
<trkpt lat="54.656864" lon="-2.974748"><ele>230</ele><time>2020-08-11T11:19:57Z</time><name>PT3380</name></trkpt>
<trkpt lat="54.656861" lon="-2.974761"><ele>230</ele><time>2020-08-11T11:19:58Z</time><name>PT3381</name></trkpt>
<trkpt lat="54.656857" lon="-2.974778"><ele>230</ele><time>2020-08-11T11:19:59Z</time><name>PT3382</name></trkpt>
<trkpt lat="54.656851" lon="-2.974799"><ele>230</ele><time>2020-08-11T11:20:00Z</time><name>PT3383</name></trkpt>
<trkpt lat="54.656845" lon="-2.974818"><ele>230</ele><time>2020-08-11T11:20:01Z</time><name>PT3384</name></trkpt>
<trkpt lat="54.656828" lon="-2.974886"><ele>230</ele><time>2020-08-11T11:20:05Z</time><name>PT3385</name></trkpt>
<trkpt lat="54.656822" lon="-2.974939"><ele>230</ele><time>2020-08-11T11:20:08Z</time><name>PT3386</name></trkpt>
<trkpt lat="54.656810" lon="-2.974991"><ele>230</ele><time>2020-08-11T11:20:11Z</time><name>PT3387</name></trkpt>
<trkpt lat="54.656799" lon="-2.975048"><ele>230</ele><time>2020-08-11T11:20:14Z</time><name>PT3388</name></trkpt>
<trkpt lat="54.656788" lon="-2.975102"><ele>230</ele><time>2020-08-11T11:20:17Z</time><name>PT3389</name></trkpt>
<trkpt lat="54.656769" lon="-2.975167"><ele>230</ele><time>2020-08-11T11:20:21Z</time><name>PT3390</name></trkpt>
<trkpt lat="54.656756" lon="-2.975214"><ele>230</ele><time>2020-08-11T11:20:24Z</time><name>PT3391</name></trkpt>
<trkpt lat="54.656753" lon="-2.975224"><ele>230</ele><time>2020-08-11T11:20:27Z</time><name>PT3392</name></trkpt>
<trkpt lat="54.656742" lon="-2.975296"><ele>230</ele><time>2020-08-11T11:20:39Z</time><name>PT3393</name></trkpt>
<trkpt lat="54.656735" lon="-2.975335"><ele>230</ele><time>2020-08-11T11:20:43Z</time><name>PT3394</name></trkpt>
<trkpt lat="54.656717" lon="-2.975383"><ele>230</ele><time>2020-08-11T11:20:47Z</time><name>PT3395</name></trkpt>
<trkpt lat="54.656705" lon="-2.975429"><ele>230</ele><time>2020-08-11T11:20:51Z</time><name>PT3396</name></trkpt>
<trkpt lat="54.656700" lon="-2.975450"><ele>230</ele><time>2020-08-11T11:20:54Z</time><name>PT3397</name></trkpt>
<trkpt lat="54.656696" lon="-2.975454"><ele>230</ele><time>2020-08-11T11:20:57Z</time><name>PT3398</name></trkpt>
<trkpt lat="54.656696" lon="-2.975459"><ele>230</ele><time>2020-08-11T11:21:00Z</time><name>PT3399</name></trkpt>
<trkpt lat="54.656699" lon="-2.975495"><ele>230</ele><time>2020-08-11T11:21:03Z</time><name>PT3400</name></trkpt>
<trkpt lat="54.656681" lon="-2.975585"><ele>230</ele><time>2020-08-11T11:21:07Z</time><name>PT3401</name></trkpt>
<trkpt lat="54.656682" lon="-2.975591"><ele>230</ele><time>2020-08-11T11:21:10Z</time><name>PT3402</name></trkpt>
<trkpt lat="54.656669" lon="-2.975606"><ele>232</ele><time>2020-08-11T11:21:12Z</time><name>PT3403</name></trkpt>
<trkpt lat="54.656669" lon="-2.975623"><ele>232</ele><time>2020-08-11T11:21:13Z</time><name>PT3404</name></trkpt>
<trkpt lat="54.656665" lon="-2.975641"><ele>232</ele><time>2020-08-11T11:21:14Z</time><name>PT3405</name></trkpt>
<trkpt lat="54.656660" lon="-2.975657"><ele>232</ele><time>2020-08-11T11:21:15Z</time><name>PT3406</name></trkpt>
<trkpt lat="54.656657" lon="-2.975675"><ele>232</ele><time>2020-08-11T11:21:16Z</time><name>PT3407</name></trkpt>
<trkpt lat="54.656654" lon="-2.975691"><ele>232</ele><time>2020-08-11T11:21:17Z</time><name>PT3408</name></trkpt>
<trkpt lat="54.656649" lon="-2.975709"><ele>232</ele><time>2020-08-11T11:21:18Z</time><name>PT3409</name></trkpt>
<trkpt lat="54.656647" lon="-2.975721"><ele>232</ele><time>2020-08-11T11:21:19Z</time><name>PT3410</name></trkpt>
<trkpt lat="54.656646" lon="-2.975737"><ele>232</ele><time>2020-08-11T11:21:20Z</time><name>PT3411</name></trkpt>
<trkpt lat="54.656643" lon="-2.975760"><ele>232</ele><time>2020-08-11T11:21:21Z</time><name>PT3412</name></trkpt>
<trkpt lat="54.656641" lon="-2.975780"><ele>232</ele><time>2020-08-11T11:21:21Z</time><name>PT3413</name></trkpt>
<trkpt lat="54.656640" lon="-2.975794"><ele>233</ele><time>2020-08-11T11:21:23Z</time><name>PT3414</name></trkpt>
<trkpt lat="54.656638" lon="-2.975812"><ele>233</ele><time>2020-08-11T11:21:24Z</time><name>PT3415</name></trkpt>
<trkpt lat="54.656633" lon="-2.975834"><ele>233</ele><time>2020-08-11T11:21:24Z</time><name>PT3416</name></trkpt>
<trkpt lat="54.656629" lon="-2.975855"><ele>233</ele><time>2020-08-11T11:21:26Z</time><name>PT3417</name></trkpt>
<trkpt lat="54.656626" lon="-2.975871"><ele>233</ele><time>2020-08-11T11:21:27Z</time><name>PT3418</name></trkpt>
<trkpt lat="54.656625" lon="-2.975892"><ele>233</ele><time>2020-08-11T11:21:28Z</time><name>PT3419</name></trkpt>
<trkpt lat="54.656622" lon="-2.975918"><ele>233</ele><time>2020-08-11T11:21:29Z</time><name>PT3420</name></trkpt>
<trkpt lat="54.656616" lon="-2.975941"><ele>233</ele><time>2020-08-11T11:21:30Z</time><name>PT3421</name></trkpt>
<trkpt lat="54.656615" lon="-2.975956"><ele>233</ele><time>2020-08-11T11:21:31Z</time><name>PT3422</name></trkpt>
<trkpt lat="54.656612" lon="-2.975974"><ele>233</ele><time>2020-08-11T11:21:32Z</time><name>PT3423</name></trkpt>
<trkpt lat="54.656607" lon="-2.975996"><ele>233</ele><time>2020-08-11T11:21:33Z</time><name>PT3424</name></trkpt>
<trkpt lat="54.656601" lon="-2.976015"><ele>233</ele><time>2020-08-11T11:21:34Z</time><name>PT3425</name></trkpt>
<trkpt lat="54.656597" lon="-2.976025"><ele>233</ele><time>2020-08-11T11:21:35Z</time><name>PT3426</name></trkpt>
<trkpt lat="54.656593" lon="-2.976042"><ele>232</ele><time>2020-08-11T11:21:36Z</time><name>PT3427</name></trkpt>
<trkpt lat="54.656588" lon="-2.976066"><ele>233</ele><time>2020-08-11T11:21:37Z</time><name>PT3428</name></trkpt>
<trkpt lat="54.656580" lon="-2.976087"><ele>233</ele><time>2020-08-11T11:21:38Z</time><name>PT3429</name></trkpt>
<trkpt lat="54.656576" lon="-2.976098"><ele>233</ele><time>2020-08-11T11:21:39Z</time><name>PT3430</name></trkpt>
<trkpt lat="54.656572" lon="-2.976116"><ele>233</ele><time>2020-08-11T11:21:40Z</time><name>PT3431</name></trkpt>
<trkpt lat="54.656566" lon="-2.976138"><ele>233</ele><time>2020-08-11T11:21:41Z</time><name>PT3432</name></trkpt>
<trkpt lat="54.656559" lon="-2.976161"><ele>233</ele><time>2020-08-11T11:21:42Z</time><name>PT3433</name></trkpt>
<trkpt lat="54.656556" lon="-2.976177"><ele>233</ele><time>2020-08-11T11:21:43Z</time><name>PT3434</name></trkpt>
<trkpt lat="54.656553" lon="-2.976192"><ele>233</ele><time>2020-08-11T11:21:44Z</time><name>PT3435</name></trkpt>
<trkpt lat="54.656547" lon="-2.976209"><ele>233</ele><time>2020-08-11T11:21:45Z</time><name>PT3436</name></trkpt>
<trkpt lat="54.656542" lon="-2.976231"><ele>233</ele><time>2020-08-11T11:21:46Z</time><name>PT3437</name></trkpt>
<trkpt lat="54.656539" lon="-2.976245"><ele>233</ele><time>2020-08-11T11:21:47Z</time><name>PT3438</name></trkpt>
<trkpt lat="54.656535" lon="-2.976262"><ele>233</ele><time>2020-08-11T11:21:48Z</time><name>PT3439</name></trkpt>
<trkpt lat="54.656528" lon="-2.976282"><ele>233</ele><time>2020-08-11T11:21:49Z</time><name>PT3440</name></trkpt>
<trkpt lat="54.656522" lon="-2.976305"><ele>232</ele><time>2020-08-11T11:21:50Z</time><name>PT3441</name></trkpt>
<trkpt lat="54.656518" lon="-2.976321"><ele>232</ele><time>2020-08-11T11:21:51Z</time><name>PT3442</name></trkpt>
<trkpt lat="54.656516" lon="-2.976338"><ele>233</ele><time>2020-08-11T11:21:52Z</time><name>PT3443</name></trkpt>
<trkpt lat="54.656511" lon="-2.976358"><ele>233</ele><time>2020-08-11T11:21:53Z</time><name>PT3444</name></trkpt>
<trkpt lat="54.656507" lon="-2.976383"><ele>233</ele><time>2020-08-11T11:21:54Z</time><name>PT3445</name></trkpt>
<trkpt lat="54.656502" lon="-2.976409"><ele>233</ele><time>2020-08-11T11:21:55Z</time><name>PT3446</name></trkpt>
<trkpt lat="54.656500" lon="-2.976423"><ele>233</ele><time>2020-08-11T11:21:56Z</time><name>PT3447</name></trkpt>
<trkpt lat="54.656499" lon="-2.976441"><ele>233</ele><time>2020-08-11T11:21:57Z</time><name>PT3448</name></trkpt>
<trkpt lat="54.656496" lon="-2.976461"><ele>233</ele><time>2020-08-11T11:21:57Z</time><name>PT3449</name></trkpt>
<trkpt lat="54.656490" lon="-2.976483"><ele>233</ele><time>2020-08-11T11:21:59Z</time><name>PT3450</name></trkpt>
<trkpt lat="54.656487" lon="-2.976503"><ele>233</ele><time>2020-08-11T11:22:00Z</time><name>PT3451</name></trkpt>
<trkpt lat="54.656487" lon="-2.976518"><ele>233</ele><time>2020-08-11T11:22:01Z</time><name>PT3452</name></trkpt>
<trkpt lat="54.656488" lon="-2.976535"><ele>232</ele><time>2020-08-11T11:22:02Z</time><name>PT3453</name></trkpt>
<trkpt lat="54.656487" lon="-2.976555"><ele>232</ele><time>2020-08-11T11:22:03Z</time><name>PT3454</name></trkpt>
<trkpt lat="54.656483" lon="-2.976579"><ele>232</ele><time>2020-08-11T11:22:03Z</time><name>PT3455</name></trkpt>
<trkpt lat="54.656481" lon="-2.976600"><ele>232</ele><time>2020-08-11T11:22:05Z</time><name>PT3456</name></trkpt>
<trkpt lat="54.656482" lon="-2.976615"><ele>232</ele><time>2020-08-11T11:22:06Z</time><name>PT3457</name></trkpt>
<trkpt lat="54.656477" lon="-2.976633"><ele>232</ele><time>2020-08-11T11:22:07Z</time><name>PT3458</name></trkpt>
<trkpt lat="54.656472" lon="-2.976659"><ele>232</ele><time>2020-08-11T11:22:08Z</time><name>PT3459</name></trkpt>
<trkpt lat="54.656470" lon="-2.976688"><ele>231</ele><time>2020-08-11T11:22:09Z</time><name>PT3460</name></trkpt>
<trkpt lat="54.656469" lon="-2.976707"><ele>231</ele><time>2020-08-11T11:22:10Z</time><name>PT3461</name></trkpt>
<trkpt lat="54.656467" lon="-2.976720"><ele>231</ele><time>2020-08-11T11:22:11Z</time><name>PT3462</name></trkpt>
<trkpt lat="54.656467" lon="-2.976740"><ele>231</ele><time>2020-08-11T11:22:12Z</time><name>PT3463</name></trkpt>
<trkpt lat="54.656472" lon="-2.976764"><ele>231</ele><time>2020-08-11T11:22:13Z</time><name>PT3464</name></trkpt>
<trkpt lat="54.656476" lon="-2.976791"><ele>231</ele><time>2020-08-11T11:22:14Z</time><name>PT3465</name></trkpt>
<trkpt lat="54.656477" lon="-2.976803"><ele>231</ele><time>2020-08-11T11:22:15Z</time><name>PT3466</name></trkpt>
<trkpt lat="54.656475" lon="-2.976806"><ele>230</ele><time>2020-08-11T11:22:16Z</time><name>PT3467</name></trkpt>
<trkpt lat="54.656476" lon="-2.976806"><ele>230</ele><time>2020-08-11T11:22:17Z</time><name>PT3468</name></trkpt>
<trkpt lat="54.656476" lon="-2.976808"><ele>229</ele><time>2020-08-11T11:22:18Z</time><name>PT3469</name></trkpt>
<trkpt lat="54.656476" lon="-2.976817"><ele>230</ele><time>2020-08-11T11:22:29Z</time><name>PT3470</name></trkpt>
<trkpt lat="54.656473" lon="-2.976818"><ele>229</ele><time>2020-08-11T11:22:30Z</time><name>PT3471</name></trkpt>
<trkpt lat="54.656472" lon="-2.976820"><ele>229</ele><time>2020-08-11T11:22:30Z</time><name>PT3472</name></trkpt>
<trkpt lat="54.656470" lon="-2.976835"><ele>230</ele><time>2020-08-11T11:22:35Z</time><name>PT3473</name></trkpt>
<trkpt lat="54.656470" lon="-2.976852"><ele>230</ele><time>2020-08-11T11:22:36Z</time><name>PT3474</name></trkpt>
<trkpt lat="54.656474" lon="-2.976869"><ele>230</ele><time>2020-08-11T11:22:36Z</time><name>PT3475</name></trkpt>
<trkpt lat="54.656474" lon="-2.976895"><ele>231</ele><time>2020-08-11T11:22:38Z</time><name>PT3476</name></trkpt>
<trkpt lat="54.656475" lon="-2.976919"><ele>231</ele><time>2020-08-11T11:22:39Z</time><name>PT3477</name></trkpt>
<trkpt lat="54.656476" lon="-2.976935"><ele>231</ele><time>2020-08-11T11:22:40Z</time><name>PT3478</name></trkpt>
<trkpt lat="54.656477" lon="-2.976949"><ele>231</ele><time>2020-08-11T11:22:41Z</time><name>PT3479</name></trkpt>
<trkpt lat="54.656481" lon="-2.976969"><ele>231</ele><time>2020-08-11T11:22:42Z</time><name>PT3480</name></trkpt>
<trkpt lat="54.656479" lon="-2.976991"><ele>231</ele><time>2020-08-11T11:22:42Z</time><name>PT3481</name></trkpt>
<trkpt lat="54.656477" lon="-2.977010"><ele>231</ele><time>2020-08-11T11:22:44Z</time><name>PT3482</name></trkpt>
<trkpt lat="54.656476" lon="-2.977026"><ele>231</ele><time>2020-08-11T11:22:45Z</time><name>PT3483</name></trkpt>
<trkpt lat="54.656474" lon="-2.977043"><ele>231</ele><time>2020-08-11T11:22:45Z</time><name>PT3484</name></trkpt>
<trkpt lat="54.656471" lon="-2.977064"><ele>230</ele><time>2020-08-11T11:22:47Z</time><name>PT3485</name></trkpt>
<trkpt lat="54.656474" lon="-2.977090"><ele>230</ele><time>2020-08-11T11:22:48Z</time><name>PT3486</name></trkpt>
<trkpt lat="54.656476" lon="-2.977115"><ele>230</ele><time>2020-08-11T11:22:48Z</time><name>PT3487</name></trkpt>
<trkpt lat="54.656479" lon="-2.977134"><ele>230</ele><time>2020-08-11T11:22:50Z</time><name>PT3488</name></trkpt>
<trkpt lat="54.656480" lon="-2.977146"><ele>231</ele><time>2020-08-11T11:22:51Z</time><name>PT3489</name></trkpt>
<trkpt lat="54.656482" lon="-2.977167"><ele>231</ele><time>2020-08-11T11:22:52Z</time><name>PT3490</name></trkpt>
<trkpt lat="54.656486" lon="-2.977191"><ele>231</ele><time>2020-08-11T11:22:53Z</time><name>PT3491</name></trkpt>
<trkpt lat="54.656492" lon="-2.977217"><ele>232</ele><time>2020-08-11T11:22:54Z</time><name>PT3492</name></trkpt>
<trkpt lat="54.656495" lon="-2.977239"><ele>232</ele><time>2020-08-11T11:22:54Z</time><name>PT3493</name></trkpt>
<trkpt lat="54.656496" lon="-2.977251"><ele>231</ele><time>2020-08-11T11:22:56Z</time><name>PT3494</name></trkpt>
<trkpt lat="54.656498" lon="-2.977269"><ele>231</ele><time>2020-08-11T11:22:57Z</time><name>PT3495</name></trkpt>
<trkpt lat="54.656502" lon="-2.977291"><ele>231</ele><time>2020-08-11T11:22:57Z</time><name>PT3496</name></trkpt>
<trkpt lat="54.656502" lon="-2.977318"><ele>231</ele><time>2020-08-11T11:22:59Z</time><name>PT3497</name></trkpt>
<trkpt lat="54.656500" lon="-2.977344"><ele>231</ele><time>2020-08-11T11:23:00Z</time><name>PT3498</name></trkpt>
<trkpt lat="54.656502" lon="-2.977362"><ele>232</ele><time>2020-08-11T11:23:01Z</time><name>PT3499</name></trkpt>
<trkpt lat="54.656502" lon="-2.977377"><ele>232</ele><time>2020-08-11T11:23:02Z</time><name>PT3500</name></trkpt>
<trkpt lat="54.656499" lon="-2.977396"><ele>232</ele><time>2020-08-11T11:23:03Z</time><name>PT3501</name></trkpt>
<trkpt lat="54.656496" lon="-2.977416"><ele>232</ele><time>2020-08-11T11:23:03Z</time><name>PT3502</name></trkpt>
<trkpt lat="54.656494" lon="-2.977441"><ele>232</ele><time>2020-08-11T11:23:05Z</time><name>PT3503</name></trkpt>
<trkpt lat="54.656492" lon="-2.977464"><ele>232</ele><time>2020-08-11T11:23:06Z</time><name>PT3504</name></trkpt>
<trkpt lat="54.656493" lon="-2.977480"><ele>232</ele><time>2020-08-11T11:23:06Z</time><name>PT3505</name></trkpt>
<trkpt lat="54.656492" lon="-2.977498"><ele>232</ele><time>2020-08-11T11:23:08Z</time><name>PT3506</name></trkpt>
<trkpt lat="54.656490" lon="-2.977520"><ele>232</ele><time>2020-08-11T11:23:09Z</time><name>PT3507</name></trkpt>
<trkpt lat="54.656489" lon="-2.977546"><ele>232</ele><time>2020-08-11T11:23:09Z</time><name>PT3508</name></trkpt>
<trkpt lat="54.656488" lon="-2.977572"><ele>232</ele><time>2020-08-11T11:23:11Z</time><name>PT3509</name></trkpt>
<trkpt lat="54.656488" lon="-2.977586"><ele>231</ele><time>2020-08-11T11:23:12Z</time><name>PT3510</name></trkpt>
<trkpt lat="54.656490" lon="-2.977603"><ele>231</ele><time>2020-08-11T11:23:12Z</time><name>PT3511</name></trkpt>
<trkpt lat="54.656493" lon="-2.977624"><ele>232</ele><time>2020-08-11T11:23:14Z</time><name>PT3512</name></trkpt>
<trkpt lat="54.656494" lon="-2.977646"><ele>231</ele><time>2020-08-11T11:23:15Z</time><name>PT3513</name></trkpt>
<trkpt lat="54.656495" lon="-2.977668"><ele>231</ele><time>2020-08-11T11:23:16Z</time><name>PT3514</name></trkpt>
<trkpt lat="54.656498" lon="-2.977685"><ele>232</ele><time>2020-08-11T11:23:17Z</time><name>PT3515</name></trkpt>
<trkpt lat="54.656497" lon="-2.977702"><ele>231</ele><time>2020-08-11T11:23:18Z</time><name>PT3516</name></trkpt>
<trkpt lat="54.656495" lon="-2.977725"><ele>231</ele><time>2020-08-11T11:23:18Z</time><name>PT3517</name></trkpt>
<trkpt lat="54.656494" lon="-2.977749"><ele>230</ele><time>2020-08-11T11:23:20Z</time><name>PT3518</name></trkpt>
<trkpt lat="54.656492" lon="-2.977772"><ele>231</ele><time>2020-08-11T11:23:21Z</time><name>PT3519</name></trkpt>
<trkpt lat="54.656489" lon="-2.977784"><ele>230</ele><time>2020-08-11T11:23:22Z</time><name>PT3520</name></trkpt>
<trkpt lat="54.656487" lon="-2.977797"><ele>230</ele><time>2020-08-11T11:23:23Z</time><name>PT3521</name></trkpt>
<trkpt lat="54.656488" lon="-2.977816"><ele>229</ele><time>2020-08-11T11:23:24Z</time><name>PT3522</name></trkpt>
<trkpt lat="54.656488" lon="-2.977838"><ele>229</ele><time>2020-08-11T11:23:25Z</time><name>PT3523</name></trkpt>
<trkpt lat="54.656489" lon="-2.977858"><ele>229</ele><time>2020-08-11T11:23:26Z</time><name>PT3524</name></trkpt>
<trkpt lat="54.656489" lon="-2.977865"><ele>229</ele><time>2020-08-11T11:23:27Z</time><name>PT3525</name></trkpt>
<trkpt lat="54.656489" lon="-2.977866"><ele>229</ele><time>2020-08-11T11:23:28Z</time><name>PT3526</name></trkpt>
<trkpt lat="54.656490" lon="-2.977867"><ele>229</ele><time>2020-08-11T11:23:29Z</time><name>PT3527</name></trkpt>
<trkpt lat="54.656491" lon="-2.977866"><ele>229</ele><time>2020-08-11T11:23:48Z</time><name>PT3528</name></trkpt>
<trkpt lat="54.656486" lon="-2.977894"><ele>229</ele><time>2020-08-11T11:23:49Z</time><name>PT3529</name></trkpt>
<trkpt lat="54.656484" lon="-2.977925"><ele>229</ele><time>2020-08-11T11:23:50Z</time><name>PT3530</name></trkpt>
<trkpt lat="54.656483" lon="-2.977944"><ele>229</ele><time>2020-08-11T11:23:51Z</time><name>PT3531</name></trkpt>
<trkpt lat="54.656481" lon="-2.977960"><ele>229</ele><time>2020-08-11T11:23:52Z</time><name>PT3532</name></trkpt>
<trkpt lat="54.656480" lon="-2.977985"><ele>229</ele><time>2020-08-11T11:23:53Z</time><name>PT3533</name></trkpt>
<trkpt lat="54.656479" lon="-2.978008"><ele>229</ele><time>2020-08-11T11:23:54Z</time><name>PT3534</name></trkpt>
<trkpt lat="54.656481" lon="-2.978033"><ele>228</ele><time>2020-08-11T11:23:55Z</time><name>PT3535</name></trkpt>
<trkpt lat="54.656481" lon="-2.978054"><ele>228</ele><time>2020-08-11T11:23:56Z</time><name>PT3536</name></trkpt>
<trkpt lat="54.656481" lon="-2.978070"><ele>228</ele><time>2020-08-11T11:23:57Z</time><name>PT3537</name></trkpt>
<trkpt lat="54.656481" lon="-2.978093"><ele>228</ele><time>2020-08-11T11:23:58Z</time><name>PT3538</name></trkpt>
<trkpt lat="54.656482" lon="-2.978121"><ele>228</ele><time>2020-08-11T11:23:59Z</time><name>PT3539</name></trkpt>
<trkpt lat="54.656485" lon="-2.978148"><ele>228</ele><time>2020-08-11T11:24:00Z</time><name>PT3540</name></trkpt>
<trkpt lat="54.656487" lon="-2.978165"><ele>228</ele><time>2020-08-11T11:24:01Z</time><name>PT3541</name></trkpt>
<trkpt lat="54.656490" lon="-2.978177"><ele>228</ele><time>2020-08-11T11:24:02Z</time><name>PT3542</name></trkpt>
<trkpt lat="54.656493" lon="-2.978200"><ele>228</ele><time>2020-08-11T11:24:03Z</time><name>PT3543</name></trkpt>
<trkpt lat="54.656494" lon="-2.978221"><ele>228</ele><time>2020-08-11T11:24:03Z</time><name>PT3544</name></trkpt>
<trkpt lat="54.656494" lon="-2.978240"><ele>227</ele><time>2020-08-11T11:24:05Z</time><name>PT3545</name></trkpt>
<trkpt lat="54.656497" lon="-2.978248"><ele>227</ele><time>2020-08-11T11:24:06Z</time><name>PT3546</name></trkpt>
<trkpt lat="54.656496" lon="-2.978262"><ele>227</ele><time>2020-08-11T11:24:06Z</time><name>PT3547</name></trkpt>
<trkpt lat="54.656495" lon="-2.978270"><ele>228</ele><time>2020-08-11T11:24:08Z</time><name>PT3548</name></trkpt>
<trkpt lat="54.656495" lon="-2.978273"><ele>228</ele><time>2020-08-11T11:24:09Z</time><name>PT3549</name></trkpt>
<trkpt lat="54.656493" lon="-2.978281"><ele>228</ele><time>2020-08-11T11:24:10Z</time><name>PT3550</name></trkpt>
<trkpt lat="54.656491" lon="-2.978283"><ele>228</ele><time>2020-08-11T11:24:11Z</time><name>PT3551</name></trkpt>
<trkpt lat="54.656501" lon="-2.978292"><ele>230</ele><time>2020-08-11T11:24:14Z</time><name>PT3552</name></trkpt>
<trkpt lat="54.656496" lon="-2.978321"><ele>230</ele><time>2020-08-11T11:24:44Z</time><name>PT3553</name></trkpt>
<trkpt lat="54.656479" lon="-2.978396"><ele>231</ele><time>2020-08-11T11:24:48Z</time><name>PT3554</name></trkpt>
<trkpt lat="54.656473" lon="-2.978456"><ele>230</ele><time>2020-08-11T11:24:51Z</time><name>PT3555</name></trkpt>
<trkpt lat="54.656474" lon="-2.978538"><ele>231</ele><time>2020-08-11T11:24:55Z</time><name>PT3556</name></trkpt>
<trkpt lat="54.656484" lon="-2.978609"><ele>230</ele><time>2020-08-11T11:24:59Z</time><name>PT3557</name></trkpt>
<trkpt lat="54.656489" lon="-2.978667"><ele>229</ele><time>2020-08-11T11:25:02Z</time><name>PT3558</name></trkpt>
<trkpt lat="54.656493" lon="-2.978732"><ele>229</ele><time>2020-08-11T11:25:05Z</time><name>PT3559</name></trkpt>
<trkpt lat="54.656492" lon="-2.978809"><ele>230</ele><time>2020-08-11T11:25:09Z</time><name>PT3560</name></trkpt>
<trkpt lat="54.656490" lon="-2.978867"><ele>230</ele><time>2020-08-11T11:25:12Z</time><name>PT3561</name></trkpt>
<trkpt lat="54.656488" lon="-2.978931"><ele>230</ele><time>2020-08-11T11:25:15Z</time><name>PT3562</name></trkpt>
<trkpt lat="54.656485" lon="-2.978986"><ele>230</ele><time>2020-08-11T11:25:18Z</time><name>PT3563</name></trkpt>
<trkpt lat="54.656481" lon="-2.979063"><ele>230</ele><time>2020-08-11T11:25:21Z</time><name>PT3564</name></trkpt>
<trkpt lat="54.656474" lon="-2.979118"><ele>231</ele><time>2020-08-11T11:25:25Z</time><name>PT3565</name></trkpt>
<trkpt lat="54.656469" lon="-2.979199"><ele>230</ele><time>2020-08-11T11:25:29Z</time><name>PT3566</name></trkpt>
<trkpt lat="54.656461" lon="-2.979274"><ele>230</ele><time>2020-08-11T11:25:33Z</time><name>PT3567</name></trkpt>
<trkpt lat="54.656454" lon="-2.979335"><ele>230</ele><time>2020-08-11T11:25:36Z</time><name>PT3568</name></trkpt>
<trkpt lat="54.656453" lon="-2.979388"><ele>231</ele><time>2020-08-11T11:25:39Z</time><name>PT3569</name></trkpt>
<trkpt lat="54.656454" lon="-2.979450"><ele>230</ele><time>2020-08-11T11:25:42Z</time><name>PT3570</name></trkpt>
<trkpt lat="54.656448" lon="-2.979527"><ele>230</ele><time>2020-08-11T11:25:45Z</time><name>PT3571</name></trkpt>
<trkpt lat="54.656441" lon="-2.979581"><ele>229</ele><time>2020-08-11T11:25:48Z</time><name>PT3572</name></trkpt>
<trkpt lat="54.656439" lon="-2.979651"><ele>229</ele><time>2020-08-11T11:25:53Z</time><name>PT3573</name></trkpt>
<trkpt lat="54.656429" lon="-2.979721"><ele>228</ele><time>2020-08-11T11:25:57Z</time><name>PT3574</name></trkpt>
<trkpt lat="54.656420" lon="-2.979779"><ele>229</ele><time>2020-08-11T11:26:00Z</time><name>PT3575</name></trkpt>
<trkpt lat="54.656412" lon="-2.979857"><ele>229</ele><time>2020-08-11T11:26:04Z</time><name>PT3576</name></trkpt>
<trkpt lat="54.656411" lon="-2.979916"><ele>229</ele><time>2020-08-11T11:26:07Z</time><name>PT3577</name></trkpt>
<trkpt lat="54.656406" lon="-2.979994"><ele>229</ele><time>2020-08-11T11:26:11Z</time><name>PT3578</name></trkpt>
<trkpt lat="54.656398" lon="-2.980058"><ele>229</ele><time>2020-08-11T11:26:14Z</time><name>PT3579</name></trkpt>
<trkpt lat="54.656399" lon="-2.980108"><ele>229</ele><time>2020-08-11T11:26:17Z</time><name>PT3580</name></trkpt>
<trkpt lat="54.656392" lon="-2.980155"><ele>228</ele><time>2020-08-11T11:26:20Z</time><name>PT3581</name></trkpt>
<trkpt lat="54.656380" lon="-2.980227"><ele>227</ele><time>2020-08-11T11:26:24Z</time><name>PT3582</name></trkpt>
<trkpt lat="54.656362" lon="-2.980291"><ele>226</ele><time>2020-08-11T11:26:27Z</time><name>PT3583</name></trkpt>
<trkpt lat="54.656352" lon="-2.980333"><ele>226</ele><time>2020-08-11T11:26:30Z</time><name>PT3584</name></trkpt>
<trkpt lat="54.656344" lon="-2.980344"><ele>226</ele><time>2020-08-11T11:26:34Z</time><name>PT3585</name></trkpt>
<trkpt lat="54.656344" lon="-2.980345"><ele>226</ele><time>2020-08-11T11:26:37Z</time><name>PT3586</name></trkpt>
<trkpt lat="54.656347" lon="-2.980372"><ele>226</ele><time>2020-08-11T11:26:48Z</time><name>PT3587</name></trkpt>
<trkpt lat="54.656353" lon="-2.980446"><ele>226</ele><time>2020-08-11T11:26:51Z</time><name>PT3588</name></trkpt>
<trkpt lat="54.656361" lon="-2.980513"><ele>226</ele><time>2020-08-11T11:26:54Z</time><name>PT3589</name></trkpt>
<trkpt lat="54.656353" lon="-2.980551"><ele>227</ele><time>2020-08-11T11:26:58Z</time><name>PT3590</name></trkpt>
<trkpt lat="54.656342" lon="-2.980589"><ele>227</ele><time>2020-08-11T11:27:02Z</time><name>PT3591</name></trkpt>
<trkpt lat="54.656338" lon="-2.980590"><ele>228</ele><time>2020-08-11T11:27:06Z</time><name>PT3592</name></trkpt>
<trkpt lat="54.656343" lon="-2.980606"><ele>229</ele><time>2020-08-11T11:27:42Z</time><name>PT3593</name></trkpt>
<trkpt lat="54.656338" lon="-2.980686"><ele>229</ele><time>2020-08-11T11:27:45Z</time><name>PT3594</name></trkpt>
<trkpt lat="54.656329" lon="-2.980780"><ele>229</ele><time>2020-08-11T11:27:50Z</time><name>PT3595</name></trkpt>
<trkpt lat="54.656331" lon="-2.980860"><ele>229</ele><time>2020-08-11T11:27:54Z</time><name>PT3596</name></trkpt>
<trkpt lat="54.656323" lon="-2.980914"><ele>228</ele><time>2020-08-11T11:27:57Z</time><name>PT3597</name></trkpt>
<trkpt lat="54.656321" lon="-2.980978"><ele>228</ele><time>2020-08-11T11:28:00Z</time><name>PT3598</name></trkpt>
<trkpt lat="54.656314" lon="-2.981064"><ele>228</ele><time>2020-08-11T11:28:04Z</time><name>PT3599</name></trkpt>
<trkpt lat="54.656317" lon="-2.981145"><ele>229</ele><time>2020-08-11T11:28:08Z</time><name>PT3600</name></trkpt>
<trkpt lat="54.656314" lon="-2.981200"><ele>229</ele><time>2020-08-11T11:28:11Z</time><name>PT3601</name></trkpt>
<trkpt lat="54.656315" lon="-2.981266"><ele>228</ele><time>2020-08-11T11:28:15Z</time><name>PT3602</name></trkpt>
<trkpt lat="54.656317" lon="-2.981333"><ele>229</ele><time>2020-08-11T11:28:18Z</time><name>PT3603</name></trkpt>
<trkpt lat="54.656314" lon="-2.981413"><ele>228</ele><time>2020-08-11T11:28:22Z</time><name>PT3604</name></trkpt>
<trkpt lat="54.656316" lon="-2.981495"><ele>228</ele><time>2020-08-11T11:28:26Z</time><name>PT3605</name></trkpt>
<trkpt lat="54.656313" lon="-2.981571"><ele>228</ele><time>2020-08-11T11:28:30Z</time><name>PT3606</name></trkpt>
<trkpt lat="54.656303" lon="-2.981631"><ele>228</ele><time>2020-08-11T11:28:33Z</time><name>PT3607</name></trkpt>
<trkpt lat="54.656306" lon="-2.981703"><ele>227</ele><time>2020-08-11T11:28:37Z</time><name>PT3608</name></trkpt>
<trkpt lat="54.656306" lon="-2.981784"><ele>227</ele><time>2020-08-11T11:28:41Z</time><name>PT3609</name></trkpt>
<trkpt lat="54.656297" lon="-2.981824"><ele>227</ele><time>2020-08-11T11:28:45Z</time><name>PT3610</name></trkpt>
<trkpt lat="54.656298" lon="-2.981836"><ele>227</ele><time>2020-08-11T11:28:48Z</time><name>PT3611</name></trkpt>
<trkpt lat="54.656309" lon="-2.981868"><ele>226</ele><time>2020-08-11T11:28:51Z</time><name>PT3612</name></trkpt>
<trkpt lat="54.656361" lon="-2.981874"><ele>226</ele><time>2020-08-11T11:28:54Z</time><name>PT3613</name></trkpt>
<trkpt lat="54.656391" lon="-2.981885"><ele>226</ele><time>2020-08-11T11:28:58Z</time><name>PT3614</name></trkpt>
<trkpt lat="54.656445" lon="-2.981898"><ele>227</ele><time>2020-08-11T11:29:02Z</time><name>PT3615</name></trkpt>
<trkpt lat="54.656478" lon="-2.981913"><ele>226</ele><time>2020-08-11T11:29:05Z</time><name>PT3616</name></trkpt>
<trkpt lat="54.656526" lon="-2.981936"><ele>226</ele><time>2020-08-11T11:29:09Z</time><name>PT3617</name></trkpt>
<trkpt lat="54.656566" lon="-2.981950"><ele>227</ele><time>2020-08-11T11:29:13Z</time><name>PT3618</name></trkpt>
<trkpt lat="54.656569" lon="-2.981951"><ele>226</ele><time>2020-08-11T11:29:17Z</time><name>PT3619</name></trkpt>
<trkpt lat="54.656564" lon="-2.981932"><ele>226</ele><time>2020-08-11T11:29:27Z</time><name>PT3620</name></trkpt>
<trkpt lat="54.656565" lon="-2.981942"><ele>226</ele><time>2020-08-11T11:29:33Z</time><name>PT3621</name></trkpt>
<trkpt lat="54.656566" lon="-2.981940"><ele>225</ele><time>2020-08-11T11:29:38Z</time><name>PT3622</name></trkpt>
<trkpt lat="54.656569" lon="-2.981953"><ele>226</ele><time>2020-08-11T11:29:45Z</time><name>PT3623</name></trkpt>
<trkpt lat="54.656568" lon="-2.981954"><ele>226</ele><time>2020-08-11T11:29:45Z</time><name>PT3624</name></trkpt>
<trkpt lat="54.656568" lon="-2.981956"><ele>226</ele><time>2020-08-11T11:29:47Z</time><name>PT3625</name></trkpt></trkseg></trk></gpx>